<?xml version="1.0" encoding="UTF-8" standalone="no" ?>
<gpx xmlns="http://www.topografix.com/GPX/1/1" xmlns:xsi="http://www.w3.org/2001/XMLSchema-instance" xsi:schemaLocation="http://www.topografix.com/GPX/1/1 http://www.topografix.com/GPX/1/1/gpx.xsd" version="1.1" creator="VisuGPX - https://www.visugpx.com">
  <metadata>
    <name>St Chamond -  Lyon  VTT</name>
    <desc><![CDATA[Départ de la gare TER de St Chamond  -  un poussage après la Glacière sur le GR7 - ]]></desc>
  </metadata>
  <trk>
    <name><![CDATA[Imported]]></name>
    <trkseg>
      <trkpt lat="45.47287" lon="4.51815">
        <ele>380.33874511719</ele>
        <time>2010-05-09T11:57:49Z</time>
      </trkpt>
      <trkpt lat="45.47282" lon="4.51806">
        <ele>380.33874511719</ele>
        <time>2010-05-09T11:57:50Z</time>
      </trkpt>
      <trkpt lat="45.4727" lon="4.51781">
        <ele>380.81945800781</ele>
        <time>2010-05-09T11:57:56Z</time>
      </trkpt>
      <trkpt lat="45.47259" lon="4.51759">
        <ele>380.81945800781</ele>
        <time>2010-05-09T11:58:02Z</time>
      </trkpt>
      <trkpt lat="45.47255" lon="4.51745">
        <ele>380.81945800781</ele>
        <time>2010-05-09T11:58:07Z</time>
      </trkpt>
      <trkpt lat="45.47253" lon="4.51743">
        <ele>380.33874511719</ele>
        <time>2010-05-09T11:58:11Z</time>
      </trkpt>
      <trkpt lat="45.47255" lon="4.51748">
        <ele>379.85803222656</ele>
        <time>2010-05-09T11:58:16Z</time>
      </trkpt>
      <trkpt lat="45.47256" lon="4.51755">
        <ele>376.49353027344</ele>
        <time>2010-05-09T11:58:25Z</time>
      </trkpt>
      <trkpt lat="45.47252" lon="4.5176">
        <ele>376.01281738281</ele>
        <time>2010-05-09T11:58:31Z</time>
      </trkpt>
      <trkpt lat="45.47251" lon="4.51752">
        <ele>376.97424316406</ele>
        <time>2010-05-09T11:58:39Z</time>
      </trkpt>
      <trkpt lat="45.47274" lon="4.51744">
        <ele>379.37744140625</ele>
        <time>2010-05-09T11:58:45Z</time>
      </trkpt>
      <trkpt lat="45.47273" lon="4.51744">
        <ele>379.85803222656</ele>
        <time>2010-05-09T11:58:46Z</time>
      </trkpt>
      <trkpt lat="45.47272" lon="4.51745">
        <ele>379.37744140625</ele>
        <time>2010-05-09T11:58:48Z</time>
      </trkpt>
      <trkpt lat="45.47277" lon="4.51744">
        <ele>379.37744140625</ele>
        <time>2010-05-09T11:58:52Z</time>
      </trkpt>
      <trkpt lat="45.47278" lon="4.51731">
        <ele>379.85803222656</ele>
        <time>2010-05-09T11:58:58Z</time>
      </trkpt>
      <trkpt lat="45.47276" lon="4.51726">
        <ele>379.37744140625</ele>
        <time>2010-05-09T11:59:01Z</time>
      </trkpt>
      <trkpt lat="45.47282" lon="4.51721">
        <ele>379.37744140625</ele>
        <time>2010-05-09T11:59:07Z</time>
      </trkpt>
      <trkpt lat="45.47287" lon="4.51715">
        <ele>378.89685058594</ele>
        <time>2010-05-09T11:59:12Z</time>
      </trkpt>
      <trkpt lat="45.47299" lon="4.51708">
        <ele>377.45483398438</ele>
        <time>2010-05-09T11:59:17Z</time>
      </trkpt>
      <trkpt lat="45.47305" lon="4.51704">
        <ele>377.45483398438</ele>
        <time>2010-05-09T11:59:21Z</time>
      </trkpt>
      <trkpt lat="45.47311" lon="4.51705">
        <ele>376.97424316406</ele>
        <time>2010-05-09T11:59:25Z</time>
      </trkpt>
      <trkpt lat="45.47325" lon="4.51732">
        <ele>376.97424316406</ele>
        <time>2010-05-09T11:59:31Z</time>
      </trkpt>
      <trkpt lat="45.47349" lon="4.51745">
        <ele>376.97424316406</ele>
        <time>2010-05-09T11:59:36Z</time>
      </trkpt>
      <trkpt lat="45.47369" lon="4.51742">
        <ele>376.97424316406</ele>
        <time>2010-05-09T11:59:39Z</time>
      </trkpt>
      <trkpt lat="45.4739" lon="4.51733">
        <ele>375.53210449219</ele>
        <time>2010-05-09T11:59:42Z</time>
      </trkpt>
      <trkpt lat="45.47435" lon="4.51714">
        <ele>372.64819335938</ele>
        <time>2010-05-09T11:59:48Z</time>
      </trkpt>
      <trkpt lat="45.4747" lon="4.51696">
        <ele>370.24487304688</ele>
        <time>2010-05-09T11:59:53Z</time>
      </trkpt>
      <trkpt lat="45.47482" lon="4.51691">
        <ele>369.28369140625</ele>
        <time>2010-05-09T11:59:56Z</time>
      </trkpt>
      <trkpt lat="45.47485" lon="4.5169">
        <ele>369.28369140625</ele>
        <time>2010-05-09T12:00:01Z</time>
      </trkpt>
      <trkpt lat="45.47485" lon="4.5169">
        <ele>368.322265625</ele>
        <time>2010-05-09T12:00:08Z</time>
      </trkpt>
      <trkpt lat="45.47492" lon="4.51687">
        <ele>369.76428222656</ele>
        <time>2010-05-09T12:00:20Z</time>
      </trkpt>
      <trkpt lat="45.47511" lon="4.51677">
        <ele>367.84155273438</ele>
        <time>2010-05-09T12:00:24Z</time>
      </trkpt>
      <trkpt lat="45.47525" lon="4.51671">
        <ele>367.36096191406</ele>
        <time>2010-05-09T12:00:26Z</time>
      </trkpt>
      <trkpt lat="45.47548" lon="4.51662">
        <ele>365.9189453125</ele>
        <time>2010-05-09T12:00:29Z</time>
      </trkpt>
      <trkpt lat="45.47563" lon="4.51653">
        <ele>364.95764160156</ele>
        <time>2010-05-09T12:00:31Z</time>
      </trkpt>
      <trkpt lat="45.47605" lon="4.51636">
        <ele>362.55432128906</ele>
        <time>2010-05-09T12:00:36Z</time>
      </trkpt>
      <trkpt lat="45.47648" lon="4.51617">
        <ele>359.18969726562</ele>
        <time>2010-05-09T12:00:41Z</time>
      </trkpt>
      <trkpt lat="45.47657" lon="4.51613">
        <ele>359.18969726562</ele>
        <time>2010-05-09T12:00:42Z</time>
      </trkpt>
      <trkpt lat="45.477" lon="4.51594">
        <ele>356.30578613281</ele>
        <time>2010-05-09T12:00:47Z</time>
      </trkpt>
      <trkpt lat="45.47722" lon="4.51583">
        <ele>354.86376953125</ele>
        <time>2010-05-09T12:00:50Z</time>
      </trkpt>
      <trkpt lat="45.47753" lon="4.51562">
        <ele>353.421875</ele>
        <time>2010-05-09T12:00:55Z</time>
      </trkpt>
      <trkpt lat="45.47775" lon="4.51548">
        <ele>351.97985839844</ele>
        <time>2010-05-09T12:00:59Z</time>
      </trkpt>
      <trkpt lat="45.47819" lon="4.51554">
        <ele>351.49914550781</ele>
        <time>2010-05-09T12:01:06Z</time>
      </trkpt>
      <trkpt lat="45.47857" lon="4.51557">
        <ele>350.53784179688</ele>
        <time>2010-05-09T12:01:12Z</time>
      </trkpt>
      <trkpt lat="45.47877" lon="4.51556">
        <ele>350.05725097656</ele>
        <time>2010-05-09T12:01:16Z</time>
      </trkpt>
      <trkpt lat="45.47922" lon="4.51561">
        <ele>351.49914550781</ele>
        <time>2010-05-09T12:01:24Z</time>
      </trkpt>
      <trkpt lat="45.47946" lon="4.5156">
        <ele>352.46057128906</ele>
        <time>2010-05-09T12:01:29Z</time>
      </trkpt>
      <trkpt lat="45.47976" lon="4.51556">
        <ele>353.90258789062</ele>
        <time>2010-05-09T12:01:37Z</time>
      </trkpt>
      <trkpt lat="45.47996" lon="4.51557">
        <ele>355.34448242188</ele>
        <time>2010-05-09T12:01:43Z</time>
      </trkpt>
      <trkpt lat="45.48009" lon="4.51546">
        <ele>356.78637695312</ele>
        <time>2010-05-09T12:01:49Z</time>
      </trkpt>
      <trkpt lat="45.48013" lon="4.5153">
        <ele>359.18969726562</ele>
        <time>2010-05-09T12:01:54Z</time>
      </trkpt>
      <trkpt lat="45.48012" lon="4.51505">
        <ele>361.11242675781</ele>
        <time>2010-05-09T12:02:01Z</time>
      </trkpt>
      <trkpt lat="45.48013" lon="4.5148">
        <ele>362.55432128906</ele>
        <time>2010-05-09T12:02:08Z</time>
      </trkpt>
      <trkpt lat="45.48013" lon="4.51444">
        <ele>364.95764160156</ele>
        <time>2010-05-09T12:02:18Z</time>
      </trkpt>
      <trkpt lat="45.48014" lon="4.51408">
        <ele>367.36096191406</ele>
        <time>2010-05-09T12:02:28Z</time>
      </trkpt>
      <trkpt lat="45.48015" lon="4.51387">
        <ele>368.80297851562</ele>
        <time>2010-05-09T12:02:34Z</time>
      </trkpt>
      <trkpt lat="45.4802" lon="4.51377">
        <ele>369.76428222656</ele>
        <time>2010-05-09T12:02:38Z</time>
      </trkpt>
      <trkpt lat="45.48032" lon="4.5137">
        <ele>370.7255859375</ele>
        <time>2010-05-09T12:02:43Z</time>
      </trkpt>
      <trkpt lat="45.48046" lon="4.51378">
        <ele>370.7255859375</ele>
        <time>2010-05-09T12:02:48Z</time>
      </trkpt>
      <trkpt lat="45.48071" lon="4.51402">
        <ele>372.16748046875</ele>
        <time>2010-05-09T12:02:57Z</time>
      </trkpt>
      <trkpt lat="45.48098" lon="4.51432">
        <ele>373.12890625</ele>
        <time>2010-05-09T12:03:05Z</time>
      </trkpt>
      <trkpt lat="45.48101" lon="4.51436">
        <ele>373.12890625</ele>
        <time>2010-05-09T12:03:06Z</time>
      </trkpt>
      <trkpt lat="45.48133" lon="4.51467">
        <ele>373.12890625</ele>
        <time>2010-05-09T12:03:15Z</time>
      </trkpt>
      <trkpt lat="45.48154" lon="4.51487">
        <ele>372.64819335938</ele>
        <time>2010-05-09T12:03:19Z</time>
      </trkpt>
      <trkpt lat="45.48192" lon="4.51526">
        <ele>369.28369140625</ele>
        <time>2010-05-09T12:03:25Z</time>
      </trkpt>
      <trkpt lat="45.48227" lon="4.51562">
        <ele>366.88024902344</ele>
        <time>2010-05-09T12:03:30Z</time>
      </trkpt>
      <trkpt lat="45.4827" lon="4.51605">
        <ele>363.99633789062</ele>
        <time>2010-05-09T12:03:36Z</time>
      </trkpt>
      <trkpt lat="45.48335" lon="4.51669">
        <ele>361.59313964844</ele>
        <time>2010-05-09T12:03:45Z</time>
      </trkpt>
      <trkpt lat="45.48342" lon="4.51676">
        <ele>361.59313964844</ele>
        <time>2010-05-09T12:03:46Z</time>
      </trkpt>
      <trkpt lat="45.48373" lon="4.51687">
        <ele>359.18969726562</ele>
        <time>2010-05-09T12:03:50Z</time>
      </trkpt>
      <trkpt lat="45.48381" lon="4.51684">
        <ele>359.18969726562</ele>
        <time>2010-05-09T12:03:51Z</time>
      </trkpt>
      <trkpt lat="45.48397" lon="4.51676">
        <ele>358.22839355469</ele>
        <time>2010-05-09T12:03:53Z</time>
      </trkpt>
      <trkpt lat="45.48444" lon="4.51671">
        <ele>358.22839355469</ele>
        <time>2010-05-09T12:03:59Z</time>
      </trkpt>
      <trkpt lat="45.48458" lon="4.51677">
        <ele>358.22839355469</ele>
        <time>2010-05-09T12:04:01Z</time>
      </trkpt>
      <trkpt lat="45.48507" lon="4.51707">
        <ele>358.22839355469</ele>
        <time>2010-05-09T12:04:09Z</time>
      </trkpt>
      <trkpt lat="45.48534" lon="4.51727">
        <ele>359.18969726562</ele>
        <time>2010-05-09T12:04:15Z</time>
      </trkpt>
      <trkpt lat="45.48544" lon="4.51724">
        <ele>359.18969726562</ele>
        <time>2010-05-09T12:04:18Z</time>
      </trkpt>
      <trkpt lat="45.48566" lon="4.51718">
        <ele>360.15112304688</ele>
        <time>2010-05-09T12:04:24Z</time>
      </trkpt>
      <trkpt lat="45.48585" lon="4.51713">
        <ele>360.63171386719</ele>
        <time>2010-05-09T12:04:29Z</time>
      </trkpt>
      <trkpt lat="45.48589" lon="4.51711">
        <ele>360.63171386719</ele>
        <time>2010-05-09T12:04:30Z</time>
      </trkpt>
      <trkpt lat="45.48601" lon="4.51707">
        <ele>360.63171386719</ele>
        <time>2010-05-09T12:04:33Z</time>
      </trkpt>
      <trkpt lat="45.4864" lon="4.51683">
        <ele>361.11242675781</ele>
        <time>2010-05-09T12:04:42Z</time>
      </trkpt>
      <trkpt lat="45.48653" lon="4.51673">
        <ele>361.11242675781</ele>
        <time>2010-05-09T12:04:45Z</time>
      </trkpt>
      <trkpt lat="45.48691" lon="4.51642">
        <ele>361.11242675781</ele>
        <time>2010-05-09T12:04:54Z</time>
      </trkpt>
      <trkpt lat="45.48724" lon="4.51606">
        <ele>362.07373046875</ele>
        <time>2010-05-09T12:05:03Z</time>
      </trkpt>
      <trkpt lat="45.4875" lon="4.51579">
        <ele>363.51574707031</ele>
        <time>2010-05-09T12:05:11Z</time>
      </trkpt>
      <trkpt lat="45.48771" lon="4.51555">
        <ele>364.95764160156</ele>
        <time>2010-05-09T12:05:18Z</time>
      </trkpt>
      <trkpt lat="45.488" lon="4.51516">
        <ele>366.88024902344</ele>
        <time>2010-05-09T12:05:29Z</time>
      </trkpt>
      <trkpt lat="45.48821" lon="4.51496">
        <ele>368.322265625</ele>
        <time>2010-05-09T12:05:36Z</time>
      </trkpt>
      <trkpt lat="45.48849" lon="4.51478">
        <ele>368.80297851562</ele>
        <time>2010-05-09T12:05:44Z</time>
      </trkpt>
      <trkpt lat="45.48866" lon="4.51469">
        <ele>368.322265625</ele>
        <time>2010-05-09T12:05:48Z</time>
      </trkpt>
      <trkpt lat="45.48883" lon="4.51471">
        <ele>367.36096191406</ele>
        <time>2010-05-09T12:05:52Z</time>
      </trkpt>
      <trkpt lat="45.48897" lon="4.51493">
        <ele>367.36096191406</ele>
        <time>2010-05-09T12:05:56Z</time>
      </trkpt>
      <trkpt lat="45.489" lon="4.515">
        <ele>367.36096191406</ele>
        <time>2010-05-09T12:05:57Z</time>
      </trkpt>
      <trkpt lat="45.48904" lon="4.51514">
        <ele>367.36096191406</ele>
        <time>2010-05-09T12:05:59Z</time>
      </trkpt>
      <trkpt lat="45.48914" lon="4.51565">
        <ele>368.322265625</ele>
        <time>2010-05-09T12:06:07Z</time>
      </trkpt>
      <trkpt lat="45.48921" lon="4.51587">
        <ele>368.80297851562</ele>
        <time>2010-05-09T12:06:12Z</time>
      </trkpt>
      <trkpt lat="45.48935" lon="4.51608">
        <ele>371.20629882812</ele>
        <time>2010-05-09T12:06:20Z</time>
      </trkpt>
      <trkpt lat="45.4895" lon="4.51619">
        <ele>372.64819335938</ele>
        <time>2010-05-09T12:06:27Z</time>
      </trkpt>
      <trkpt lat="45.48969" lon="4.51623">
        <ele>374.09008789062</ele>
        <time>2010-05-09T12:06:35Z</time>
      </trkpt>
      <trkpt lat="45.48989" lon="4.51626">
        <ele>376.01281738281</ele>
        <time>2010-05-09T12:06:43Z</time>
      </trkpt>
      <trkpt lat="45.49002" lon="4.51635">
        <ele>377.45483398438</ele>
        <time>2010-05-09T12:06:49Z</time>
      </trkpt>
      <trkpt lat="45.49011" lon="4.51651">
        <ele>378.41613769531</ele>
        <time>2010-05-09T12:06:55Z</time>
      </trkpt>
      <trkpt lat="45.49022" lon="4.5165">
        <ele>379.85803222656</ele>
        <time>2010-05-09T12:07:00Z</time>
      </trkpt>
      <trkpt lat="45.49025" lon="4.51646">
        <ele>380.33874511719</ele>
        <time>2010-05-09T12:07:02Z</time>
      </trkpt>
      <trkpt lat="45.49042" lon="4.51631">
        <ele>382.74206542969</ele>
        <time>2010-05-09T12:07:11Z</time>
      </trkpt>
      <trkpt lat="45.49063" lon="4.51621">
        <ele>385.6259765625</ele>
        <time>2010-05-09T12:07:21Z</time>
      </trkpt>
      <trkpt lat="45.49084" lon="4.51614">
        <ele>387.54858398438</ele>
        <time>2010-05-09T12:07:31Z</time>
      </trkpt>
      <trkpt lat="45.49107" lon="4.51606">
        <ele>389.95190429688</ele>
        <time>2010-05-09T12:07:42Z</time>
      </trkpt>
      <trkpt lat="45.49125" lon="4.516">
        <ele>391.87451171875</ele>
        <time>2010-05-09T12:07:50Z</time>
      </trkpt>
      <trkpt lat="45.49143" lon="4.51594">
        <ele>393.31652832031</ele>
        <time>2010-05-09T12:07:58Z</time>
      </trkpt>
      <trkpt lat="45.4917" lon="4.51584">
        <ele>395.23913574219</ele>
        <time>2010-05-09T12:08:10Z</time>
      </trkpt>
      <trkpt lat="45.49189" lon="4.51575">
        <ele>396.68115234375</ele>
        <time>2010-05-09T12:08:18Z</time>
      </trkpt>
      <trkpt lat="45.49208" lon="4.51563">
        <ele>398.60375976562</ele>
        <time>2010-05-09T12:08:27Z</time>
      </trkpt>
      <trkpt lat="45.49232" lon="4.51551">
        <ele>400.52648925781</ele>
        <time>2010-05-09T12:08:38Z</time>
      </trkpt>
      <trkpt lat="45.49259" lon="4.51539">
        <ele>402.9296875</ele>
        <time>2010-05-09T12:08:49Z</time>
      </trkpt>
      <trkpt lat="45.4928" lon="4.51529">
        <ele>404.37170410156</ele>
        <time>2010-05-09T12:08:58Z</time>
      </trkpt>
      <trkpt lat="45.49303" lon="4.51519">
        <ele>405.81372070312</ele>
        <time>2010-05-09T12:09:08Z</time>
      </trkpt>
      <trkpt lat="45.49327" lon="4.5151">
        <ele>407.736328125</ele>
        <time>2010-05-09T12:09:18Z</time>
      </trkpt>
      <trkpt lat="45.49348" lon="4.51499">
        <ele>409.17834472656</ele>
        <time>2010-05-09T12:09:27Z</time>
      </trkpt>
      <trkpt lat="45.49368" lon="4.5149">
        <ele>411.10095214844</ele>
        <time>2010-05-09T12:09:36Z</time>
      </trkpt>
      <trkpt lat="45.49388" lon="4.5148">
        <ele>413.02355957031</ele>
        <time>2010-05-09T12:09:46Z</time>
      </trkpt>
      <trkpt lat="45.49403" lon="4.51469">
        <ele>414.94616699219</ele>
        <time>2010-05-09T12:09:54Z</time>
      </trkpt>
      <trkpt lat="45.49405" lon="4.51468">
        <ele>415.42687988281</ele>
        <time>2010-05-09T12:09:55Z</time>
      </trkpt>
      <trkpt lat="45.49423" lon="4.51456">
        <ele>417.349609375</ele>
        <time>2010-05-09T12:10:05Z</time>
      </trkpt>
      <trkpt lat="45.49445" lon="4.51444">
        <ele>420.2333984375</ele>
        <time>2010-05-09T12:10:16Z</time>
      </trkpt>
      <trkpt lat="45.49466" lon="4.51438">
        <ele>421.67541503906</ele>
        <time>2010-05-09T12:10:26Z</time>
      </trkpt>
      <trkpt lat="45.49488" lon="4.51437">
        <ele>423.59802246094</ele>
        <time>2010-05-09T12:10:36Z</time>
      </trkpt>
      <trkpt lat="45.49511" lon="4.51439">
        <ele>424.55944824219</ele>
        <time>2010-05-09T12:10:46Z</time>
      </trkpt>
      <trkpt lat="45.49535" lon="4.51442">
        <ele>425.52075195312</ele>
        <time>2010-05-09T12:10:55Z</time>
      </trkpt>
      <trkpt lat="45.49556" lon="4.51449">
        <ele>427.443359375</ele>
        <time>2010-05-09T12:11:04Z</time>
      </trkpt>
      <trkpt lat="45.49572" lon="4.51454">
        <ele>428.88537597656</ele>
        <time>2010-05-09T12:11:11Z</time>
      </trkpt>
      <trkpt lat="45.49593" lon="4.5146">
        <ele>430.32727050781</ele>
        <time>2010-05-09T12:11:20Z</time>
      </trkpt>
      <trkpt lat="45.49613" lon="4.51464">
        <ele>431.28857421875</ele>
        <time>2010-05-09T12:11:29Z</time>
      </trkpt>
      <trkpt lat="45.49633" lon="4.51469">
        <ele>433.21130371094</ele>
        <time>2010-05-09T12:11:38Z</time>
      </trkpt>
      <trkpt lat="45.49654" lon="4.51477">
        <ele>434.17260742188</ele>
        <time>2010-05-09T12:11:47Z</time>
      </trkpt>
      <trkpt lat="45.49673" lon="4.51485">
        <ele>436.57592773438</ele>
        <time>2010-05-09T12:11:56Z</time>
      </trkpt>
      <trkpt lat="45.49697" lon="4.51494">
        <ele>438.49853515625</ele>
        <time>2010-05-09T12:12:07Z</time>
      </trkpt>
      <trkpt lat="45.4972" lon="4.51503">
        <ele>440.90185546875</ele>
        <time>2010-05-09T12:12:17Z</time>
      </trkpt>
      <trkpt lat="45.4974" lon="4.51511">
        <ele>441.86315917969</ele>
        <time>2010-05-09T12:12:26Z</time>
      </trkpt>
      <trkpt lat="45.49752" lon="4.51514">
        <ele>442.34387207031</ele>
        <time>2010-05-09T12:12:31Z</time>
      </trkpt>
      <trkpt lat="45.49771" lon="4.51522">
        <ele>442.82446289062</ele>
        <time>2010-05-09T12:12:39Z</time>
      </trkpt>
      <trkpt lat="45.49796" lon="4.51531">
        <ele>444.7470703125</ele>
        <time>2010-05-09T12:12:48Z</time>
      </trkpt>
      <trkpt lat="45.49821" lon="4.5154">
        <ele>446.18908691406</ele>
        <time>2010-05-09T12:12:58Z</time>
      </trkpt>
      <trkpt lat="45.49844" lon="4.51547">
        <ele>447.15026855469</ele>
        <time>2010-05-09T12:13:07Z</time>
      </trkpt>
      <trkpt lat="45.49868" lon="4.51555">
        <ele>448.11181640625</ele>
        <time>2010-05-09T12:13:16Z</time>
      </trkpt>
      <trkpt lat="45.49892" lon="4.51564">
        <ele>450.03442382812</ele>
        <time>2010-05-09T12:13:25Z</time>
      </trkpt>
      <trkpt lat="45.49923" lon="4.51577">
        <ele>451.47631835938</ele>
        <time>2010-05-09T12:13:37Z</time>
      </trkpt>
      <trkpt lat="45.49939" lon="4.51586">
        <ele>451.95703125</ele>
        <time>2010-05-09T12:13:44Z</time>
      </trkpt>
      <trkpt lat="45.4996" lon="4.51595">
        <ele>453.87963867188</ele>
        <time>2010-05-09T12:13:53Z</time>
      </trkpt>
      <trkpt lat="45.49984" lon="4.51602">
        <ele>456.76354980469</ele>
        <time>2010-05-09T12:14:04Z</time>
      </trkpt>
      <trkpt lat="45.50008" lon="4.51606">
        <ele>457.72497558594</ele>
        <time>2010-05-09T12:14:15Z</time>
      </trkpt>
      <trkpt lat="45.50027" lon="4.5161">
        <ele>459.16687011719</ele>
        <time>2010-05-09T12:14:24Z</time>
      </trkpt>
      <trkpt lat="45.50047" lon="4.51611">
        <ele>461.08947753906</ele>
        <time>2010-05-09T12:14:33Z</time>
      </trkpt>
      <trkpt lat="45.50059" lon="4.51612">
        <ele>463.01208496094</ele>
        <time>2010-05-09T12:14:39Z</time>
      </trkpt>
      <trkpt lat="45.50074" lon="4.51612">
        <ele>464.4541015625</ele>
        <time>2010-05-09T12:14:46Z</time>
      </trkpt>
      <trkpt lat="45.50095" lon="4.51608">
        <ele>466.857421875</ele>
        <time>2010-05-09T12:14:56Z</time>
      </trkpt>
      <trkpt lat="45.50113" lon="4.51603">
        <ele>467.81872558594</ele>
        <time>2010-05-09T12:15:05Z</time>
      </trkpt>
      <trkpt lat="45.50127" lon="4.51598">
        <ele>469.74133300781</ele>
        <time>2010-05-09T12:15:13Z</time>
      </trkpt>
      <trkpt lat="45.50143" lon="4.51592">
        <ele>471.66394042969</ele>
        <time>2010-05-09T12:15:21Z</time>
      </trkpt>
      <trkpt lat="45.50158" lon="4.51586">
        <ele>474.06726074219</ele>
        <time>2010-05-09T12:15:29Z</time>
      </trkpt>
      <trkpt lat="45.50176" lon="4.51578">
        <ele>475.98986816406</ele>
        <time>2010-05-09T12:15:38Z</time>
      </trkpt>
      <trkpt lat="45.50195" lon="4.51569">
        <ele>477.43188476562</ele>
        <time>2010-05-09T12:15:47Z</time>
      </trkpt>
      <trkpt lat="45.50215" lon="4.51563">
        <ele>478.87390136719</ele>
        <time>2010-05-09T12:15:56Z</time>
      </trkpt>
      <trkpt lat="45.50241" lon="4.51561">
        <ele>479.83508300781</ele>
        <time>2010-05-09T12:16:07Z</time>
      </trkpt>
      <trkpt lat="45.50256" lon="4.5156">
        <ele>481.27722167969</ele>
        <time>2010-05-09T12:16:14Z</time>
      </trkpt>
      <trkpt lat="45.50279" lon="4.51554">
        <ele>482.71923828125</ele>
        <time>2010-05-09T12:16:24Z</time>
      </trkpt>
      <trkpt lat="45.50301" lon="4.51545">
        <ele>484.1611328125</ele>
        <time>2010-05-09T12:16:34Z</time>
      </trkpt>
      <trkpt lat="45.50322" lon="4.51537">
        <ele>485.12243652344</ele>
        <time>2010-05-09T12:16:43Z</time>
      </trkpt>
      <trkpt lat="45.50336" lon="4.51531">
        <ele>486.08374023438</ele>
        <time>2010-05-09T12:16:50Z</time>
      </trkpt>
      <trkpt lat="45.50363" lon="4.51524">
        <ele>488.00646972656</ele>
        <time>2010-05-09T12:17:02Z</time>
      </trkpt>
      <trkpt lat="45.50376" lon="4.5152">
        <ele>488.9677734375</ele>
        <time>2010-05-09T12:17:08Z</time>
      </trkpt>
      <trkpt lat="45.50391" lon="4.51518">
        <ele>490.40979003906</ele>
        <time>2010-05-09T12:17:15Z</time>
      </trkpt>
      <trkpt lat="45.50411" lon="4.51518">
        <ele>491.85168457031</ele>
        <time>2010-05-09T12:17:25Z</time>
      </trkpt>
      <trkpt lat="45.50431" lon="4.5152">
        <ele>493.29357910156</ele>
        <time>2010-05-09T12:17:35Z</time>
      </trkpt>
      <trkpt lat="45.5045" lon="4.5152">
        <ele>495.21618652344</ele>
        <time>2010-05-09T12:17:44Z</time>
      </trkpt>
      <trkpt lat="45.50466" lon="4.5152">
        <ele>497.13891601562</ele>
        <time>2010-05-09T12:17:52Z</time>
      </trkpt>
      <trkpt lat="45.50484" lon="4.51522">
        <ele>498.58093261719</ele>
        <time>2010-05-09T12:18:01Z</time>
      </trkpt>
      <trkpt lat="45.50502" lon="4.51524">
        <ele>500.50354003906</ele>
        <time>2010-05-09T12:18:10Z</time>
      </trkpt>
      <trkpt lat="45.50518" lon="4.51527">
        <ele>502.42614746094</ele>
        <time>2010-05-09T12:18:18Z</time>
      </trkpt>
      <trkpt lat="45.50533" lon="4.51528">
        <ele>503.8681640625</ele>
        <time>2010-05-09T12:18:26Z</time>
      </trkpt>
      <trkpt lat="45.50554" lon="4.51525">
        <ele>506.75207519531</ele>
        <time>2010-05-09T12:18:37Z</time>
      </trkpt>
      <trkpt lat="45.50575" lon="4.51521">
        <ele>509.15539550781</ele>
        <time>2010-05-09T12:18:48Z</time>
      </trkpt>
      <trkpt lat="45.50592" lon="4.51516">
        <ele>511.07800292969</ele>
        <time>2010-05-09T12:18:57Z</time>
      </trkpt>
      <trkpt lat="45.50602" lon="4.5151">
        <ele>512.03942871094</ele>
        <time>2010-05-09T12:19:03Z</time>
      </trkpt>
      <trkpt lat="45.50615" lon="4.51503">
        <ele>513.00073242188</ele>
        <time>2010-05-09T12:19:11Z</time>
      </trkpt>
      <trkpt lat="45.50628" lon="4.51492">
        <ele>514.92333984375</ele>
        <time>2010-05-09T12:19:20Z</time>
      </trkpt>
      <trkpt lat="45.50633" lon="4.5149">
        <ele>516.365234375</ele>
        <time>2010-05-09T12:19:23Z</time>
      </trkpt>
      <trkpt lat="45.50646" lon="4.51485">
        <ele>517.32666015625</ele>
        <time>2010-05-09T12:19:31Z</time>
      </trkpt>
      <trkpt lat="45.50665" lon="4.51476">
        <ele>519.24926757812</ele>
        <time>2010-05-09T12:19:43Z</time>
      </trkpt>
      <trkpt lat="45.5068" lon="4.51469">
        <ele>521.17199707031</ele>
        <time>2010-05-09T12:19:52Z</time>
      </trkpt>
      <trkpt lat="45.50693" lon="4.51464">
        <ele>522.13317871094</ele>
        <time>2010-05-09T12:20:00Z</time>
      </trkpt>
      <trkpt lat="45.50708" lon="4.51457">
        <ele>524.05578613281</ele>
        <time>2010-05-09T12:20:09Z</time>
      </trkpt>
      <trkpt lat="45.50723" lon="4.51451">
        <ele>525.97839355469</ele>
        <time>2010-05-09T12:20:18Z</time>
      </trkpt>
      <trkpt lat="45.5074" lon="4.51445">
        <ele>527.42041015625</ele>
        <time>2010-05-09T12:20:28Z</time>
      </trkpt>
      <trkpt lat="45.50761" lon="4.51436">
        <ele>529.82373046875</ele>
        <time>2010-05-09T12:20:40Z</time>
      </trkpt>
      <trkpt lat="45.50774" lon="4.51432">
        <ele>531.26574707031</ele>
        <time>2010-05-09T12:20:48Z</time>
      </trkpt>
      <trkpt lat="45.50776" lon="4.51431">
        <ele>531.26574707031</ele>
        <time>2010-05-09T12:20:53Z</time>
      </trkpt>
      <trkpt lat="45.50777" lon="4.51431">
        <ele>531.26574707031</ele>
        <time>2010-05-09T12:21:00Z</time>
      </trkpt>
      <trkpt lat="45.50775" lon="4.51428">
        <ele>532.22705078125</ele>
        <time>2010-05-09T12:22:04Z</time>
      </trkpt>
      <trkpt lat="45.50776" lon="4.51424">
        <ele>532.70776367188</ele>
        <time>2010-05-09T12:22:07Z</time>
      </trkpt>
      <trkpt lat="45.50786" lon="4.51417">
        <ele>533.6689453125</ele>
        <time>2010-05-09T12:22:13Z</time>
      </trkpt>
      <trkpt lat="45.50797" lon="4.51401">
        <ele>534.63037109375</ele>
        <time>2010-05-09T12:22:21Z</time>
      </trkpt>
      <trkpt lat="45.50806" lon="4.51387">
        <ele>536.55310058594</ele>
        <time>2010-05-09T12:22:28Z</time>
      </trkpt>
      <trkpt lat="45.50815" lon="4.51376">
        <ele>537.03369140625</ele>
        <time>2010-05-09T12:22:34Z</time>
      </trkpt>
      <trkpt lat="45.50826" lon="4.51363">
        <ele>538.47570800781</ele>
        <time>2010-05-09T12:22:41Z</time>
      </trkpt>
      <trkpt lat="45.5084" lon="4.51339">
        <ele>540.39831542969</ele>
        <time>2010-05-09T12:22:52Z</time>
      </trkpt>
      <trkpt lat="45.50851" lon="4.51314">
        <ele>542.32092285156</ele>
        <time>2010-05-09T12:23:02Z</time>
      </trkpt>
      <trkpt lat="45.50859" lon="4.51293">
        <ele>543.76281738281</ele>
        <time>2010-05-09T12:23:10Z</time>
      </trkpt>
      <trkpt lat="45.50869" lon="4.51273">
        <ele>545.685546875</ele>
        <time>2010-05-09T12:23:19Z</time>
      </trkpt>
      <trkpt lat="45.50885" lon="4.51246">
        <ele>548.5693359375</ele>
        <time>2010-05-09T12:23:31Z</time>
      </trkpt>
      <trkpt lat="45.50897" lon="4.51222">
        <ele>550.4921875</ele>
        <time>2010-05-09T12:23:41Z</time>
      </trkpt>
      <trkpt lat="45.50907" lon="4.512">
        <ele>551.93408203125</ele>
        <time>2010-05-09T12:23:50Z</time>
      </trkpt>
      <trkpt lat="45.50917" lon="4.51179">
        <ele>553.85668945312</ele>
        <time>2010-05-09T12:23:59Z</time>
      </trkpt>
      <trkpt lat="45.50927" lon="4.51152">
        <ele>556.74072265625</ele>
        <time>2010-05-09T12:24:10Z</time>
      </trkpt>
      <trkpt lat="45.50934" lon="4.51128">
        <ele>559.14404296875</ele>
        <time>2010-05-09T12:24:19Z</time>
      </trkpt>
      <trkpt lat="45.50939" lon="4.51105">
        <ele>561.54736328125</ele>
        <time>2010-05-09T12:24:28Z</time>
      </trkpt>
      <trkpt lat="45.50943" lon="4.51086">
        <ele>562.9892578125</ele>
        <time>2010-05-09T12:24:35Z</time>
      </trkpt>
      <trkpt lat="45.50949" lon="4.51061">
        <ele>565.392578125</ele>
        <time>2010-05-09T12:24:45Z</time>
      </trkpt>
      <trkpt lat="45.50956" lon="4.51032">
        <ele>567.79565429688</ele>
        <time>2010-05-09T12:24:56Z</time>
      </trkpt>
      <trkpt lat="45.5096" lon="4.51005">
        <ele>568.75708007812</ele>
        <time>2010-05-09T12:25:06Z</time>
      </trkpt>
      <trkpt lat="45.50962" lon="4.5098">
        <ele>570.19897460938</ele>
        <time>2010-05-09T12:25:15Z</time>
      </trkpt>
      <trkpt lat="45.50965" lon="4.50946">
        <ele>573.08325195312</ele>
        <time>2010-05-09T12:25:27Z</time>
      </trkpt>
      <trkpt lat="45.50968" lon="4.50923">
        <ele>575.486328125</ele>
        <time>2010-05-09T12:25:35Z</time>
      </trkpt>
      <trkpt lat="45.50973" lon="4.50893">
        <ele>578.37036132812</ele>
        <time>2010-05-09T12:25:46Z</time>
      </trkpt>
      <trkpt lat="45.5098" lon="4.50868">
        <ele>580.29296875</ele>
        <time>2010-05-09T12:25:56Z</time>
      </trkpt>
      <trkpt lat="45.50991" lon="4.50852">
        <ele>580.77368164062</ele>
        <time>2010-05-09T12:26:05Z</time>
      </trkpt>
      <trkpt lat="45.51" lon="4.50848">
        <ele>581.25439453125</ele>
        <time>2010-05-09T12:26:12Z</time>
      </trkpt>
      <trkpt lat="45.50992" lon="4.50852">
        <ele>581.25439453125</ele>
        <time>2010-05-09T12:27:13Z</time>
      </trkpt>
      <trkpt lat="45.50993" lon="4.50852">
        <ele>581.25439453125</ele>
        <time>2010-05-09T12:27:27Z</time>
      </trkpt>
      <trkpt lat="45.50999" lon="4.50849">
        <ele>581.25439453125</ele>
        <time>2010-05-09T12:27:56Z</time>
      </trkpt>
      <trkpt lat="45.51014" lon="4.50839">
        <ele>582.6962890625</ele>
        <time>2010-05-09T12:28:04Z</time>
      </trkpt>
      <trkpt lat="45.51027" lon="4.50832">
        <ele>584.13818359375</ele>
        <time>2010-05-09T12:28:12Z</time>
      </trkpt>
      <trkpt lat="45.51036" lon="4.50821">
        <ele>585.580078125</ele>
        <time>2010-05-09T12:28:19Z</time>
      </trkpt>
      <trkpt lat="45.51048" lon="4.50808">
        <ele>587.50268554688</ele>
        <time>2010-05-09T12:28:28Z</time>
      </trkpt>
      <trkpt lat="45.51061" lon="4.50795">
        <ele>589.90625</ele>
        <time>2010-05-09T12:28:37Z</time>
      </trkpt>
      <trkpt lat="45.51074" lon="4.50782">
        <ele>591.34814453125</ele>
        <time>2010-05-09T12:28:46Z</time>
      </trkpt>
      <trkpt lat="45.51085" lon="4.50767">
        <ele>593.27075195312</ele>
        <time>2010-05-09T12:28:55Z</time>
      </trkpt>
      <trkpt lat="45.5109" lon="4.50759">
        <ele>594.23217773438</ele>
        <time>2010-05-09T12:28:59Z</time>
      </trkpt>
      <trkpt lat="45.51095" lon="4.50747">
        <ele>595.193359375</ele>
        <time>2010-05-09T12:29:05Z</time>
      </trkpt>
      <trkpt lat="45.51105" lon="4.50727">
        <ele>598.07739257812</ele>
        <time>2010-05-09T12:29:15Z</time>
      </trkpt>
      <trkpt lat="45.51115" lon="4.50705">
        <ele>599.51928710938</ele>
        <time>2010-05-09T12:29:25Z</time>
      </trkpt>
      <trkpt lat="45.51122" lon="4.5069">
        <ele>600.96118164062</ele>
        <time>2010-05-09T12:29:33Z</time>
      </trkpt>
      <trkpt lat="45.51128" lon="4.50678">
        <ele>601.92260742188</ele>
        <time>2010-05-09T12:29:40Z</time>
      </trkpt>
      <trkpt lat="45.51137" lon="4.50659">
        <ele>604.326171875</ele>
        <time>2010-05-09T12:29:50Z</time>
      </trkpt>
      <trkpt lat="45.51144" lon="4.50637">
        <ele>605.76806640625</ele>
        <time>2010-05-09T12:30:01Z</time>
      </trkpt>
      <trkpt lat="45.51152" lon="4.50623">
        <ele>608.17138671875</ele>
        <time>2010-05-09T12:30:10Z</time>
      </trkpt>
      <trkpt lat="45.51161" lon="4.50619">
        <ele>610.09375</ele>
        <time>2010-05-09T12:30:18Z</time>
      </trkpt>
      <trkpt lat="45.51171" lon="4.50614">
        <ele>610.57446289062</ele>
        <time>2010-05-09T12:30:27Z</time>
      </trkpt>
      <trkpt lat="45.51175" lon="4.50611">
        <ele>612.0166015625</ele>
        <time>2010-05-09T12:30:31Z</time>
      </trkpt>
      <trkpt lat="45.51183" lon="4.50603">
        <ele>614.900390625</ele>
        <time>2010-05-09T12:30:38Z</time>
      </trkpt>
      <trkpt lat="45.51186" lon="4.50597">
        <ele>616.34228515625</ele>
        <time>2010-05-09T12:30:42Z</time>
      </trkpt>
      <trkpt lat="45.51192" lon="4.50587">
        <ele>617.7841796875</ele>
        <time>2010-05-09T12:30:49Z</time>
      </trkpt>
      <trkpt lat="45.51198" lon="4.50581">
        <ele>619.70703125</ele>
        <time>2010-05-09T12:30:54Z</time>
      </trkpt>
      <trkpt lat="45.51206" lon="4.50569">
        <ele>622.1103515625</ele>
        <time>2010-05-09T12:31:04Z</time>
      </trkpt>
      <trkpt lat="45.5121" lon="4.5056">
        <ele>624.513671875</ele>
        <time>2010-05-09T12:31:11Z</time>
      </trkpt>
      <trkpt lat="45.51212" lon="4.50557">
        <ele>624.513671875</ele>
        <time>2010-05-09T12:31:16Z</time>
      </trkpt>
      <trkpt lat="45.51216" lon="4.50552">
        <ele>625.95556640625</ele>
        <time>2010-05-09T12:31:24Z</time>
      </trkpt>
      <trkpt lat="45.51221" lon="4.50549">
        <ele>627.39770507812</ele>
        <time>2010-05-09T12:31:32Z</time>
      </trkpt>
      <trkpt lat="45.51223" lon="4.50548">
        <ele>628.35888671875</ele>
        <time>2010-05-09T12:31:40Z</time>
      </trkpt>
      <trkpt lat="45.51227" lon="4.50547">
        <ele>628.35888671875</ele>
        <time>2010-05-09T12:31:46Z</time>
      </trkpt>
      <trkpt lat="45.51228" lon="4.50547">
        <ele>628.83959960938</ele>
        <time>2010-05-09T12:31:47Z</time>
      </trkpt>
      <trkpt lat="45.51234" lon="4.50547">
        <ele>630.76220703125</ele>
        <time>2010-05-09T12:31:54Z</time>
      </trkpt>
      <trkpt lat="45.5124" lon="4.50544">
        <ele>631.72338867188</ele>
        <time>2010-05-09T12:32:01Z</time>
      </trkpt>
      <trkpt lat="45.51247" lon="4.50542">
        <ele>633.64599609375</ele>
        <time>2010-05-09T12:32:09Z</time>
      </trkpt>
      <trkpt lat="45.51253" lon="4.50539">
        <ele>635.56860351562</ele>
        <time>2010-05-09T12:32:16Z</time>
      </trkpt>
      <trkpt lat="45.5126" lon="4.50535">
        <ele>636.5302734375</ele>
        <time>2010-05-09T12:32:25Z</time>
      </trkpt>
      <trkpt lat="45.51268" lon="4.50529">
        <ele>638.93359375</ele>
        <time>2010-05-09T12:32:34Z</time>
      </trkpt>
      <trkpt lat="45.51273" lon="4.50522">
        <ele>640.37548828125</ele>
        <time>2010-05-09T12:32:42Z</time>
      </trkpt>
      <trkpt lat="45.51279" lon="4.50517">
        <ele>641.33666992188</ele>
        <time>2010-05-09T12:32:50Z</time>
      </trkpt>
      <trkpt lat="45.51285" lon="4.50513">
        <ele>642.77880859375</ele>
        <time>2010-05-09T12:32:58Z</time>
      </trkpt>
      <trkpt lat="45.5129" lon="4.5051">
        <ele>643.25927734375</ele>
        <time>2010-05-09T12:33:05Z</time>
      </trkpt>
      <trkpt lat="45.51297" lon="4.50508">
        <ele>645.66259765625</ele>
        <time>2010-05-09T12:33:13Z</time>
      </trkpt>
      <trkpt lat="45.51299" lon="4.50507">
        <ele>645.66259765625</ele>
        <time>2010-05-09T12:33:20Z</time>
      </trkpt>
      <trkpt lat="45.51303" lon="4.50505">
        <ele>647.1044921875</ele>
        <time>2010-05-09T12:33:35Z</time>
      </trkpt>
      <trkpt lat="45.51308" lon="4.50501">
        <ele>648.06591796875</ele>
        <time>2010-05-09T12:33:42Z</time>
      </trkpt>
      <trkpt lat="45.51313" lon="4.505">
        <ele>650.46923828125</ele>
        <time>2010-05-09T12:33:49Z</time>
      </trkpt>
      <trkpt lat="45.51315" lon="4.50494">
        <ele>650.94970703125</ele>
        <time>2010-05-09T12:33:56Z</time>
      </trkpt>
      <trkpt lat="45.51315" lon="4.50491">
        <ele>651.43041992188</ele>
        <time>2010-05-09T12:33:58Z</time>
      </trkpt>
      <trkpt lat="45.51317" lon="4.50484">
        <ele>652.87255859375</ele>
        <time>2010-05-09T12:34:05Z</time>
      </trkpt>
      <trkpt lat="45.51324" lon="4.50479">
        <ele>655.27587890625</ele>
        <time>2010-05-09T12:34:15Z</time>
      </trkpt>
      <trkpt lat="45.51329" lon="4.50476">
        <ele>655.75659179688</ele>
        <time>2010-05-09T12:34:22Z</time>
      </trkpt>
      <trkpt lat="45.51336" lon="4.50475">
        <ele>656.7177734375</ele>
        <time>2010-05-09T12:34:30Z</time>
      </trkpt>
      <trkpt lat="45.51341" lon="4.50477">
        <ele>658.64038085938</ele>
        <time>2010-05-09T12:34:38Z</time>
      </trkpt>
      <trkpt lat="45.51347" lon="4.50476">
        <ele>660.08227539062</ele>
        <time>2010-05-09T12:34:46Z</time>
      </trkpt>
      <trkpt lat="45.51348" lon="4.50476">
        <ele>660.08227539062</ele>
        <time>2010-05-09T12:34:53Z</time>
      </trkpt>
      <trkpt lat="45.5135" lon="4.50474">
        <ele>661.04370117188</ele>
        <time>2010-05-09T12:35:00Z</time>
      </trkpt>
      <trkpt lat="45.51356" lon="4.50463">
        <ele>662.96630859375</ele>
        <time>2010-05-09T12:35:11Z</time>
      </trkpt>
      <trkpt lat="45.5136" lon="4.50456">
        <ele>664.88891601562</ele>
        <time>2010-05-09T12:35:20Z</time>
      </trkpt>
      <trkpt lat="45.51362" lon="4.50453">
        <ele>665.85034179688</ele>
        <time>2010-05-09T12:35:26Z</time>
      </trkpt>
      <trkpt lat="45.51366" lon="4.50444">
        <ele>667.77270507812</ele>
        <time>2010-05-09T12:35:35Z</time>
      </trkpt>
      <trkpt lat="45.51367" lon="4.50436">
        <ele>668.734375</ele>
        <time>2010-05-09T12:35:43Z</time>
      </trkpt>
      <trkpt lat="45.51373" lon="4.5043">
        <ele>670.65698242188</ele>
        <time>2010-05-09T12:35:53Z</time>
      </trkpt>
      <trkpt lat="45.51376" lon="4.50428">
        <ele>672.09887695312</ele>
        <time>2010-05-09T12:36:01Z</time>
      </trkpt>
      <trkpt lat="45.51379" lon="4.50425">
        <ele>673.541015625</ele>
        <time>2010-05-09T12:36:09Z</time>
      </trkpt>
      <trkpt lat="45.51384" lon="4.50419">
        <ele>674.98291015625</ele>
        <time>2010-05-09T12:36:17Z</time>
      </trkpt>
      <trkpt lat="45.51388" lon="4.5041">
        <ele>675.94409179688</ele>
        <time>2010-05-09T12:36:25Z</time>
      </trkpt>
      <trkpt lat="45.51392" lon="4.50404">
        <ele>676.90551757812</ele>
        <time>2010-05-09T12:36:33Z</time>
      </trkpt>
      <trkpt lat="45.51396" lon="4.504">
        <ele>678.34741210938</ele>
        <time>2010-05-09T12:36:39Z</time>
      </trkpt>
      <trkpt lat="45.51399" lon="4.50392">
        <ele>680.75073242188</ele>
        <time>2010-05-09T12:36:48Z</time>
      </trkpt>
      <trkpt lat="45.51405" lon="4.50386">
        <ele>681.7119140625</ele>
        <time>2010-05-09T12:36:57Z</time>
      </trkpt>
      <trkpt lat="45.51409" lon="4.5038">
        <ele>683.63452148438</ele>
        <time>2010-05-09T12:37:05Z</time>
      </trkpt>
      <trkpt lat="45.51414" lon="4.50372">
        <ele>685.55737304688</ele>
        <time>2010-05-09T12:37:15Z</time>
      </trkpt>
      <trkpt lat="45.51416" lon="4.50367">
        <ele>686.51879882812</ele>
        <time>2010-05-09T12:37:21Z</time>
      </trkpt>
      <trkpt lat="45.51421" lon="4.50359">
        <ele>687.96069335938</ele>
        <time>2010-05-09T12:37:30Z</time>
      </trkpt>
      <trkpt lat="45.51425" lon="4.50352">
        <ele>688.92211914062</ele>
        <time>2010-05-09T12:37:38Z</time>
      </trkpt>
      <trkpt lat="45.51427" lon="4.50347">
        <ele>689.88330078125</ele>
        <time>2010-05-09T12:37:45Z</time>
      </trkpt>
      <trkpt lat="45.5143" lon="4.50341">
        <ele>691.3251953125</ele>
        <time>2010-05-09T12:37:54Z</time>
      </trkpt>
      <trkpt lat="45.5143" lon="4.50342">
        <ele>691.3251953125</ele>
        <time>2010-05-09T12:38:10Z</time>
      </trkpt>
      <trkpt lat="45.51433" lon="4.50336">
        <ele>693.24780273438</ele>
        <time>2010-05-09T12:38:20Z</time>
      </trkpt>
      <trkpt lat="45.51434" lon="4.50334">
        <ele>693.24780273438</ele>
        <time>2010-05-09T12:38:21Z</time>
      </trkpt>
      <trkpt lat="45.51442" lon="4.50318">
        <ele>694.20922851562</ele>
        <time>2010-05-09T12:38:30Z</time>
      </trkpt>
      <trkpt lat="45.51449" lon="4.50304">
        <ele>695.65112304688</ele>
        <time>2010-05-09T12:38:38Z</time>
      </trkpt>
      <trkpt lat="45.51456" lon="4.50294">
        <ele>696.61254882812</ele>
        <time>2010-05-09T12:38:45Z</time>
      </trkpt>
      <trkpt lat="45.51465" lon="4.50282">
        <ele>699.015625</ele>
        <time>2010-05-09T12:38:55Z</time>
      </trkpt>
      <trkpt lat="45.51473" lon="4.50274">
        <ele>700.4580078125</ele>
        <time>2010-05-09T12:39:03Z</time>
      </trkpt>
      <trkpt lat="45.51479" lon="4.50268">
        <ele>701.89990234375</ele>
        <time>2010-05-09T12:39:09Z</time>
      </trkpt>
      <trkpt lat="45.5149" lon="4.50259">
        <ele>703.82250976562</ele>
        <time>2010-05-09T12:39:18Z</time>
      </trkpt>
      <trkpt lat="45.51499" lon="4.50252">
        <ele>705.26440429688</ele>
        <time>2010-05-09T12:39:26Z</time>
      </trkpt>
      <trkpt lat="45.51507" lon="4.50245">
        <ele>706.70629882812</ele>
        <time>2010-05-09T12:39:33Z</time>
      </trkpt>
      <trkpt lat="45.51516" lon="4.50235">
        <ele>707.18701171875</ele>
        <time>2010-05-09T12:39:41Z</time>
      </trkpt>
      <trkpt lat="45.51525" lon="4.50226">
        <ele>708.62890625</ele>
        <time>2010-05-09T12:39:49Z</time>
      </trkpt>
      <trkpt lat="45.51533" lon="4.50217">
        <ele>710.07080078125</ele>
        <time>2010-05-09T12:39:56Z</time>
      </trkpt>
      <trkpt lat="45.51545" lon="4.50207">
        <ele>711.99365234375</ele>
        <time>2010-05-09T12:40:06Z</time>
      </trkpt>
      <trkpt lat="45.51553" lon="4.50201">
        <ele>713.435546875</ele>
        <time>2010-05-09T12:40:13Z</time>
      </trkpt>
      <trkpt lat="45.51563" lon="4.50193">
        <ele>713.916015625</ele>
        <time>2010-05-09T12:40:22Z</time>
      </trkpt>
      <trkpt lat="45.51572" lon="4.50188">
        <ele>715.8388671875</ele>
        <time>2010-05-09T12:40:31Z</time>
      </trkpt>
      <trkpt lat="45.51579" lon="4.50186">
        <ele>716.80029296875</ele>
        <time>2010-05-09T12:40:38Z</time>
      </trkpt>
      <trkpt lat="45.51593" lon="4.50183">
        <ele>719.20361328125</ele>
        <time>2010-05-09T12:40:49Z</time>
      </trkpt>
      <trkpt lat="45.51604" lon="4.50181">
        <ele>720.16479492188</ele>
        <time>2010-05-09T12:40:57Z</time>
      </trkpt>
      <trkpt lat="45.51616" lon="4.50179">
        <ele>722.08740234375</ele>
        <time>2010-05-09T12:41:06Z</time>
      </trkpt>
      <trkpt lat="45.51625" lon="4.50176">
        <ele>723.048828125</ele>
        <time>2010-05-09T12:41:14Z</time>
      </trkpt>
      <trkpt lat="45.51634" lon="4.50174">
        <ele>724.97143554688</ele>
        <time>2010-05-09T12:41:22Z</time>
      </trkpt>
      <trkpt lat="45.51644" lon="4.50171">
        <ele>726.89404296875</ele>
        <time>2010-05-09T12:41:29Z</time>
      </trkpt>
      <trkpt lat="45.51649" lon="4.50171">
        <ele>728.3359375</ele>
        <time>2010-05-09T12:41:35Z</time>
      </trkpt>
      <trkpt lat="45.51656" lon="4.50171">
        <ele>729.29711914062</ele>
        <time>2010-05-09T12:41:41Z</time>
      </trkpt>
      <trkpt lat="45.51659" lon="4.50171">
        <ele>729.77783203125</ele>
        <time>2010-05-09T12:41:44Z</time>
      </trkpt>
      <trkpt lat="45.51668" lon="4.50167">
        <ele>731.70043945312</ele>
        <time>2010-05-09T12:41:51Z</time>
      </trkpt>
      <trkpt lat="45.5167" lon="4.50166">
        <ele>732.18139648438</ele>
        <time>2010-05-09T12:41:53Z</time>
      </trkpt>
      <trkpt lat="45.51681" lon="4.50164">
        <ele>734.58471679688</ele>
        <time>2010-05-09T12:42:02Z</time>
      </trkpt>
      <trkpt lat="45.51691" lon="4.50161">
        <ele>736.98779296875</ele>
        <time>2010-05-09T12:42:10Z</time>
      </trkpt>
      <trkpt lat="45.51701" lon="4.50158">
        <ele>738.42993164062</ele>
        <time>2010-05-09T12:42:17Z</time>
      </trkpt>
      <trkpt lat="45.51714" lon="4.50157">
        <ele>739.39111328125</ele>
        <time>2010-05-09T12:42:25Z</time>
      </trkpt>
      <trkpt lat="45.51728" lon="4.50155">
        <ele>740.3525390625</ele>
        <time>2010-05-09T12:42:33Z</time>
      </trkpt>
      <trkpt lat="45.51744" lon="4.50151">
        <ele>740.8330078125</ele>
        <time>2010-05-09T12:42:40Z</time>
      </trkpt>
      <trkpt lat="45.51759" lon="4.50148">
        <ele>740.8330078125</ele>
        <time>2010-05-09T12:42:45Z</time>
      </trkpt>
      <trkpt lat="45.51777" lon="4.50145">
        <ele>741.31372070312</ele>
        <time>2010-05-09T12:42:51Z</time>
      </trkpt>
      <trkpt lat="45.51791" lon="4.50145">
        <ele>742.27514648438</ele>
        <time>2010-05-09T12:42:57Z</time>
      </trkpt>
      <trkpt lat="45.51804" lon="4.50144">
        <ele>742.755859375</ele>
        <time>2010-05-09T12:43:03Z</time>
      </trkpt>
      <trkpt lat="45.51808" lon="4.50145">
        <ele>742.755859375</ele>
        <time>2010-05-09T12:43:05Z</time>
      </trkpt>
      <trkpt lat="45.51814" lon="4.50146">
        <ele>744.19775390625</ele>
        <time>2010-05-09T12:43:09Z</time>
      </trkpt>
      <trkpt lat="45.51824" lon="4.50146">
        <ele>745.15893554688</ele>
        <time>2010-05-09T12:43:16Z</time>
      </trkpt>
      <trkpt lat="45.51838" lon="4.50151">
        <ele>748.04321289062</ele>
        <time>2010-05-09T12:43:25Z</time>
      </trkpt>
      <trkpt lat="45.51848" lon="4.50157">
        <ele>749.00439453125</ele>
        <time>2010-05-09T12:43:32Z</time>
      </trkpt>
      <trkpt lat="45.51858" lon="4.50161">
        <ele>750.92700195312</ele>
        <time>2010-05-09T12:43:38Z</time>
      </trkpt>
      <trkpt lat="45.5186" lon="4.50161">
        <ele>751.88842773438</ele>
        <time>2010-05-09T12:43:39Z</time>
      </trkpt>
      <trkpt lat="45.51873" lon="4.50176">
        <ele>751.88842773438</ele>
        <time>2010-05-09T12:43:46Z</time>
      </trkpt>
      <trkpt lat="45.51888" lon="4.50194">
        <ele>752.36889648438</ele>
        <time>2010-05-09T12:43:52Z</time>
      </trkpt>
      <trkpt lat="45.51905" lon="4.50214">
        <ele>752.36889648438</ele>
        <time>2010-05-09T12:43:59Z</time>
      </trkpt>
      <trkpt lat="45.51936" lon="4.50232">
        <ele>754.29174804688</ele>
        <time>2010-05-09T12:44:09Z</time>
      </trkpt>
      <trkpt lat="45.51962" lon="4.50233">
        <ele>754.29174804688</ele>
        <time>2010-05-09T12:44:17Z</time>
      </trkpt>
      <trkpt lat="45.51983" lon="4.50226">
        <ele>755.73364257812</ele>
        <time>2010-05-09T12:44:24Z</time>
      </trkpt>
      <trkpt lat="45.52007" lon="4.50212">
        <ele>756.21411132812</ele>
        <time>2010-05-09T12:44:32Z</time>
      </trkpt>
      <trkpt lat="45.52022" lon="4.50201">
        <ele>757.65625</ele>
        <time>2010-05-09T12:44:38Z</time>
      </trkpt>
      <trkpt lat="45.52025" lon="4.502">
        <ele>757.65625</ele>
        <time>2010-05-09T12:44:40Z</time>
      </trkpt>
      <trkpt lat="45.52024" lon="4.50192">
        <ele>757.65625</ele>
        <time>2010-05-09T12:44:45Z</time>
      </trkpt>
      <trkpt lat="45.52021" lon="4.5019">
        <ele>757.17553710938</ele>
        <time>2010-05-09T12:44:47Z</time>
      </trkpt>
      <trkpt lat="45.52006" lon="4.5018">
        <ele>758.13696289062</ele>
        <time>2010-05-09T12:44:54Z</time>
      </trkpt>
      <trkpt lat="45.51991" lon="4.50177">
        <ele>759.57885742188</ele>
        <time>2010-05-09T12:45:00Z</time>
      </trkpt>
      <trkpt lat="45.51978" lon="4.50175">
        <ele>760.5400390625</ele>
        <time>2010-05-09T12:45:06Z</time>
      </trkpt>
      <trkpt lat="45.5196" lon="4.50173">
        <ele>762.943359375</ele>
        <time>2010-05-09T12:45:14Z</time>
      </trkpt>
      <trkpt lat="45.5194" lon="4.50159">
        <ele>765.34692382812</ele>
        <time>2010-05-09T12:45:24Z</time>
      </trkpt>
      <trkpt lat="45.5193" lon="4.50143">
        <ele>766.30810546875</ele>
        <time>2010-05-09T12:45:31Z</time>
      </trkpt>
      <trkpt lat="45.51921" lon="4.50125">
        <ele>767.75</ele>
        <time>2010-05-09T12:45:39Z</time>
      </trkpt>
      <trkpt lat="45.51912" lon="4.50104">
        <ele>770.1533203125</ele>
        <time>2010-05-09T12:45:47Z</time>
      </trkpt>
      <trkpt lat="45.51901" lon="4.50081">
        <ele>771.59521484375</ele>
        <time>2010-05-09T12:45:56Z</time>
      </trkpt>
      <trkpt lat="45.51893" lon="4.50064">
        <ele>773.51806640625</ele>
        <time>2010-05-09T12:46:03Z</time>
      </trkpt>
      <trkpt lat="45.51882" lon="4.50046">
        <ele>774.9599609375</ele>
        <time>2010-05-09T12:46:11Z</time>
      </trkpt>
      <trkpt lat="45.51869" lon="4.50027">
        <ele>776.88256835938</ele>
        <time>2010-05-09T12:46:20Z</time>
      </trkpt>
      <trkpt lat="45.51855" lon="4.50009">
        <ele>777.84375</ele>
        <time>2010-05-09T12:46:30Z</time>
      </trkpt>
      <trkpt lat="45.51842" lon="4.49998">
        <ele>780.72802734375</ele>
        <time>2010-05-09T12:46:40Z</time>
      </trkpt>
      <trkpt lat="45.51831" lon="4.49993">
        <ele>782.169921875</ele>
        <time>2010-05-09T12:46:49Z</time>
      </trkpt>
      <trkpt lat="45.51822" lon="4.49989">
        <ele>785.05395507812</ele>
        <time>2010-05-09T12:46:57Z</time>
      </trkpt>
      <trkpt lat="45.51812" lon="4.49985">
        <ele>786.97631835938</ele>
        <time>2010-05-09T12:47:05Z</time>
      </trkpt>
      <trkpt lat="45.51805" lon="4.49982">
        <ele>787.93774414062</ele>
        <time>2010-05-09T12:47:11Z</time>
      </trkpt>
      <trkpt lat="45.51794" lon="4.49975">
        <ele>788.89916992188</ele>
        <time>2010-05-09T12:47:19Z</time>
      </trkpt>
      <trkpt lat="45.51784" lon="4.49964">
        <ele>790.82153320312</ele>
        <time>2010-05-09T12:47:27Z</time>
      </trkpt>
      <trkpt lat="45.51777" lon="4.49954">
        <ele>792.263671875</ele>
        <time>2010-05-09T12:47:33Z</time>
      </trkpt>
      <trkpt lat="45.51767" lon="4.49938">
        <ele>793.70556640625</ele>
        <time>2010-05-09T12:47:41Z</time>
      </trkpt>
      <trkpt lat="45.5176" lon="4.49923">
        <ele>794.66674804688</ele>
        <time>2010-05-09T12:47:49Z</time>
      </trkpt>
      <trkpt lat="45.51753" lon="4.49907">
        <ele>797.0703125</ele>
        <time>2010-05-09T12:47:57Z</time>
      </trkpt>
      <trkpt lat="45.5175" lon="4.49896">
        <ele>797.55102539062</ele>
        <time>2010-05-09T12:48:02Z</time>
      </trkpt>
      <trkpt lat="45.51749" lon="4.49888">
        <ele>798.03173828125</ele>
        <time>2010-05-09T12:48:06Z</time>
      </trkpt>
      <trkpt lat="45.51743" lon="4.49871">
        <ele>798.51220703125</ele>
        <time>2010-05-09T12:48:12Z</time>
      </trkpt>
      <trkpt lat="45.51742" lon="4.49867">
        <ele>798.99291992188</ele>
        <time>2010-05-09T12:48:13Z</time>
      </trkpt>
      <trkpt lat="45.51732" lon="4.49834">
        <ele>798.99291992188</ele>
        <time>2010-05-09T12:48:21Z</time>
      </trkpt>
      <trkpt lat="45.51721" lon="4.49795">
        <ele>799.4736328125</ele>
        <time>2010-05-09T12:48:29Z</time>
      </trkpt>
      <trkpt lat="45.51717" lon="4.49768">
        <ele>799.4736328125</ele>
        <time>2010-05-09T12:48:35Z</time>
      </trkpt>
      <trkpt lat="45.51716" lon="4.4976">
        <ele>798.51220703125</ele>
        <time>2010-05-09T12:48:40Z</time>
      </trkpt>
      <trkpt lat="45.5172" lon="4.49759">
        <ele>798.51220703125</ele>
        <time>2010-05-09T12:50:30Z</time>
      </trkpt>
      <trkpt lat="45.51719" lon="4.49741">
        <ele>798.99291992188</ele>
        <time>2010-05-09T12:50:34Z</time>
      </trkpt>
      <trkpt lat="45.51719" lon="4.49714">
        <ele>799.4736328125</ele>
        <time>2010-05-09T12:50:40Z</time>
      </trkpt>
      <trkpt lat="45.51721" lon="4.49692">
        <ele>799.4736328125</ele>
        <time>2010-05-09T12:50:46Z</time>
      </trkpt>
      <trkpt lat="45.51725" lon="4.49669">
        <ele>799.95434570312</ele>
        <time>2010-05-09T12:50:52Z</time>
      </trkpt>
      <trkpt lat="45.51728" lon="4.49644">
        <ele>798.99291992188</ele>
        <time>2010-05-09T12:50:58Z</time>
      </trkpt>
      <trkpt lat="45.51725" lon="4.49623">
        <ele>797.55102539062</ele>
        <time>2010-05-09T12:51:01Z</time>
      </trkpt>
      <trkpt lat="45.5171" lon="4.49572">
        <ele>796.58984375</ele>
        <time>2010-05-09T12:51:07Z</time>
      </trkpt>
      <trkpt lat="45.51694" lon="4.49534">
        <ele>795.62817382812</ele>
        <time>2010-05-09T12:51:12Z</time>
      </trkpt>
      <trkpt lat="45.51678" lon="4.49501">
        <ele>796.58984375</ele>
        <time>2010-05-09T12:51:17Z</time>
      </trkpt>
      <trkpt lat="45.51663" lon="4.49456">
        <ele>797.0703125</ele>
        <time>2010-05-09T12:51:24Z</time>
      </trkpt>
      <trkpt lat="45.51645" lon="4.49402">
        <ele>798.03173828125</ele>
        <time>2010-05-09T12:51:33Z</time>
      </trkpt>
      <trkpt lat="45.51638" lon="4.49383">
        <ele>798.03173828125</ele>
        <time>2010-05-09T12:51:36Z</time>
      </trkpt>
      <trkpt lat="45.51635" lon="4.49364">
        <ele>798.51220703125</ele>
        <time>2010-05-09T12:51:39Z</time>
      </trkpt>
      <trkpt lat="45.51628" lon="4.49319">
        <ele>799.4736328125</ele>
        <time>2010-05-09T12:51:47Z</time>
      </trkpt>
      <trkpt lat="45.5162" lon="4.49294">
        <ele>800.91552734375</ele>
        <time>2010-05-09T12:51:53Z</time>
      </trkpt>
      <trkpt lat="45.51616" lon="4.49269">
        <ele>802.83813476562</ele>
        <time>2010-05-09T12:51:59Z</time>
      </trkpt>
      <trkpt lat="45.51616" lon="4.49252">
        <ele>802.357421875</ele>
        <time>2010-05-09T12:52:04Z</time>
      </trkpt>
      <trkpt lat="45.51617" lon="4.49238">
        <ele>801.876953125</ele>
        <time>2010-05-09T12:52:09Z</time>
      </trkpt>
      <trkpt lat="45.51617" lon="4.49227">
        <ele>800.91552734375</ele>
        <time>2010-05-09T12:52:11Z</time>
      </trkpt>
      <trkpt lat="45.51619" lon="4.49212">
        <ele>799.95434570312</ele>
        <time>2010-05-09T12:52:13Z</time>
      </trkpt>
      <trkpt lat="45.5162" lon="4.49203">
        <ele>798.51220703125</ele>
        <time>2010-05-09T12:52:14Z</time>
      </trkpt>
      <trkpt lat="45.51621" lon="4.49184">
        <ele>797.0703125</ele>
        <time>2010-05-09T12:52:16Z</time>
      </trkpt>
      <trkpt lat="45.51625" lon="4.49161">
        <ele>796.10913085938</ele>
        <time>2010-05-09T12:52:18Z</time>
      </trkpt>
      <trkpt lat="45.51635" lon="4.49115">
        <ele>794.66674804688</ele>
        <time>2010-05-09T12:52:22Z</time>
      </trkpt>
      <trkpt lat="45.51638" lon="4.4907">
        <ele>792.74438476562</ele>
        <time>2010-05-09T12:52:26Z</time>
      </trkpt>
      <trkpt lat="45.51637" lon="4.49029">
        <ele>792.263671875</ele>
        <time>2010-05-09T12:52:30Z</time>
      </trkpt>
      <trkpt lat="45.51646" lon="4.49008">
        <ele>791.78295898438</ele>
        <time>2010-05-09T12:52:34Z</time>
      </trkpt>
      <trkpt lat="45.51672" lon="4.48994">
        <ele>791.30224609375</ele>
        <time>2010-05-09T12:52:41Z</time>
      </trkpt>
      <trkpt lat="45.51682" lon="4.48991">
        <ele>790.34106445312</ele>
        <time>2010-05-09T12:52:43Z</time>
      </trkpt>
      <trkpt lat="45.51694" lon="4.48988">
        <ele>788.89916992188</ele>
        <time>2010-05-09T12:52:46Z</time>
      </trkpt>
      <trkpt lat="45.5171" lon="4.48985">
        <ele>787.45703125</ele>
        <time>2010-05-09T12:52:51Z</time>
      </trkpt>
      <trkpt lat="45.51721" lon="4.48986">
        <ele>786.49584960938</ele>
        <time>2010-05-09T12:52:54Z</time>
      </trkpt>
      <trkpt lat="45.51731" lon="4.48986">
        <ele>786.01513671875</ele>
        <time>2010-05-09T12:52:56Z</time>
      </trkpt>
      <trkpt lat="45.51756" lon="4.48987">
        <ele>783.13110351562</ele>
        <time>2010-05-09T12:53:00Z</time>
      </trkpt>
      <trkpt lat="45.51792" lon="4.48987">
        <ele>778.80517578125</ele>
        <time>2010-05-09T12:53:05Z</time>
      </trkpt>
      <trkpt lat="45.51811" lon="4.48984">
        <ele>776.88256835938</ele>
        <time>2010-05-09T12:53:08Z</time>
      </trkpt>
      <trkpt lat="45.51816" lon="4.48982">
        <ele>775.4404296875</ele>
        <time>2010-05-09T12:53:09Z</time>
      </trkpt>
      <trkpt lat="45.51834" lon="4.48977">
        <ele>774.47924804688</ele>
        <time>2010-05-09T12:53:13Z</time>
      </trkpt>
      <trkpt lat="45.51865" lon="4.4895">
        <ele>772.556640625</ele>
        <time>2010-05-09T12:53:19Z</time>
      </trkpt>
      <trkpt lat="45.5187" lon="4.48946">
        <ele>772.07592773438</ele>
        <time>2010-05-09T12:53:20Z</time>
      </trkpt>
      <trkpt lat="45.51893" lon="4.4893">
        <ele>771.59521484375</ele>
        <time>2010-05-09T12:53:25Z</time>
      </trkpt>
      <trkpt lat="45.51923" lon="4.48914">
        <ele>772.556640625</ele>
        <time>2010-05-09T12:53:33Z</time>
      </trkpt>
      <trkpt lat="45.51946" lon="4.48893">
        <ele>772.07592773438</ele>
        <time>2010-05-09T12:53:41Z</time>
      </trkpt>
      <trkpt lat="45.51967" lon="4.48875">
        <ele>767.75</ele>
        <time>2010-05-09T12:53:46Z</time>
      </trkpt>
      <trkpt lat="45.51977" lon="4.48869">
        <ele>766.30810546875</ele>
        <time>2010-05-09T12:53:48Z</time>
      </trkpt>
      <trkpt lat="45.51988" lon="4.48866">
        <ele>765.34692382812</ele>
        <time>2010-05-09T12:53:50Z</time>
      </trkpt>
      <trkpt lat="45.52013" lon="4.48858">
        <ele>762.943359375</ele>
        <time>2010-05-09T12:53:54Z</time>
      </trkpt>
      <trkpt lat="45.52052" lon="4.48843">
        <ele>759.09814453125</ele>
        <time>2010-05-09T12:54:00Z</time>
      </trkpt>
      <trkpt lat="45.52063" lon="4.48837">
        <ele>758.13696289062</ele>
        <time>2010-05-09T12:54:02Z</time>
      </trkpt>
      <trkpt lat="45.52081" lon="4.4883">
        <ele>756.69482421875</ele>
        <time>2010-05-09T12:54:05Z</time>
      </trkpt>
      <trkpt lat="45.52088" lon="4.48828">
        <ele>756.69482421875</ele>
        <time>2010-05-09T12:54:06Z</time>
      </trkpt>
      <trkpt lat="45.52101" lon="4.48824">
        <ele>755.2529296875</ele>
        <time>2010-05-09T12:54:08Z</time>
      </trkpt>
      <trkpt lat="45.52121" lon="4.48818">
        <ele>753.81103515625</ele>
        <time>2010-05-09T12:54:11Z</time>
      </trkpt>
      <trkpt lat="45.52146" lon="4.48812">
        <ele>751.88842773438</ele>
        <time>2010-05-09T12:54:15Z</time>
      </trkpt>
      <trkpt lat="45.52153" lon="4.4881">
        <ele>750.92700195312</ele>
        <time>2010-05-09T12:54:17Z</time>
      </trkpt>
      <trkpt lat="45.5216" lon="4.48807">
        <ele>750.92700195312</ele>
        <time>2010-05-09T12:54:20Z</time>
      </trkpt>
      <trkpt lat="45.52175" lon="4.48807">
        <ele>750.44653320312</ele>
        <time>2010-05-09T12:54:27Z</time>
      </trkpt>
      <trkpt lat="45.52196" lon="4.48808">
        <ele>750.92700195312</ele>
        <time>2010-05-09T12:54:34Z</time>
      </trkpt>
      <trkpt lat="45.52214" lon="4.48816">
        <ele>751.40771484375</ele>
        <time>2010-05-09T12:54:40Z</time>
      </trkpt>
      <trkpt lat="45.52238" lon="4.48831">
        <ele>751.40771484375</ele>
        <time>2010-05-09T12:54:48Z</time>
      </trkpt>
      <trkpt lat="45.52269" lon="4.48851">
        <ele>750.92700195312</ele>
        <time>2010-05-09T12:54:57Z</time>
      </trkpt>
      <trkpt lat="45.52293" lon="4.48861">
        <ele>750.92700195312</ele>
        <time>2010-05-09T12:55:04Z</time>
      </trkpt>
      <trkpt lat="45.52317" lon="4.48865">
        <ele>751.88842773438</ele>
        <time>2010-05-09T12:55:12Z</time>
      </trkpt>
      <trkpt lat="45.52351" lon="4.48871">
        <ele>752.849609375</ele>
        <time>2010-05-09T12:55:23Z</time>
      </trkpt>
      <trkpt lat="45.52378" lon="4.48882">
        <ele>753.81103515625</ele>
        <time>2010-05-09T12:55:32Z</time>
      </trkpt>
      <trkpt lat="45.52407" lon="4.48894">
        <ele>753.81103515625</ele>
        <time>2010-05-09T12:55:41Z</time>
      </trkpt>
      <trkpt lat="45.52425" lon="4.48891">
        <ele>752.849609375</ele>
        <time>2010-05-09T12:55:47Z</time>
      </trkpt>
      <trkpt lat="45.52453" lon="4.48877">
        <ele>749.9658203125</ele>
        <time>2010-05-09T12:55:58Z</time>
      </trkpt>
      <trkpt lat="45.52471" lon="4.48867">
        <ele>747.56225585938</ele>
        <time>2010-05-09T12:56:05Z</time>
      </trkpt>
      <trkpt lat="45.52477" lon="4.48865">
        <ele>747.08154296875</ele>
        <time>2010-05-09T12:56:07Z</time>
      </trkpt>
      <trkpt lat="45.52494" lon="4.48862">
        <ele>744.67822265625</ele>
        <time>2010-05-09T12:56:13Z</time>
      </trkpt>
      <trkpt lat="45.52508" lon="4.48865">
        <ele>742.755859375</ele>
        <time>2010-05-09T12:56:17Z</time>
      </trkpt>
      <trkpt lat="45.52522" lon="4.4887">
        <ele>740.8330078125</ele>
        <time>2010-05-09T12:56:21Z</time>
      </trkpt>
      <trkpt lat="45.52541" lon="4.48878">
        <ele>739.87182617188</ele>
        <time>2010-05-09T12:56:27Z</time>
      </trkpt>
      <trkpt lat="45.52561" lon="4.48886">
        <ele>738.91064453125</ele>
        <time>2010-05-09T12:56:33Z</time>
      </trkpt>
      <trkpt lat="45.52577" lon="4.48891">
        <ele>738.42993164062</ele>
        <time>2010-05-09T12:56:38Z</time>
      </trkpt>
      <trkpt lat="45.52604" lon="4.48902">
        <ele>737.46850585938</ele>
        <time>2010-05-09T12:56:44Z</time>
      </trkpt>
      <trkpt lat="45.52634" lon="4.48912">
        <ele>734.10400390625</ele>
        <time>2010-05-09T12:56:49Z</time>
      </trkpt>
      <trkpt lat="45.52656" lon="4.48922">
        <ele>732.662109375</ele>
        <time>2010-05-09T12:56:52Z</time>
      </trkpt>
      <trkpt lat="45.52698" lon="4.48931">
        <ele>730.7392578125</ele>
        <time>2010-05-09T12:56:57Z</time>
      </trkpt>
      <trkpt lat="45.5274" lon="4.48933">
        <ele>728.81665039062</ele>
        <time>2010-05-09T12:57:02Z</time>
      </trkpt>
      <trkpt lat="45.52786" lon="4.48937">
        <ele>728.3359375</ele>
        <time>2010-05-09T12:57:08Z</time>
      </trkpt>
      <trkpt lat="45.52834" lon="4.4894">
        <ele>728.3359375</ele>
        <time>2010-05-09T12:57:14Z</time>
      </trkpt>
      <trkpt lat="45.52864" lon="4.48938">
        <ele>728.3359375</ele>
        <time>2010-05-09T12:57:18Z</time>
      </trkpt>
      <trkpt lat="45.5291" lon="4.4892">
        <ele>729.29711914062</ele>
        <time>2010-05-09T12:57:26Z</time>
      </trkpt>
      <trkpt lat="45.52931" lon="4.48907">
        <ele>729.77783203125</ele>
        <time>2010-05-09T12:57:31Z</time>
      </trkpt>
      <trkpt lat="45.52953" lon="4.48897">
        <ele>730.7392578125</ele>
        <time>2010-05-09T12:57:37Z</time>
      </trkpt>
      <trkpt lat="45.52967" lon="4.48889">
        <ele>732.18139648438</ele>
        <time>2010-05-09T12:57:42Z</time>
      </trkpt>
      <trkpt lat="45.5299" lon="4.48885">
        <ele>734.58471679688</ele>
        <time>2010-05-09T12:57:49Z</time>
      </trkpt>
      <trkpt lat="45.53016" lon="4.48883">
        <ele>737.46850585938</ele>
        <time>2010-05-09T12:57:57Z</time>
      </trkpt>
      <trkpt lat="45.53044" lon="4.48879">
        <ele>739.39111328125</ele>
        <time>2010-05-09T12:58:06Z</time>
      </trkpt>
      <trkpt lat="45.53063" lon="4.48882">
        <ele>740.8330078125</ele>
        <time>2010-05-09T12:58:12Z</time>
      </trkpt>
      <trkpt lat="45.5308" lon="4.48882">
        <ele>740.8330078125</ele>
        <time>2010-05-09T12:58:18Z</time>
      </trkpt>
      <trkpt lat="45.53107" lon="4.48886">
        <ele>742.27514648438</ele>
        <time>2010-05-09T12:58:26Z</time>
      </trkpt>
      <trkpt lat="45.53131" lon="4.48885">
        <ele>743.236328125</ele>
        <time>2010-05-09T12:58:34Z</time>
      </trkpt>
      <trkpt lat="45.53156" lon="4.48878">
        <ele>743.71704101562</ele>
        <time>2010-05-09T12:58:42Z</time>
      </trkpt>
      <trkpt lat="45.53184" lon="4.48869">
        <ele>745.15893554688</ele>
        <time>2010-05-09T12:58:51Z</time>
      </trkpt>
      <trkpt lat="45.532" lon="4.48862">
        <ele>746.12036132812</ele>
        <time>2010-05-09T12:58:57Z</time>
      </trkpt>
      <trkpt lat="45.53222" lon="4.48852">
        <ele>749.00439453125</ele>
        <time>2010-05-09T12:59:05Z</time>
      </trkpt>
      <trkpt lat="45.53242" lon="4.48841">
        <ele>749.00439453125</ele>
        <time>2010-05-09T12:59:13Z</time>
      </trkpt>
      <trkpt lat="45.53259" lon="4.48832">
        <ele>750.44653320312</ele>
        <time>2010-05-09T12:59:20Z</time>
      </trkpt>
      <trkpt lat="45.53279" lon="4.48812">
        <ele>753.33032226562</ele>
        <time>2010-05-09T12:59:29Z</time>
      </trkpt>
      <trkpt lat="45.53292" lon="4.48794">
        <ele>755.2529296875</ele>
        <time>2010-05-09T12:59:36Z</time>
      </trkpt>
      <trkpt lat="45.53293" lon="4.48791">
        <ele>755.2529296875</ele>
        <time>2010-05-09T12:59:37Z</time>
      </trkpt>
      <trkpt lat="45.53305" lon="4.48772">
        <ele>757.17553710938</ele>
        <time>2010-05-09T12:59:44Z</time>
      </trkpt>
      <trkpt lat="45.53311" lon="4.48761">
        <ele>758.61743164062</ele>
        <time>2010-05-09T12:59:48Z</time>
      </trkpt>
      <trkpt lat="45.53318" lon="4.4874">
        <ele>760.05932617188</ele>
        <time>2010-05-09T12:59:54Z</time>
      </trkpt>
      <trkpt lat="45.53334" lon="4.48707">
        <ele>760.05932617188</ele>
        <time>2010-05-09T13:00:02Z</time>
      </trkpt>
      <trkpt lat="45.53353" lon="4.48674">
        <ele>760.05932617188</ele>
        <time>2010-05-09T13:00:09Z</time>
      </trkpt>
      <trkpt lat="45.5336" lon="4.48664">
        <ele>759.57885742188</ele>
        <time>2010-05-09T13:00:11Z</time>
      </trkpt>
      <trkpt lat="45.5337" lon="4.48655">
        <ele>758.13696289062</ele>
        <time>2010-05-09T13:00:13Z</time>
      </trkpt>
      <trkpt lat="45.53407" lon="4.48632">
        <ele>757.17553710938</ele>
        <time>2010-05-09T13:00:19Z</time>
      </trkpt>
      <trkpt lat="45.5343" lon="4.4862">
        <ele>757.17553710938</ele>
        <time>2010-05-09T13:00:23Z</time>
      </trkpt>
      <trkpt lat="45.53446" lon="4.4862">
        <ele>756.69482421875</ele>
        <time>2010-05-09T13:00:27Z</time>
      </trkpt>
      <trkpt lat="45.53447" lon="4.48619">
        <ele>756.69482421875</ele>
        <time>2010-05-09T13:00:28Z</time>
      </trkpt>
      <trkpt lat="45.53455" lon="4.4861">
        <ele>757.17553710938</ele>
        <time>2010-05-09T13:00:33Z</time>
      </trkpt>
      <trkpt lat="45.53462" lon="4.48608">
        <ele>756.69482421875</ele>
        <time>2010-05-09T13:00:35Z</time>
      </trkpt>
      <trkpt lat="45.53482" lon="4.48612">
        <ele>755.2529296875</ele>
        <time>2010-05-09T13:00:41Z</time>
      </trkpt>
      <trkpt lat="45.53485" lon="4.48614">
        <ele>755.2529296875</ele>
        <time>2010-05-09T13:00:42Z</time>
      </trkpt>
      <trkpt lat="45.535" lon="4.48629">
        <ele>753.33032226562</ele>
        <time>2010-05-09T13:00:46Z</time>
      </trkpt>
      <trkpt lat="45.53517" lon="4.48645">
        <ele>750.44653320312</ele>
        <time>2010-05-09T13:00:49Z</time>
      </trkpt>
      <trkpt lat="45.53525" lon="4.48649">
        <ele>749.48510742188</ele>
        <time>2010-05-09T13:00:50Z</time>
      </trkpt>
      <trkpt lat="45.53542" lon="4.48658">
        <ele>748.52368164062</ele>
        <time>2010-05-09T13:00:52Z</time>
      </trkpt>
      <trkpt lat="45.53559" lon="4.48665">
        <ele>747.08154296875</ele>
        <time>2010-05-09T13:00:54Z</time>
      </trkpt>
      <trkpt lat="45.53582" lon="4.48668">
        <ele>745.6396484375</ele>
        <time>2010-05-09T13:00:58Z</time>
      </trkpt>
      <trkpt lat="45.5359" lon="4.4867">
        <ele>746.12036132812</ele>
        <time>2010-05-09T13:01:00Z</time>
      </trkpt>
      <trkpt lat="45.53621" lon="4.48674">
        <ele>743.236328125</ele>
        <time>2010-05-09T13:01:06Z</time>
      </trkpt>
      <trkpt lat="45.53655" lon="4.48675">
        <ele>742.27514648438</ele>
        <time>2010-05-09T13:01:11Z</time>
      </trkpt>
      <trkpt lat="45.53691" lon="4.48667">
        <ele>740.8330078125</ele>
        <time>2010-05-09T13:01:16Z</time>
      </trkpt>
      <trkpt lat="45.53698" lon="4.48667">
        <ele>740.3525390625</ele>
        <time>2010-05-09T13:01:17Z</time>
      </trkpt>
      <trkpt lat="45.53724" lon="4.48673">
        <ele>738.42993164062</ele>
        <time>2010-05-09T13:01:20Z</time>
      </trkpt>
      <trkpt lat="45.5375" lon="4.48688">
        <ele>735.5458984375</ele>
        <time>2010-05-09T13:01:23Z</time>
      </trkpt>
      <trkpt lat="45.53785" lon="4.48695">
        <ele>734.58471679688</ele>
        <time>2010-05-09T13:01:27Z</time>
      </trkpt>
      <trkpt lat="45.53794" lon="4.48693">
        <ele>735.0654296875</ele>
        <time>2010-05-09T13:01:28Z</time>
      </trkpt>
      <trkpt lat="45.53857" lon="4.48678">
        <ele>731.70043945312</ele>
        <time>2010-05-09T13:01:36Z</time>
      </trkpt>
      <trkpt lat="45.53866" lon="4.48678">
        <ele>731.21997070312</ele>
        <time>2010-05-09T13:01:37Z</time>
      </trkpt>
      <trkpt lat="45.53905" lon="4.48691">
        <ele>729.77783203125</ele>
        <time>2010-05-09T13:01:42Z</time>
      </trkpt>
      <trkpt lat="45.53938" lon="4.48708">
        <ele>730.25854492188</ele>
        <time>2010-05-09T13:01:47Z</time>
      </trkpt>
      <trkpt lat="45.53972" lon="4.48729">
        <ele>731.21997070312</ele>
        <time>2010-05-09T13:01:54Z</time>
      </trkpt>
      <trkpt lat="45.53999" lon="4.48756">
        <ele>732.18139648438</ele>
        <time>2010-05-09T13:02:01Z</time>
      </trkpt>
      <trkpt lat="45.54025" lon="4.48789">
        <ele>735.0654296875</ele>
        <time>2010-05-09T13:02:09Z</time>
      </trkpt>
      <trkpt lat="45.54053" lon="4.4882">
        <ele>736.98779296875</ele>
        <time>2010-05-09T13:02:18Z</time>
      </trkpt>
      <trkpt lat="45.54082" lon="4.4884">
        <ele>737.94921875</ele>
        <time>2010-05-09T13:02:27Z</time>
      </trkpt>
      <trkpt lat="45.54096" lon="4.4885">
        <ele>739.39111328125</ele>
        <time>2010-05-09T13:02:33Z</time>
      </trkpt>
      <trkpt lat="45.54115" lon="4.48862">
        <ele>741.31372070312</ele>
        <time>2010-05-09T13:02:41Z</time>
      </trkpt>
      <trkpt lat="45.54128" lon="4.48871">
        <ele>743.71704101562</ele>
        <time>2010-05-09T13:02:48Z</time>
      </trkpt>
      <trkpt lat="45.54144" lon="4.48886">
        <ele>745.6396484375</ele>
        <time>2010-05-09T13:02:56Z</time>
      </trkpt>
      <trkpt lat="45.54155" lon="4.48901">
        <ele>748.04321289062</ele>
        <time>2010-05-09T13:03:03Z</time>
      </trkpt>
      <trkpt lat="45.54158" lon="4.48905">
        <ele>749.00439453125</ele>
        <time>2010-05-09T13:03:05Z</time>
      </trkpt>
      <trkpt lat="45.54173" lon="4.48927">
        <ele>751.88842773438</ele>
        <time>2010-05-09T13:03:14Z</time>
      </trkpt>
      <trkpt lat="45.54188" lon="4.4894">
        <ele>754.77221679688</ele>
        <time>2010-05-09T13:03:22Z</time>
      </trkpt>
      <trkpt lat="45.5419" lon="4.48941">
        <ele>755.2529296875</ele>
        <time>2010-05-09T13:03:23Z</time>
      </trkpt>
      <trkpt lat="45.54203" lon="4.48938">
        <ele>756.69482421875</ele>
        <time>2010-05-09T13:03:30Z</time>
      </trkpt>
      <trkpt lat="45.54213" lon="4.48929">
        <ele>757.65625</ele>
        <time>2010-05-09T13:03:37Z</time>
      </trkpt>
      <trkpt lat="45.54225" lon="4.48917">
        <ele>759.09814453125</ele>
        <time>2010-05-09T13:03:45Z</time>
      </trkpt>
      <trkpt lat="45.54239" lon="4.48898">
        <ele>761.50146484375</ele>
        <time>2010-05-09T13:03:55Z</time>
      </trkpt>
      <trkpt lat="45.54248" lon="4.48884">
        <ele>763.90454101562</ele>
        <time>2010-05-09T13:04:03Z</time>
      </trkpt>
      <trkpt lat="45.54259" lon="4.48871">
        <ele>766.30810546875</ele>
        <time>2010-05-09T13:04:12Z</time>
      </trkpt>
      <trkpt lat="45.5427" lon="4.48857">
        <ele>768.71142578125</ele>
        <time>2010-05-09T13:04:21Z</time>
      </trkpt>
      <trkpt lat="45.54279" lon="4.48843">
        <ele>770.63403320312</ele>
        <time>2010-05-09T13:04:29Z</time>
      </trkpt>
      <trkpt lat="45.5429" lon="4.4883">
        <ele>773.03735351562</ele>
        <time>2010-05-09T13:04:38Z</time>
      </trkpt>
      <trkpt lat="45.54301" lon="4.48815">
        <ele>774.9599609375</ele>
        <time>2010-05-09T13:04:48Z</time>
      </trkpt>
      <trkpt lat="45.54312" lon="4.48801">
        <ele>777.36328125</ele>
        <time>2010-05-09T13:04:57Z</time>
      </trkpt>
      <trkpt lat="45.54321" lon="4.48791">
        <ele>780.24731445312</ele>
        <time>2010-05-09T13:05:04Z</time>
      </trkpt>
      <trkpt lat="45.54324" lon="4.48787">
        <ele>781.20874023438</ele>
        <time>2010-05-09T13:05:07Z</time>
      </trkpt>
      <trkpt lat="45.54331" lon="4.48783">
        <ele>781.68920898438</ele>
        <time>2010-05-09T13:05:12Z</time>
      </trkpt>
      <trkpt lat="45.54338" lon="4.48793">
        <ele>781.68920898438</ele>
        <time>2010-05-09T13:05:19Z</time>
      </trkpt>
      <trkpt lat="45.54341" lon="4.48798">
        <ele>781.68920898438</ele>
        <time>2010-05-09T13:05:21Z</time>
      </trkpt>
      <trkpt lat="45.54352" lon="4.48824">
        <ele>780.72802734375</ele>
        <time>2010-05-09T13:05:27Z</time>
      </trkpt>
      <trkpt lat="45.54365" lon="4.48858">
        <ele>778.32446289062</ele>
        <time>2010-05-09T13:05:31Z</time>
      </trkpt>
      <trkpt lat="45.54388" lon="4.48894">
        <ele>775.4404296875</ele>
        <time>2010-05-09T13:05:35Z</time>
      </trkpt>
      <trkpt lat="45.54424" lon="4.48933">
        <ele>773.03735351562</ele>
        <time>2010-05-09T13:05:40Z</time>
      </trkpt>
      <trkpt lat="45.54443" lon="4.48979">
        <ele>768.71142578125</ele>
        <time>2010-05-09T13:05:44Z</time>
      </trkpt>
      <trkpt lat="45.54444" lon="4.49009">
        <ele>766.30810546875</ele>
        <time>2010-05-09T13:05:46Z</time>
      </trkpt>
      <trkpt lat="45.5444" lon="4.49069">
        <ele>763.90454101562</ele>
        <time>2010-05-09T13:05:50Z</time>
      </trkpt>
      <trkpt lat="45.54442" lon="4.49099">
        <ele>762.46264648438</ele>
        <time>2010-05-09T13:05:52Z</time>
      </trkpt>
      <trkpt lat="45.54449" lon="4.4914">
        <ele>761.50146484375</ele>
        <time>2010-05-09T13:05:55Z</time>
      </trkpt>
      <trkpt lat="45.54453" lon="4.49152">
        <ele>761.02075195312</ele>
        <time>2010-05-09T13:05:56Z</time>
      </trkpt>
      <trkpt lat="45.54479" lon="4.49215">
        <ele>759.57885742188</ele>
        <time>2010-05-09T13:06:02Z</time>
      </trkpt>
      <trkpt lat="45.54486" lon="4.49254">
        <ele>758.61743164062</ele>
        <time>2010-05-09T13:06:06Z</time>
      </trkpt>
      <trkpt lat="45.54486" lon="4.49317">
        <ele>759.57885742188</ele>
        <time>2010-05-09T13:06:13Z</time>
      </trkpt>
      <trkpt lat="45.54485" lon="4.4939">
        <ele>759.57885742188</ele>
        <time>2010-05-09T13:06:22Z</time>
      </trkpt>
      <trkpt lat="45.54485" lon="4.49405">
        <ele>759.57885742188</ele>
        <time>2010-05-09T13:06:24Z</time>
      </trkpt>
      <trkpt lat="45.54488" lon="4.49443">
        <ele>760.05932617188</ele>
        <time>2010-05-09T13:06:29Z</time>
      </trkpt>
      <trkpt lat="45.54484" lon="4.49491">
        <ele>759.09814453125</ele>
        <time>2010-05-09T13:06:35Z</time>
      </trkpt>
      <trkpt lat="45.54469" lon="4.49534">
        <ele>760.05932617188</ele>
        <time>2010-05-09T13:06:41Z</time>
      </trkpt>
      <trkpt lat="45.54461" lon="4.49549">
        <ele>761.02075195312</ele>
        <time>2010-05-09T13:06:45Z</time>
      </trkpt>
      <trkpt lat="45.54449" lon="4.49572">
        <ele>762.943359375</ele>
        <time>2010-05-09T13:06:54Z</time>
      </trkpt>
      <trkpt lat="45.54438" lon="4.49595">
        <ele>764.8662109375</ele>
        <time>2010-05-09T13:07:03Z</time>
      </trkpt>
      <trkpt lat="45.54433" lon="4.49607">
        <ele>766.30810546875</ele>
        <time>2010-05-09T13:07:08Z</time>
      </trkpt>
      <trkpt lat="45.5443" lon="4.49623">
        <ele>767.75</ele>
        <time>2010-05-09T13:07:14Z</time>
      </trkpt>
      <trkpt lat="45.54431" lon="4.49626">
        <ele>767.75</ele>
        <time>2010-05-09T13:07:15Z</time>
      </trkpt>
      <trkpt lat="45.54444" lon="4.49636">
        <ele>767.75</ele>
        <time>2010-05-09T13:07:21Z</time>
      </trkpt>
      <trkpt lat="45.54469" lon="4.4965">
        <ele>768.23071289062</ele>
        <time>2010-05-09T13:07:29Z</time>
      </trkpt>
      <trkpt lat="45.54496" lon="4.49657">
        <ele>769.6728515625</ele>
        <time>2010-05-09T13:07:37Z</time>
      </trkpt>
      <trkpt lat="45.54538" lon="4.4966">
        <ele>770.1533203125</ele>
        <time>2010-05-09T13:07:48Z</time>
      </trkpt>
      <trkpt lat="45.54577" lon="4.49661">
        <ele>770.63403320312</ele>
        <time>2010-05-09T13:07:58Z</time>
      </trkpt>
      <trkpt lat="45.54607" lon="4.49664">
        <ele>771.11474609375</ele>
        <time>2010-05-09T13:08:06Z</time>
      </trkpt>
      <trkpt lat="45.5464" lon="4.49675">
        <ele>772.07592773438</ele>
        <time>2010-05-09T13:08:15Z</time>
      </trkpt>
      <trkpt lat="45.54651" lon="4.49684">
        <ele>772.07592773438</ele>
        <time>2010-05-09T13:08:20Z</time>
      </trkpt>
      <trkpt lat="45.54658" lon="4.4969">
        <ele>772.07592773438</ele>
        <time>2010-05-09T13:08:24Z</time>
      </trkpt>
      <trkpt lat="45.54657" lon="4.49683">
        <ele>772.556640625</ele>
        <time>2010-05-09T13:08:28Z</time>
      </trkpt>
      <trkpt lat="45.54653" lon="4.49675">
        <ele>772.556640625</ele>
        <time>2010-05-09T13:08:31Z</time>
      </trkpt>
      <trkpt lat="45.54663" lon="4.49665">
        <ele>770.63403320312</ele>
        <time>2010-05-09T13:08:34Z</time>
      </trkpt>
      <trkpt lat="45.54667" lon="4.49663">
        <ele>770.1533203125</ele>
        <time>2010-05-09T13:08:35Z</time>
      </trkpt>
      <trkpt lat="45.54675" lon="4.49659">
        <ele>769.6728515625</ele>
        <time>2010-05-09T13:08:37Z</time>
      </trkpt>
      <trkpt lat="45.54698" lon="4.49658">
        <ele>770.1533203125</ele>
        <time>2010-05-09T13:08:45Z</time>
      </trkpt>
      <trkpt lat="45.54718" lon="4.49662">
        <ele>771.59521484375</ele>
        <time>2010-05-09T13:08:53Z</time>
      </trkpt>
      <trkpt lat="45.54738" lon="4.49664">
        <ele>771.59521484375</ele>
        <time>2010-05-09T13:09:02Z</time>
      </trkpt>
      <trkpt lat="45.54749" lon="4.49665">
        <ele>772.556640625</ele>
        <time>2010-05-09T13:09:08Z</time>
      </trkpt>
      <trkpt lat="45.54764" lon="4.49664">
        <ele>774.47924804688</ele>
        <time>2010-05-09T13:09:17Z</time>
      </trkpt>
      <trkpt lat="45.54775" lon="4.49663">
        <ele>776.88256835938</ele>
        <time>2010-05-09T13:09:25Z</time>
      </trkpt>
      <trkpt lat="45.54783" lon="4.49664">
        <ele>778.32446289062</ele>
        <time>2010-05-09T13:09:31Z</time>
      </trkpt>
      <trkpt lat="45.54794" lon="4.49663">
        <ele>780.24731445312</ele>
        <time>2010-05-09T13:09:40Z</time>
      </trkpt>
      <trkpt lat="45.54805" lon="4.49663">
        <ele>782.169921875</ele>
        <time>2010-05-09T13:09:48Z</time>
      </trkpt>
      <trkpt lat="45.54815" lon="4.49662">
        <ele>783.13110351562</ele>
        <time>2010-05-09T13:09:56Z</time>
      </trkpt>
      <trkpt lat="45.54825" lon="4.4966">
        <ele>784.09252929688</ele>
        <time>2010-05-09T13:10:03Z</time>
      </trkpt>
      <trkpt lat="45.54834" lon="4.49659">
        <ele>786.01513671875</ele>
        <time>2010-05-09T13:10:10Z</time>
      </trkpt>
      <trkpt lat="45.54838" lon="4.49656">
        <ele>786.49584960938</ele>
        <time>2010-05-09T13:10:16Z</time>
      </trkpt>
      <trkpt lat="45.54843" lon="4.49655">
        <ele>786.97631835938</ele>
        <time>2010-05-09T13:10:21Z</time>
      </trkpt>
      <trkpt lat="45.54855" lon="4.49655">
        <ele>788.41845703125</ele>
        <time>2010-05-09T13:10:30Z</time>
      </trkpt>
      <trkpt lat="45.54866" lon="4.49651">
        <ele>790.34106445312</ele>
        <time>2010-05-09T13:10:39Z</time>
      </trkpt>
      <trkpt lat="45.54876" lon="4.49651">
        <ele>791.78295898438</ele>
        <time>2010-05-09T13:10:47Z</time>
      </trkpt>
      <trkpt lat="45.54884" lon="4.49648">
        <ele>792.74438476562</ele>
        <time>2010-05-09T13:10:55Z</time>
      </trkpt>
      <trkpt lat="45.54891" lon="4.49645">
        <ele>794.18627929688</ele>
        <time>2010-05-09T13:11:01Z</time>
      </trkpt>
      <trkpt lat="45.54898" lon="4.49643">
        <ele>795.62817382812</ele>
        <time>2010-05-09T13:11:07Z</time>
      </trkpt>
      <trkpt lat="45.54906" lon="4.49641">
        <ele>797.55102539062</ele>
        <time>2010-05-09T13:11:14Z</time>
      </trkpt>
      <trkpt lat="45.54916" lon="4.49637">
        <ele>798.99291992188</ele>
        <time>2010-05-09T13:11:22Z</time>
      </trkpt>
      <trkpt lat="45.54923" lon="4.49633">
        <ele>799.95434570312</ele>
        <time>2010-05-09T13:11:28Z</time>
      </trkpt>
      <trkpt lat="45.54926" lon="4.49633">
        <ele>800.43505859375</ele>
        <time>2010-05-09T13:11:30Z</time>
      </trkpt>
      <trkpt lat="45.54937" lon="4.49627">
        <ele>801.876953125</ele>
        <time>2010-05-09T13:11:40Z</time>
      </trkpt>
      <trkpt lat="45.54941" lon="4.49625">
        <ele>803.31884765625</ele>
        <time>2010-05-09T13:11:44Z</time>
      </trkpt>
      <trkpt lat="45.54949" lon="4.49619">
        <ele>804.7607421875</ele>
        <time>2010-05-09T13:11:52Z</time>
      </trkpt>
      <trkpt lat="45.54955" lon="4.49615">
        <ele>805.24145507812</ele>
        <time>2010-05-09T13:11:57Z</time>
      </trkpt>
      <trkpt lat="45.5496" lon="4.4961">
        <ele>807.1640625</ele>
        <time>2010-05-09T13:12:03Z</time>
      </trkpt>
      <trkpt lat="45.54964" lon="4.49604">
        <ele>808.60595703125</ele>
        <time>2010-05-09T13:12:09Z</time>
      </trkpt>
      <trkpt lat="45.54967" lon="4.49601">
        <ele>809.5673828125</ele>
        <time>2010-05-09T13:12:13Z</time>
      </trkpt>
      <trkpt lat="45.54972" lon="4.49595">
        <ele>811.00927734375</ele>
        <time>2010-05-09T13:12:19Z</time>
      </trkpt>
      <trkpt lat="45.54979" lon="4.49589">
        <ele>811.970703125</ele>
        <time>2010-05-09T13:12:26Z</time>
      </trkpt>
      <trkpt lat="45.54987" lon="4.49581">
        <ele>814.85473632812</ele>
        <time>2010-05-09T13:12:35Z</time>
      </trkpt>
      <trkpt lat="45.54996" lon="4.4957">
        <ele>817.25805664062</ele>
        <time>2010-05-09T13:12:47Z</time>
      </trkpt>
      <trkpt lat="45.54997" lon="4.49567">
        <ele>817.73852539062</ele>
        <time>2010-05-09T13:12:50Z</time>
      </trkpt>
      <trkpt lat="45.54999" lon="4.49562">
        <ele>818.21923828125</ele>
        <time>2010-05-09T13:12:54Z</time>
      </trkpt>
      <trkpt lat="45.55008" lon="4.4955">
        <ele>820.62255859375</ele>
        <time>2010-05-09T13:13:04Z</time>
      </trkpt>
      <trkpt lat="45.55019" lon="4.49542">
        <ele>824.4677734375</ele>
        <time>2010-05-09T13:13:13Z</time>
      </trkpt>
      <trkpt lat="45.55022" lon="4.4954">
        <ele>824.94848632812</ele>
        <time>2010-05-09T13:13:15Z</time>
      </trkpt>
      <trkpt lat="45.55027" lon="4.49535">
        <ele>825.42895507812</ele>
        <time>2010-05-09T13:13:21Z</time>
      </trkpt>
      <trkpt lat="45.55035" lon="4.4953">
        <ele>826.87109375</ele>
        <time>2010-05-09T13:13:28Z</time>
      </trkpt>
      <trkpt lat="45.55036" lon="4.49529">
        <ele>826.87109375</ele>
        <time>2010-05-09T13:13:29Z</time>
      </trkpt>
      <trkpt lat="45.55044" lon="4.4952">
        <ele>828.7939453125</ele>
        <time>2010-05-09T13:13:38Z</time>
      </trkpt>
      <trkpt lat="45.55046" lon="4.49516">
        <ele>829.75512695312</ele>
        <time>2010-05-09T13:13:41Z</time>
      </trkpt>
      <trkpt lat="45.55054" lon="4.49505">
        <ele>831.677734375</ele>
        <time>2010-05-09T13:13:50Z</time>
      </trkpt>
      <trkpt lat="45.55062" lon="4.49494">
        <ele>834.0810546875</ele>
        <time>2010-05-09T13:14:00Z</time>
      </trkpt>
      <trkpt lat="45.55068" lon="4.49486">
        <ele>835.52294921875</ele>
        <time>2010-05-09T13:14:07Z</time>
      </trkpt>
      <trkpt lat="45.55077" lon="4.49475">
        <ele>837.92626953125</ele>
        <time>2010-05-09T13:14:18Z</time>
      </trkpt>
      <trkpt lat="45.55086" lon="4.49464">
        <ele>840.81005859375</ele>
        <time>2010-05-09T13:14:28Z</time>
      </trkpt>
      <trkpt lat="45.55092" lon="4.49457">
        <ele>842.73291015625</ele>
        <time>2010-05-09T13:14:35Z</time>
      </trkpt>
      <trkpt lat="45.551" lon="4.49448">
        <ele>844.17504882812</ele>
        <time>2010-05-09T13:14:45Z</time>
      </trkpt>
      <trkpt lat="45.55107" lon="4.49441">
        <ele>845.61694335938</ele>
        <time>2010-05-09T13:14:53Z</time>
      </trkpt>
      <trkpt lat="45.55108" lon="4.4944">
        <ele>845.61694335938</ele>
        <time>2010-05-09T13:14:54Z</time>
      </trkpt>
      <trkpt lat="45.55122" lon="4.49432">
        <ele>848.02026367188</ele>
        <time>2010-05-09T13:15:06Z</time>
      </trkpt>
      <trkpt lat="45.55127" lon="4.49431">
        <ele>848.50073242188</ele>
        <time>2010-05-09T13:15:10Z</time>
      </trkpt>
      <trkpt lat="45.55131" lon="4.49433">
        <ele>849.94287109375</ele>
        <time>2010-05-09T13:15:14Z</time>
      </trkpt>
      <trkpt lat="45.55143" lon="4.49432">
        <ele>850.90405273438</ele>
        <time>2010-05-09T13:15:23Z</time>
      </trkpt>
      <trkpt lat="45.55152" lon="4.49431">
        <ele>851.384765625</ele>
        <time>2010-05-09T13:15:30Z</time>
      </trkpt>
      <trkpt lat="45.55165" lon="4.49427">
        <ele>853.30737304688</ele>
        <time>2010-05-09T13:15:39Z</time>
      </trkpt>
      <trkpt lat="45.55177" lon="4.49425">
        <ele>855.22998046875</ele>
        <time>2010-05-09T13:15:48Z</time>
      </trkpt>
      <trkpt lat="45.55189" lon="4.49423">
        <ele>856.671875</ele>
        <time>2010-05-09T13:15:56Z</time>
      </trkpt>
      <trkpt lat="45.55205" lon="4.49426">
        <ele>858.11401367188</ele>
        <time>2010-05-09T13:16:05Z</time>
      </trkpt>
      <trkpt lat="45.55221" lon="4.49431">
        <ele>858.59448242188</ele>
        <time>2010-05-09T13:16:14Z</time>
      </trkpt>
      <trkpt lat="45.55238" lon="4.4944">
        <ele>860.03662109375</ele>
        <time>2010-05-09T13:16:22Z</time>
      </trkpt>
      <trkpt lat="45.55258" lon="4.49444">
        <ele>860.998046875</ele>
        <time>2010-05-09T13:16:30Z</time>
      </trkpt>
      <trkpt lat="45.55274" lon="4.49448">
        <ele>861.95947265625</ele>
        <time>2010-05-09T13:16:36Z</time>
      </trkpt>
      <trkpt lat="45.55295" lon="4.49451">
        <ele>861.47875976562</ele>
        <time>2010-05-09T13:16:43Z</time>
      </trkpt>
      <trkpt lat="45.5532" lon="4.49457">
        <ele>860.998046875</ele>
        <time>2010-05-09T13:16:51Z</time>
      </trkpt>
      <trkpt lat="45.5535" lon="4.49463">
        <ele>861.95947265625</ele>
        <time>2010-05-09T13:17:01Z</time>
      </trkpt>
      <trkpt lat="45.55383" lon="4.4947">
        <ele>861.95947265625</ele>
        <time>2010-05-09T13:17:12Z</time>
      </trkpt>
      <trkpt lat="45.55398" lon="4.49484">
        <ele>863.4013671875</ele>
        <time>2010-05-09T13:17:18Z</time>
      </trkpt>
      <trkpt lat="45.55415" lon="4.49504">
        <ele>863.4013671875</ele>
        <time>2010-05-09T13:17:25Z</time>
      </trkpt>
      <trkpt lat="45.55436" lon="4.49515">
        <ele>864.36254882812</ele>
        <time>2010-05-09T13:17:32Z</time>
      </trkpt>
      <trkpt lat="45.55469" lon="4.49528">
        <ele>865.32397460938</ele>
        <time>2010-05-09T13:17:42Z</time>
      </trkpt>
      <trkpt lat="45.55494" lon="4.49537">
        <ele>864.84326171875</ele>
        <time>2010-05-09T13:17:50Z</time>
      </trkpt>
      <trkpt lat="45.55533" lon="4.49555">
        <ele>865.32397460938</ele>
        <time>2010-05-09T13:18:03Z</time>
      </trkpt>
      <trkpt lat="45.55566" lon="4.49573">
        <ele>865.8046875</ele>
        <time>2010-05-09T13:18:14Z</time>
      </trkpt>
      <trkpt lat="45.55595" lon="4.49588">
        <ele>866.28515625</ele>
        <time>2010-05-09T13:18:24Z</time>
      </trkpt>
      <trkpt lat="45.55624" lon="4.496">
        <ele>866.28515625</ele>
        <time>2010-05-09T13:18:33Z</time>
      </trkpt>
      <trkpt lat="45.55652" lon="4.49605">
        <ele>865.32397460938</ele>
        <time>2010-05-09T13:18:41Z</time>
      </trkpt>
      <trkpt lat="45.55669" lon="4.49605">
        <ele>863.4013671875</ele>
        <time>2010-05-09T13:18:45Z</time>
      </trkpt>
      <trkpt lat="45.55699" lon="4.49603">
        <ele>861.95947265625</ele>
        <time>2010-05-09T13:18:51Z</time>
      </trkpt>
      <trkpt lat="45.55732" lon="4.49601">
        <ele>858.59448242188</ele>
        <time>2010-05-09T13:18:58Z</time>
      </trkpt>
      <trkpt lat="45.55768" lon="4.49598">
        <ele>854.74926757812</ele>
        <time>2010-05-09T13:19:05Z</time>
      </trkpt>
      <trkpt lat="45.55799" lon="4.49584">
        <ele>853.30737304688</ele>
        <time>2010-05-09T13:19:11Z</time>
      </trkpt>
      <trkpt lat="45.55809" lon="4.49573">
        <ele>851.86547851562</ele>
        <time>2010-05-09T13:19:14Z</time>
      </trkpt>
      <trkpt lat="45.55841" lon="4.49547">
        <ele>850.90405273438</ele>
        <time>2010-05-09T13:19:22Z</time>
      </trkpt>
      <trkpt lat="45.55848" lon="4.49542">
        <ele>850.42358398438</ele>
        <time>2010-05-09T13:19:24Z</time>
      </trkpt>
      <trkpt lat="45.55858" lon="4.49532">
        <ele>849.94287109375</ele>
        <time>2010-05-09T13:19:27Z</time>
      </trkpt>
      <trkpt lat="45.55886" lon="4.49511">
        <ele>848.02026367188</ele>
        <time>2010-05-09T13:19:34Z</time>
      </trkpt>
      <trkpt lat="45.55921" lon="4.495">
        <ele>847.05883789062</ele>
        <time>2010-05-09T13:19:42Z</time>
      </trkpt>
      <trkpt lat="45.55925" lon="4.49498">
        <ele>847.05883789062</ele>
        <time>2010-05-09T13:19:43Z</time>
      </trkpt>
      <trkpt lat="45.55942" lon="4.49491">
        <ele>846.09765625</ele>
        <time>2010-05-09T13:19:47Z</time>
      </trkpt>
      <trkpt lat="45.55987" lon="4.4949">
        <ele>845.61694335938</ele>
        <time>2010-05-09T13:19:56Z</time>
      </trkpt>
      <trkpt lat="45.56022" lon="4.49487">
        <ele>844.17504882812</ele>
        <time>2010-05-09T13:20:03Z</time>
      </trkpt>
      <trkpt lat="45.56027" lon="4.49486">
        <ele>844.17504882812</ele>
        <time>2010-05-09T13:20:04Z</time>
      </trkpt>
      <trkpt lat="45.56043" lon="4.4948">
        <ele>841.771484375</ele>
        <time>2010-05-09T13:20:08Z</time>
      </trkpt>
      <trkpt lat="45.56047" lon="4.49481">
        <ele>842.25219726562</ele>
        <time>2010-05-09T13:20:09Z</time>
      </trkpt>
      <trkpt lat="45.56089" lon="4.49497">
        <ele>840.32958984375</ele>
        <time>2010-05-09T13:20:17Z</time>
      </trkpt>
      <trkpt lat="45.56125" lon="4.4952">
        <ele>839.84887695312</ele>
        <time>2010-05-09T13:20:23Z</time>
      </trkpt>
      <trkpt lat="45.56151" lon="4.49542">
        <ele>833.60034179688</ele>
        <time>2010-05-09T13:20:27Z</time>
      </trkpt>
      <trkpt lat="45.56158" lon="4.49547">
        <ele>839.3681640625</ele>
        <time>2010-05-09T13:20:28Z</time>
      </trkpt>
      <trkpt lat="45.56178" lon="4.49564">
        <ele>836.96484375</ele>
        <time>2010-05-09T13:20:31Z</time>
      </trkpt>
      <trkpt lat="45.56229" lon="4.49606">
        <ele>837.92626953125</ele>
        <time>2010-05-09T13:20:39Z</time>
      </trkpt>
      <trkpt lat="45.56259" lon="4.4963">
        <ele>837.92626953125</ele>
        <time>2010-05-09T13:20:45Z</time>
      </trkpt>
      <trkpt lat="45.56267" lon="4.49637">
        <ele>838.40698242188</ele>
        <time>2010-05-09T13:20:47Z</time>
      </trkpt>
      <trkpt lat="45.56304" lon="4.49666">
        <ele>838.40698242188</ele>
        <time>2010-05-09T13:20:56Z</time>
      </trkpt>
      <trkpt lat="45.56319" lon="4.49678">
        <ele>838.40698242188</ele>
        <time>2010-05-09T13:21:00Z</time>
      </trkpt>
      <trkpt lat="45.56342" lon="4.49697">
        <ele>838.40698242188</ele>
        <time>2010-05-09T13:21:06Z</time>
      </trkpt>
      <trkpt lat="45.56355" lon="4.49705">
        <ele>838.40698242188</ele>
        <time>2010-05-09T13:21:09Z</time>
      </trkpt>
      <trkpt lat="45.56385" lon="4.4973">
        <ele>838.40698242188</ele>
        <time>2010-05-09T13:21:17Z</time>
      </trkpt>
      <trkpt lat="45.56414" lon="4.49755">
        <ele>839.84887695312</ele>
        <time>2010-05-09T13:21:24Z</time>
      </trkpt>
      <trkpt lat="45.5643" lon="4.49771">
        <ele>840.32958984375</ele>
        <time>2010-05-09T13:21:28Z</time>
      </trkpt>
      <trkpt lat="45.56446" lon="4.49789">
        <ele>838.8876953125</ele>
        <time>2010-05-09T13:21:33Z</time>
      </trkpt>
      <trkpt lat="45.56476" lon="4.49817">
        <ele>839.3681640625</ele>
        <time>2010-05-09T13:21:41Z</time>
      </trkpt>
      <trkpt lat="45.56484" lon="4.49823">
        <ele>838.40698242188</ele>
        <time>2010-05-09T13:21:43Z</time>
      </trkpt>
      <trkpt lat="45.56522" lon="4.49847">
        <ele>837.92626953125</ele>
        <time>2010-05-09T13:21:51Z</time>
      </trkpt>
      <trkpt lat="45.56557" lon="4.49876">
        <ele>837.44555664062</ele>
        <time>2010-05-09T13:21:58Z</time>
      </trkpt>
      <trkpt lat="45.56598" lon="4.49912">
        <ele>834.0810546875</ele>
        <time>2010-05-09T13:22:05Z</time>
      </trkpt>
      <trkpt lat="45.56638" lon="4.4994">
        <ele>833.11962890625</ele>
        <time>2010-05-09T13:22:11Z</time>
      </trkpt>
      <trkpt lat="45.56676" lon="4.49975">
        <ele>833.60034179688</ele>
        <time>2010-05-09T13:22:17Z</time>
      </trkpt>
      <trkpt lat="45.56714" lon="4.50017">
        <ele>831.677734375</ele>
        <time>2010-05-09T13:22:24Z</time>
      </trkpt>
      <trkpt lat="45.56755" lon="4.50061">
        <ele>831.197265625</ele>
        <time>2010-05-09T13:22:33Z</time>
      </trkpt>
      <trkpt lat="45.56778" lon="4.50083">
        <ele>831.677734375</ele>
        <time>2010-05-09T13:22:39Z</time>
      </trkpt>
      <trkpt lat="45.56793" lon="4.50103">
        <ele>831.197265625</ele>
        <time>2010-05-09T13:22:45Z</time>
      </trkpt>
      <trkpt lat="45.56804" lon="4.50123">
        <ele>833.11962890625</ele>
        <time>2010-05-09T13:22:52Z</time>
      </trkpt>
      <trkpt lat="45.56817" lon="4.50141">
        <ele>832.63916015625</ele>
        <time>2010-05-09T13:23:00Z</time>
      </trkpt>
      <trkpt lat="45.56824" lon="4.50154">
        <ele>834.56176757812</ele>
        <time>2010-05-09T13:23:06Z</time>
      </trkpt>
      <trkpt lat="45.56829" lon="4.50164">
        <ele>835.04248046875</ele>
        <time>2010-05-09T13:23:11Z</time>
      </trkpt>
      <trkpt lat="45.56838" lon="4.50179">
        <ele>835.52294921875</ele>
        <time>2010-05-09T13:23:19Z</time>
      </trkpt>
      <trkpt lat="45.56844" lon="4.5019">
        <ele>836.00366210938</ele>
        <time>2010-05-09T13:23:25Z</time>
      </trkpt>
      <trkpt lat="45.56847" lon="4.50193">
        <ele>836.484375</ele>
        <time>2010-05-09T13:23:27Z</time>
      </trkpt>
      <trkpt lat="45.56857" lon="4.50211">
        <ele>837.92626953125</ele>
        <time>2010-05-09T13:23:37Z</time>
      </trkpt>
      <trkpt lat="45.56858" lon="4.50213">
        <ele>838.40698242188</ele>
        <time>2010-05-09T13:23:38Z</time>
      </trkpt>
      <trkpt lat="45.56863" lon="4.50229">
        <ele>839.3681640625</ele>
        <time>2010-05-09T13:23:45Z</time>
      </trkpt>
      <trkpt lat="45.56868" lon="4.50242">
        <ele>840.32958984375</ele>
        <time>2010-05-09T13:23:53Z</time>
      </trkpt>
      <trkpt lat="45.5687" lon="4.50254">
        <ele>842.25219726562</ele>
        <time>2010-05-09T13:23:59Z</time>
      </trkpt>
      <trkpt lat="45.5687" lon="4.50256">
        <ele>842.25219726562</ele>
        <time>2010-05-09T13:24:00Z</time>
      </trkpt>
      <trkpt lat="45.56873" lon="4.50273">
        <ele>844.17504882812</ele>
        <time>2010-05-09T13:24:09Z</time>
      </trkpt>
      <trkpt lat="45.56874" lon="4.50294">
        <ele>845.13623046875</ele>
        <time>2010-05-09T13:24:20Z</time>
      </trkpt>
      <trkpt lat="45.56874" lon="4.503">
        <ele>845.61694335938</ele>
        <time>2010-05-09T13:24:24Z</time>
      </trkpt>
      <trkpt lat="45.56874" lon="4.50306">
        <ele>846.09765625</ele>
        <time>2010-05-09T13:24:28Z</time>
      </trkpt>
      <trkpt lat="45.56873" lon="4.50321">
        <ele>847.05883789062</ele>
        <time>2010-05-09T13:24:36Z</time>
      </trkpt>
      <trkpt lat="45.56871" lon="4.50335">
        <ele>848.50073242188</ele>
        <time>2010-05-09T13:24:44Z</time>
      </trkpt>
      <trkpt lat="45.56871" lon="4.50352">
        <ele>849.94287109375</ele>
        <time>2010-05-09T13:24:53Z</time>
      </trkpt>
      <trkpt lat="45.56873" lon="4.50372">
        <ele>852.34594726562</ele>
        <time>2010-05-09T13:25:04Z</time>
      </trkpt>
      <trkpt lat="45.56875" lon="4.50391">
        <ele>854.26879882812</ele>
        <time>2010-05-09T13:25:15Z</time>
      </trkpt>
      <trkpt lat="45.56878" lon="4.50402">
        <ele>855.71069335938</ele>
        <time>2010-05-09T13:25:23Z</time>
      </trkpt>
      <trkpt lat="45.56878" lon="4.50403">
        <ele>856.19116210938</ele>
        <time>2010-05-09T13:25:28Z</time>
      </trkpt>
      <trkpt lat="45.56879" lon="4.50411">
        <ele>856.671875</ele>
        <time>2010-05-09T13:25:35Z</time>
      </trkpt>
      <trkpt lat="45.5688" lon="4.50421">
        <ele>858.59448242188</ele>
        <time>2010-05-09T13:25:44Z</time>
      </trkpt>
      <trkpt lat="45.56881" lon="4.50428">
        <ele>859.55590820312</ele>
        <time>2010-05-09T13:25:52Z</time>
      </trkpt>
      <trkpt lat="45.56881" lon="4.50435">
        <ele>860.51733398438</ele>
        <time>2010-05-09T13:26:00Z</time>
      </trkpt>
      <trkpt lat="45.56882" lon="4.50441">
        <ele>861.95947265625</ele>
        <time>2010-05-09T13:26:07Z</time>
      </trkpt>
      <trkpt lat="45.56883" lon="4.50449">
        <ele>862.43994140625</ele>
        <time>2010-05-09T13:26:15Z</time>
      </trkpt>
      <trkpt lat="45.56884" lon="4.50456">
        <ele>863.4013671875</ele>
        <time>2010-05-09T13:26:23Z</time>
      </trkpt>
      <trkpt lat="45.56884" lon="4.50463">
        <ele>864.84326171875</ele>
        <time>2010-05-09T13:26:31Z</time>
      </trkpt>
      <trkpt lat="45.56884" lon="4.50468">
        <ele>865.32397460938</ele>
        <time>2010-05-09T13:26:38Z</time>
      </trkpt>
      <trkpt lat="45.56886" lon="4.50471">
        <ele>866.28515625</ele>
        <time>2010-05-09T13:26:45Z</time>
      </trkpt>
      <trkpt lat="45.56887" lon="4.50475">
        <ele>866.28515625</ele>
        <time>2010-05-09T13:26:57Z</time>
      </trkpt>
      <trkpt lat="45.56889" lon="4.50488">
        <ele>868.20776367188</ele>
        <time>2010-05-09T13:27:04Z</time>
      </trkpt>
      <trkpt lat="45.56892" lon="4.50506">
        <ele>869.64990234375</ele>
        <time>2010-05-09T13:27:13Z</time>
      </trkpt>
      <trkpt lat="45.56897" lon="4.50523">
        <ele>871.572265625</ele>
        <time>2010-05-09T13:27:22Z</time>
      </trkpt>
      <trkpt lat="45.569" lon="4.50535">
        <ele>873.9755859375</ele>
        <time>2010-05-09T13:27:29Z</time>
      </trkpt>
      <trkpt lat="45.56903" lon="4.50549">
        <ele>874.93701171875</ele>
        <time>2010-05-09T13:27:36Z</time>
      </trkpt>
      <trkpt lat="45.56907" lon="4.50566">
        <ele>876.85986328125</ele>
        <time>2010-05-09T13:27:45Z</time>
      </trkpt>
      <trkpt lat="45.56907" lon="4.50568">
        <ele>876.85986328125</ele>
        <time>2010-05-09T13:27:46Z</time>
      </trkpt>
      <trkpt lat="45.5691" lon="4.50575">
        <ele>877.34057617188</ele>
        <time>2010-05-09T13:27:50Z</time>
      </trkpt>
      <trkpt lat="45.56916" lon="4.50598">
        <ele>879.26293945312</ele>
        <time>2010-05-09T13:28:00Z</time>
      </trkpt>
      <trkpt lat="45.5692" lon="4.50619">
        <ele>880.22436523438</ele>
        <time>2010-05-09T13:28:08Z</time>
      </trkpt>
      <trkpt lat="45.56925" lon="4.50644">
        <ele>882.14697265625</ele>
        <time>2010-05-09T13:28:17Z</time>
      </trkpt>
      <trkpt lat="45.56928" lon="4.50675">
        <ele>883.5888671875</ele>
        <time>2010-05-09T13:28:28Z</time>
      </trkpt>
      <trkpt lat="45.56926" lon="4.50681">
        <ele>884.06958007812</ele>
        <time>2010-05-09T13:28:31Z</time>
      </trkpt>
      <trkpt lat="45.56919" lon="4.5068">
        <ele>884.06958007812</ele>
        <time>2010-05-09T13:28:36Z</time>
      </trkpt>
      <trkpt lat="45.56916" lon="4.50677">
        <ele>883.5888671875</ele>
        <time>2010-05-09T13:28:42Z</time>
      </trkpt>
      <trkpt lat="45.56911" lon="4.50675">
        <ele>884.06958007812</ele>
        <time>2010-05-09T13:30:13Z</time>
      </trkpt>
      <trkpt lat="45.56915" lon="4.50678">
        <ele>884.06958007812</ele>
        <time>2010-05-09T13:30:17Z</time>
      </trkpt>
      <trkpt lat="45.56923" lon="4.50693">
        <ele>883.5888671875</ele>
        <time>2010-05-09T13:30:24Z</time>
      </trkpt>
      <trkpt lat="45.56926" lon="4.50705">
        <ele>883.10815429688</ele>
        <time>2010-05-09T13:30:27Z</time>
      </trkpt>
      <trkpt lat="45.56924" lon="4.50739">
        <ele>881.18579101562</ele>
        <time>2010-05-09T13:30:33Z</time>
      </trkpt>
      <trkpt lat="45.56928" lon="4.50769">
        <ele>878.78247070312</ele>
        <time>2010-05-09T13:30:37Z</time>
      </trkpt>
      <trkpt lat="45.5694" lon="4.50804">
        <ele>877.34057617188</ele>
        <time>2010-05-09T13:30:41Z</time>
      </trkpt>
      <trkpt lat="45.56954" lon="4.50853">
        <ele>873.4951171875</ele>
        <time>2010-05-09T13:30:46Z</time>
      </trkpt>
      <trkpt lat="45.56957" lon="4.50863">
        <ele>873.4951171875</ele>
        <time>2010-05-09T13:30:47Z</time>
      </trkpt>
      <trkpt lat="45.56965" lon="4.50896">
        <ele>872.05297851562</ele>
        <time>2010-05-09T13:30:50Z</time>
      </trkpt>
      <trkpt lat="45.56974" lon="4.50951">
        <ele>870.13037109375</ele>
        <time>2010-05-09T13:30:55Z</time>
      </trkpt>
      <trkpt lat="45.56979" lon="4.50999">
        <ele>869.16918945312</ele>
        <time>2010-05-09T13:31:00Z</time>
      </trkpt>
      <trkpt lat="45.56982" lon="4.51022">
        <ele>868.20776367188</ele>
        <time>2010-05-09T13:31:03Z</time>
      </trkpt>
      <trkpt lat="45.56985" lon="4.51051">
        <ele>868.20776367188</ele>
        <time>2010-05-09T13:31:07Z</time>
      </trkpt>
      <trkpt lat="45.56992" lon="4.51086">
        <ele>867.72705078125</ele>
        <time>2010-05-09T13:31:13Z</time>
      </trkpt>
      <trkpt lat="45.57002" lon="4.5113">
        <ele>868.6884765625</ele>
        <time>2010-05-09T13:31:22Z</time>
      </trkpt>
      <trkpt lat="45.57011" lon="4.51166">
        <ele>869.16918945312</ele>
        <time>2010-05-09T13:31:29Z</time>
      </trkpt>
      <trkpt lat="45.5702" lon="4.51195">
        <ele>869.64990234375</ele>
        <time>2010-05-09T13:31:35Z</time>
      </trkpt>
      <trkpt lat="45.57027" lon="4.51235">
        <ele>871.572265625</ele>
        <time>2010-05-09T13:31:43Z</time>
      </trkpt>
      <trkpt lat="45.5703" lon="4.51275">
        <ele>871.091796875</ele>
        <time>2010-05-09T13:31:51Z</time>
      </trkpt>
      <trkpt lat="45.5703" lon="4.51292">
        <ele>871.091796875</ele>
        <time>2010-05-09T13:31:54Z</time>
      </trkpt>
      <trkpt lat="45.5703" lon="4.51304">
        <ele>871.091796875</ele>
        <time>2010-05-09T13:31:56Z</time>
      </trkpt>
      <trkpt lat="45.57026" lon="4.51354">
        <ele>870.13037109375</ele>
        <time>2010-05-09T13:32:03Z</time>
      </trkpt>
      <trkpt lat="45.57022" lon="4.51369">
        <ele>870.13037109375</ele>
        <time>2010-05-09T13:32:05Z</time>
      </trkpt>
      <trkpt lat="45.57019" lon="4.51395">
        <ele>867.24658203125</ele>
        <time>2010-05-09T13:32:08Z</time>
      </trkpt>
      <trkpt lat="45.57019" lon="4.5141">
        <ele>865.8046875</ele>
        <time>2010-05-09T13:32:10Z</time>
      </trkpt>
      <trkpt lat="45.57021" lon="4.51423">
        <ele>864.36254882812</ele>
        <time>2010-05-09T13:32:12Z</time>
      </trkpt>
      <trkpt lat="45.57029" lon="4.51461">
        <ele>864.84326171875</ele>
        <time>2010-05-09T13:32:18Z</time>
      </trkpt>
      <trkpt lat="45.57042" lon="4.51513">
        <ele>863.8818359375</ele>
        <time>2010-05-09T13:32:26Z</time>
      </trkpt>
      <trkpt lat="45.57056" lon="4.51554">
        <ele>864.36254882812</ele>
        <time>2010-05-09T13:32:33Z</time>
      </trkpt>
      <trkpt lat="45.57077" lon="4.51597">
        <ele>864.84326171875</ele>
        <time>2010-05-09T13:32:41Z</time>
      </trkpt>
      <trkpt lat="45.57094" lon="4.51635">
        <ele>865.32397460938</ele>
        <time>2010-05-09T13:32:49Z</time>
      </trkpt>
      <trkpt lat="45.57108" lon="4.5166">
        <ele>866.28515625</ele>
        <time>2010-05-09T13:32:57Z</time>
      </trkpt>
      <trkpt lat="45.57111" lon="4.51665">
        <ele>866.28515625</ele>
        <time>2010-05-09T13:33:01Z</time>
      </trkpt>
      <trkpt lat="45.57111" lon="4.51665">
        <ele>866.28515625</ele>
        <time>2010-05-09T13:33:02Z</time>
      </trkpt>
      <trkpt lat="45.57119" lon="4.51672">
        <ele>866.76586914062</ele>
        <time>2010-05-09T13:33:06Z</time>
      </trkpt>
      <trkpt lat="45.57135" lon="4.51692">
        <ele>867.72705078125</ele>
        <time>2010-05-09T13:33:13Z</time>
      </trkpt>
      <trkpt lat="45.57157" lon="4.51723">
        <ele>869.64990234375</ele>
        <time>2010-05-09T13:33:24Z</time>
      </trkpt>
      <trkpt lat="45.57171" lon="4.51746">
        <ele>871.572265625</ele>
        <time>2010-05-09T13:33:32Z</time>
      </trkpt>
      <trkpt lat="45.57185" lon="4.51766">
        <ele>872.53369140625</ele>
        <time>2010-05-09T13:33:39Z</time>
      </trkpt>
      <trkpt lat="45.57202" lon="4.51789">
        <ele>873.4951171875</ele>
        <time>2010-05-09T13:33:47Z</time>
      </trkpt>
      <trkpt lat="45.57215" lon="4.5181">
        <ele>873.01440429688</ele>
        <time>2010-05-09T13:33:53Z</time>
      </trkpt>
      <trkpt lat="45.57219" lon="4.51831">
        <ele>873.01440429688</ele>
        <time>2010-05-09T13:33:57Z</time>
      </trkpt>
      <trkpt lat="45.57219" lon="4.51842">
        <ele>873.4951171875</ele>
        <time>2010-05-09T13:33:59Z</time>
      </trkpt>
      <trkpt lat="45.5721" lon="4.51884">
        <ele>872.53369140625</ele>
        <time>2010-05-09T13:34:06Z</time>
      </trkpt>
      <trkpt lat="45.572" lon="4.51931">
        <ele>870.13037109375</ele>
        <time>2010-05-09T13:34:13Z</time>
      </trkpt>
      <trkpt lat="45.57189" lon="4.51977">
        <ele>867.24658203125</ele>
        <time>2010-05-09T13:34:19Z</time>
      </trkpt>
      <trkpt lat="45.57186" lon="4.51993">
        <ele>866.76586914062</ele>
        <time>2010-05-09T13:34:21Z</time>
      </trkpt>
      <trkpt lat="45.5718" lon="4.52032">
        <ele>864.84326171875</ele>
        <time>2010-05-09T13:34:26Z</time>
      </trkpt>
      <trkpt lat="45.57174" lon="4.52066">
        <ele>863.8818359375</ele>
        <time>2010-05-09T13:34:30Z</time>
      </trkpt>
      <trkpt lat="45.57164" lon="4.52122">
        <ele>860.998046875</ele>
        <time>2010-05-09T13:34:36Z</time>
      </trkpt>
      <trkpt lat="45.57162" lon="4.5217">
        <ele>860.03662109375</ele>
        <time>2010-05-09T13:34:41Z</time>
      </trkpt>
      <trkpt lat="45.57168" lon="4.52204">
        <ele>859.0751953125</ele>
        <time>2010-05-09T13:34:45Z</time>
      </trkpt>
      <trkpt lat="45.57174" lon="4.52219">
        <ele>860.51733398438</ele>
        <time>2010-05-09T13:34:47Z</time>
      </trkpt>
      <trkpt lat="45.57185" lon="4.52249">
        <ele>858.11401367188</ele>
        <time>2010-05-09T13:34:51Z</time>
      </trkpt>
      <trkpt lat="45.57205" lon="4.52304">
        <ele>858.11401367188</ele>
        <time>2010-05-09T13:34:59Z</time>
      </trkpt>
      <trkpt lat="45.5722" lon="4.5235">
        <ele>856.671875</ele>
        <time>2010-05-09T13:35:06Z</time>
      </trkpt>
      <trkpt lat="45.57232" lon="4.52387">
        <ele>856.671875</ele>
        <time>2010-05-09T13:35:12Z</time>
      </trkpt>
      <trkpt lat="45.57248" lon="4.5242">
        <ele>856.671875</ele>
        <time>2010-05-09T13:35:18Z</time>
      </trkpt>
      <trkpt lat="45.57255" lon="4.52429">
        <ele>857.15258789062</ele>
        <time>2010-05-09T13:35:20Z</time>
      </trkpt>
      <trkpt lat="45.57281" lon="4.5245">
        <ele>857.15258789062</ele>
        <time>2010-05-09T13:35:27Z</time>
      </trkpt>
      <trkpt lat="45.57299" lon="4.52464">
        <ele>860.03662109375</ele>
        <time>2010-05-09T13:35:34Z</time>
      </trkpt>
      <trkpt lat="45.57302" lon="4.52467">
        <ele>860.03662109375</ele>
        <time>2010-05-09T13:35:35Z</time>
      </trkpt>
      <trkpt lat="45.57317" lon="4.52487">
        <ele>860.998046875</ele>
        <time>2010-05-09T13:35:42Z</time>
      </trkpt>
      <trkpt lat="45.5732" lon="4.52512">
        <ele>860.03662109375</ele>
        <time>2010-05-09T13:35:47Z</time>
      </trkpt>
      <trkpt lat="45.57331" lon="4.52545">
        <ele>858.11401367188</ele>
        <time>2010-05-09T13:35:52Z</time>
      </trkpt>
      <trkpt lat="45.5734" lon="4.52585">
        <ele>858.11401367188</ele>
        <time>2010-05-09T13:35:56Z</time>
      </trkpt>
      <trkpt lat="45.57344" lon="4.52606">
        <ele>858.59448242188</ele>
        <time>2010-05-09T13:35:59Z</time>
      </trkpt>
      <trkpt lat="45.57346" lon="4.52629">
        <ele>858.59448242188</ele>
        <time>2010-05-09T13:36:04Z</time>
      </trkpt>
      <trkpt lat="45.57344" lon="4.52636">
        <ele>859.0751953125</ele>
        <time>2010-05-09T13:36:07Z</time>
      </trkpt>
      <trkpt lat="45.57341" lon="4.52641">
        <ele>860.51733398438</ele>
        <time>2010-05-09T13:36:11Z</time>
      </trkpt>
      <trkpt lat="45.57336" lon="4.52655">
        <ele>861.95947265625</ele>
        <time>2010-05-09T13:36:17Z</time>
      </trkpt>
      <trkpt lat="45.57328" lon="4.52671">
        <ele>864.36254882812</ele>
        <time>2010-05-09T13:36:25Z</time>
      </trkpt>
      <trkpt lat="45.57324" lon="4.52683">
        <ele>865.8046875</ele>
        <time>2010-05-09T13:36:30Z</time>
      </trkpt>
      <trkpt lat="45.57323" lon="4.52688">
        <ele>866.28515625</ele>
        <time>2010-05-09T13:36:32Z</time>
      </trkpt>
      <trkpt lat="45.57316" lon="4.52708">
        <ele>869.16918945312</ele>
        <time>2010-05-09T13:36:41Z</time>
      </trkpt>
      <trkpt lat="45.57312" lon="4.5272">
        <ele>869.64990234375</ele>
        <time>2010-05-09T13:36:46Z</time>
      </trkpt>
      <trkpt lat="45.57304" lon="4.5274">
        <ele>871.572265625</ele>
        <time>2010-05-09T13:36:55Z</time>
      </trkpt>
      <trkpt lat="45.57301" lon="4.52749">
        <ele>873.01440429688</ele>
        <time>2010-05-09T13:36:59Z</time>
      </trkpt>
      <trkpt lat="45.57293" lon="4.52767">
        <ele>875.41748046875</ele>
        <time>2010-05-09T13:37:08Z</time>
      </trkpt>
      <trkpt lat="45.57285" lon="4.52785">
        <ele>877.82104492188</ele>
        <time>2010-05-09T13:37:17Z</time>
      </trkpt>
      <trkpt lat="45.57279" lon="4.52799">
        <ele>881.18579101562</ele>
        <time>2010-05-09T13:37:25Z</time>
      </trkpt>
      <trkpt lat="45.57271" lon="4.52824">
        <ele>883.5888671875</ele>
        <time>2010-05-09T13:37:37Z</time>
      </trkpt>
      <trkpt lat="45.57269" lon="4.52844">
        <ele>884.55029296875</ele>
        <time>2010-05-09T13:37:45Z</time>
      </trkpt>
      <trkpt lat="45.57264" lon="4.52865">
        <ele>884.55029296875</ele>
        <time>2010-05-09T13:37:52Z</time>
      </trkpt>
      <trkpt lat="45.57263" lon="4.52885">
        <ele>884.06958007812</ele>
        <time>2010-05-09T13:37:56Z</time>
      </trkpt>
      <trkpt lat="45.57273" lon="4.52924">
        <ele>882.62768554688</ele>
        <time>2010-05-09T13:38:02Z</time>
      </trkpt>
      <trkpt lat="45.57281" lon="4.5297">
        <ele>882.14697265625</ele>
        <time>2010-05-09T13:38:07Z</time>
      </trkpt>
      <trkpt lat="45.57286" lon="4.5304">
        <ele>880.705078125</ele>
        <time>2010-05-09T13:38:14Z</time>
      </trkpt>
      <trkpt lat="45.57289" lon="4.53089">
        <ele>878.3017578125</ele>
        <time>2010-05-09T13:38:19Z</time>
      </trkpt>
      <trkpt lat="45.57288" lon="4.53164">
        <ele>876.37915039062</ele>
        <time>2010-05-09T13:38:27Z</time>
      </trkpt>
      <trkpt lat="45.57286" lon="4.53211">
        <ele>875.89819335938</ele>
        <time>2010-05-09T13:38:33Z</time>
      </trkpt>
      <trkpt lat="45.57284" lon="4.53272">
        <ele>875.89819335938</ele>
        <time>2010-05-09T13:38:41Z</time>
      </trkpt>
      <trkpt lat="45.57275" lon="4.53327">
        <ele>875.89819335938</ele>
        <time>2010-05-09T13:38:48Z</time>
      </trkpt>
      <trkpt lat="45.57271" lon="4.53358">
        <ele>875.41748046875</ele>
        <time>2010-05-09T13:38:52Z</time>
      </trkpt>
      <trkpt lat="45.57271" lon="4.53374">
        <ele>875.41748046875</ele>
        <time>2010-05-09T13:38:54Z</time>
      </trkpt>
      <trkpt lat="45.57281" lon="4.53439">
        <ele>873.9755859375</ele>
        <time>2010-05-09T13:39:01Z</time>
      </trkpt>
      <trkpt lat="45.57286" lon="4.53457">
        <ele>873.01440429688</ele>
        <time>2010-05-09T13:39:03Z</time>
      </trkpt>
      <trkpt lat="45.57305" lon="4.53497">
        <ele>871.572265625</ele>
        <time>2010-05-09T13:39:09Z</time>
      </trkpt>
      <trkpt lat="45.57315" lon="4.53522">
        <ele>870.61108398438</ele>
        <time>2010-05-09T13:39:15Z</time>
      </trkpt>
      <trkpt lat="45.57324" lon="4.53545">
        <ele>871.572265625</ele>
        <time>2010-05-09T13:39:21Z</time>
      </trkpt>
      <trkpt lat="45.57329" lon="4.53575">
        <ele>871.572265625</ele>
        <time>2010-05-09T13:39:27Z</time>
      </trkpt>
      <trkpt lat="45.57329" lon="4.53589">
        <ele>871.572265625</ele>
        <time>2010-05-09T13:39:31Z</time>
      </trkpt>
      <trkpt lat="45.57332" lon="4.53595">
        <ele>871.091796875</ele>
        <time>2010-05-09T13:39:35Z</time>
      </trkpt>
      <trkpt lat="45.57344" lon="4.53619">
        <ele>870.61108398438</ele>
        <time>2010-05-09T13:39:42Z</time>
      </trkpt>
      <trkpt lat="45.57359" lon="4.53654">
        <ele>870.13037109375</ele>
        <time>2010-05-09T13:39:49Z</time>
      </trkpt>
      <trkpt lat="45.5738" lon="4.53692">
        <ele>869.16918945312</ele>
        <time>2010-05-09T13:39:57Z</time>
      </trkpt>
      <trkpt lat="45.57415" lon="4.53733">
        <ele>867.72705078125</ele>
        <time>2010-05-09T13:40:07Z</time>
      </trkpt>
      <trkpt lat="45.57433" lon="4.53756">
        <ele>866.28515625</ele>
        <time>2010-05-09T13:40:12Z</time>
      </trkpt>
      <trkpt lat="45.57441" lon="4.53771">
        <ele>865.8046875</ele>
        <time>2010-05-09T13:40:15Z</time>
      </trkpt>
      <trkpt lat="45.57467" lon="4.53807">
        <ele>864.36254882812</ele>
        <time>2010-05-09T13:40:23Z</time>
      </trkpt>
      <trkpt lat="45.57476" lon="4.53826">
        <ele>863.4013671875</ele>
        <time>2010-05-09T13:40:27Z</time>
      </trkpt>
      <trkpt lat="45.57485" lon="4.53839">
        <ele>862.92065429688</ele>
        <time>2010-05-09T13:40:30Z</time>
      </trkpt>
      <trkpt lat="45.57495" lon="4.5386">
        <ele>861.95947265625</ele>
        <time>2010-05-09T13:40:34Z</time>
      </trkpt>
      <trkpt lat="45.57504" lon="4.53875">
        <ele>861.47875976562</ele>
        <time>2010-05-09T13:40:37Z</time>
      </trkpt>
      <trkpt lat="45.57512" lon="4.53886">
        <ele>860.03662109375</ele>
        <time>2010-05-09T13:40:39Z</time>
      </trkpt>
      <trkpt lat="45.57534" lon="4.53929">
        <ele>859.0751953125</ele>
        <time>2010-05-09T13:40:46Z</time>
      </trkpt>
      <trkpt lat="45.57541" lon="4.53948">
        <ele>858.11401367188</ele>
        <time>2010-05-09T13:40:49Z</time>
      </trkpt>
      <trkpt lat="45.57549" lon="4.53965">
        <ele>856.671875</ele>
        <time>2010-05-09T13:40:52Z</time>
      </trkpt>
      <trkpt lat="45.57563" lon="4.53999">
        <ele>855.71069335938</ele>
        <time>2010-05-09T13:40:57Z</time>
      </trkpt>
      <trkpt lat="45.57578" lon="4.54044">
        <ele>855.22998046875</ele>
        <time>2010-05-09T13:41:04Z</time>
      </trkpt>
      <trkpt lat="45.57583" lon="4.54066">
        <ele>855.22998046875</ele>
        <time>2010-05-09T13:41:09Z</time>
      </trkpt>
      <trkpt lat="45.57584" lon="4.54076">
        <ele>855.22998046875</ele>
        <time>2010-05-09T13:41:11Z</time>
      </trkpt>
      <trkpt lat="45.57584" lon="4.54098">
        <ele>855.71069335938</ele>
        <time>2010-05-09T13:41:15Z</time>
      </trkpt>
      <trkpt lat="45.57588" lon="4.54114">
        <ele>856.19116210938</ele>
        <time>2010-05-09T13:41:18Z</time>
      </trkpt>
      <trkpt lat="45.57603" lon="4.54147">
        <ele>856.671875</ele>
        <time>2010-05-09T13:41:25Z</time>
      </trkpt>
      <trkpt lat="45.57614" lon="4.54169">
        <ele>856.671875</ele>
        <time>2010-05-09T13:41:30Z</time>
      </trkpt>
      <trkpt lat="45.57631" lon="4.54192">
        <ele>856.19116210938</ele>
        <time>2010-05-09T13:41:36Z</time>
      </trkpt>
      <trkpt lat="45.57659" lon="4.54218">
        <ele>856.19116210938</ele>
        <time>2010-05-09T13:41:43Z</time>
      </trkpt>
      <trkpt lat="45.57687" lon="4.54243">
        <ele>854.74926757812</ele>
        <time>2010-05-09T13:41:50Z</time>
      </trkpt>
      <trkpt lat="45.57706" lon="4.54262">
        <ele>853.7880859375</ele>
        <time>2010-05-09T13:41:55Z</time>
      </trkpt>
      <trkpt lat="45.57738" lon="4.54294">
        <ele>851.86547851562</ele>
        <time>2010-05-09T13:42:03Z</time>
      </trkpt>
      <trkpt lat="45.5775" lon="4.54307">
        <ele>851.86547851562</ele>
        <time>2010-05-09T13:42:06Z</time>
      </trkpt>
      <trkpt lat="45.57758" lon="4.54315">
        <ele>851.86547851562</ele>
        <time>2010-05-09T13:42:08Z</time>
      </trkpt>
      <trkpt lat="45.57777" lon="4.54336">
        <ele>850.90405273438</ele>
        <time>2010-05-09T13:42:13Z</time>
      </trkpt>
      <trkpt lat="45.57781" lon="4.5434">
        <ele>850.42358398438</ele>
        <time>2010-05-09T13:42:14Z</time>
      </trkpt>
      <trkpt lat="45.57789" lon="4.54348">
        <ele>849.94287109375</ele>
        <time>2010-05-09T13:42:16Z</time>
      </trkpt>
      <trkpt lat="45.57796" lon="4.54354">
        <ele>849.46215820312</ele>
        <time>2010-05-09T13:42:18Z</time>
      </trkpt>
      <trkpt lat="45.5782" lon="4.54381">
        <ele>848.02026367188</ele>
        <time>2010-05-09T13:42:24Z</time>
      </trkpt>
      <trkpt lat="45.57837" lon="4.54405">
        <ele>846.57836914062</ele>
        <time>2010-05-09T13:42:28Z</time>
      </trkpt>
      <trkpt lat="45.57856" lon="4.54438">
        <ele>844.65551757812</ele>
        <time>2010-05-09T13:42:33Z</time>
      </trkpt>
      <trkpt lat="45.57875" lon="4.54472">
        <ele>842.25219726562</ele>
        <time>2010-05-09T13:42:39Z</time>
      </trkpt>
      <trkpt lat="45.57886" lon="4.54494">
        <ele>840.81005859375</ele>
        <time>2010-05-09T13:42:43Z</time>
      </trkpt>
      <trkpt lat="45.57898" lon="4.54528">
        <ele>839.3681640625</ele>
        <time>2010-05-09T13:42:49Z</time>
      </trkpt>
      <trkpt lat="45.57898" lon="4.5454">
        <ele>839.3681640625</ele>
        <time>2010-05-09T13:42:53Z</time>
      </trkpt>
      <trkpt lat="45.579" lon="4.5455">
        <ele>838.40698242188</ele>
        <time>2010-05-09T13:42:55Z</time>
      </trkpt>
      <trkpt lat="45.57906" lon="4.54577">
        <ele>836.96484375</ele>
        <time>2010-05-09T13:42:59Z</time>
      </trkpt>
      <trkpt lat="45.57911" lon="4.54597">
        <ele>836.484375</ele>
        <time>2010-05-09T13:43:02Z</time>
      </trkpt>
      <trkpt lat="45.57909" lon="4.54631">
        <ele>835.04248046875</ele>
        <time>2010-05-09T13:43:07Z</time>
      </trkpt>
      <trkpt lat="45.57905" lon="4.54654">
        <ele>834.56176757812</ele>
        <time>2010-05-09T13:43:11Z</time>
      </trkpt>
      <trkpt lat="45.57904" lon="4.54672">
        <ele>833.60034179688</ele>
        <time>2010-05-09T13:43:15Z</time>
      </trkpt>
      <trkpt lat="45.57904" lon="4.54692">
        <ele>833.60034179688</ele>
        <time>2010-05-09T13:43:20Z</time>
      </trkpt>
      <trkpt lat="45.57901" lon="4.54715">
        <ele>833.11962890625</ele>
        <time>2010-05-09T13:43:24Z</time>
      </trkpt>
      <trkpt lat="45.579" lon="4.54742">
        <ele>832.15844726562</ele>
        <time>2010-05-09T13:43:29Z</time>
      </trkpt>
      <trkpt lat="45.57896" lon="4.54783">
        <ele>830.71655273438</ele>
        <time>2010-05-09T13:43:35Z</time>
      </trkpt>
      <trkpt lat="45.57896" lon="4.54807">
        <ele>830.23583984375</ele>
        <time>2010-05-09T13:43:39Z</time>
      </trkpt>
      <trkpt lat="45.57898" lon="4.54829">
        <ele>828.31323242188</ele>
        <time>2010-05-09T13:43:43Z</time>
      </trkpt>
      <trkpt lat="45.57898" lon="4.54833">
        <ele>827.83227539062</ele>
        <time>2010-05-09T13:43:44Z</time>
      </trkpt>
      <trkpt lat="45.57897" lon="4.54851">
        <ele>827.83227539062</ele>
        <time>2010-05-09T13:43:48Z</time>
      </trkpt>
      <trkpt lat="45.57896" lon="4.54872">
        <ele>826.39038085938</ele>
        <time>2010-05-09T13:43:51Z</time>
      </trkpt>
      <trkpt lat="45.57895" lon="4.54904">
        <ele>825.42895507812</ele>
        <time>2010-05-09T13:43:55Z</time>
      </trkpt>
      <trkpt lat="45.57894" lon="4.54921">
        <ele>824.94848632812</ele>
        <time>2010-05-09T13:43:57Z</time>
      </trkpt>
      <trkpt lat="45.57889" lon="4.54982">
        <ele>823.02587890625</ele>
        <time>2010-05-09T13:44:04Z</time>
      </trkpt>
      <trkpt lat="45.57879" lon="4.55027">
        <ele>821.10327148438</ele>
        <time>2010-05-09T13:44:10Z</time>
      </trkpt>
      <trkpt lat="45.57871" lon="4.55058">
        <ele>821.10327148438</ele>
        <time>2010-05-09T13:44:14Z</time>
      </trkpt>
      <trkpt lat="45.57864" lon="4.5509">
        <ele>818.69995117188</ele>
        <time>2010-05-09T13:44:18Z</time>
      </trkpt>
      <trkpt lat="45.57856" lon="4.55124">
        <ele>817.73852539062</ele>
        <time>2010-05-09T13:44:22Z</time>
      </trkpt>
      <trkpt lat="45.57853" lon="4.5517">
        <ele>818.69995117188</ele>
        <time>2010-05-09T13:44:28Z</time>
      </trkpt>
      <trkpt lat="45.57852" lon="4.55177">
        <ele>818.21923828125</ele>
        <time>2010-05-09T13:44:29Z</time>
      </trkpt>
      <trkpt lat="45.57853" lon="4.55204">
        <ele>817.73852539062</ele>
        <time>2010-05-09T13:44:33Z</time>
      </trkpt>
      <trkpt lat="45.57851" lon="4.55218">
        <ele>818.21923828125</ele>
        <time>2010-05-09T13:44:35Z</time>
      </trkpt>
      <trkpt lat="45.57846" lon="4.55249">
        <ele>818.21923828125</ele>
        <time>2010-05-09T13:44:40Z</time>
      </trkpt>
      <trkpt lat="45.57845" lon="4.55267">
        <ele>818.69995117188</ele>
        <time>2010-05-09T13:44:44Z</time>
      </trkpt>
      <trkpt lat="45.57849" lon="4.55287">
        <ele>817.25805664062</ele>
        <time>2010-05-09T13:44:48Z</time>
      </trkpt>
      <trkpt lat="45.57853" lon="4.55326">
        <ele>817.25805664062</ele>
        <time>2010-05-09T13:44:54Z</time>
      </trkpt>
      <trkpt lat="45.57858" lon="4.55355">
        <ele>817.25805664062</ele>
        <time>2010-05-09T13:44:58Z</time>
      </trkpt>
      <trkpt lat="45.57867" lon="4.55388">
        <ele>817.25805664062</ele>
        <time>2010-05-09T13:45:03Z</time>
      </trkpt>
      <trkpt lat="45.57876" lon="4.55411">
        <ele>815.81616210938</ele>
        <time>2010-05-09T13:45:07Z</time>
      </trkpt>
      <trkpt lat="45.57881" lon="4.55421">
        <ele>816.77734375</ele>
        <time>2010-05-09T13:45:09Z</time>
      </trkpt>
      <trkpt lat="45.57896" lon="4.55446">
        <ele>815.33544921875</ele>
        <time>2010-05-09T13:45:14Z</time>
      </trkpt>
      <trkpt lat="45.57902" lon="4.55457">
        <ele>814.3740234375</ele>
        <time>2010-05-09T13:45:16Z</time>
      </trkpt>
      <trkpt lat="45.57907" lon="4.55485">
        <ele>814.3740234375</ele>
        <time>2010-05-09T13:45:20Z</time>
      </trkpt>
      <trkpt lat="45.57911" lon="4.5552">
        <ele>815.33544921875</ele>
        <time>2010-05-09T13:45:25Z</time>
      </trkpt>
      <trkpt lat="45.57916" lon="4.55557">
        <ele>813.89331054688</ele>
        <time>2010-05-09T13:45:30Z</time>
      </trkpt>
      <trkpt lat="45.57919" lon="4.55574">
        <ele>812.45141601562</ele>
        <time>2010-05-09T13:45:32Z</time>
      </trkpt>
      <trkpt lat="45.57926" lon="4.55597">
        <ele>811.00927734375</ele>
        <time>2010-05-09T13:45:36Z</time>
      </trkpt>
      <trkpt lat="45.57927" lon="4.55602">
        <ele>811.48999023438</ele>
        <time>2010-05-09T13:45:37Z</time>
      </trkpt>
      <trkpt lat="45.57931" lon="4.5562">
        <ele>811.00927734375</ele>
        <time>2010-05-09T13:45:44Z</time>
      </trkpt>
      <trkpt lat="45.57935" lon="4.55636">
        <ele>812.93212890625</ele>
        <time>2010-05-09T13:45:49Z</time>
      </trkpt>
      <trkpt lat="45.57945" lon="4.55664">
        <ele>813.41284179688</ele>
        <time>2010-05-09T13:45:55Z</time>
      </trkpt>
      <trkpt lat="45.57954" lon="4.55694">
        <ele>813.89331054688</ele>
        <time>2010-05-09T13:46:01Z</time>
      </trkpt>
      <trkpt lat="45.57965" lon="4.55737">
        <ele>813.89331054688</ele>
        <time>2010-05-09T13:46:09Z</time>
      </trkpt>
      <trkpt lat="45.5798" lon="4.55786">
        <ele>814.85473632812</ele>
        <time>2010-05-09T13:46:18Z</time>
      </trkpt>
      <trkpt lat="45.57987" lon="4.55828">
        <ele>814.85473632812</ele>
        <time>2010-05-09T13:46:26Z</time>
      </trkpt>
      <trkpt lat="45.57988" lon="4.55848">
        <ele>816.77734375</ele>
        <time>2010-05-09T13:46:31Z</time>
      </trkpt>
      <trkpt lat="45.57989" lon="4.55863">
        <ele>817.25805664062</ele>
        <time>2010-05-09T13:46:36Z</time>
      </trkpt>
      <trkpt lat="45.57995" lon="4.55881">
        <ele>817.73852539062</ele>
        <time>2010-05-09T13:46:42Z</time>
      </trkpt>
      <trkpt lat="45.58001" lon="4.55892">
        <ele>818.69995117188</ele>
        <time>2010-05-09T13:46:47Z</time>
      </trkpt>
      <trkpt lat="45.58004" lon="4.55899">
        <ele>820.14184570312</ele>
        <time>2010-05-09T13:46:50Z</time>
      </trkpt>
      <trkpt lat="45.58006" lon="4.55912">
        <ele>821.58374023438</ele>
        <time>2010-05-09T13:46:55Z</time>
      </trkpt>
      <trkpt lat="45.5801" lon="4.55931">
        <ele>823.50659179688</ele>
        <time>2010-05-09T13:47:04Z</time>
      </trkpt>
      <trkpt lat="45.58015" lon="4.55946">
        <ele>825.42895507812</ele>
        <time>2010-05-09T13:47:11Z</time>
      </trkpt>
      <trkpt lat="45.58018" lon="4.55961">
        <ele>825.90966796875</ele>
        <time>2010-05-09T13:47:18Z</time>
      </trkpt>
      <trkpt lat="45.58018" lon="4.55963">
        <ele>825.90966796875</ele>
        <time>2010-05-09T13:47:19Z</time>
      </trkpt>
      <trkpt lat="45.58019" lon="4.55978">
        <ele>825.90966796875</ele>
        <time>2010-05-09T13:47:25Z</time>
      </trkpt>
      <trkpt lat="45.5802" lon="4.55981">
        <ele>826.39038085938</ele>
        <time>2010-05-09T13:47:26Z</time>
      </trkpt>
      <trkpt lat="45.5803" lon="4.56003">
        <ele>826.87109375</ele>
        <time>2010-05-09T13:47:32Z</time>
      </trkpt>
      <trkpt lat="45.58034" lon="4.56021">
        <ele>827.35180664062</ele>
        <time>2010-05-09T13:47:37Z</time>
      </trkpt>
      <trkpt lat="45.58039" lon="4.56041">
        <ele>827.83227539062</ele>
        <time>2010-05-09T13:47:42Z</time>
      </trkpt>
      <trkpt lat="45.58042" lon="4.56053">
        <ele>828.7939453125</ele>
        <time>2010-05-09T13:47:45Z</time>
      </trkpt>
      <trkpt lat="45.58043" lon="4.56066">
        <ele>829.2744140625</ele>
        <time>2010-05-09T13:47:50Z</time>
      </trkpt>
      <trkpt lat="45.58043" lon="4.56068">
        <ele>829.75512695312</ele>
        <time>2010-05-09T13:47:51Z</time>
      </trkpt>
      <trkpt lat="45.58043" lon="4.56088">
        <ele>832.15844726562</ele>
        <time>2010-05-09T13:48:00Z</time>
      </trkpt>
      <trkpt lat="45.58041" lon="4.56105">
        <ele>832.63916015625</ele>
        <time>2010-05-09T13:48:05Z</time>
      </trkpt>
      <trkpt lat="45.58039" lon="4.56116">
        <ele>831.677734375</ele>
        <time>2010-05-09T13:48:07Z</time>
      </trkpt>
      <trkpt lat="45.58043" lon="4.56151">
        <ele>831.677734375</ele>
        <time>2010-05-09T13:48:12Z</time>
      </trkpt>
      <trkpt lat="45.58046" lon="4.56174">
        <ele>831.677734375</ele>
        <time>2010-05-09T13:48:16Z</time>
      </trkpt>
      <trkpt lat="45.58051" lon="4.56195">
        <ele>831.677734375</ele>
        <time>2010-05-09T13:48:20Z</time>
      </trkpt>
      <trkpt lat="45.58063" lon="4.56224">
        <ele>832.15844726562</ele>
        <time>2010-05-09T13:48:26Z</time>
      </trkpt>
      <trkpt lat="45.58067" lon="4.56236">
        <ele>831.677734375</ele>
        <time>2010-05-09T13:48:28Z</time>
      </trkpt>
      <trkpt lat="45.58086" lon="4.56275">
        <ele>832.63916015625</ele>
        <time>2010-05-09T13:48:35Z</time>
      </trkpt>
      <trkpt lat="45.58101" lon="4.56309">
        <ele>832.63916015625</ele>
        <time>2010-05-09T13:48:42Z</time>
      </trkpt>
      <trkpt lat="45.58106" lon="4.56326">
        <ele>832.63916015625</ele>
        <time>2010-05-09T13:48:45Z</time>
      </trkpt>
      <trkpt lat="45.58115" lon="4.56351">
        <ele>832.15844726562</ele>
        <time>2010-05-09T13:48:49Z</time>
      </trkpt>
      <trkpt lat="45.58121" lon="4.56364">
        <ele>831.677734375</ele>
        <time>2010-05-09T13:48:51Z</time>
      </trkpt>
      <trkpt lat="45.58141" lon="4.56387">
        <ele>831.197265625</ele>
        <time>2010-05-09T13:48:56Z</time>
      </trkpt>
      <trkpt lat="45.58151" lon="4.56393">
        <ele>830.71655273438</ele>
        <time>2010-05-09T13:48:59Z</time>
      </trkpt>
      <trkpt lat="45.58174" lon="4.56428">
        <ele>828.31323242188</ele>
        <time>2010-05-09T13:49:05Z</time>
      </trkpt>
      <trkpt lat="45.58185" lon="4.56447">
        <ele>827.83227539062</ele>
        <time>2010-05-09T13:49:08Z</time>
      </trkpt>
      <trkpt lat="45.58195" lon="4.56455">
        <ele>827.35180664062</ele>
        <time>2010-05-09T13:49:10Z</time>
      </trkpt>
      <trkpt lat="45.58218" lon="4.5649">
        <ele>825.42895507812</ele>
        <time>2010-05-09T13:49:16Z</time>
      </trkpt>
      <trkpt lat="45.58223" lon="4.56504">
        <ele>824.94848632812</ele>
        <time>2010-05-09T13:49:18Z</time>
      </trkpt>
      <trkpt lat="45.58232" lon="4.56526">
        <ele>824.94848632812</ele>
        <time>2010-05-09T13:49:21Z</time>
      </trkpt>
      <trkpt lat="45.58247" lon="4.5655">
        <ele>822.54516601562</ele>
        <time>2010-05-09T13:49:25Z</time>
      </trkpt>
      <trkpt lat="45.5826" lon="4.56569">
        <ele>821.58374023438</ele>
        <time>2010-05-09T13:49:29Z</time>
      </trkpt>
      <trkpt lat="45.5828" lon="4.56608">
        <ele>818.69995117188</ele>
        <time>2010-05-09T13:49:35Z</time>
      </trkpt>
      <trkpt lat="45.58292" lon="4.56624">
        <ele>817.25805664062</ele>
        <time>2010-05-09T13:49:38Z</time>
      </trkpt>
      <trkpt lat="45.58296" lon="4.56629">
        <ele>817.25805664062</ele>
        <time>2010-05-09T13:49:39Z</time>
      </trkpt>
      <trkpt lat="45.58315" lon="4.56656">
        <ele>813.89331054688</ele>
        <time>2010-05-09T13:49:44Z</time>
      </trkpt>
      <trkpt lat="45.58318" lon="4.56661">
        <ele>812.93212890625</ele>
        <time>2010-05-09T13:49:45Z</time>
      </trkpt>
      <trkpt lat="45.58337" lon="4.56679">
        <ele>811.00927734375</ele>
        <time>2010-05-09T13:49:50Z</time>
      </trkpt>
      <trkpt lat="45.58355" lon="4.56705">
        <ele>807.1640625</ele>
        <time>2010-05-09T13:49:55Z</time>
      </trkpt>
      <trkpt lat="45.58371" lon="4.5675">
        <ele>804.7607421875</ele>
        <time>2010-05-09T13:50:00Z</time>
      </trkpt>
      <trkpt lat="45.58372" lon="4.56767">
        <ele>803.79956054688</ele>
        <time>2010-05-09T13:50:03Z</time>
      </trkpt>
      <trkpt lat="45.58368" lon="4.56793">
        <ele>803.79956054688</ele>
        <time>2010-05-09T13:50:08Z</time>
      </trkpt>
      <trkpt lat="45.58363" lon="4.56818">
        <ele>803.31884765625</ele>
        <time>2010-05-09T13:50:13Z</time>
      </trkpt>
      <trkpt lat="45.58364" lon="4.5684">
        <ele>803.31884765625</ele>
        <time>2010-05-09T13:50:18Z</time>
      </trkpt>
      <trkpt lat="45.58372" lon="4.56856">
        <ele>803.31884765625</ele>
        <time>2010-05-09T13:50:24Z</time>
      </trkpt>
      <trkpt lat="45.58377" lon="4.56858">
        <ele>802.83813476562</ele>
        <time>2010-05-09T13:50:26Z</time>
      </trkpt>
      <trkpt lat="45.58393" lon="4.56866">
        <ele>803.31884765625</ele>
        <time>2010-05-09T13:50:33Z</time>
      </trkpt>
      <trkpt lat="45.58413" lon="4.5688">
        <ele>804.7607421875</ele>
        <time>2010-05-09T13:50:40Z</time>
      </trkpt>
      <trkpt lat="45.5843" lon="4.56896">
        <ele>805.24145507812</ele>
        <time>2010-05-09T13:50:46Z</time>
      </trkpt>
      <trkpt lat="45.58445" lon="4.56918">
        <ele>805.72216796875</ele>
        <time>2010-05-09T13:50:52Z</time>
      </trkpt>
      <trkpt lat="45.58453" lon="4.56928">
        <ele>807.1640625</ele>
        <time>2010-05-09T13:50:56Z</time>
      </trkpt>
      <trkpt lat="45.58463" lon="4.5693">
        <ele>808.60595703125</ele>
        <time>2010-05-09T13:51:02Z</time>
      </trkpt>
      <trkpt lat="45.58476" lon="4.56929">
        <ele>810.0478515625</ele>
        <time>2010-05-09T13:51:09Z</time>
      </trkpt>
      <trkpt lat="45.58488" lon="4.56939">
        <ele>811.00927734375</ele>
        <time>2010-05-09T13:51:17Z</time>
      </trkpt>
      <trkpt lat="45.58498" lon="4.5695">
        <ele>812.45141601562</ele>
        <time>2010-05-09T13:51:24Z</time>
      </trkpt>
      <trkpt lat="45.58512" lon="4.56961">
        <ele>813.41284179688</ele>
        <time>2010-05-09T13:51:32Z</time>
      </trkpt>
      <trkpt lat="45.58526" lon="4.56974">
        <ele>814.3740234375</ele>
        <time>2010-05-09T13:51:40Z</time>
      </trkpt>
      <trkpt lat="45.58535" lon="4.56982">
        <ele>816.29663085938</ele>
        <time>2010-05-09T13:51:46Z</time>
      </trkpt>
      <trkpt lat="45.58536" lon="4.56984">
        <ele>816.29663085938</ele>
        <time>2010-05-09T13:51:47Z</time>
      </trkpt>
      <trkpt lat="45.58549" lon="4.56991">
        <ele>816.77734375</ele>
        <time>2010-05-09T13:51:55Z</time>
      </trkpt>
      <trkpt lat="45.58559" lon="4.56996">
        <ele>818.69995117188</ele>
        <time>2010-05-09T13:52:01Z</time>
      </trkpt>
      <trkpt lat="45.58569" lon="4.5701">
        <ele>819.66137695312</ele>
        <time>2010-05-09T13:52:08Z</time>
      </trkpt>
      <trkpt lat="45.58577" lon="4.57025">
        <ele>821.10327148438</ele>
        <time>2010-05-09T13:52:15Z</time>
      </trkpt>
      <trkpt lat="45.58584" lon="4.57042">
        <ele>822.064453125</ele>
        <time>2010-05-09T13:52:22Z</time>
      </trkpt>
      <trkpt lat="45.58593" lon="4.57062">
        <ele>823.98706054688</ele>
        <time>2010-05-09T13:52:31Z</time>
      </trkpt>
      <trkpt lat="45.58599" lon="4.57072">
        <ele>823.98706054688</ele>
        <time>2010-05-09T13:52:38Z</time>
      </trkpt>
      <trkpt lat="45.58604" lon="4.57083">
        <ele>823.98706054688</ele>
        <time>2010-05-09T13:52:43Z</time>
      </trkpt>
      <trkpt lat="45.58617" lon="4.57111">
        <ele>823.50659179688</ele>
        <time>2010-05-09T13:52:50Z</time>
      </trkpt>
      <trkpt lat="45.58638" lon="4.57148">
        <ele>822.54516601562</ele>
        <time>2010-05-09T13:52:57Z</time>
      </trkpt>
      <trkpt lat="45.58641" lon="4.57153">
        <ele>819.1806640625</ele>
        <time>2010-05-09T13:52:58Z</time>
      </trkpt>
      <trkpt lat="45.58661" lon="4.57183">
        <ele>822.54516601562</ele>
        <time>2010-05-09T13:53:04Z</time>
      </trkpt>
      <trkpt lat="45.58685" lon="4.57215">
        <ele>823.02587890625</ele>
        <time>2010-05-09T13:53:11Z</time>
      </trkpt>
      <trkpt lat="45.58709" lon="4.5724">
        <ele>823.02587890625</ele>
        <time>2010-05-09T13:53:17Z</time>
      </trkpt>
      <trkpt lat="45.58732" lon="4.57254">
        <ele>822.064453125</ele>
        <time>2010-05-09T13:53:22Z</time>
      </trkpt>
      <trkpt lat="45.58747" lon="4.57259">
        <ele>822.064453125</ele>
        <time>2010-05-09T13:53:25Z</time>
      </trkpt>
      <trkpt lat="45.58763" lon="4.57263">
        <ele>820.14184570312</ele>
        <time>2010-05-09T13:53:28Z</time>
      </trkpt>
      <trkpt lat="45.58776" lon="4.5727">
        <ele>818.21923828125</ele>
        <time>2010-05-09T13:53:31Z</time>
      </trkpt>
      <trkpt lat="45.58788" lon="4.57278">
        <ele>816.77734375</ele>
        <time>2010-05-09T13:53:34Z</time>
      </trkpt>
      <trkpt lat="45.58806" lon="4.57277">
        <ele>814.85473632812</ele>
        <time>2010-05-09T13:53:38Z</time>
      </trkpt>
      <trkpt lat="45.58826" lon="4.57269">
        <ele>811.48999023438</ele>
        <time>2010-05-09T13:53:42Z</time>
      </trkpt>
      <trkpt lat="45.58849" lon="4.57271">
        <ele>807.64477539062</ele>
        <time>2010-05-09T13:53:46Z</time>
      </trkpt>
      <trkpt lat="45.58854" lon="4.57273">
        <ele>807.64477539062</ele>
        <time>2010-05-09T13:53:47Z</time>
      </trkpt>
      <trkpt lat="45.58868" lon="4.57277">
        <ele>804.2802734375</ele>
        <time>2010-05-09T13:53:50Z</time>
      </trkpt>
      <trkpt lat="45.58881" lon="4.57277">
        <ele>804.2802734375</ele>
        <time>2010-05-09T13:53:53Z</time>
      </trkpt>
      <trkpt lat="45.58908" lon="4.57274">
        <ele>799.95434570312</ele>
        <time>2010-05-09T13:54:00Z</time>
      </trkpt>
      <trkpt lat="45.58926" lon="4.57277">
        <ele>797.0703125</ele>
        <time>2010-05-09T13:54:04Z</time>
      </trkpt>
      <trkpt lat="45.58942" lon="4.57279">
        <ele>795.62817382812</ele>
        <time>2010-05-09T13:54:08Z</time>
      </trkpt>
      <trkpt lat="45.58957" lon="4.57279">
        <ele>791.30224609375</ele>
        <time>2010-05-09T13:54:12Z</time>
      </trkpt>
      <trkpt lat="45.58966" lon="4.57271">
        <ele>789.8603515625</ele>
        <time>2010-05-09T13:54:15Z</time>
      </trkpt>
      <trkpt lat="45.58986" lon="4.57259">
        <ele>786.97631835938</ele>
        <time>2010-05-09T13:54:21Z</time>
      </trkpt>
      <trkpt lat="45.58992" lon="4.57254">
        <ele>785.53442382812</ele>
        <time>2010-05-09T13:54:23Z</time>
      </trkpt>
      <trkpt lat="45.59" lon="4.5725">
        <ele>784.09252929688</ele>
        <time>2010-05-09T13:54:25Z</time>
      </trkpt>
      <trkpt lat="45.59018" lon="4.5724">
        <ele>780.24731445312</ele>
        <time>2010-05-09T13:54:30Z</time>
      </trkpt>
      <trkpt lat="45.59032" lon="4.57232">
        <ele>777.36328125</ele>
        <time>2010-05-09T13:54:35Z</time>
      </trkpt>
      <trkpt lat="45.59045" lon="4.57224">
        <ele>775.4404296875</ele>
        <time>2010-05-09T13:54:40Z</time>
      </trkpt>
      <trkpt lat="45.59058" lon="4.57217">
        <ele>773.51806640625</ele>
        <time>2010-05-09T13:54:45Z</time>
      </trkpt>
      <trkpt lat="45.59074" lon="4.5721">
        <ele>770.63403320312</ele>
        <time>2010-05-09T13:54:50Z</time>
      </trkpt>
      <trkpt lat="45.59087" lon="4.57203">
        <ele>768.23071289062</ele>
        <time>2010-05-09T13:54:54Z</time>
      </trkpt>
      <trkpt lat="45.591" lon="4.5719">
        <ele>766.30810546875</ele>
        <time>2010-05-09T13:54:58Z</time>
      </trkpt>
      <trkpt lat="45.59105" lon="4.57184">
        <ele>765.34692382812</ele>
        <time>2010-05-09T13:55:00Z</time>
      </trkpt>
      <trkpt lat="45.59126" lon="4.57172">
        <ele>763.42407226562</ele>
        <time>2010-05-09T13:55:06Z</time>
      </trkpt>
      <trkpt lat="45.59134" lon="4.57171">
        <ele>762.46264648438</ele>
        <time>2010-05-09T13:55:08Z</time>
      </trkpt>
      <trkpt lat="45.59148" lon="4.57179">
        <ele>761.50146484375</ele>
        <time>2010-05-09T13:55:12Z</time>
      </trkpt>
      <trkpt lat="45.59164" lon="4.57196">
        <ele>760.05932617188</ele>
        <time>2010-05-09T13:55:18Z</time>
      </trkpt>
      <trkpt lat="45.59177" lon="4.57208">
        <ele>759.09814453125</ele>
        <time>2010-05-09T13:55:24Z</time>
      </trkpt>
      <trkpt lat="45.59188" lon="4.57209">
        <ele>757.65625</ele>
        <time>2010-05-09T13:55:28Z</time>
      </trkpt>
      <trkpt lat="45.59214" lon="4.57195">
        <ele>756.21411132812</ele>
        <time>2010-05-09T13:55:33Z</time>
      </trkpt>
      <trkpt lat="45.59219" lon="4.57192">
        <ele>755.73364257812</ele>
        <time>2010-05-09T13:55:34Z</time>
      </trkpt>
      <trkpt lat="45.59253" lon="4.57174">
        <ele>751.40771484375</ele>
        <time>2010-05-09T13:55:39Z</time>
      </trkpt>
      <trkpt lat="45.59259" lon="4.57171">
        <ele>751.40771484375</ele>
        <time>2010-05-09T13:55:40Z</time>
      </trkpt>
      <trkpt lat="45.59269" lon="4.57165">
        <ele>749.9658203125</ele>
        <time>2010-05-09T13:55:42Z</time>
      </trkpt>
      <trkpt lat="45.59284" lon="4.57163">
        <ele>749.48510742188</ele>
        <time>2010-05-09T13:55:45Z</time>
      </trkpt>
      <trkpt lat="45.59299" lon="4.57155">
        <ele>747.56225585938</ele>
        <time>2010-05-09T13:55:49Z</time>
      </trkpt>
      <trkpt lat="45.59306" lon="4.5714">
        <ele>745.15893554688</ele>
        <time>2010-05-09T13:55:53Z</time>
      </trkpt>
      <trkpt lat="45.59314" lon="4.57117">
        <ele>742.27514648438</ele>
        <time>2010-05-09T13:55:59Z</time>
      </trkpt>
      <trkpt lat="45.59315" lon="4.57111">
        <ele>741.79443359375</ele>
        <time>2010-05-09T13:56:00Z</time>
      </trkpt>
      <trkpt lat="45.59321" lon="4.57094">
        <ele>740.3525390625</ele>
        <time>2010-05-09T13:56:04Z</time>
      </trkpt>
      <trkpt lat="45.59335" lon="4.57062">
        <ele>737.94921875</ele>
        <time>2010-05-09T13:56:10Z</time>
      </trkpt>
      <trkpt lat="45.59346" lon="4.57036">
        <ele>735.0654296875</ele>
        <time>2010-05-09T13:56:15Z</time>
      </trkpt>
      <trkpt lat="45.59349" lon="4.5703">
        <ele>735.0654296875</ele>
        <time>2010-05-09T13:56:16Z</time>
      </trkpt>
      <trkpt lat="45.59353" lon="4.57017">
        <ele>734.10400390625</ele>
        <time>2010-05-09T13:56:18Z</time>
      </trkpt>
      <trkpt lat="45.59365" lon="4.56997">
        <ele>732.662109375</ele>
        <time>2010-05-09T13:56:23Z</time>
      </trkpt>
      <trkpt lat="45.59362" lon="4.56994">
        <ele>731.70043945312</ele>
        <time>2010-05-09T13:56:26Z</time>
      </trkpt>
      <trkpt lat="45.5936" lon="4.57003">
        <ele>732.662109375</ele>
        <time>2010-05-09T13:56:30Z</time>
      </trkpt>
      <trkpt lat="45.59362" lon="4.57004">
        <ele>732.662109375</ele>
        <time>2010-05-09T13:56:31Z</time>
      </trkpt>
      <trkpt lat="45.59369" lon="4.57014">
        <ele>731.70043945312</ele>
        <time>2010-05-09T13:56:37Z</time>
      </trkpt>
      <trkpt lat="45.59369" lon="4.57014">
        <ele>731.70043945312</ele>
        <time>2010-05-09T13:56:45Z</time>
      </trkpt>
      <trkpt lat="45.59365" lon="4.57011">
        <ele>732.18139648438</ele>
        <time>2010-05-09T13:56:50Z</time>
      </trkpt>
      <trkpt lat="45.59361" lon="4.57005">
        <ele>732.18139648438</ele>
        <time>2010-05-09T13:56:55Z</time>
      </trkpt>
      <trkpt lat="45.59365" lon="4.56992">
        <ele>731.70043945312</ele>
        <time>2010-05-09T13:57:00Z</time>
      </trkpt>
      <trkpt lat="45.59376" lon="4.56957">
        <ele>731.21997070312</ele>
        <time>2010-05-09T13:57:07Z</time>
      </trkpt>
      <trkpt lat="45.59383" lon="4.56932">
        <ele>730.25854492188</ele>
        <time>2010-05-09T13:57:11Z</time>
      </trkpt>
      <trkpt lat="45.5939" lon="4.56912">
        <ele>730.25854492188</ele>
        <time>2010-05-09T13:57:14Z</time>
      </trkpt>
      <trkpt lat="45.59409" lon="4.56886">
        <ele>728.81665039062</ele>
        <time>2010-05-09T13:57:19Z</time>
      </trkpt>
      <trkpt lat="45.59428" lon="4.56885">
        <ele>727.37475585938</ele>
        <time>2010-05-09T13:57:22Z</time>
      </trkpt>
      <trkpt lat="45.59441" lon="4.56907">
        <ele>726.41333007812</ele>
        <time>2010-05-09T13:57:25Z</time>
      </trkpt>
      <trkpt lat="45.59441" lon="4.56929">
        <ele>725.45190429688</ele>
        <time>2010-05-09T13:57:27Z</time>
      </trkpt>
      <trkpt lat="45.5944" lon="4.56977">
        <ele>723.048828125</ele>
        <time>2010-05-09T13:57:31Z</time>
      </trkpt>
      <trkpt lat="45.59443" lon="4.57001">
        <ele>719.20361328125</ele>
        <time>2010-05-09T13:57:34Z</time>
      </trkpt>
      <trkpt lat="45.59445" lon="4.56997">
        <ele>718.72290039062</ele>
        <time>2010-05-09T13:57:38Z</time>
      </trkpt>
      <trkpt lat="45.59443" lon="4.56982">
        <ele>719.20361328125</ele>
        <time>2010-05-09T13:57:42Z</time>
      </trkpt>
      <trkpt lat="45.59442" lon="4.56963">
        <ele>721.60668945312</ele>
        <time>2010-05-09T13:57:47Z</time>
      </trkpt>
      <trkpt lat="45.59442" lon="4.56934">
        <ele>723.048828125</ele>
        <time>2010-05-09T13:57:54Z</time>
      </trkpt>
      <trkpt lat="45.59441" lon="4.56913">
        <ele>724.49072265625</ele>
        <time>2010-05-09T13:58:00Z</time>
      </trkpt>
      <trkpt lat="45.59438" lon="4.56896">
        <ele>725.45190429688</ele>
        <time>2010-05-09T13:58:06Z</time>
      </trkpt>
      <trkpt lat="45.59438" lon="4.56894">
        <ele>725.45190429688</ele>
        <time>2010-05-09T13:58:07Z</time>
      </trkpt>
      <trkpt lat="45.59436" lon="4.56897">
        <ele>725.45190429688</ele>
        <time>2010-05-09T13:58:11Z</time>
      </trkpt>
      <trkpt lat="45.59443" lon="4.56904">
        <ele>724.97143554688</ele>
        <time>2010-05-09T13:58:14Z</time>
      </trkpt>
      <trkpt lat="45.59445" lon="4.56904">
        <ele>724.97143554688</ele>
        <time>2010-05-09T13:58:15Z</time>
      </trkpt>
      <trkpt lat="45.59461" lon="4.56902">
        <ele>720.6455078125</ele>
        <time>2010-05-09T13:58:20Z</time>
      </trkpt>
      <trkpt lat="45.5947" lon="4.56897">
        <ele>717.28100585938</ele>
        <time>2010-05-09T13:58:23Z</time>
      </trkpt>
      <trkpt lat="45.59485" lon="4.56886">
        <ele>714.39672851562</ele>
        <time>2010-05-09T13:58:29Z</time>
      </trkpt>
      <trkpt lat="45.59499" lon="4.56869">
        <ele>711.51293945312</ele>
        <time>2010-05-09T13:58:34Z</time>
      </trkpt>
      <trkpt lat="45.59504" lon="4.56858">
        <ele>709.59033203125</ele>
        <time>2010-05-09T13:58:36Z</time>
      </trkpt>
      <trkpt lat="45.59515" lon="4.56836">
        <ele>706.70629882812</ele>
        <time>2010-05-09T13:58:40Z</time>
      </trkpt>
      <trkpt lat="45.59518" lon="4.56831">
        <ele>705.7451171875</ele>
        <time>2010-05-09T13:58:41Z</time>
      </trkpt>
      <trkpt lat="45.59531" lon="4.56804">
        <ele>701.41918945312</ele>
        <time>2010-05-09T13:58:46Z</time>
      </trkpt>
      <trkpt lat="45.59542" lon="4.56787">
        <ele>698.53491210938</ele>
        <time>2010-05-09T13:58:50Z</time>
      </trkpt>
      <trkpt lat="45.59553" lon="4.56796">
        <ele>698.53491210938</ele>
        <time>2010-05-09T13:58:54Z</time>
      </trkpt>
      <trkpt lat="45.59571" lon="4.56825">
        <ele>698.05444335938</ele>
        <time>2010-05-09T13:59:00Z</time>
      </trkpt>
      <trkpt lat="45.59589" lon="4.56872">
        <ele>698.05444335938</ele>
        <time>2010-05-09T13:59:07Z</time>
      </trkpt>
      <trkpt lat="45.59593" lon="4.56895">
        <ele>697.09301757812</ele>
        <time>2010-05-09T13:59:10Z</time>
      </trkpt>
      <trkpt lat="45.59595" lon="4.56931">
        <ele>698.05444335938</ele>
        <time>2010-05-09T13:59:15Z</time>
      </trkpt>
      <trkpt lat="45.59604" lon="4.56981">
        <ele>697.57373046875</ele>
        <time>2010-05-09T13:59:22Z</time>
      </trkpt>
      <trkpt lat="45.59622" lon="4.57023">
        <ele>697.57373046875</ele>
        <time>2010-05-09T13:59:29Z</time>
      </trkpt>
      <trkpt lat="45.59628" lon="4.57033">
        <ele>698.05444335938</ele>
        <time>2010-05-09T13:59:31Z</time>
      </trkpt>
      <trkpt lat="45.59659" lon="4.57063">
        <ele>697.57373046875</ele>
        <time>2010-05-09T13:59:39Z</time>
      </trkpt>
      <trkpt lat="45.5969" lon="4.5709">
        <ele>699.015625</ele>
        <time>2010-05-09T13:59:48Z</time>
      </trkpt>
      <trkpt lat="45.59706" lon="4.57106">
        <ele>698.53491210938</ele>
        <time>2010-05-09T13:59:53Z</time>
      </trkpt>
      <trkpt lat="45.59714" lon="4.5711">
        <ele>698.53491210938</ele>
        <time>2010-05-09T13:59:55Z</time>
      </trkpt>
      <trkpt lat="45.59749" lon="4.57117">
        <ele>698.53491210938</ele>
        <time>2010-05-09T14:00:02Z</time>
      </trkpt>
      <trkpt lat="45.59771" lon="4.57119">
        <ele>697.57373046875</ele>
        <time>2010-05-09T14:00:06Z</time>
      </trkpt>
      <trkpt lat="45.59786" lon="4.57124">
        <ele>697.09301757812</ele>
        <time>2010-05-09T14:00:10Z</time>
      </trkpt>
      <trkpt lat="45.59801" lon="4.57119">
        <ele>696.61254882812</ele>
        <time>2010-05-09T14:00:14Z</time>
      </trkpt>
      <trkpt lat="45.59829" lon="4.57098">
        <ele>697.57373046875</ele>
        <time>2010-05-09T14:00:22Z</time>
      </trkpt>
      <trkpt lat="45.59862" lon="4.5708">
        <ele>699.015625</ele>
        <time>2010-05-09T14:00:31Z</time>
      </trkpt>
      <trkpt lat="45.59882" lon="4.57079">
        <ele>699.015625</ele>
        <time>2010-05-09T14:00:37Z</time>
      </trkpt>
      <trkpt lat="45.59895" lon="4.57074">
        <ele>700.4580078125</ele>
        <time>2010-05-09T14:00:41Z</time>
      </trkpt>
      <trkpt lat="45.59907" lon="4.57065">
        <ele>700.9384765625</ele>
        <time>2010-05-09T14:00:45Z</time>
      </trkpt>
      <trkpt lat="45.59923" lon="4.57046">
        <ele>702.38037109375</ele>
        <time>2010-05-09T14:00:51Z</time>
      </trkpt>
      <trkpt lat="45.59942" lon="4.57028">
        <ele>704.30322265625</ele>
        <time>2010-05-09T14:00:58Z</time>
      </trkpt>
      <trkpt lat="45.59945" lon="4.57029">
        <ele>703.82250976562</ele>
        <time>2010-05-09T14:00:59Z</time>
      </trkpt>
      <trkpt lat="45.59959" lon="4.57051">
        <ele>704.78369140625</ele>
        <time>2010-05-09T14:01:06Z</time>
      </trkpt>
      <trkpt lat="45.59967" lon="4.57073">
        <ele>705.26440429688</ele>
        <time>2010-05-09T14:01:11Z</time>
      </trkpt>
      <trkpt lat="45.5997" lon="4.57085">
        <ele>704.30322265625</ele>
        <time>2010-05-09T14:01:13Z</time>
      </trkpt>
      <trkpt lat="45.59972" lon="4.57107">
        <ele>704.30322265625</ele>
        <time>2010-05-09T14:01:17Z</time>
      </trkpt>
      <trkpt lat="45.59975" lon="4.57104">
        <ele>703.82250976562</ele>
        <time>2010-05-09T14:01:21Z</time>
      </trkpt>
      <trkpt lat="45.5997" lon="4.5709">
        <ele>704.78369140625</ele>
        <time>2010-05-09T14:01:26Z</time>
      </trkpt>
      <trkpt lat="45.59969" lon="4.57086">
        <ele>704.78369140625</ele>
        <time>2010-05-09T14:01:27Z</time>
      </trkpt>
      <trkpt lat="45.59964" lon="4.57066">
        <ele>704.78369140625</ele>
        <time>2010-05-09T14:01:33Z</time>
      </trkpt>
      <trkpt lat="45.59961" lon="4.57056">
        <ele>705.26440429688</ele>
        <time>2010-05-09T14:01:37Z</time>
      </trkpt>
      <trkpt lat="45.59962" lon="4.57053">
        <ele>705.26440429688</ele>
        <time>2010-05-09T14:01:40Z</time>
      </trkpt>
      <trkpt lat="45.59968" lon="4.57055">
        <ele>705.7451171875</ele>
        <time>2010-05-09T14:01:45Z</time>
      </trkpt>
      <trkpt lat="45.5998" lon="4.57061">
        <ele>708.1484375</ele>
        <time>2010-05-09T14:01:54Z</time>
      </trkpt>
      <trkpt lat="45.59991" lon="4.57075">
        <ele>709.59033203125</ele>
        <time>2010-05-09T14:02:02Z</time>
      </trkpt>
      <trkpt lat="45.60002" lon="4.57095">
        <ele>711.99365234375</ele>
        <time>2010-05-09T14:02:13Z</time>
      </trkpt>
      <trkpt lat="45.60011" lon="4.57114">
        <ele>712.47412109375</ele>
        <time>2010-05-09T14:02:23Z</time>
      </trkpt>
      <trkpt lat="45.60017" lon="4.57126">
        <ele>712.95483398438</ele>
        <time>2010-05-09T14:02:30Z</time>
      </trkpt>
      <trkpt lat="45.60026" lon="4.57144">
        <ele>713.435546875</ele>
        <time>2010-05-09T14:02:38Z</time>
      </trkpt>
      <trkpt lat="45.60032" lon="4.57157">
        <ele>714.87744140625</ele>
        <time>2010-05-09T14:02:44Z</time>
      </trkpt>
      <trkpt lat="45.60034" lon="4.57164">
        <ele>715.8388671875</ele>
        <time>2010-05-09T14:02:48Z</time>
      </trkpt>
      <trkpt lat="45.60043" lon="4.57182">
        <ele>717.76147460938</ele>
        <time>2010-05-09T14:02:55Z</time>
      </trkpt>
      <trkpt lat="45.60049" lon="4.57197">
        <ele>720.16479492188</ele>
        <time>2010-05-09T14:03:02Z</time>
      </trkpt>
      <trkpt lat="45.60055" lon="4.57219">
        <ele>721.60668945312</ele>
        <time>2010-05-09T14:03:11Z</time>
      </trkpt>
      <trkpt lat="45.6006" lon="4.57236">
        <ele>723.048828125</ele>
        <time>2010-05-09T14:03:18Z</time>
      </trkpt>
      <trkpt lat="45.60062" lon="4.57255">
        <ele>723.52954101562</ele>
        <time>2010-05-09T14:03:25Z</time>
      </trkpt>
      <trkpt lat="45.60063" lon="4.5727">
        <ele>724.49072265625</ele>
        <time>2010-05-09T14:03:31Z</time>
      </trkpt>
      <trkpt lat="45.60064" lon="4.57277">
        <ele>725.45190429688</ele>
        <time>2010-05-09T14:03:34Z</time>
      </trkpt>
      <trkpt lat="45.60067" lon="4.57296">
        <ele>726.89404296875</ele>
        <time>2010-05-09T14:03:42Z</time>
      </trkpt>
      <trkpt lat="45.60073" lon="4.57314">
        <ele>728.81665039062</ele>
        <time>2010-05-09T14:03:52Z</time>
      </trkpt>
      <trkpt lat="45.60077" lon="4.57325">
        <ele>730.7392578125</ele>
        <time>2010-05-09T14:03:59Z</time>
      </trkpt>
      <trkpt lat="45.60083" lon="4.57341">
        <ele>731.70043945312</ele>
        <time>2010-05-09T14:04:08Z</time>
      </trkpt>
      <trkpt lat="45.60087" lon="4.57353">
        <ele>733.142578125</ele>
        <time>2010-05-09T14:04:15Z</time>
      </trkpt>
      <trkpt lat="45.60092" lon="4.57365">
        <ele>735.0654296875</ele>
        <time>2010-05-09T14:04:24Z</time>
      </trkpt>
      <trkpt lat="45.60096" lon="4.57376">
        <ele>736.98779296875</ele>
        <time>2010-05-09T14:04:31Z</time>
      </trkpt>
      <trkpt lat="45.60103" lon="4.57391">
        <ele>738.91064453125</ele>
        <time>2010-05-09T14:04:41Z</time>
      </trkpt>
      <trkpt lat="45.60109" lon="4.57403">
        <ele>740.8330078125</ele>
        <time>2010-05-09T14:04:49Z</time>
      </trkpt>
      <trkpt lat="45.60112" lon="4.57413">
        <ele>743.236328125</ele>
        <time>2010-05-09T14:04:56Z</time>
      </trkpt>
      <trkpt lat="45.60115" lon="4.57418">
        <ele>743.71704101562</ele>
        <time>2010-05-09T14:05:00Z</time>
      </trkpt>
      <trkpt lat="45.60118" lon="4.5743">
        <ele>744.67822265625</ele>
        <time>2010-05-09T14:05:07Z</time>
      </trkpt>
      <trkpt lat="45.60123" lon="4.57447">
        <ele>746.12036132812</ele>
        <time>2010-05-09T14:05:15Z</time>
      </trkpt>
      <trkpt lat="45.6013" lon="4.57468">
        <ele>747.08154296875</ele>
        <time>2010-05-09T14:05:24Z</time>
      </trkpt>
      <trkpt lat="45.60139" lon="4.57489">
        <ele>748.04321289062</ele>
        <time>2010-05-09T14:05:33Z</time>
      </trkpt>
      <trkpt lat="45.60148" lon="4.57513">
        <ele>749.00439453125</ele>
        <time>2010-05-09T14:05:43Z</time>
      </trkpt>
      <trkpt lat="45.60157" lon="4.5753">
        <ele>749.9658203125</ele>
        <time>2010-05-09T14:05:51Z</time>
      </trkpt>
      <trkpt lat="45.60165" lon="4.57543">
        <ele>751.88842773438</ele>
        <time>2010-05-09T14:05:58Z</time>
      </trkpt>
      <trkpt lat="45.60176" lon="4.57559">
        <ele>752.849609375</ele>
        <time>2010-05-09T14:06:06Z</time>
      </trkpt>
      <trkpt lat="45.60188" lon="4.5758">
        <ele>755.2529296875</ele>
        <time>2010-05-09T14:06:16Z</time>
      </trkpt>
      <trkpt lat="45.60196" lon="4.57594">
        <ele>755.2529296875</ele>
        <time>2010-05-09T14:06:23Z</time>
      </trkpt>
      <trkpt lat="45.60205" lon="4.57603">
        <ele>756.21411132812</ele>
        <time>2010-05-09T14:06:30Z</time>
      </trkpt>
      <trkpt lat="45.60216" lon="4.57613">
        <ele>758.13696289062</ele>
        <time>2010-05-09T14:06:38Z</time>
      </trkpt>
      <trkpt lat="45.60227" lon="4.57621">
        <ele>759.57885742188</ele>
        <time>2010-05-09T14:06:46Z</time>
      </trkpt>
      <trkpt lat="45.60237" lon="4.57628">
        <ele>761.50146484375</ele>
        <time>2010-05-09T14:06:53Z</time>
      </trkpt>
      <trkpt lat="45.60244" lon="4.57639">
        <ele>763.42407226562</ele>
        <time>2010-05-09T14:07:00Z</time>
      </trkpt>
      <trkpt lat="45.60246" lon="4.57652">
        <ele>763.42407226562</ele>
        <time>2010-05-09T14:07:05Z</time>
      </trkpt>
      <trkpt lat="45.60247" lon="4.57679">
        <ele>763.42407226562</ele>
        <time>2010-05-09T14:07:12Z</time>
      </trkpt>
      <trkpt lat="45.6025" lon="4.57711">
        <ele>764.8662109375</ele>
        <time>2010-05-09T14:07:20Z</time>
      </trkpt>
      <trkpt lat="45.60251" lon="4.5774">
        <ele>765.34692382812</ele>
        <time>2010-05-09T14:07:26Z</time>
      </trkpt>
      <trkpt lat="45.60248" lon="4.57758">
        <ele>765.82763671875</ele>
        <time>2010-05-09T14:07:31Z</time>
      </trkpt>
      <trkpt lat="45.60245" lon="4.57787">
        <ele>763.42407226562</ele>
        <time>2010-05-09T14:07:37Z</time>
      </trkpt>
      <trkpt lat="45.60252" lon="4.57816">
        <ele>763.90454101562</ele>
        <time>2010-05-09T14:07:44Z</time>
      </trkpt>
      <trkpt lat="45.6026" lon="4.57837">
        <ele>763.90454101562</ele>
        <time>2010-05-09T14:07:50Z</time>
      </trkpt>
      <trkpt lat="45.60269" lon="4.57863">
        <ele>763.90454101562</ele>
        <time>2010-05-09T14:07:59Z</time>
      </trkpt>
      <trkpt lat="45.60275" lon="4.57876">
        <ele>763.90454101562</ele>
        <time>2010-05-09T14:08:03Z</time>
      </trkpt>
      <trkpt lat="45.60289" lon="4.5791">
        <ele>766.30810546875</ele>
        <time>2010-05-09T14:08:11Z</time>
      </trkpt>
      <trkpt lat="45.603" lon="4.5794">
        <ele>766.78881835938</ele>
        <time>2010-05-09T14:08:18Z</time>
      </trkpt>
      <trkpt lat="45.60307" lon="4.57966">
        <ele>767.26953125</ele>
        <time>2010-05-09T14:08:24Z</time>
      </trkpt>
      <trkpt lat="45.60312" lon="4.57993">
        <ele>768.71142578125</ele>
        <time>2010-05-09T14:08:30Z</time>
      </trkpt>
      <trkpt lat="45.60322" lon="4.5803">
        <ele>770.63403320312</ele>
        <time>2010-05-09T14:08:38Z</time>
      </trkpt>
      <trkpt lat="45.60323" lon="4.58035">
        <ele>771.11474609375</ele>
        <time>2010-05-09T14:08:39Z</time>
      </trkpt>
      <trkpt lat="45.6033" lon="4.58057">
        <ele>772.556640625</ele>
        <time>2010-05-09T14:08:45Z</time>
      </trkpt>
      <trkpt lat="45.60337" lon="4.58081">
        <ele>773.51806640625</ele>
        <time>2010-05-09T14:08:51Z</time>
      </trkpt>
      <trkpt lat="45.60351" lon="4.58121">
        <ele>774.9599609375</ele>
        <time>2010-05-09T14:09:01Z</time>
      </trkpt>
      <trkpt lat="45.6036" lon="4.58157">
        <ele>774.9599609375</ele>
        <time>2010-05-09T14:09:10Z</time>
      </trkpt>
      <trkpt lat="45.60365" lon="4.58187">
        <ele>775.4404296875</ele>
        <time>2010-05-09T14:09:17Z</time>
      </trkpt>
      <trkpt lat="45.60373" lon="4.58213">
        <ele>774.47924804688</ele>
        <time>2010-05-09T14:09:22Z</time>
      </trkpt>
      <trkpt lat="45.60382" lon="4.58255">
        <ele>773.51806640625</ele>
        <time>2010-05-09T14:09:30Z</time>
      </trkpt>
      <trkpt lat="45.60389" lon="4.58286">
        <ele>773.03735351562</ele>
        <time>2010-05-09T14:09:36Z</time>
      </trkpt>
      <trkpt lat="45.60403" lon="4.58317">
        <ele>773.03735351562</ele>
        <time>2010-05-09T14:09:43Z</time>
      </trkpt>
      <trkpt lat="45.60418" lon="4.58344">
        <ele>774.9599609375</ele>
        <time>2010-05-09T14:09:50Z</time>
      </trkpt>
      <trkpt lat="45.60421" lon="4.58364">
        <ele>775.4404296875</ele>
        <time>2010-05-09T14:09:54Z</time>
      </trkpt>
      <trkpt lat="45.60433" lon="4.58389">
        <ele>775.92114257812</ele>
        <time>2010-05-09T14:10:00Z</time>
      </trkpt>
      <trkpt lat="45.60452" lon="4.58429">
        <ele>777.36328125</ele>
        <time>2010-05-09T14:10:10Z</time>
      </trkpt>
      <trkpt lat="45.60464" lon="4.58453">
        <ele>777.84375</ele>
        <time>2010-05-09T14:10:17Z</time>
      </trkpt>
      <trkpt lat="45.60473" lon="4.58476">
        <ele>778.80517578125</ele>
        <time>2010-05-09T14:10:24Z</time>
      </trkpt>
      <trkpt lat="45.60482" lon="4.58513">
        <ele>780.72802734375</ele>
        <time>2010-05-09T14:10:33Z</time>
      </trkpt>
      <trkpt lat="45.60494" lon="4.58554">
        <ele>781.20874023438</ele>
        <time>2010-05-09T14:10:43Z</time>
      </trkpt>
      <trkpt lat="45.60505" lon="4.58585">
        <ele>781.68920898438</ele>
        <time>2010-05-09T14:10:51Z</time>
      </trkpt>
      <trkpt lat="45.60513" lon="4.58612">
        <ele>782.169921875</ele>
        <time>2010-05-09T14:10:58Z</time>
      </trkpt>
      <trkpt lat="45.60519" lon="4.58636">
        <ele>783.13110351562</ele>
        <time>2010-05-09T14:11:04Z</time>
      </trkpt>
      <trkpt lat="45.60533" lon="4.58667">
        <ele>784.09252929688</ele>
        <time>2010-05-09T14:11:12Z</time>
      </trkpt>
      <trkpt lat="45.60553" lon="4.58693">
        <ele>786.01513671875</ele>
        <time>2010-05-09T14:11:21Z</time>
      </trkpt>
      <trkpt lat="45.60578" lon="4.58715">
        <ele>786.49584960938</ele>
        <time>2010-05-09T14:11:30Z</time>
      </trkpt>
      <trkpt lat="45.60607" lon="4.58741">
        <ele>787.45703125</ele>
        <time>2010-05-09T14:11:40Z</time>
      </trkpt>
      <trkpt lat="45.60624" lon="4.58757">
        <ele>788.89916992188</ele>
        <time>2010-05-09T14:11:47Z</time>
      </trkpt>
      <trkpt lat="45.60644" lon="4.58777">
        <ele>788.89916992188</ele>
        <time>2010-05-09T14:11:54Z</time>
      </trkpt>
      <trkpt lat="45.60658" lon="4.58803">
        <ele>787.93774414062</ele>
        <time>2010-05-09T14:12:01Z</time>
      </trkpt>
      <trkpt lat="45.60671" lon="4.58838">
        <ele>786.49584960938</ele>
        <time>2010-05-09T14:12:06Z</time>
      </trkpt>
      <trkpt lat="45.60689" lon="4.58884">
        <ele>783.13110351562</ele>
        <time>2010-05-09T14:12:11Z</time>
      </trkpt>
      <trkpt lat="45.60705" lon="4.58913">
        <ele>782.169921875</ele>
        <time>2010-05-09T14:12:14Z</time>
      </trkpt>
      <trkpt lat="45.60733" lon="4.58945">
        <ele>778.32446289062</ele>
        <time>2010-05-09T14:12:18Z</time>
      </trkpt>
      <trkpt lat="45.60772" lon="4.58982">
        <ele>775.4404296875</ele>
        <time>2010-05-09T14:12:23Z</time>
      </trkpt>
      <trkpt lat="45.60786" lon="4.58992">
        <ele>773.51806640625</ele>
        <time>2010-05-09T14:12:25Z</time>
      </trkpt>
      <trkpt lat="45.60814" lon="4.59004">
        <ele>773.51806640625</ele>
        <time>2010-05-09T14:12:29Z</time>
      </trkpt>
      <trkpt lat="45.6082" lon="4.59006">
        <ele>772.556640625</ele>
        <time>2010-05-09T14:12:30Z</time>
      </trkpt>
      <trkpt lat="45.60838" lon="4.59018">
        <ele>773.99853515625</ele>
        <time>2010-05-09T14:12:35Z</time>
      </trkpt>
      <trkpt lat="45.60844" lon="4.59025">
        <ele>775.4404296875</ele>
        <time>2010-05-09T14:12:38Z</time>
      </trkpt>
      <trkpt lat="45.60858" lon="4.59047">
        <ele>777.36328125</ele>
        <time>2010-05-09T14:12:46Z</time>
      </trkpt>
      <trkpt lat="45.60867" lon="4.59068">
        <ele>778.32446289062</ele>
        <time>2010-05-09T14:12:53Z</time>
      </trkpt>
      <trkpt lat="45.60874" lon="4.59084">
        <ele>779.76635742188</ele>
        <time>2010-05-09T14:12:59Z</time>
      </trkpt>
      <trkpt lat="45.60883" lon="4.59111">
        <ele>780.72802734375</ele>
        <time>2010-05-09T14:13:08Z</time>
      </trkpt>
      <trkpt lat="45.60891" lon="4.59135">
        <ele>781.68920898438</ele>
        <time>2010-05-09T14:13:15Z</time>
      </trkpt>
      <trkpt lat="45.609" lon="4.59171">
        <ele>782.169921875</ele>
        <time>2010-05-09T14:13:24Z</time>
      </trkpt>
      <trkpt lat="45.60898" lon="4.59205">
        <ele>781.20874023438</ele>
        <time>2010-05-09T14:13:31Z</time>
      </trkpt>
      <trkpt lat="45.60893" lon="4.59258">
        <ele>780.72802734375</ele>
        <time>2010-05-09T14:13:39Z</time>
      </trkpt>
      <trkpt lat="45.60889" lon="4.59301">
        <ele>778.32446289062</ele>
        <time>2010-05-09T14:13:44Z</time>
      </trkpt>
      <trkpt lat="45.60883" lon="4.59372">
        <ele>775.92114257812</ele>
        <time>2010-05-09T14:13:52Z</time>
      </trkpt>
      <trkpt lat="45.60875" lon="4.59414">
        <ele>776.40185546875</ele>
        <time>2010-05-09T14:13:58Z</time>
      </trkpt>
      <trkpt lat="45.60868" lon="4.59467">
        <ele>777.36328125</ele>
        <time>2010-05-09T14:14:06Z</time>
      </trkpt>
      <trkpt lat="45.60871" lon="4.59523">
        <ele>776.88256835938</ele>
        <time>2010-05-09T14:14:14Z</time>
      </trkpt>
      <trkpt lat="45.60878" lon="4.59562">
        <ele>777.84375</ele>
        <time>2010-05-09T14:14:19Z</time>
      </trkpt>
      <trkpt lat="45.60884" lon="4.59575">
        <ele>776.88256835938</ele>
        <time>2010-05-09T14:14:21Z</time>
      </trkpt>
      <trkpt lat="45.60897" lon="4.59598">
        <ele>776.88256835938</ele>
        <time>2010-05-09T14:14:25Z</time>
      </trkpt>
      <trkpt lat="45.60923" lon="4.59625">
        <ele>776.88256835938</ele>
        <time>2010-05-09T14:14:31Z</time>
      </trkpt>
      <trkpt lat="45.60933" lon="4.59641">
        <ele>777.36328125</ele>
        <time>2010-05-09T14:14:35Z</time>
      </trkpt>
      <trkpt lat="45.60944" lon="4.59672">
        <ele>774.9599609375</ele>
        <time>2010-05-09T14:14:40Z</time>
      </trkpt>
      <trkpt lat="45.60947" lon="4.59679">
        <ele>775.4404296875</ele>
        <time>2010-05-09T14:14:41Z</time>
      </trkpt>
      <trkpt lat="45.6095" lon="4.59686">
        <ele>774.47924804688</ele>
        <time>2010-05-09T14:14:42Z</time>
      </trkpt>
      <trkpt lat="45.60968" lon="4.59729">
        <ele>773.03735351562</ele>
        <time>2010-05-09T14:14:48Z</time>
      </trkpt>
      <trkpt lat="45.60975" lon="4.59753">
        <ele>771.59521484375</ele>
        <time>2010-05-09T14:14:51Z</time>
      </trkpt>
      <trkpt lat="45.60997" lon="4.59778">
        <ele>767.75</ele>
        <time>2010-05-09T14:14:56Z</time>
      </trkpt>
      <trkpt lat="45.61017" lon="4.59781">
        <ele>765.34692382812</ele>
        <time>2010-05-09T14:14:59Z</time>
      </trkpt>
      <trkpt lat="45.61028" lon="4.59788">
        <ele>763.90454101562</ele>
        <time>2010-05-09T14:15:01Z</time>
      </trkpt>
      <trkpt lat="45.61029" lon="4.59805">
        <ele>763.42407226562</ele>
        <time>2010-05-09T14:15:03Z</time>
      </trkpt>
      <trkpt lat="45.61022" lon="4.59835">
        <ele>761.50146484375</ele>
        <time>2010-05-09T14:15:07Z</time>
      </trkpt>
      <trkpt lat="45.61017" lon="4.59861">
        <ele>761.02075195312</ele>
        <time>2010-05-09T14:15:12Z</time>
      </trkpt>
      <trkpt lat="45.61013" lon="4.59893">
        <ele>762.46264648438</ele>
        <time>2010-05-09T14:15:18Z</time>
      </trkpt>
      <trkpt lat="45.61016" lon="4.59916">
        <ele>762.943359375</ele>
        <time>2010-05-09T14:15:24Z</time>
      </trkpt>
      <trkpt lat="45.61023" lon="4.59932">
        <ele>764.8662109375</ele>
        <time>2010-05-09T14:15:30Z</time>
      </trkpt>
      <trkpt lat="45.61031" lon="4.5995">
        <ele>766.30810546875</ele>
        <time>2010-05-09T14:15:38Z</time>
      </trkpt>
      <trkpt lat="45.61043" lon="4.5997">
        <ele>768.23071289062</ele>
        <time>2010-05-09T14:15:47Z</time>
      </trkpt>
      <trkpt lat="45.61055" lon="4.59987">
        <ele>768.71142578125</ele>
        <time>2010-05-09T14:15:54Z</time>
      </trkpt>
      <trkpt lat="45.61073" lon="4.60007">
        <ele>767.26953125</ele>
        <time>2010-05-09T14:16:00Z</time>
      </trkpt>
      <trkpt lat="45.61098" lon="4.60025">
        <ele>767.26953125</ele>
        <time>2010-05-09T14:16:07Z</time>
      </trkpt>
      <trkpt lat="45.61123" lon="4.60039">
        <ele>766.30810546875</ele>
        <time>2010-05-09T14:16:14Z</time>
      </trkpt>
      <trkpt lat="45.61131" lon="4.60043">
        <ele>765.82763671875</ele>
        <time>2010-05-09T14:16:16Z</time>
      </trkpt>
      <trkpt lat="45.61157" lon="4.60052">
        <ele>762.943359375</ele>
        <time>2010-05-09T14:16:22Z</time>
      </trkpt>
      <trkpt lat="45.61172" lon="4.60068">
        <ele>761.02075195312</ele>
        <time>2010-05-09T14:16:26Z</time>
      </trkpt>
      <trkpt lat="45.61174" lon="4.60074">
        <ele>761.02075195312</ele>
        <time>2010-05-09T14:16:27Z</time>
      </trkpt>
      <trkpt lat="45.61176" lon="4.601">
        <ele>761.02075195312</ele>
        <time>2010-05-09T14:16:32Z</time>
      </trkpt>
      <trkpt lat="45.61176" lon="4.60136">
        <ele>758.13696289062</ele>
        <time>2010-05-09T14:16:37Z</time>
      </trkpt>
      <trkpt lat="45.61182" lon="4.60186">
        <ele>753.81103515625</ele>
        <time>2010-05-09T14:16:42Z</time>
      </trkpt>
      <trkpt lat="45.61183" lon="4.60196">
        <ele>753.81103515625</ele>
        <time>2010-05-09T14:16:43Z</time>
      </trkpt>
      <trkpt lat="45.61187" lon="4.60212">
        <ele>751.40771484375</ele>
        <time>2010-05-09T14:16:45Z</time>
      </trkpt>
      <trkpt lat="45.61192" lon="4.60229">
        <ele>750.92700195312</ele>
        <time>2010-05-09T14:16:47Z</time>
      </trkpt>
      <trkpt lat="45.61203" lon="4.60265">
        <ele>748.52368164062</ele>
        <time>2010-05-09T14:16:52Z</time>
      </trkpt>
      <trkpt lat="45.61205" lon="4.6027">
        <ele>748.04321289062</ele>
        <time>2010-05-09T14:16:53Z</time>
      </trkpt>
      <trkpt lat="45.61214" lon="4.60287">
        <ele>746.60107421875</ele>
        <time>2010-05-09T14:16:57Z</time>
      </trkpt>
      <trkpt lat="45.61227" lon="4.60304">
        <ele>747.08154296875</ele>
        <time>2010-05-09T14:17:03Z</time>
      </trkpt>
      <trkpt lat="45.61238" lon="4.60324">
        <ele>746.60107421875</ele>
        <time>2010-05-09T14:17:09Z</time>
      </trkpt>
      <trkpt lat="45.61247" lon="4.60339">
        <ele>746.60107421875</ele>
        <time>2010-05-09T14:17:14Z</time>
      </trkpt>
      <trkpt lat="45.6126" lon="4.60354">
        <ele>746.12036132812</ele>
        <time>2010-05-09T14:17:19Z</time>
      </trkpt>
      <trkpt lat="45.61275" lon="4.60363">
        <ele>746.12036132812</ele>
        <time>2010-05-09T14:17:24Z</time>
      </trkpt>
      <trkpt lat="45.61282" lon="4.60378">
        <ele>746.60107421875</ele>
        <time>2010-05-09T14:17:28Z</time>
      </trkpt>
      <trkpt lat="45.61288" lon="4.60393">
        <ele>748.04321289062</ele>
        <time>2010-05-09T14:17:33Z</time>
      </trkpt>
      <trkpt lat="45.61292" lon="4.60407">
        <ele>748.52368164062</ele>
        <time>2010-05-09T14:17:38Z</time>
      </trkpt>
      <trkpt lat="45.61292" lon="4.60418">
        <ele>748.52368164062</ele>
        <time>2010-05-09T14:17:42Z</time>
      </trkpt>
      <trkpt lat="45.6129" lon="4.60419">
        <ele>748.52368164062</ele>
        <time>2010-05-09T14:17:48Z</time>
      </trkpt>
      <trkpt lat="45.61285" lon="4.60424">
        <ele>749.00439453125</ele>
        <time>2010-05-09T14:22:15Z</time>
      </trkpt>
      <trkpt lat="45.61285" lon="4.60433">
        <ele>749.00439453125</ele>
        <time>2010-05-09T14:22:21Z</time>
      </trkpt>
      <trkpt lat="45.61286" lon="4.60453">
        <ele>748.52368164062</ele>
        <time>2010-05-09T14:22:26Z</time>
      </trkpt>
      <trkpt lat="45.61289" lon="4.60471">
        <ele>748.52368164062</ele>
        <time>2010-05-09T14:22:30Z</time>
      </trkpt>
      <trkpt lat="45.61293" lon="4.60491">
        <ele>749.9658203125</ele>
        <time>2010-05-09T14:22:34Z</time>
      </trkpt>
      <trkpt lat="45.61295" lon="4.60505">
        <ele>750.92700195312</ele>
        <time>2010-05-09T14:22:39Z</time>
      </trkpt>
      <trkpt lat="45.61296" lon="4.60507">
        <ele>750.92700195312</ele>
        <time>2010-05-09T14:22:40Z</time>
      </trkpt>
      <trkpt lat="45.613" lon="4.60517">
        <ele>752.36889648438</ele>
        <time>2010-05-09T14:22:44Z</time>
      </trkpt>
      <trkpt lat="45.61304" lon="4.60523">
        <ele>753.33032226562</ele>
        <time>2010-05-09T14:22:47Z</time>
      </trkpt>
      <trkpt lat="45.61314" lon="4.60535">
        <ele>754.29174804688</ele>
        <time>2010-05-09T14:22:53Z</time>
      </trkpt>
      <trkpt lat="45.61325" lon="4.60547">
        <ele>752.849609375</ele>
        <time>2010-05-09T14:22:58Z</time>
      </trkpt>
      <trkpt lat="45.61329" lon="4.6055">
        <ele>752.849609375</ele>
        <time>2010-05-09T14:22:59Z</time>
      </trkpt>
      <trkpt lat="45.61346" lon="4.60566">
        <ele>750.92700195312</ele>
        <time>2010-05-09T14:23:03Z</time>
      </trkpt>
      <trkpt lat="45.61361" lon="4.60573">
        <ele>750.44653320312</ele>
        <time>2010-05-09T14:23:08Z</time>
      </trkpt>
      <trkpt lat="45.6137" lon="4.60576">
        <ele>751.40771484375</ele>
        <time>2010-05-09T14:23:13Z</time>
      </trkpt>
      <trkpt lat="45.61378" lon="4.60576">
        <ele>752.849609375</ele>
        <time>2010-05-09T14:23:18Z</time>
      </trkpt>
      <trkpt lat="45.61387" lon="4.60579">
        <ele>753.81103515625</ele>
        <time>2010-05-09T14:23:23Z</time>
      </trkpt>
      <trkpt lat="45.61399" lon="4.60578">
        <ele>754.77221679688</ele>
        <time>2010-05-09T14:23:28Z</time>
      </trkpt>
      <trkpt lat="45.61413" lon="4.60581">
        <ele>754.77221679688</ele>
        <time>2010-05-09T14:23:33Z</time>
      </trkpt>
      <trkpt lat="45.6143" lon="4.60583">
        <ele>754.29174804688</ele>
        <time>2010-05-09T14:23:38Z</time>
      </trkpt>
      <trkpt lat="45.61444" lon="4.60583">
        <ele>752.849609375</ele>
        <time>2010-05-09T14:23:42Z</time>
      </trkpt>
      <trkpt lat="45.61456" lon="4.60575">
        <ele>752.36889648438</ele>
        <time>2010-05-09T14:23:46Z</time>
      </trkpt>
      <trkpt lat="45.61462" lon="4.60571">
        <ele>751.88842773438</ele>
        <time>2010-05-09T14:23:48Z</time>
      </trkpt>
      <trkpt lat="45.61473" lon="4.60575">
        <ele>751.88842773438</ele>
        <time>2010-05-09T14:23:53Z</time>
      </trkpt>
      <trkpt lat="45.61476" lon="4.60577">
        <ele>751.88842773438</ele>
        <time>2010-05-09T14:23:54Z</time>
      </trkpt>
      <trkpt lat="45.61489" lon="4.60592">
        <ele>752.36889648438</ele>
        <time>2010-05-09T14:24:00Z</time>
      </trkpt>
      <trkpt lat="45.61503" lon="4.60603">
        <ele>753.81103515625</ele>
        <time>2010-05-09T14:24:06Z</time>
      </trkpt>
      <trkpt lat="45.61512" lon="4.60611">
        <ele>753.81103515625</ele>
        <time>2010-05-09T14:24:10Z</time>
      </trkpt>
      <trkpt lat="45.61528" lon="4.60622">
        <ele>751.88842773438</ele>
        <time>2010-05-09T14:24:15Z</time>
      </trkpt>
      <trkpt lat="45.61542" lon="4.60634">
        <ele>749.48510742188</ele>
        <time>2010-05-09T14:24:19Z</time>
      </trkpt>
      <trkpt lat="45.6155" lon="4.60643">
        <ele>748.52368164062</ele>
        <time>2010-05-09T14:24:21Z</time>
      </trkpt>
      <trkpt lat="45.61572" lon="4.60668">
        <ele>747.08154296875</ele>
        <time>2010-05-09T14:24:26Z</time>
      </trkpt>
      <trkpt lat="45.61585" lon="4.60682">
        <ele>746.60107421875</ele>
        <time>2010-05-09T14:24:29Z</time>
      </trkpt>
      <trkpt lat="45.61601" lon="4.60702">
        <ele>745.6396484375</ele>
        <time>2010-05-09T14:24:33Z</time>
      </trkpt>
      <trkpt lat="45.61622" lon="4.60724">
        <ele>744.67822265625</ele>
        <time>2010-05-09T14:24:38Z</time>
      </trkpt>
      <trkpt lat="45.61633" lon="4.6074">
        <ele>746.12036132812</ele>
        <time>2010-05-09T14:24:42Z</time>
      </trkpt>
      <trkpt lat="45.61647" lon="4.60752">
        <ele>745.15893554688</ele>
        <time>2010-05-09T14:24:46Z</time>
      </trkpt>
      <trkpt lat="45.61657" lon="4.60761">
        <ele>744.19775390625</ele>
        <time>2010-05-09T14:24:50Z</time>
      </trkpt>
      <trkpt lat="45.61662" lon="4.60763">
        <ele>744.67822265625</ele>
        <time>2010-05-09T14:24:52Z</time>
      </trkpt>
      <trkpt lat="45.61671" lon="4.6076">
        <ele>746.12036132812</ele>
        <time>2010-05-09T14:24:57Z</time>
      </trkpt>
      <trkpt lat="45.61681" lon="4.60761">
        <ele>747.08154296875</ele>
        <time>2010-05-09T14:25:03Z</time>
      </trkpt>
      <trkpt lat="45.61685" lon="4.60762">
        <ele>747.56225585938</ele>
        <time>2010-05-09T14:25:06Z</time>
      </trkpt>
      <trkpt lat="45.61695" lon="4.60763">
        <ele>748.04321289062</ele>
        <time>2010-05-09T14:25:12Z</time>
      </trkpt>
      <trkpt lat="45.61703" lon="4.6076">
        <ele>748.52368164062</ele>
        <time>2010-05-09T14:25:18Z</time>
      </trkpt>
      <trkpt lat="45.61708" lon="4.60758">
        <ele>748.52368164062</ele>
        <time>2010-05-09T14:25:20Z</time>
      </trkpt>
      <trkpt lat="45.61716" lon="4.60753">
        <ele>749.48510742188</ele>
        <time>2010-05-09T14:25:26Z</time>
      </trkpt>
      <trkpt lat="45.61725" lon="4.60744">
        <ele>750.92700195312</ele>
        <time>2010-05-09T14:25:32Z</time>
      </trkpt>
      <trkpt lat="45.61727" lon="4.60744">
        <ele>750.92700195312</ele>
        <time>2010-05-09T14:25:34Z</time>
      </trkpt>
      <trkpt lat="45.61736" lon="4.60745">
        <ele>752.36889648438</ele>
        <time>2010-05-09T14:25:40Z</time>
      </trkpt>
      <trkpt lat="45.6174" lon="4.60746">
        <ele>752.849609375</ele>
        <time>2010-05-09T14:25:42Z</time>
      </trkpt>
      <trkpt lat="45.61751" lon="4.60749">
        <ele>754.77221679688</ele>
        <time>2010-05-09T14:25:48Z</time>
      </trkpt>
      <trkpt lat="45.61757" lon="4.6075">
        <ele>755.73364257812</ele>
        <time>2010-05-09T14:25:52Z</time>
      </trkpt>
      <trkpt lat="45.61771" lon="4.60757">
        <ele>757.65625</ele>
        <time>2010-05-09T14:26:00Z</time>
      </trkpt>
      <trkpt lat="45.61777" lon="4.60761">
        <ele>757.65625</ele>
        <time>2010-05-09T14:26:07Z</time>
      </trkpt>
      <trkpt lat="45.61779" lon="4.60768">
        <ele>756.21411132812</ele>
        <time>2010-05-09T14:26:11Z</time>
      </trkpt>
      <trkpt lat="45.61778" lon="4.6078">
        <ele>752.849609375</ele>
        <time>2010-05-09T14:26:16Z</time>
      </trkpt>
      <trkpt lat="45.61778" lon="4.60785">
        <ele>751.88842773438</ele>
        <time>2010-05-09T14:26:18Z</time>
      </trkpt>
      <trkpt lat="45.61778" lon="4.60794">
        <ele>750.44653320312</ele>
        <time>2010-05-09T14:26:20Z</time>
      </trkpt>
      <trkpt lat="45.61783" lon="4.60808">
        <ele>749.48510742188</ele>
        <time>2010-05-09T14:26:24Z</time>
      </trkpt>
      <trkpt lat="45.61788" lon="4.6082">
        <ele>748.04321289062</ele>
        <time>2010-05-09T14:26:29Z</time>
      </trkpt>
      <trkpt lat="45.61798" lon="4.60833">
        <ele>744.67822265625</ele>
        <time>2010-05-09T14:26:36Z</time>
      </trkpt>
      <trkpt lat="45.61808" lon="4.60845">
        <ele>741.31372070312</ele>
        <time>2010-05-09T14:26:41Z</time>
      </trkpt>
      <trkpt lat="45.61816" lon="4.60852">
        <ele>740.3525390625</ele>
        <time>2010-05-09T14:26:45Z</time>
      </trkpt>
      <trkpt lat="45.6182" lon="4.60854">
        <ele>739.39111328125</ele>
        <time>2010-05-09T14:26:47Z</time>
      </trkpt>
      <trkpt lat="45.61832" lon="4.60853">
        <ele>737.46850585938</ele>
        <time>2010-05-09T14:26:52Z</time>
      </trkpt>
      <trkpt lat="45.6184" lon="4.60854">
        <ele>735.5458984375</ele>
        <time>2010-05-09T14:26:58Z</time>
      </trkpt>
      <trkpt lat="45.61846" lon="4.60854">
        <ele>735.0654296875</ele>
        <time>2010-05-09T14:27:03Z</time>
      </trkpt>
      <trkpt lat="45.61852" lon="4.60855">
        <ele>734.10400390625</ele>
        <time>2010-05-09T14:27:09Z</time>
      </trkpt>
      <trkpt lat="45.61858" lon="4.60853">
        <ele>732.18139648438</ele>
        <time>2010-05-09T14:27:15Z</time>
      </trkpt>
      <trkpt lat="45.61859" lon="4.60853">
        <ele>732.18139648438</ele>
        <time>2010-05-09T14:27:16Z</time>
      </trkpt>
      <trkpt lat="45.61865" lon="4.60853">
        <ele>729.77783203125</ele>
        <time>2010-05-09T14:27:22Z</time>
      </trkpt>
      <trkpt lat="45.61866" lon="4.60853">
        <ele>729.77783203125</ele>
        <time>2010-05-09T14:27:23Z</time>
      </trkpt>
      <trkpt lat="45.61878" lon="4.60853">
        <ele>726.41333007812</ele>
        <time>2010-05-09T14:27:30Z</time>
      </trkpt>
      <trkpt lat="45.61884" lon="4.60855">
        <ele>724.97143554688</ele>
        <time>2010-05-09T14:27:34Z</time>
      </trkpt>
      <trkpt lat="45.6189" lon="4.60857">
        <ele>723.52954101562</ele>
        <time>2010-05-09T14:27:37Z</time>
      </trkpt>
      <trkpt lat="45.619" lon="4.6086">
        <ele>720.6455078125</ele>
        <time>2010-05-09T14:27:41Z</time>
      </trkpt>
      <trkpt lat="45.61905" lon="4.60862">
        <ele>719.68432617188</ele>
        <time>2010-05-09T14:27:45Z</time>
      </trkpt>
      <trkpt lat="45.61909" lon="4.60865">
        <ele>717.28100585938</ele>
        <time>2010-05-09T14:27:49Z</time>
      </trkpt>
      <trkpt lat="45.61911" lon="4.60866">
        <ele>716.80029296875</ele>
        <time>2010-05-09T14:27:51Z</time>
      </trkpt>
      <trkpt lat="45.61922" lon="4.60872">
        <ele>713.916015625</ele>
        <time>2010-05-09T14:27:57Z</time>
      </trkpt>
      <trkpt lat="45.61927" lon="4.60877">
        <ele>711.51293945312</ele>
        <time>2010-05-09T14:28:01Z</time>
      </trkpt>
      <trkpt lat="45.61936" lon="4.60883">
        <ele>710.55151367188</ele>
        <time>2010-05-09T14:28:06Z</time>
      </trkpt>
      <trkpt lat="45.6195" lon="4.60889">
        <ele>708.1484375</ele>
        <time>2010-05-09T14:28:12Z</time>
      </trkpt>
      <trkpt lat="45.6196" lon="4.60892">
        <ele>706.70629882812</ele>
        <time>2010-05-09T14:28:17Z</time>
      </trkpt>
      <trkpt lat="45.6197" lon="4.6089">
        <ele>705.7451171875</ele>
        <time>2010-05-09T14:28:22Z</time>
      </trkpt>
      <trkpt lat="45.6198" lon="4.6089">
        <ele>703.82250976562</ele>
        <time>2010-05-09T14:28:28Z</time>
      </trkpt>
      <trkpt lat="45.61977" lon="4.60894">
        <ele>702.86108398438</ele>
        <time>2010-05-09T14:28:30Z</time>
      </trkpt>
      <trkpt lat="45.61967" lon="4.60906">
        <ele>702.38037109375</ele>
        <time>2010-05-09T14:28:33Z</time>
      </trkpt>
      <trkpt lat="45.61951" lon="4.6092">
        <ele>700.4580078125</ele>
        <time>2010-05-09T14:28:38Z</time>
      </trkpt>
      <trkpt lat="45.61936" lon="4.60924">
        <ele>698.53491210938</ele>
        <time>2010-05-09T14:28:43Z</time>
      </trkpt>
      <trkpt lat="45.61922" lon="4.60919">
        <ele>696.61254882812</ele>
        <time>2010-05-09T14:28:48Z</time>
      </trkpt>
      <trkpt lat="45.61907" lon="4.6093">
        <ele>693.24780273438</ele>
        <time>2010-05-09T14:28:54Z</time>
      </trkpt>
      <trkpt lat="45.61892" lon="4.60943">
        <ele>689.88330078125</ele>
        <time>2010-05-09T14:28:58Z</time>
      </trkpt>
      <trkpt lat="45.61878" lon="4.60953">
        <ele>688.44140625</ele>
        <time>2010-05-09T14:29:01Z</time>
      </trkpt>
      <trkpt lat="45.61858" lon="4.60962">
        <ele>688.92211914062</ele>
        <time>2010-05-09T14:29:06Z</time>
      </trkpt>
      <trkpt lat="45.61837" lon="4.60962">
        <ele>688.44140625</ele>
        <time>2010-05-09T14:29:12Z</time>
      </trkpt>
      <trkpt lat="45.61816" lon="4.60963">
        <ele>688.44140625</ele>
        <time>2010-05-09T14:29:17Z</time>
      </trkpt>
      <trkpt lat="45.61811" lon="4.60963">
        <ele>688.92211914062</ele>
        <time>2010-05-09T14:29:18Z</time>
      </trkpt>
      <trkpt lat="45.61789" lon="4.60962">
        <ele>688.44140625</ele>
        <time>2010-05-09T14:29:24Z</time>
      </trkpt>
      <trkpt lat="45.61775" lon="4.60962">
        <ele>687.96069335938</ele>
        <time>2010-05-09T14:29:28Z</time>
      </trkpt>
      <trkpt lat="45.61754" lon="4.60961">
        <ele>687.96069335938</ele>
        <time>2010-05-09T14:29:33Z</time>
      </trkpt>
      <trkpt lat="45.61734" lon="4.60976">
        <ele>687.96069335938</ele>
        <time>2010-05-09T14:29:39Z</time>
      </trkpt>
      <trkpt lat="45.61719" lon="4.6099">
        <ele>687.96069335938</ele>
        <time>2010-05-09T14:29:43Z</time>
      </trkpt>
      <trkpt lat="45.61714" lon="4.60994">
        <ele>687.47998046875</ele>
        <time>2010-05-09T14:29:44Z</time>
      </trkpt>
      <trkpt lat="45.61695" lon="4.61013">
        <ele>686.99926757812</ele>
        <time>2010-05-09T14:29:48Z</time>
      </trkpt>
      <trkpt lat="45.61673" lon="4.61038">
        <ele>686.99926757812</ele>
        <time>2010-05-09T14:29:53Z</time>
      </trkpt>
      <trkpt lat="45.61659" lon="4.6105">
        <ele>686.99926757812</ele>
        <time>2010-05-09T14:29:56Z</time>
      </trkpt>
      <trkpt lat="45.61649" lon="4.61073">
        <ele>686.51879882812</ele>
        <time>2010-05-09T14:30:00Z</time>
      </trkpt>
      <trkpt lat="45.61642" lon="4.61085">
        <ele>686.0380859375</ele>
        <time>2010-05-09T14:30:02Z</time>
      </trkpt>
      <trkpt lat="45.6163" lon="4.61129">
        <ele>686.0380859375</ele>
        <time>2010-05-09T14:30:08Z</time>
      </trkpt>
      <trkpt lat="45.61622" lon="4.6116">
        <ele>685.55737304688</ele>
        <time>2010-05-09T14:30:12Z</time>
      </trkpt>
      <trkpt lat="45.61613" lon="4.61188">
        <ele>685.55737304688</ele>
        <time>2010-05-09T14:30:15Z</time>
      </trkpt>
      <trkpt lat="45.61599" lon="4.61223">
        <ele>684.59619140625</ele>
        <time>2010-05-09T14:30:19Z</time>
      </trkpt>
      <trkpt lat="45.61586" lon="4.61255">
        <ele>684.59619140625</ele>
        <time>2010-05-09T14:30:23Z</time>
      </trkpt>
      <trkpt lat="45.61573" lon="4.6129">
        <ele>684.11547851562</ele>
        <time>2010-05-09T14:30:28Z</time>
      </trkpt>
      <trkpt lat="45.61568" lon="4.61307">
        <ele>684.11547851562</ele>
        <time>2010-05-09T14:30:31Z</time>
      </trkpt>
      <trkpt lat="45.61563" lon="4.6132">
        <ele>683.63452148438</ele>
        <time>2010-05-09T14:30:33Z</time>
      </trkpt>
      <trkpt lat="45.61554" lon="4.61357">
        <ele>683.15380859375</ele>
        <time>2010-05-09T14:30:38Z</time>
      </trkpt>
      <trkpt lat="45.61546" lon="4.61376">
        <ele>682.67333984375</ele>
        <time>2010-05-09T14:30:41Z</time>
      </trkpt>
      <trkpt lat="45.61539" lon="4.61388">
        <ele>682.67333984375</ele>
        <time>2010-05-09T14:30:43Z</time>
      </trkpt>
      <trkpt lat="45.61522" lon="4.61415">
        <ele>682.19262695312</ele>
        <time>2010-05-09T14:30:48Z</time>
      </trkpt>
      <trkpt lat="45.61504" lon="4.61423">
        <ele>682.19262695312</ele>
        <time>2010-05-09T14:30:52Z</time>
      </trkpt>
      <trkpt lat="45.61489" lon="4.61432">
        <ele>681.7119140625</ele>
        <time>2010-05-09T14:30:57Z</time>
      </trkpt>
      <trkpt lat="45.61481" lon="4.61438">
        <ele>681.2314453125</ele>
        <time>2010-05-09T14:31:02Z</time>
      </trkpt>
      <trkpt lat="45.61481" lon="4.61438">
        <ele>676.4248046875</ele>
        <time>2010-05-09T14:31:03Z</time>
      </trkpt>
      <trkpt lat="45.6148" lon="4.61438">
        <ele>680.75073242188</ele>
        <time>2010-05-09T14:31:04Z</time>
      </trkpt>
      <trkpt lat="45.61477" lon="4.61435">
        <ele>679.30859375</ele>
        <time>2010-05-09T14:31:28Z</time>
      </trkpt>
      <trkpt lat="45.61477" lon="4.6143">
        <ele>679.30859375</ele>
        <time>2010-05-09T14:31:34Z</time>
      </trkpt>
      <trkpt lat="45.61477" lon="4.61427">
        <ele>679.30859375</ele>
        <time>2010-05-09T14:31:40Z</time>
      </trkpt>
      <trkpt lat="45.6148" lon="4.61427">
        <ele>678.828125</ele>
        <time>2010-05-09T14:31:51Z</time>
      </trkpt>
      <trkpt lat="45.6148" lon="4.61425">
        <ele>676.90551757812</ele>
        <time>2010-05-09T14:31:57Z</time>
      </trkpt>
      <trkpt lat="45.6148" lon="4.61426">
        <ele>678.34741210938</ele>
        <time>2010-05-09T14:32:00Z</time>
      </trkpt>
      <trkpt lat="45.61479" lon="4.61426">
        <ele>677.86669921875</ele>
        <time>2010-05-09T14:32:08Z</time>
      </trkpt>
      <trkpt lat="45.61478" lon="4.61427">
        <ele>677.38623046875</ele>
        <time>2010-05-09T14:32:13Z</time>
      </trkpt>
      <trkpt lat="45.61478" lon="4.61429">
        <ele>676.90551757812</ele>
        <time>2010-05-09T14:32:15Z</time>
      </trkpt>
      <trkpt lat="45.61472" lon="4.61447">
        <ele>675.94409179688</ele>
        <time>2010-05-09T14:32:21Z</time>
      </trkpt>
      <trkpt lat="45.61471" lon="4.61449">
        <ele>675.94409179688</ele>
        <time>2010-05-09T14:32:22Z</time>
      </trkpt>
      <trkpt lat="45.6146" lon="4.61468">
        <ele>674.50219726562</ele>
        <time>2010-05-09T14:32:28Z</time>
      </trkpt>
      <trkpt lat="45.61444" lon="4.61479">
        <ele>673.06030273438</ele>
        <time>2010-05-09T14:32:33Z</time>
      </trkpt>
      <trkpt lat="45.61438" lon="4.61483">
        <ele>672.09887695312</ele>
        <time>2010-05-09T14:32:35Z</time>
      </trkpt>
      <trkpt lat="45.61429" lon="4.61468">
        <ele>671.6181640625</ele>
        <time>2010-05-09T14:32:40Z</time>
      </trkpt>
      <trkpt lat="45.61421" lon="4.61452">
        <ele>670.65698242188</ele>
        <time>2010-05-09T14:32:44Z</time>
      </trkpt>
      <trkpt lat="45.61414" lon="4.6144">
        <ele>669.69580078125</ele>
        <time>2010-05-09T14:32:48Z</time>
      </trkpt>
      <trkpt lat="45.61403" lon="4.61425">
        <ele>668.734375</ele>
        <time>2010-05-09T14:32:53Z</time>
      </trkpt>
      <trkpt lat="45.61383" lon="4.61401">
        <ele>665.85034179688</ele>
        <time>2010-05-09T14:32:59Z</time>
      </trkpt>
      <trkpt lat="45.61374" lon="4.61389">
        <ele>664.408203125</ele>
        <time>2010-05-09T14:33:02Z</time>
      </trkpt>
      <trkpt lat="45.61368" lon="4.61381">
        <ele>662.96630859375</ele>
        <time>2010-05-09T14:33:05Z</time>
      </trkpt>
      <trkpt lat="45.61362" lon="4.61373">
        <ele>662.00512695312</ele>
        <time>2010-05-09T14:33:08Z</time>
      </trkpt>
      <trkpt lat="45.61351" lon="4.61358">
        <ele>658.64038085938</ele>
        <time>2010-05-09T14:33:14Z</time>
      </trkpt>
      <trkpt lat="45.61342" lon="4.61349">
        <ele>654.31469726562</ele>
        <time>2010-05-09T14:33:17Z</time>
      </trkpt>
      <trkpt lat="45.61338" lon="4.61345">
        <ele>650.94970703125</ele>
        <time>2010-05-09T14:33:19Z</time>
      </trkpt>
      <trkpt lat="45.61333" lon="4.61343">
        <ele>648.06591796875</ele>
        <time>2010-05-09T14:33:21Z</time>
      </trkpt>
      <trkpt lat="45.61329" lon="4.6134">
        <ele>644.701171875</ele>
        <time>2010-05-09T14:33:23Z</time>
      </trkpt>
      <trkpt lat="45.61324" lon="4.61336">
        <ele>641.33666992188</ele>
        <time>2010-05-09T14:33:25Z</time>
      </trkpt>
      <trkpt lat="45.61319" lon="4.61329">
        <ele>638.45288085938</ele>
        <time>2010-05-09T14:33:28Z</time>
      </trkpt>
      <trkpt lat="45.61313" lon="4.61325">
        <ele>635.08813476562</ele>
        <time>2010-05-09T14:33:31Z</time>
      </trkpt>
      <trkpt lat="45.61308" lon="4.61319">
        <ele>631.72338867188</ele>
        <time>2010-05-09T14:33:34Z</time>
      </trkpt>
      <trkpt lat="45.61298" lon="4.61309">
        <ele>628.35888671875</ele>
        <time>2010-05-09T14:33:38Z</time>
      </trkpt>
      <trkpt lat="45.61291" lon="4.613">
        <ele>624.99438476562</ele>
        <time>2010-05-09T14:33:41Z</time>
      </trkpt>
      <trkpt lat="45.6128" lon="4.61281">
        <ele>621.14916992188</ele>
        <time>2010-05-09T14:33:45Z</time>
      </trkpt>
      <trkpt lat="45.61273" lon="4.61269">
        <ele>618.74560546875</ele>
        <time>2010-05-09T14:33:47Z</time>
      </trkpt>
      <trkpt lat="45.61251" lon="4.61248">
        <ele>614.900390625</ele>
        <time>2010-05-09T14:33:52Z</time>
      </trkpt>
      <trkpt lat="45.61237" lon="4.61241">
        <ele>612.4970703125</ele>
        <time>2010-05-09T14:33:55Z</time>
      </trkpt>
      <trkpt lat="45.61226" lon="4.6123">
        <ele>610.09375</ele>
        <time>2010-05-09T14:33:58Z</time>
      </trkpt>
      <trkpt lat="45.61205" lon="4.61216">
        <ele>606.72924804688</ele>
        <time>2010-05-09T14:34:03Z</time>
      </trkpt>
      <trkpt lat="45.61197" lon="4.61212">
        <ele>605.76806640625</ele>
        <time>2010-05-09T14:34:05Z</time>
      </trkpt>
      <trkpt lat="45.61192" lon="4.61211">
        <ele>605.28735351562</ele>
        <time>2010-05-09T14:34:06Z</time>
      </trkpt>
      <trkpt lat="45.61176" lon="4.61213">
        <ele>602.8837890625</ele>
        <time>2010-05-09T14:34:10Z</time>
      </trkpt>
      <trkpt lat="45.61163" lon="4.61214">
        <ele>601.44189453125</ele>
        <time>2010-05-09T14:34:13Z</time>
      </trkpt>
      <trkpt lat="45.61145" lon="4.61212">
        <ele>600</ele>
        <time>2010-05-09T14:34:16Z</time>
      </trkpt>
      <trkpt lat="45.6114" lon="4.61212">
        <ele>599.51928710938</ele>
        <time>2010-05-09T14:34:17Z</time>
      </trkpt>
      <trkpt lat="45.61113" lon="4.61219">
        <ele>597.5966796875</ele>
        <time>2010-05-09T14:34:22Z</time>
      </trkpt>
      <trkpt lat="45.61104" lon="4.61226">
        <ele>590.38696289062</ele>
        <time>2010-05-09T14:34:26Z</time>
      </trkpt>
      <trkpt lat="45.61102" lon="4.61228">
        <ele>597.5966796875</ele>
        <time>2010-05-09T14:34:27Z</time>
      </trkpt>
      <trkpt lat="45.61085" lon="4.61244">
        <ele>596.15478515625</ele>
        <time>2010-05-09T14:34:33Z</time>
      </trkpt>
      <trkpt lat="45.61066" lon="4.61255">
        <ele>594.71264648438</ele>
        <time>2010-05-09T14:34:39Z</time>
      </trkpt>
      <trkpt lat="45.61052" lon="4.61265">
        <ele>593.75146484375</ele>
        <time>2010-05-09T14:34:43Z</time>
      </trkpt>
      <trkpt lat="45.61037" lon="4.6128">
        <ele>594.23217773438</ele>
        <time>2010-05-09T14:34:46Z</time>
      </trkpt>
      <trkpt lat="45.61014" lon="4.6132">
        <ele>592.3095703125</ele>
        <time>2010-05-09T14:34:51Z</time>
      </trkpt>
      <trkpt lat="45.60999" lon="4.61347">
        <ele>591.34814453125</ele>
        <time>2010-05-09T14:34:56Z</time>
      </trkpt>
      <trkpt lat="45.60994" lon="4.61358">
        <ele>589.42553710938</ele>
        <time>2010-05-09T14:34:59Z</time>
      </trkpt>
      <trkpt lat="45.60993" lon="4.61363">
        <ele>589.42553710938</ele>
        <time>2010-05-09T14:35:00Z</time>
      </trkpt>
      <trkpt lat="45.60987" lon="4.61375">
        <ele>587.9833984375</ele>
        <time>2010-05-09T14:35:02Z</time>
      </trkpt>
      <trkpt lat="45.60983" lon="4.61388">
        <ele>587.50268554688</ele>
        <time>2010-05-09T14:35:04Z</time>
      </trkpt>
      <trkpt lat="45.60983" lon="4.61416">
        <ele>585.099609375</ele>
        <time>2010-05-09T14:35:08Z</time>
      </trkpt>
      <trkpt lat="45.60979" lon="4.61427">
        <ele>584.13818359375</ele>
        <time>2010-05-09T14:35:10Z</time>
      </trkpt>
      <trkpt lat="45.60976" lon="4.61431">
        <ele>583.1767578125</ele>
        <time>2010-05-09T14:35:11Z</time>
      </trkpt>
      <trkpt lat="45.60963" lon="4.6145">
        <ele>580.29296875</ele>
        <time>2010-05-09T14:35:16Z</time>
      </trkpt>
      <trkpt lat="45.60949" lon="4.61469">
        <ele>577.8896484375</ele>
        <time>2010-05-09T14:35:21Z</time>
      </trkpt>
      <trkpt lat="45.60936" lon="4.6149">
        <ele>574.52514648438</ele>
        <time>2010-05-09T14:35:26Z</time>
      </trkpt>
      <trkpt lat="45.60921" lon="4.61517">
        <ele>570.6796875</ele>
        <time>2010-05-09T14:35:32Z</time>
      </trkpt>
      <trkpt lat="45.60919" lon="4.61522">
        <ele>570.6796875</ele>
        <time>2010-05-09T14:35:33Z</time>
      </trkpt>
      <trkpt lat="45.60903" lon="4.61555">
        <ele>566.83447265625</ele>
        <time>2010-05-09T14:35:39Z</time>
      </trkpt>
      <trkpt lat="45.60898" lon="4.61563">
        <ele>564.43115234375</ele>
        <time>2010-05-09T14:35:42Z</time>
      </trkpt>
      <trkpt lat="45.60897" lon="4.61569">
        <ele>563.95043945312</ele>
        <time>2010-05-09T14:35:44Z</time>
      </trkpt>
      <trkpt lat="45.60894" lon="4.61586">
        <ele>560.5859375</ele>
        <time>2010-05-09T14:35:48Z</time>
      </trkpt>
      <trkpt lat="45.60896" lon="4.61604">
        <ele>559.14404296875</ele>
        <time>2010-05-09T14:35:52Z</time>
      </trkpt>
      <trkpt lat="45.6088" lon="4.61623">
        <ele>557.7021484375</ele>
        <time>2010-05-09T14:35:55Z</time>
      </trkpt>
      <trkpt lat="45.60857" lon="4.61657">
        <ele>555.29858398438</ele>
        <time>2010-05-09T14:35:59Z</time>
      </trkpt>
      <trkpt lat="45.60844" lon="4.61705">
        <ele>552.89526367188</ele>
        <time>2010-05-09T14:36:03Z</time>
      </trkpt>
      <trkpt lat="45.60842" lon="4.61719">
        <ele>552.89526367188</ele>
        <time>2010-05-09T14:36:04Z</time>
      </trkpt>
      <trkpt lat="45.60833" lon="4.61772">
        <ele>550.4921875</ele>
        <time>2010-05-09T14:36:08Z</time>
      </trkpt>
      <trkpt lat="45.6082" lon="4.61806">
        <ele>548.5693359375</ele>
        <time>2010-05-09T14:36:11Z</time>
      </trkpt>
      <trkpt lat="45.60796" lon="4.61851">
        <ele>546.64685058594</ele>
        <time>2010-05-09T14:36:16Z</time>
      </trkpt>
      <trkpt lat="45.6078" lon="4.61878">
        <ele>545.685546875</ele>
        <time>2010-05-09T14:36:20Z</time>
      </trkpt>
      <trkpt lat="45.60769" lon="4.61909">
        <ele>544.24365234375</ele>
        <time>2010-05-09T14:36:25Z</time>
      </trkpt>
      <trkpt lat="45.60765" lon="4.61939">
        <ele>543.28210449219</ele>
        <time>2010-05-09T14:36:29Z</time>
      </trkpt>
      <trkpt lat="45.60762" lon="4.61988">
        <ele>542.80151367188</ele>
        <time>2010-05-09T14:36:35Z</time>
      </trkpt>
      <trkpt lat="45.60746" lon="4.6204">
        <ele>542.80151367188</ele>
        <time>2010-05-09T14:36:42Z</time>
      </trkpt>
      <trkpt lat="45.60719" lon="4.62084">
        <ele>542.32092285156</ele>
        <time>2010-05-09T14:36:49Z</time>
      </trkpt>
      <trkpt lat="45.60685" lon="4.62131">
        <ele>542.80151367188</ele>
        <time>2010-05-09T14:36:57Z</time>
      </trkpt>
      <trkpt lat="45.60645" lon="4.62185">
        <ele>543.28210449219</ele>
        <time>2010-05-09T14:37:07Z</time>
      </trkpt>
      <trkpt lat="45.60616" lon="4.62227">
        <ele>542.80151367188</ele>
        <time>2010-05-09T14:37:15Z</time>
      </trkpt>
      <trkpt lat="45.60612" lon="4.62233">
        <ele>543.76281738281</ele>
        <time>2010-05-09T14:37:16Z</time>
      </trkpt>
      <trkpt lat="45.60589" lon="4.62277">
        <ele>542.32092285156</ele>
        <time>2010-05-09T14:37:22Z</time>
      </trkpt>
      <trkpt lat="45.60583" lon="4.62288">
        <ele>541.84020996094</ele>
        <time>2010-05-09T14:37:24Z</time>
      </trkpt>
      <trkpt lat="45.60579" lon="4.62299">
        <ele>537.03369140625</ele>
        <time>2010-05-09T14:37:26Z</time>
      </trkpt>
      <trkpt lat="45.60577" lon="4.62304">
        <ele>540.87890625</ele>
        <time>2010-05-09T14:37:27Z</time>
      </trkpt>
      <trkpt lat="45.60574" lon="4.6231">
        <ele>540.87890625</ele>
        <time>2010-05-09T14:37:28Z</time>
      </trkpt>
      <trkpt lat="45.60565" lon="4.62358">
        <ele>539.91760253906</ele>
        <time>2010-05-09T14:37:34Z</time>
      </trkpt>
      <trkpt lat="45.60563" lon="4.62367">
        <ele>539.43688964844</ele>
        <time>2010-05-09T14:37:35Z</time>
      </trkpt>
      <trkpt lat="45.60538" lon="4.62422">
        <ele>537.51428222656</ele>
        <time>2010-05-09T14:37:41Z</time>
      </trkpt>
      <trkpt lat="45.60513" lon="4.62458">
        <ele>535.59155273438</ele>
        <time>2010-05-09T14:37:46Z</time>
      </trkpt>
      <trkpt lat="45.60494" lon="4.62486">
        <ele>534.63037109375</ele>
        <time>2010-05-09T14:37:51Z</time>
      </trkpt>
      <trkpt lat="45.60474" lon="4.62514">
        <ele>534.14965820312</ele>
        <time>2010-05-09T14:37:56Z</time>
      </trkpt>
      <trkpt lat="45.60445" lon="4.62532">
        <ele>533.6689453125</ele>
        <time>2010-05-09T14:38:02Z</time>
      </trkpt>
      <trkpt lat="45.60407" lon="4.62555">
        <ele>532.22705078125</ele>
        <time>2010-05-09T14:38:09Z</time>
      </trkpt>
      <trkpt lat="45.60402" lon="4.6256">
        <ele>531.74633789062</ele>
        <time>2010-05-09T14:38:10Z</time>
      </trkpt>
      <trkpt lat="45.60366" lon="4.62607">
        <ele>530.30444335938</ele>
        <time>2010-05-09T14:38:17Z</time>
      </trkpt>
      <trkpt lat="45.60361" lon="4.62616">
        <ele>530.30444335938</ele>
        <time>2010-05-09T14:38:18Z</time>
      </trkpt>
      <trkpt lat="45.60352" lon="4.62648">
        <ele>529.34313964844</ele>
        <time>2010-05-09T14:38:21Z</time>
      </trkpt>
      <trkpt lat="45.60355" lon="4.62673">
        <ele>528.86254882812</ele>
        <time>2010-05-09T14:38:23Z</time>
      </trkpt>
      <trkpt lat="45.60365" lon="4.62711">
        <ele>527.42041015625</ele>
        <time>2010-05-09T14:38:26Z</time>
      </trkpt>
      <trkpt lat="45.60389" lon="4.6279">
        <ele>524.05578613281</ele>
        <time>2010-05-09T14:38:32Z</time>
      </trkpt>
      <trkpt lat="45.60393" lon="4.62818">
        <ele>523.09460449219</ele>
        <time>2010-05-09T14:38:34Z</time>
      </trkpt>
      <trkpt lat="45.60392" lon="4.62867">
        <ele>521.17199707031</ele>
        <time>2010-05-09T14:38:38Z</time>
      </trkpt>
      <trkpt lat="45.60383" lon="4.6289">
        <ele>520.21057128906</ele>
        <time>2010-05-09T14:38:41Z</time>
      </trkpt>
      <trkpt lat="45.60371" lon="4.62908">
        <ele>518.28784179688</ele>
        <time>2010-05-09T14:38:44Z</time>
      </trkpt>
      <trkpt lat="45.6034" lon="4.62938">
        <ele>517.32666015625</ele>
        <time>2010-05-09T14:38:50Z</time>
      </trkpt>
      <trkpt lat="45.60331" lon="4.62948">
        <ele>516.84594726562</ele>
        <time>2010-05-09T14:38:52Z</time>
      </trkpt>
      <trkpt lat="45.60321" lon="4.62972">
        <ele>516.365234375</ele>
        <time>2010-05-09T14:38:55Z</time>
      </trkpt>
      <trkpt lat="45.60298" lon="4.63">
        <ele>513.96203613281</ele>
        <time>2010-05-09T14:38:59Z</time>
      </trkpt>
      <trkpt lat="45.60263" lon="4.63029">
        <ele>511.07800292969</ele>
        <time>2010-05-09T14:39:04Z</time>
      </trkpt>
      <trkpt lat="45.60251" lon="4.6304">
        <ele>510.11669921875</ele>
        <time>2010-05-09T14:39:06Z</time>
      </trkpt>
      <trkpt lat="45.60235" lon="4.63042">
        <ele>507.71350097656</ele>
        <time>2010-05-09T14:39:10Z</time>
      </trkpt>
      <trkpt lat="45.60228" lon="4.63028">
        <ele>506.271484375</ele>
        <time>2010-05-09T14:39:13Z</time>
      </trkpt>
      <trkpt lat="45.60227" lon="4.63021">
        <ele>505.79089355469</ele>
        <time>2010-05-09T14:39:14Z</time>
      </trkpt>
      <trkpt lat="45.60224" lon="4.63006">
        <ele>505.31018066406</ele>
        <time>2010-05-09T14:39:16Z</time>
      </trkpt>
      <trkpt lat="45.60217" lon="4.62993">
        <ele>503.8681640625</ele>
        <time>2010-05-09T14:39:19Z</time>
      </trkpt>
      <trkpt lat="45.60214" lon="4.63">
        <ele>502.90673828125</ele>
        <time>2010-05-09T14:39:21Z</time>
      </trkpt>
      <trkpt lat="45.60212" lon="4.63007">
        <ele>501.46484375</ele>
        <time>2010-05-09T14:39:23Z</time>
      </trkpt>
      <trkpt lat="45.60207" lon="4.63021">
        <ele>495.21618652344</ele>
        <time>2010-05-09T14:39:27Z</time>
      </trkpt>
      <trkpt lat="45.60205" lon="4.63026">
        <ele>488.9677734375</ele>
        <time>2010-05-09T14:39:28Z</time>
      </trkpt>
      <trkpt lat="45.60203" lon="4.63032">
        <ele>499.0615234375</ele>
        <time>2010-05-09T14:39:29Z</time>
      </trkpt>
      <trkpt lat="45.60201" lon="4.63039">
        <ele>498.10034179688</ele>
        <time>2010-05-09T14:39:30Z</time>
      </trkpt>
      <trkpt lat="45.60196" lon="4.63059">
        <ele>497.13891601562</ele>
        <time>2010-05-09T14:39:32Z</time>
      </trkpt>
      <trkpt lat="45.60192" lon="4.63097">
        <ele>495.21618652344</ele>
        <time>2010-05-09T14:39:36Z</time>
      </trkpt>
      <trkpt lat="45.60181" lon="4.63112">
        <ele>493.29357910156</ele>
        <time>2010-05-09T14:39:39Z</time>
      </trkpt>
      <trkpt lat="45.60157" lon="4.63138">
        <ele>489.92907714844</ele>
        <time>2010-05-09T14:39:44Z</time>
      </trkpt>
      <trkpt lat="45.60144" lon="4.63164">
        <ele>485.60302734375</ele>
        <time>2010-05-09T14:39:48Z</time>
      </trkpt>
      <trkpt lat="45.60132" lon="4.63185">
        <ele>481.7578125</ele>
        <time>2010-05-09T14:39:52Z</time>
      </trkpt>
      <trkpt lat="45.60124" lon="4.63205">
        <ele>479.83508300781</ele>
        <time>2010-05-09T14:39:55Z</time>
      </trkpt>
      <trkpt lat="45.60117" lon="4.63237">
        <ele>476.95129394531</ele>
        <time>2010-05-09T14:39:59Z</time>
      </trkpt>
      <trkpt lat="45.60114" lon="4.63248">
        <ele>474.54797363281</ele>
        <time>2010-05-09T14:40:01Z</time>
      </trkpt>
      <trkpt lat="45.60113" lon="4.63261">
        <ele>473.10607910156</ele>
        <time>2010-05-09T14:40:03Z</time>
      </trkpt>
      <trkpt lat="45.60097" lon="4.63284">
        <ele>469.74133300781</ele>
        <time>2010-05-09T14:40:07Z</time>
      </trkpt>
      <trkpt lat="45.6008" lon="4.63297">
        <ele>465.89611816406</ele>
        <time>2010-05-09T14:40:10Z</time>
      </trkpt>
      <trkpt lat="45.6007" lon="4.63315">
        <ele>462.05078125</ele>
        <time>2010-05-09T14:40:14Z</time>
      </trkpt>
      <trkpt lat="45.60064" lon="4.63344">
        <ele>458.20556640625</ele>
        <time>2010-05-09T14:40:20Z</time>
      </trkpt>
      <trkpt lat="45.60064" lon="4.63347">
        <ele>458.20556640625</ele>
        <time>2010-05-09T14:40:21Z</time>
      </trkpt>
      <trkpt lat="45.60064" lon="4.63353">
        <ele>456.28295898438</ele>
        <time>2010-05-09T14:40:23Z</time>
      </trkpt>
      <trkpt lat="45.60052" lon="4.63364">
        <ele>454.36022949219</ele>
        <time>2010-05-09T14:40:27Z</time>
      </trkpt>
      <trkpt lat="45.60038" lon="4.63384">
        <ele>451.47631835938</ele>
        <time>2010-05-09T14:40:32Z</time>
      </trkpt>
      <trkpt lat="45.60026" lon="4.63401">
        <ele>449.5537109375</ele>
        <time>2010-05-09T14:40:36Z</time>
      </trkpt>
      <trkpt lat="45.60003" lon="4.63423">
        <ele>446.18908691406</ele>
        <time>2010-05-09T14:40:41Z</time>
      </trkpt>
      <trkpt lat="45.59994" lon="4.63429">
        <ele>445.70837402344</ele>
        <time>2010-05-09T14:40:43Z</time>
      </trkpt>
      <trkpt lat="45.59976" lon="4.6344">
        <ele>444.26647949219</ele>
        <time>2010-05-09T14:40:47Z</time>
      </trkpt>
      <trkpt lat="45.59953" lon="4.63457">
        <ele>441.38244628906</ele>
        <time>2010-05-09T14:40:53Z</time>
      </trkpt>
      <trkpt lat="45.59939" lon="4.63485">
        <ele>439.9404296875</ele>
        <time>2010-05-09T14:40:58Z</time>
      </trkpt>
      <trkpt lat="45.59933" lon="4.63526">
        <ele>436.09521484375</ele>
        <time>2010-05-09T14:41:04Z</time>
      </trkpt>
      <trkpt lat="45.59929" lon="4.63552">
        <ele>434.6533203125</ele>
        <time>2010-05-09T14:41:08Z</time>
      </trkpt>
      <trkpt lat="45.59922" lon="4.63573">
        <ele>432.73071289062</ele>
        <time>2010-05-09T14:41:12Z</time>
      </trkpt>
      <trkpt lat="45.59911" lon="4.63588">
        <ele>430.32727050781</ele>
        <time>2010-05-09T14:41:15Z</time>
      </trkpt>
      <trkpt lat="45.59894" lon="4.63604">
        <ele>428.40466308594</ele>
        <time>2010-05-09T14:41:19Z</time>
      </trkpt>
      <trkpt lat="45.59872" lon="4.63628">
        <ele>425.04016113281</ele>
        <time>2010-05-09T14:41:24Z</time>
      </trkpt>
      <trkpt lat="45.59864" lon="4.63639">
        <ele>424.07873535156</ele>
        <time>2010-05-09T14:41:26Z</time>
      </trkpt>
      <trkpt lat="45.59852" lon="4.63655">
        <ele>422.63671875</ele>
        <time>2010-05-09T14:41:29Z</time>
      </trkpt>
      <trkpt lat="45.59824" lon="4.63686">
        <ele>419.75280761719</ele>
        <time>2010-05-09T14:41:35Z</time>
      </trkpt>
      <trkpt lat="45.59802" lon="4.6371">
        <ele>416.86889648438</ele>
        <time>2010-05-09T14:41:40Z</time>
      </trkpt>
      <trkpt lat="45.59789" lon="4.63721">
        <ele>415.42687988281</ele>
        <time>2010-05-09T14:41:43Z</time>
      </trkpt>
      <trkpt lat="45.5978" lon="4.63728">
        <ele>414.46545410156</ele>
        <time>2010-05-09T14:41:45Z</time>
      </trkpt>
      <trkpt lat="45.59756" lon="4.63749">
        <ele>411.58166503906</ele>
        <time>2010-05-09T14:41:50Z</time>
      </trkpt>
      <trkpt lat="45.59729" lon="4.63774">
        <ele>409.17834472656</ele>
        <time>2010-05-09T14:41:56Z</time>
      </trkpt>
      <trkpt lat="45.59706" lon="4.63792">
        <ele>407.25561523438</ele>
        <time>2010-05-09T14:42:01Z</time>
      </trkpt>
      <trkpt lat="45.59674" lon="4.63805">
        <ele>403.41040039062</ele>
        <time>2010-05-09T14:42:07Z</time>
      </trkpt>
      <trkpt lat="45.59655" lon="4.63813">
        <ele>401.00708007812</ele>
        <time>2010-05-09T14:42:11Z</time>
      </trkpt>
      <trkpt lat="45.59644" lon="4.63832">
        <ele>399.08435058594</ele>
        <time>2010-05-09T14:42:15Z</time>
      </trkpt>
      <trkpt lat="45.59643" lon="4.63838">
        <ele>398.60375976562</ele>
        <time>2010-05-09T14:42:16Z</time>
      </trkpt>
      <trkpt lat="45.59641" lon="4.6385">
        <ele>396.20056152344</ele>
        <time>2010-05-09T14:42:19Z</time>
      </trkpt>
      <trkpt lat="45.5964" lon="4.63855">
        <ele>395.71984863281</ele>
        <time>2010-05-09T14:42:21Z</time>
      </trkpt>
      <trkpt lat="45.59636" lon="4.63857">
        <ele>393.79724121094</ele>
        <time>2010-05-09T14:42:24Z</time>
      </trkpt>
      <trkpt lat="45.59628" lon="4.63852">
        <ele>391.87451171875</ele>
        <time>2010-05-09T14:42:28Z</time>
      </trkpt>
      <trkpt lat="45.59613" lon="4.63839">
        <ele>389.95190429688</ele>
        <time>2010-05-09T14:42:32Z</time>
      </trkpt>
      <trkpt lat="45.59604" lon="4.63835">
        <ele>388.029296875</ele>
        <time>2010-05-09T14:42:34Z</time>
      </trkpt>
      <trkpt lat="45.59581" lon="4.63839">
        <ele>384.66479492188</ele>
        <time>2010-05-09T14:42:39Z</time>
      </trkpt>
      <trkpt lat="45.59572" lon="4.63848">
        <ele>384.18408203125</ele>
        <time>2010-05-09T14:42:41Z</time>
      </trkpt>
      <trkpt lat="45.59557" lon="4.63859">
        <ele>382.26135253906</ele>
        <time>2010-05-09T14:42:45Z</time>
      </trkpt>
      <trkpt lat="45.59546" lon="4.6386">
        <ele>380.33874511719</ele>
        <time>2010-05-09T14:42:49Z</time>
      </trkpt>
      <trkpt lat="45.59533" lon="4.63863">
        <ele>379.85803222656</ele>
        <time>2010-05-09T14:42:54Z</time>
      </trkpt>
      <trkpt lat="45.59526" lon="4.63873">
        <ele>380.33874511719</ele>
        <time>2010-05-09T14:42:58Z</time>
      </trkpt>
      <trkpt lat="45.59523" lon="4.63887">
        <ele>380.33874511719</ele>
        <time>2010-05-09T14:43:03Z</time>
      </trkpt>
      <trkpt lat="45.59516" lon="4.63908">
        <ele>380.81945800781</ele>
        <time>2010-05-09T14:43:09Z</time>
      </trkpt>
      <trkpt lat="45.59507" lon="4.63921">
        <ele>381.30004882812</ele>
        <time>2010-05-09T14:43:15Z</time>
      </trkpt>
      <trkpt lat="45.5949" lon="4.6393">
        <ele>381.78063964844</ele>
        <time>2010-05-09T14:43:23Z</time>
      </trkpt>
      <trkpt lat="45.59475" lon="4.6393">
        <ele>383.22265625</ele>
        <time>2010-05-09T14:43:30Z</time>
      </trkpt>
      <trkpt lat="45.59476" lon="4.63935">
        <ele>383.70324707031</ele>
        <time>2010-05-09T14:43:34Z</time>
      </trkpt>
      <trkpt lat="45.59486" lon="4.63932">
        <ele>384.18408203125</ele>
        <time>2010-05-09T14:43:37Z</time>
      </trkpt>
      <trkpt lat="45.59509" lon="4.63921">
        <ele>383.22265625</ele>
        <time>2010-05-09T14:43:42Z</time>
      </trkpt>
      <trkpt lat="45.59517" lon="4.63923">
        <ele>383.22265625</ele>
        <time>2010-05-09T14:43:44Z</time>
      </trkpt>
      <trkpt lat="45.59525" lon="4.63941">
        <ele>383.22265625</ele>
        <time>2010-05-09T14:43:48Z</time>
      </trkpt>
      <trkpt lat="45.59526" lon="4.63945">
        <ele>382.74206542969</ele>
        <time>2010-05-09T14:43:49Z</time>
      </trkpt>
      <trkpt lat="45.59532" lon="4.63974">
        <ele>382.74206542969</ele>
        <time>2010-05-09T14:43:55Z</time>
      </trkpt>
      <trkpt lat="45.59534" lon="4.63989">
        <ele>383.22265625</ele>
        <time>2010-05-09T14:43:59Z</time>
      </trkpt>
      <trkpt lat="45.59535" lon="4.63995">
        <ele>382.74206542969</ele>
        <time>2010-05-09T14:44:04Z</time>
      </trkpt>
      <trkpt lat="45.59535" lon="4.64002">
        <ele>383.22265625</ele>
        <time>2010-05-09T14:44:11Z</time>
      </trkpt>
      <trkpt lat="45.59537" lon="4.64007">
        <ele>383.22265625</ele>
        <time>2010-05-09T14:44:17Z</time>
      </trkpt>
      <trkpt lat="45.5954" lon="4.64019">
        <ele>383.22265625</ele>
        <time>2010-05-09T14:44:23Z</time>
      </trkpt>
      <trkpt lat="45.59543" lon="4.64039">
        <ele>384.18408203125</ele>
        <time>2010-05-09T14:44:30Z</time>
      </trkpt>
      <trkpt lat="45.59543" lon="4.64061">
        <ele>385.14538574219</ele>
        <time>2010-05-09T14:44:36Z</time>
      </trkpt>
      <trkpt lat="45.59541" lon="4.64087">
        <ele>386.10668945312</ele>
        <time>2010-05-09T14:44:42Z</time>
      </trkpt>
      <trkpt lat="45.59533" lon="4.64109">
        <ele>387.06799316406</ele>
        <time>2010-05-09T14:44:48Z</time>
      </trkpt>
      <trkpt lat="45.59524" lon="4.64136">
        <ele>387.06799316406</ele>
        <time>2010-05-09T14:44:55Z</time>
      </trkpt>
      <trkpt lat="45.59517" lon="4.64156">
        <ele>388.51000976562</ele>
        <time>2010-05-09T14:45:00Z</time>
      </trkpt>
      <trkpt lat="45.59509" lon="4.64179">
        <ele>388.99060058594</ele>
        <time>2010-05-09T14:45:06Z</time>
      </trkpt>
      <trkpt lat="45.59502" lon="4.64198">
        <ele>388.99060058594</ele>
        <time>2010-05-09T14:45:11Z</time>
      </trkpt>
      <trkpt lat="45.59491" lon="4.64227">
        <ele>390.4326171875</ele>
        <time>2010-05-09T14:45:18Z</time>
      </trkpt>
      <trkpt lat="45.5948" lon="4.64255">
        <ele>390.4326171875</ele>
        <time>2010-05-09T14:45:25Z</time>
      </trkpt>
      <trkpt lat="45.59464" lon="4.64278">
        <ele>390.91320800781</ele>
        <time>2010-05-09T14:45:32Z</time>
      </trkpt>
      <trkpt lat="45.59454" lon="4.64293">
        <ele>390.91320800781</ele>
        <time>2010-05-09T14:45:37Z</time>
      </trkpt>
      <trkpt lat="45.59451" lon="4.643">
        <ele>390.91320800781</ele>
        <time>2010-05-09T14:45:39Z</time>
      </trkpt>
      <trkpt lat="45.59455" lon="4.64312">
        <ele>390.91320800781</ele>
        <time>2010-05-09T14:45:43Z</time>
      </trkpt>
      <trkpt lat="45.59457" lon="4.64315">
        <ele>390.4326171875</ele>
        <time>2010-05-09T14:45:44Z</time>
      </trkpt>
      <trkpt lat="45.59457" lon="4.64331">
        <ele>389.95190429688</ele>
        <time>2010-05-09T14:45:49Z</time>
      </trkpt>
      <trkpt lat="45.59455" lon="4.64352">
        <ele>389.95190429688</ele>
        <time>2010-05-09T14:45:54Z</time>
      </trkpt>
      <trkpt lat="45.5945" lon="4.64385">
        <ele>389.95190429688</ele>
        <time>2010-05-09T14:46:01Z</time>
      </trkpt>
      <trkpt lat="45.59444" lon="4.64409">
        <ele>389.47119140625</ele>
        <time>2010-05-09T14:46:06Z</time>
      </trkpt>
      <trkpt lat="45.59439" lon="4.6442">
        <ele>388.99060058594</ele>
        <time>2010-05-09T14:46:12Z</time>
      </trkpt>
      <trkpt lat="45.59426" lon="4.64445">
        <ele>388.029296875</ele>
        <time>2010-05-09T14:46:18Z</time>
      </trkpt>
      <trkpt lat="45.59412" lon="4.64469">
        <ele>387.54858398438</ele>
        <time>2010-05-09T14:46:24Z</time>
      </trkpt>
      <trkpt lat="45.59406" lon="4.64483">
        <ele>388.029296875</ele>
        <time>2010-05-09T14:46:29Z</time>
      </trkpt>
      <trkpt lat="45.59398" lon="4.64491">
        <ele>387.54858398438</ele>
        <time>2010-05-09T14:46:33Z</time>
      </trkpt>
      <trkpt lat="45.59386" lon="4.64503">
        <ele>388.029296875</ele>
        <time>2010-05-09T14:46:38Z</time>
      </trkpt>
      <trkpt lat="45.59374" lon="4.64518">
        <ele>388.029296875</ele>
        <time>2010-05-09T14:46:43Z</time>
      </trkpt>
      <trkpt lat="45.59371" lon="4.64529">
        <ele>388.029296875</ele>
        <time>2010-05-09T14:46:46Z</time>
      </trkpt>
      <trkpt lat="45.5937" lon="4.64544">
        <ele>388.029296875</ele>
        <time>2010-05-09T14:46:52Z</time>
      </trkpt>
      <trkpt lat="45.59369" lon="4.64556">
        <ele>388.029296875</ele>
        <time>2010-05-09T14:46:58Z</time>
      </trkpt>
      <trkpt lat="45.59367" lon="4.64572">
        <ele>388.51000976562</ele>
        <time>2010-05-09T14:47:03Z</time>
      </trkpt>
      <trkpt lat="45.59369" lon="4.64587">
        <ele>388.99060058594</ele>
        <time>2010-05-09T14:47:09Z</time>
      </trkpt>
      <trkpt lat="45.59369" lon="4.64597">
        <ele>390.91320800781</ele>
        <time>2010-05-09T14:47:15Z</time>
      </trkpt>
      <trkpt lat="45.59368" lon="4.6461">
        <ele>392.35534667969</ele>
        <time>2010-05-09T14:47:21Z</time>
      </trkpt>
      <trkpt lat="45.59368" lon="4.64632">
        <ele>394.75854492188</ele>
        <time>2010-05-09T14:47:30Z</time>
      </trkpt>
      <trkpt lat="45.59367" lon="4.64644">
        <ele>395.71984863281</ele>
        <time>2010-05-09T14:47:36Z</time>
      </trkpt>
      <trkpt lat="45.59367" lon="4.64649">
        <ele>396.20056152344</ele>
        <time>2010-05-09T14:47:38Z</time>
      </trkpt>
      <trkpt lat="45.59365" lon="4.64665">
        <ele>396.68115234375</ele>
        <time>2010-05-09T14:47:46Z</time>
      </trkpt>
      <trkpt lat="45.59364" lon="4.64681">
        <ele>397.16174316406</ele>
        <time>2010-05-09T14:47:53Z</time>
      </trkpt>
      <trkpt lat="45.59362" lon="4.64697">
        <ele>398.12316894531</ele>
        <time>2010-05-09T14:48:00Z</time>
      </trkpt>
      <trkpt lat="45.59357" lon="4.64719">
        <ele>398.60375976562</ele>
        <time>2010-05-09T14:48:07Z</time>
      </trkpt>
      <trkpt lat="45.59352" lon="4.64745">
        <ele>399.08435058594</ele>
        <time>2010-05-09T14:48:13Z</time>
      </trkpt>
      <trkpt lat="45.59349" lon="4.64758">
        <ele>398.60375976562</ele>
        <time>2010-05-09T14:48:16Z</time>
      </trkpt>
      <trkpt lat="45.59361" lon="4.64771">
        <ele>398.12316894531</ele>
        <time>2010-05-09T14:48:21Z</time>
      </trkpt>
      <trkpt lat="45.59381" lon="4.64787">
        <ele>397.16174316406</ele>
        <time>2010-05-09T14:48:27Z</time>
      </trkpt>
      <trkpt lat="45.59414" lon="4.64815">
        <ele>395.71984863281</ele>
        <time>2010-05-09T14:48:34Z</time>
      </trkpt>
      <trkpt lat="45.59437" lon="4.64847">
        <ele>395.23913574219</ele>
        <time>2010-05-09T14:48:39Z</time>
      </trkpt>
      <trkpt lat="45.59454" lon="4.64885">
        <ele>393.79724121094</ele>
        <time>2010-05-09T14:48:44Z</time>
      </trkpt>
      <trkpt lat="45.59459" lon="4.64902">
        <ele>393.31652832031</ele>
        <time>2010-05-09T14:48:46Z</time>
      </trkpt>
      <trkpt lat="45.59472" lon="4.64933">
        <ele>391.39379882812</ele>
        <time>2010-05-09T14:48:50Z</time>
      </trkpt>
      <trkpt lat="45.59478" lon="4.64948">
        <ele>389.47119140625</ele>
        <time>2010-05-09T14:48:53Z</time>
      </trkpt>
      <trkpt lat="45.59488" lon="4.64972">
        <ele>387.06799316406</ele>
        <time>2010-05-09T14:48:58Z</time>
      </trkpt>
      <trkpt lat="45.59491" lon="4.64978">
        <ele>387.06799316406</ele>
        <time>2010-05-09T14:48:59Z</time>
      </trkpt>
      <trkpt lat="45.59503" lon="4.65005">
        <ele>385.6259765625</ele>
        <time>2010-05-09T14:49:04Z</time>
      </trkpt>
      <trkpt lat="45.59505" lon="4.6501">
        <ele>385.14538574219</ele>
        <time>2010-05-09T14:49:05Z</time>
      </trkpt>
      <trkpt lat="45.59517" lon="4.65027">
        <ele>384.18408203125</ele>
        <time>2010-05-09T14:49:09Z</time>
      </trkpt>
      <trkpt lat="45.59536" lon="4.65059">
        <ele>381.78063964844</ele>
        <time>2010-05-09T14:49:16Z</time>
      </trkpt>
      <trkpt lat="45.59542" lon="4.65068">
        <ele>380.81945800781</ele>
        <time>2010-05-09T14:49:19Z</time>
      </trkpt>
      <trkpt lat="45.59545" lon="4.65069">
        <ele>379.37744140625</ele>
        <time>2010-05-09T14:49:21Z</time>
      </trkpt>
      <trkpt lat="45.59549" lon="4.65064">
        <ele>378.89685058594</ele>
        <time>2010-05-09T14:49:23Z</time>
      </trkpt>
      <trkpt lat="45.59571" lon="4.65031">
        <ele>378.41613769531</ele>
        <time>2010-05-09T14:49:29Z</time>
      </trkpt>
      <trkpt lat="45.59603" lon="4.64982">
        <ele>377.93542480469</ele>
        <time>2010-05-09T14:49:36Z</time>
      </trkpt>
      <trkpt lat="45.59612" lon="4.64949">
        <ele>377.93542480469</ele>
        <time>2010-05-09T14:49:41Z</time>
      </trkpt>
      <trkpt lat="45.59622" lon="4.64908">
        <ele>378.41613769531</ele>
        <time>2010-05-09T14:49:49Z</time>
      </trkpt>
      <trkpt lat="45.59631" lon="4.64895">
        <ele>378.89685058594</ele>
        <time>2010-05-09T14:49:52Z</time>
      </trkpt>
      <trkpt lat="45.59647" lon="4.64878">
        <ele>378.41613769531</ele>
        <time>2010-05-09T14:49:56Z</time>
      </trkpt>
      <trkpt lat="45.59658" lon="4.64884">
        <ele>377.93542480469</ele>
        <time>2010-05-09T14:49:59Z</time>
      </trkpt>
      <trkpt lat="45.59661" lon="4.64897">
        <ele>377.45483398438</ele>
        <time>2010-05-09T14:50:01Z</time>
      </trkpt>
      <trkpt lat="45.59667" lon="4.64918">
        <ele>376.97424316406</ele>
        <time>2010-05-09T14:50:04Z</time>
      </trkpt>
      <trkpt lat="45.59686" lon="4.64949">
        <ele>375.53210449219</ele>
        <time>2010-05-09T14:50:08Z</time>
      </trkpt>
      <trkpt lat="45.59709" lon="4.6499">
        <ele>373.60949707031</ele>
        <time>2010-05-09T14:50:12Z</time>
      </trkpt>
      <trkpt lat="45.59717" lon="4.65008">
        <ele>372.16748046875</ele>
        <time>2010-05-09T14:50:14Z</time>
      </trkpt>
      <trkpt lat="45.59728" lon="4.6504">
        <ele>371.20629882812</ele>
        <time>2010-05-09T14:50:18Z</time>
      </trkpt>
      <trkpt lat="45.59736" lon="4.65073">
        <ele>369.28369140625</ele>
        <time>2010-05-09T14:50:23Z</time>
      </trkpt>
      <trkpt lat="45.59743" lon="4.6512">
        <ele>368.80297851562</ele>
        <time>2010-05-09T14:50:29Z</time>
      </trkpt>
      <trkpt lat="45.59746" lon="4.65139">
        <ele>367.84155273438</ele>
        <time>2010-05-09T14:50:31Z</time>
      </trkpt>
      <trkpt lat="45.5975" lon="4.65183">
        <ele>366.88024902344</ele>
        <time>2010-05-09T14:50:36Z</time>
      </trkpt>
      <trkpt lat="45.59753" lon="4.65219">
        <ele>364.95764160156</ele>
        <time>2010-05-09T14:50:41Z</time>
      </trkpt>
      <trkpt lat="45.59753" lon="4.65226">
        <ele>365.43835449219</ele>
        <time>2010-05-09T14:50:42Z</time>
      </trkpt>
      <trkpt lat="45.59755" lon="4.6527">
        <ele>364.47692871094</ele>
        <time>2010-05-09T14:50:48Z</time>
      </trkpt>
      <trkpt lat="45.59756" lon="4.65277">
        <ele>363.99633789062</ele>
        <time>2010-05-09T14:50:49Z</time>
      </trkpt>
      <trkpt lat="45.59756" lon="4.65301">
        <ele>362.55432128906</ele>
        <time>2010-05-09T14:50:53Z</time>
      </trkpt>
      <trkpt lat="45.59757" lon="4.65329">
        <ele>361.11242675781</ele>
        <time>2010-05-09T14:50:58Z</time>
      </trkpt>
      <trkpt lat="45.59753" lon="4.65357">
        <ele>360.15112304688</ele>
        <time>2010-05-09T14:51:03Z</time>
      </trkpt>
      <trkpt lat="45.59752" lon="4.65372">
        <ele>359.18969726562</ele>
        <time>2010-05-09T14:51:07Z</time>
      </trkpt>
      <trkpt lat="45.59754" lon="4.65391">
        <ele>358.22839355469</ele>
        <time>2010-05-09T14:51:13Z</time>
      </trkpt>
      <trkpt lat="45.59752" lon="4.6542">
        <ele>357.74780273438</ele>
        <time>2010-05-09T14:51:17Z</time>
      </trkpt>
      <trkpt lat="45.5975" lon="4.65461">
        <ele>356.78637695312</ele>
        <time>2010-05-09T14:51:23Z</time>
      </trkpt>
      <trkpt lat="45.5975" lon="4.65462">
        <ele>356.78637695312</ele>
        <time>2010-05-09T14:51:24Z</time>
      </trkpt>
      <trkpt lat="45.59755" lon="4.65469">
        <ele>356.30578613281</ele>
        <time>2010-05-09T14:51:29Z</time>
      </trkpt>
      <trkpt lat="45.59754" lon="4.65472">
        <ele>355.8251953125</ele>
        <time>2010-05-09T14:51:44Z</time>
      </trkpt>
      <trkpt lat="45.59749" lon="4.65471">
        <ele>355.34448242188</ele>
        <time>2010-05-09T14:55:19Z</time>
      </trkpt>
      <trkpt lat="45.59755" lon="4.65472">
        <ele>356.78637695312</ele>
        <time>2010-05-09T14:56:41Z</time>
      </trkpt>
      <trkpt lat="45.59758" lon="4.65477">
        <ele>356.78637695312</ele>
        <time>2010-05-09T14:56:43Z</time>
      </trkpt>
      <trkpt lat="45.59763" lon="4.65502">
        <ele>356.30578613281</ele>
        <time>2010-05-09T14:56:48Z</time>
      </trkpt>
      <trkpt lat="45.5976" lon="4.65525">
        <ele>356.78637695312</ele>
        <time>2010-05-09T14:56:53Z</time>
      </trkpt>
      <trkpt lat="45.59759" lon="4.65549">
        <ele>357.26708984375</ele>
        <time>2010-05-09T14:56:58Z</time>
      </trkpt>
      <trkpt lat="45.59761" lon="4.65566">
        <ele>357.74780273438</ele>
        <time>2010-05-09T14:57:01Z</time>
      </trkpt>
      <trkpt lat="45.59774" lon="4.65587">
        <ele>358.708984375</ele>
        <time>2010-05-09T14:57:06Z</time>
      </trkpt>
      <trkpt lat="45.59782" lon="4.65589">
        <ele>359.67041015625</ele>
        <time>2010-05-09T14:57:09Z</time>
      </trkpt>
      <trkpt lat="45.59798" lon="4.65587">
        <ele>360.63171386719</ele>
        <time>2010-05-09T14:57:15Z</time>
      </trkpt>
      <trkpt lat="45.59822" lon="4.65576">
        <ele>362.07373046875</ele>
        <time>2010-05-09T14:57:23Z</time>
      </trkpt>
      <trkpt lat="45.59832" lon="4.65569">
        <ele>363.03503417969</ele>
        <time>2010-05-09T14:57:28Z</time>
      </trkpt>
      <trkpt lat="45.59837" lon="4.65568">
        <ele>363.51574707031</ele>
        <time>2010-05-09T14:57:33Z</time>
      </trkpt>
      <trkpt lat="45.5985" lon="4.65574">
        <ele>363.99633789062</ele>
        <time>2010-05-09T14:57:38Z</time>
      </trkpt>
      <trkpt lat="45.59864" lon="4.65583">
        <ele>365.43835449219</ele>
        <time>2010-05-09T14:57:44Z</time>
      </trkpt>
      <trkpt lat="45.59874" lon="4.65589">
        <ele>366.39953613281</ele>
        <time>2010-05-09T14:57:51Z</time>
      </trkpt>
      <trkpt lat="45.59874" lon="4.65589">
        <ele>366.88024902344</ele>
        <time>2010-05-09T14:57:56Z</time>
      </trkpt>
      <trkpt lat="45.59874" lon="4.65588">
        <ele>366.88024902344</ele>
        <time>2010-05-09T14:57:57Z</time>
      </trkpt>
      <trkpt lat="45.59864" lon="4.65581">
        <ele>366.88024902344</ele>
        <time>2010-05-09T14:58:04Z</time>
      </trkpt>
      <trkpt lat="45.59862" lon="4.6558">
        <ele>366.88024902344</ele>
        <time>2010-05-09T14:58:05Z</time>
      </trkpt>
      <trkpt lat="45.59838" lon="4.65569">
        <ele>367.36096191406</ele>
        <time>2010-05-09T14:58:12Z</time>
      </trkpt>
      <trkpt lat="45.5983" lon="4.6557">
        <ele>366.88024902344</ele>
        <time>2010-05-09T14:58:14Z</time>
      </trkpt>
      <trkpt lat="45.59801" lon="4.65583">
        <ele>365.9189453125</ele>
        <time>2010-05-09T14:58:20Z</time>
      </trkpt>
      <trkpt lat="45.59795" lon="4.65585">
        <ele>365.9189453125</ele>
        <time>2010-05-09T14:58:21Z</time>
      </trkpt>
      <trkpt lat="45.59769" lon="4.65576">
        <ele>363.99633789062</ele>
        <time>2010-05-09T14:58:25Z</time>
      </trkpt>
      <trkpt lat="45.59761" lon="4.65554">
        <ele>363.03503417969</ele>
        <time>2010-05-09T14:58:28Z</time>
      </trkpt>
      <trkpt lat="45.59762" lon="4.65518">
        <ele>361.11242675781</ele>
        <time>2010-05-09T14:58:32Z</time>
      </trkpt>
      <trkpt lat="45.5976" lon="4.65477">
        <ele>359.18969726562</ele>
        <time>2010-05-09T14:58:37Z</time>
      </trkpt>
      <trkpt lat="45.59751" lon="4.65465">
        <ele>358.708984375</ele>
        <time>2010-05-09T14:58:40Z</time>
      </trkpt>
      <trkpt lat="45.5974" lon="4.65467">
        <ele>358.22839355469</ele>
        <time>2010-05-09T14:58:43Z</time>
      </trkpt>
      <trkpt lat="45.59737" lon="4.65476">
        <ele>357.74780273438</ele>
        <time>2010-05-09T14:58:45Z</time>
      </trkpt>
      <trkpt lat="45.59732" lon="4.655">
        <ele>357.26708984375</ele>
        <time>2010-05-09T14:58:49Z</time>
      </trkpt>
      <trkpt lat="45.59717" lon="4.65536">
        <ele>356.30578613281</ele>
        <time>2010-05-09T14:58:56Z</time>
      </trkpt>
      <trkpt lat="45.59705" lon="4.65561">
        <ele>357.26708984375</ele>
        <time>2010-05-09T14:59:01Z</time>
      </trkpt>
      <trkpt lat="45.59703" lon="4.6558">
        <ele>357.26708984375</ele>
        <time>2010-05-09T14:59:05Z</time>
      </trkpt>
      <trkpt lat="45.59706" lon="4.65601">
        <ele>357.74780273438</ele>
        <time>2010-05-09T14:59:10Z</time>
      </trkpt>
      <trkpt lat="45.59715" lon="4.65625">
        <ele>358.708984375</ele>
        <time>2010-05-09T14:59:15Z</time>
      </trkpt>
      <trkpt lat="45.59725" lon="4.65662">
        <ele>358.708984375</ele>
        <time>2010-05-09T14:59:22Z</time>
      </trkpt>
      <trkpt lat="45.59734" lon="4.65707">
        <ele>358.708984375</ele>
        <time>2010-05-09T14:59:29Z</time>
      </trkpt>
      <trkpt lat="45.59744" lon="4.65765">
        <ele>358.708984375</ele>
        <time>2010-05-09T14:59:39Z</time>
      </trkpt>
      <trkpt lat="45.59745" lon="4.65787">
        <ele>358.22839355469</ele>
        <time>2010-05-09T14:59:43Z</time>
      </trkpt>
      <trkpt lat="45.59732" lon="4.65818">
        <ele>358.22839355469</ele>
        <time>2010-05-09T14:59:49Z</time>
      </trkpt>
      <trkpt lat="45.59731" lon="4.65822">
        <ele>358.22839355469</ele>
        <time>2010-05-09T14:59:50Z</time>
      </trkpt>
      <trkpt lat="45.59717" lon="4.65845">
        <ele>358.22839355469</ele>
        <time>2010-05-09T14:59:55Z</time>
      </trkpt>
      <trkpt lat="45.59709" lon="4.65859">
        <ele>358.22839355469</ele>
        <time>2010-05-09T14:59:58Z</time>
      </trkpt>
      <trkpt lat="45.59705" lon="4.65869">
        <ele>358.22839355469</ele>
        <time>2010-05-09T15:00:00Z</time>
      </trkpt>
      <trkpt lat="45.5969" lon="4.65897">
        <ele>357.74780273438</ele>
        <time>2010-05-09T15:00:06Z</time>
      </trkpt>
      <trkpt lat="45.5968" lon="4.65923">
        <ele>358.708984375</ele>
        <time>2010-05-09T15:00:11Z</time>
      </trkpt>
      <trkpt lat="45.59677" lon="4.65934">
        <ele>357.74780273438</ele>
        <time>2010-05-09T15:00:13Z</time>
      </trkpt>
      <trkpt lat="45.59681" lon="4.65955">
        <ele>358.708984375</ele>
        <time>2010-05-09T15:00:17Z</time>
      </trkpt>
      <trkpt lat="45.59688" lon="4.65973">
        <ele>358.22839355469</ele>
        <time>2010-05-09T15:00:20Z</time>
      </trkpt>
      <trkpt lat="45.59702" lon="4.65998">
        <ele>357.26708984375</ele>
        <time>2010-05-09T15:00:25Z</time>
      </trkpt>
      <trkpt lat="45.597" lon="4.6601">
        <ele>356.78637695312</ele>
        <time>2010-05-09T15:00:27Z</time>
      </trkpt>
      <trkpt lat="45.59696" lon="4.66023">
        <ele>356.78637695312</ele>
        <time>2010-05-09T15:00:29Z</time>
      </trkpt>
      <trkpt lat="45.59693" lon="4.66036">
        <ele>356.30578613281</ele>
        <time>2010-05-09T15:00:31Z</time>
      </trkpt>
      <trkpt lat="45.59677" lon="4.66084">
        <ele>356.30578613281</ele>
        <time>2010-05-09T15:00:38Z</time>
      </trkpt>
      <trkpt lat="45.59668" lon="4.66112">
        <ele>355.8251953125</ele>
        <time>2010-05-09T15:00:42Z</time>
      </trkpt>
      <trkpt lat="45.59652" lon="4.66124">
        <ele>355.34448242188</ele>
        <time>2010-05-09T15:00:46Z</time>
      </trkpt>
      <trkpt lat="45.59615" lon="4.66128">
        <ele>355.8251953125</ele>
        <time>2010-05-09T15:00:54Z</time>
      </trkpt>
      <trkpt lat="45.5958" lon="4.6614">
        <ele>356.30578613281</ele>
        <time>2010-05-09T15:01:02Z</time>
      </trkpt>
      <trkpt lat="45.5956" lon="4.66149">
        <ele>356.30578613281</ele>
        <time>2010-05-09T15:01:07Z</time>
      </trkpt>
      <trkpt lat="45.59536" lon="4.66158">
        <ele>357.26708984375</ele>
        <time>2010-05-09T15:01:13Z</time>
      </trkpt>
      <trkpt lat="45.59504" lon="4.66169">
        <ele>357.74780273438</ele>
        <time>2010-05-09T15:01:20Z</time>
      </trkpt>
      <trkpt lat="45.5948" lon="4.66174">
        <ele>358.708984375</ele>
        <time>2010-05-09T15:01:26Z</time>
      </trkpt>
      <trkpt lat="45.5946" lon="4.66178">
        <ele>359.67041015625</ele>
        <time>2010-05-09T15:01:32Z</time>
      </trkpt>
      <trkpt lat="45.59446" lon="4.66181">
        <ele>360.15112304688</ele>
        <time>2010-05-09T15:01:36Z</time>
      </trkpt>
      <trkpt lat="45.59442" lon="4.66199">
        <ele>360.15112304688</ele>
        <time>2010-05-09T15:01:40Z</time>
      </trkpt>
      <trkpt lat="45.59444" lon="4.66205">
        <ele>360.63171386719</ele>
        <time>2010-05-09T15:01:41Z</time>
      </trkpt>
      <trkpt lat="45.59455" lon="4.66246">
        <ele>360.63171386719</ele>
        <time>2010-05-09T15:01:47Z</time>
      </trkpt>
      <trkpt lat="45.59464" lon="4.66287">
        <ele>360.15112304688</ele>
        <time>2010-05-09T15:01:52Z</time>
      </trkpt>
      <trkpt lat="45.59472" lon="4.66332">
        <ele>359.67041015625</ele>
        <time>2010-05-09T15:01:58Z</time>
      </trkpt>
      <trkpt lat="45.59483" lon="4.66383">
        <ele>358.708984375</ele>
        <time>2010-05-09T15:02:04Z</time>
      </trkpt>
      <trkpt lat="45.59494" lon="4.66456">
        <ele>358.22839355469</ele>
        <time>2010-05-09T15:02:11Z</time>
      </trkpt>
      <trkpt lat="45.59501" lon="4.66544">
        <ele>357.74780273438</ele>
        <time>2010-05-09T15:02:19Z</time>
      </trkpt>
      <trkpt lat="45.59499" lon="4.66605">
        <ele>357.74780273438</ele>
        <time>2010-05-09T15:02:25Z</time>
      </trkpt>
      <trkpt lat="45.59497" lon="4.66655">
        <ele>356.78637695312</ele>
        <time>2010-05-09T15:02:31Z</time>
      </trkpt>
      <trkpt lat="45.59497" lon="4.66676">
        <ele>356.78637695312</ele>
        <time>2010-05-09T15:02:35Z</time>
      </trkpt>
      <trkpt lat="45.59505" lon="4.66729">
        <ele>356.30578613281</ele>
        <time>2010-05-09T15:02:41Z</time>
      </trkpt>
      <trkpt lat="45.59519" lon="4.66806">
        <ele>355.8251953125</ele>
        <time>2010-05-09T15:02:48Z</time>
      </trkpt>
      <trkpt lat="45.59536" lon="4.66907">
        <ele>354.86376953125</ele>
        <time>2010-05-09T15:02:57Z</time>
      </trkpt>
      <trkpt lat="45.59555" lon="4.66986">
        <ele>353.90258789062</ele>
        <time>2010-05-09T15:03:05Z</time>
      </trkpt>
      <trkpt lat="45.59574" lon="4.67041">
        <ele>353.421875</ele>
        <time>2010-05-09T15:03:11Z</time>
      </trkpt>
      <trkpt lat="45.59605" lon="4.67102">
        <ele>352.94116210938</ele>
        <time>2010-05-09T15:03:18Z</time>
      </trkpt>
      <trkpt lat="45.59649" lon="4.67191">
        <ele>351.97985839844</ele>
        <time>2010-05-09T15:03:28Z</time>
      </trkpt>
      <trkpt lat="45.59652" lon="4.67201">
        <ele>351.97985839844</ele>
        <time>2010-05-09T15:03:29Z</time>
      </trkpt>
      <trkpt lat="45.5966" lon="4.67245">
        <ele>351.49914550781</ele>
        <time>2010-05-09T15:03:33Z</time>
      </trkpt>
      <trkpt lat="45.59652" lon="4.67352">
        <ele>349.57653808594</ele>
        <time>2010-05-09T15:03:42Z</time>
      </trkpt>
      <trkpt lat="45.5966" lon="4.67418">
        <ele>347.65393066406</ele>
        <time>2010-05-09T15:03:48Z</time>
      </trkpt>
      <trkpt lat="45.59668" lon="4.67477">
        <ele>347.17321777344</ele>
        <time>2010-05-09T15:03:54Z</time>
      </trkpt>
      <trkpt lat="45.5967" lon="4.67537">
        <ele>347.65393066406</ele>
        <time>2010-05-09T15:04:01Z</time>
      </trkpt>
      <trkpt lat="45.59674" lon="4.67603">
        <ele>347.17321777344</ele>
        <time>2010-05-09T15:04:09Z</time>
      </trkpt>
      <trkpt lat="45.59685" lon="4.67661">
        <ele>346.69262695312</ele>
        <time>2010-05-09T15:04:16Z</time>
      </trkpt>
      <trkpt lat="45.59684" lon="4.67706">
        <ele>345.25061035156</ele>
        <time>2010-05-09T15:04:21Z</time>
      </trkpt>
      <trkpt lat="45.59682" lon="4.67713">
        <ele>345.73132324219</ele>
        <time>2010-05-09T15:04:22Z</time>
      </trkpt>
      <trkpt lat="45.5967" lon="4.67742">
        <ele>344.28942871094</ele>
        <time>2010-05-09T15:04:27Z</time>
      </trkpt>
      <trkpt lat="45.59668" lon="4.67744">
        <ele>342.84729003906</ele>
        <time>2010-05-09T15:04:31Z</time>
      </trkpt>
      <trkpt lat="45.59665" lon="4.6775">
        <ele>341.88598632812</ele>
        <time>2010-05-09T15:04:36Z</time>
      </trkpt>
      <trkpt lat="45.59658" lon="4.67763">
        <ele>341.88598632812</ele>
        <time>2010-05-09T15:04:41Z</time>
      </trkpt>
      <trkpt lat="45.59645" lon="4.67785">
        <ele>341.88598632812</ele>
        <time>2010-05-09T15:04:47Z</time>
      </trkpt>
      <trkpt lat="45.5963" lon="4.67812">
        <ele>341.4052734375</ele>
        <time>2010-05-09T15:04:54Z</time>
      </trkpt>
      <trkpt lat="45.59619" lon="4.67825">
        <ele>341.88598632812</ele>
        <time>2010-05-09T15:04:59Z</time>
      </trkpt>
      <trkpt lat="45.59608" lon="4.67837">
        <ele>342.84729003906</ele>
        <time>2010-05-09T15:05:04Z</time>
      </trkpt>
      <trkpt lat="45.596" lon="4.67858">
        <ele>343.32788085938</ele>
        <time>2010-05-09T15:05:09Z</time>
      </trkpt>
      <trkpt lat="45.59591" lon="4.67896">
        <ele>343.32788085938</ele>
        <time>2010-05-09T15:05:15Z</time>
      </trkpt>
      <trkpt lat="45.59586" lon="4.67935">
        <ele>343.32788085938</ele>
        <time>2010-05-09T15:05:20Z</time>
      </trkpt>
      <trkpt lat="45.59571" lon="4.67983">
        <ele>343.32788085938</ele>
        <time>2010-05-09T15:05:27Z</time>
      </trkpt>
      <trkpt lat="45.59551" lon="4.68025">
        <ele>343.32788085938</ele>
        <time>2010-05-09T15:05:34Z</time>
      </trkpt>
      <trkpt lat="45.5954" lon="4.68051">
        <ele>343.32788085938</ele>
        <time>2010-05-09T15:05:38Z</time>
      </trkpt>
      <trkpt lat="45.59531" lon="4.68109">
        <ele>343.80859375</ele>
        <time>2010-05-09T15:05:46Z</time>
      </trkpt>
      <trkpt lat="45.59525" lon="4.68165">
        <ele>344.77001953125</ele>
        <time>2010-05-09T15:05:54Z</time>
      </trkpt>
      <trkpt lat="45.5952" lon="4.68216">
        <ele>344.77001953125</ele>
        <time>2010-05-09T15:06:01Z</time>
      </trkpt>
      <trkpt lat="45.59518" lon="4.68223">
        <ele>344.77001953125</ele>
        <time>2010-05-09T15:06:02Z</time>
      </trkpt>
      <trkpt lat="45.59499" lon="4.68274">
        <ele>345.25061035156</ele>
        <time>2010-05-09T15:06:11Z</time>
      </trkpt>
      <trkpt lat="45.59484" lon="4.68323">
        <ele>346.21203613281</ele>
        <time>2010-05-09T15:06:20Z</time>
      </trkpt>
      <trkpt lat="45.59477" lon="4.68357">
        <ele>347.65393066406</ele>
        <time>2010-05-09T15:06:26Z</time>
      </trkpt>
      <trkpt lat="45.59468" lon="4.68377">
        <ele>347.65393066406</ele>
        <time>2010-05-09T15:06:30Z</time>
      </trkpt>
      <trkpt lat="45.59439" lon="4.68401">
        <ele>348.13464355469</ele>
        <time>2010-05-09T15:06:38Z</time>
      </trkpt>
      <trkpt lat="45.59412" lon="4.68414">
        <ele>348.615234375</ele>
        <time>2010-05-09T15:06:45Z</time>
      </trkpt>
      <trkpt lat="45.59371" lon="4.68432">
        <ele>349.57653808594</ele>
        <time>2010-05-09T15:06:54Z</time>
      </trkpt>
      <trkpt lat="45.59328" lon="4.6846">
        <ele>349.57653808594</ele>
        <time>2010-05-09T15:07:03Z</time>
      </trkpt>
      <trkpt lat="45.5929" lon="4.68492">
        <ele>350.53784179688</ele>
        <time>2010-05-09T15:07:11Z</time>
      </trkpt>
      <trkpt lat="45.59257" lon="4.68527">
        <ele>350.53784179688</ele>
        <time>2010-05-09T15:07:19Z</time>
      </trkpt>
      <trkpt lat="45.59248" lon="4.68534">
        <ele>350.05725097656</ele>
        <time>2010-05-09T15:07:21Z</time>
      </trkpt>
      <trkpt lat="45.59235" lon="4.68546">
        <ele>350.53784179688</ele>
        <time>2010-05-09T15:07:24Z</time>
      </trkpt>
      <trkpt lat="45.59227" lon="4.68555">
        <ele>350.05725097656</ele>
        <time>2010-05-09T15:07:26Z</time>
      </trkpt>
      <trkpt lat="45.59185" lon="4.68585">
        <ele>350.05725097656</ele>
        <time>2010-05-09T15:07:34Z</time>
      </trkpt>
      <trkpt lat="45.59142" lon="4.68618">
        <ele>350.05725097656</ele>
        <time>2010-05-09T15:07:43Z</time>
      </trkpt>
      <trkpt lat="45.59111" lon="4.68642">
        <ele>351.01843261719</ele>
        <time>2010-05-09T15:07:51Z</time>
      </trkpt>
      <trkpt lat="45.59088" lon="4.68666">
        <ele>351.97985839844</ele>
        <time>2010-05-09T15:07:58Z</time>
      </trkpt>
      <trkpt lat="45.59069" lon="4.68698">
        <ele>352.94116210938</ele>
        <time>2010-05-09T15:08:05Z</time>
      </trkpt>
      <trkpt lat="45.5905" lon="4.68714">
        <ele>352.94116210938</ele>
        <time>2010-05-09T15:08:10Z</time>
      </trkpt>
      <trkpt lat="45.59046" lon="4.68717">
        <ele>352.94116210938</ele>
        <time>2010-05-09T15:08:11Z</time>
      </trkpt>
      <trkpt lat="45.59016" lon="4.68754">
        <ele>353.421875</ele>
        <time>2010-05-09T15:08:18Z</time>
      </trkpt>
      <trkpt lat="45.58996" lon="4.68783">
        <ele>352.94116210938</ele>
        <time>2010-05-09T15:08:23Z</time>
      </trkpt>
      <trkpt lat="45.58987" lon="4.68813">
        <ele>352.46057128906</ele>
        <time>2010-05-09T15:08:27Z</time>
      </trkpt>
      <trkpt lat="45.5899" lon="4.68902">
        <ele>350.53784179688</ele>
        <time>2010-05-09T15:08:35Z</time>
      </trkpt>
      <trkpt lat="45.59005" lon="4.68996">
        <ele>349.09582519531</ele>
        <time>2010-05-09T15:08:43Z</time>
      </trkpt>
      <trkpt lat="45.59013" lon="4.69062">
        <ele>348.13464355469</ele>
        <time>2010-05-09T15:08:49Z</time>
      </trkpt>
      <trkpt lat="45.5901" lon="4.6911">
        <ele>348.13464355469</ele>
        <time>2010-05-09T15:08:54Z</time>
      </trkpt>
      <trkpt lat="45.59" lon="4.6919">
        <ele>347.17321777344</ele>
        <time>2010-05-09T15:09:03Z</time>
      </trkpt>
      <trkpt lat="45.58991" lon="4.69267">
        <ele>347.17321777344</ele>
        <time>2010-05-09T15:09:12Z</time>
      </trkpt>
      <trkpt lat="45.58989" lon="4.69308">
        <ele>346.69262695312</ele>
        <time>2010-05-09T15:09:18Z</time>
      </trkpt>
      <trkpt lat="45.58989" lon="4.69319">
        <ele>346.21203613281</ele>
        <time>2010-05-09T15:09:20Z</time>
      </trkpt>
      <trkpt lat="45.58991" lon="4.69344">
        <ele>346.21203613281</ele>
        <time>2010-05-09T15:09:24Z</time>
      </trkpt>
      <trkpt lat="45.5899" lon="4.69407">
        <ele>345.73132324219</ele>
        <time>2010-05-09T15:09:33Z</time>
      </trkpt>
      <trkpt lat="45.58989" lon="4.69449">
        <ele>345.25061035156</ele>
        <time>2010-05-09T15:09:39Z</time>
      </trkpt>
      <trkpt lat="45.58987" lon="4.69489">
        <ele>345.25061035156</ele>
        <time>2010-05-09T15:09:45Z</time>
      </trkpt>
      <trkpt lat="45.58986" lon="4.69512">
        <ele>343.32788085938</ele>
        <time>2010-05-09T15:09:51Z</time>
      </trkpt>
      <trkpt lat="45.58987" lon="4.69524">
        <ele>342.84729003906</ele>
        <time>2010-05-09T15:09:54Z</time>
      </trkpt>
      <trkpt lat="45.58987" lon="4.69564">
        <ele>342.36669921875</ele>
        <time>2010-05-09T15:09:59Z</time>
      </trkpt>
      <trkpt lat="45.58986" lon="4.69613">
        <ele>341.4052734375</ele>
        <time>2010-05-09T15:10:03Z</time>
      </trkpt>
      <trkpt lat="45.58985" lon="4.69709">
        <ele>338.521484375</ele>
        <time>2010-05-09T15:10:10Z</time>
      </trkpt>
      <trkpt lat="45.58982" lon="4.6978">
        <ele>336.59887695312</ele>
        <time>2010-05-09T15:10:16Z</time>
      </trkpt>
      <trkpt lat="45.58987" lon="4.69834">
        <ele>335.15673828125</ele>
        <time>2010-05-09T15:10:21Z</time>
      </trkpt>
      <trkpt lat="45.58992" lon="4.69885">
        <ele>334.19543457031</ele>
        <time>2010-05-09T15:10:26Z</time>
      </trkpt>
      <trkpt lat="45.58992" lon="4.69895">
        <ele>334.19543457031</ele>
        <time>2010-05-09T15:10:27Z</time>
      </trkpt>
      <trkpt lat="45.58988" lon="4.69933">
        <ele>332.75354003906</ele>
        <time>2010-05-09T15:10:31Z</time>
      </trkpt>
      <trkpt lat="45.58973" lon="4.69995">
        <ele>331.3115234375</ele>
        <time>2010-05-09T15:10:37Z</time>
      </trkpt>
      <trkpt lat="45.58961" lon="4.70059">
        <ele>329.38891601562</ele>
        <time>2010-05-09T15:10:43Z</time>
      </trkpt>
      <trkpt lat="45.58953" lon="4.70102">
        <ele>327.94677734375</ele>
        <time>2010-05-09T15:10:48Z</time>
      </trkpt>
      <trkpt lat="45.58948" lon="4.70121">
        <ele>326.98559570312</ele>
        <time>2010-05-09T15:10:50Z</time>
      </trkpt>
      <trkpt lat="45.58934" lon="4.7017">
        <ele>326.5048828125</ele>
        <time>2010-05-09T15:10:55Z</time>
      </trkpt>
      <trkpt lat="45.58919" lon="4.70236">
        <ele>325.06298828125</ele>
        <time>2010-05-09T15:11:01Z</time>
      </trkpt>
      <trkpt lat="45.58904" lon="4.70318">
        <ele>323.14038085938</ele>
        <time>2010-05-09T15:11:08Z</time>
      </trkpt>
      <trkpt lat="45.58894" lon="4.70396">
        <ele>321.69836425781</ele>
        <time>2010-05-09T15:11:15Z</time>
      </trkpt>
      <trkpt lat="45.58887" lon="4.70495">
        <ele>320.73706054688</ele>
        <time>2010-05-09T15:11:23Z</time>
      </trkpt>
      <trkpt lat="45.58884" lon="4.70516">
        <ele>319.77563476562</ele>
        <time>2010-05-09T15:11:25Z</time>
      </trkpt>
      <trkpt lat="45.58874" lon="4.70535">
        <ele>318.33361816406</ele>
        <time>2010-05-09T15:11:29Z</time>
      </trkpt>
      <trkpt lat="45.58868" lon="4.70542">
        <ele>317.37243652344</ele>
        <time>2010-05-09T15:11:32Z</time>
      </trkpt>
      <trkpt lat="45.58865" lon="4.70574">
        <ele>316.41101074219</ele>
        <time>2010-05-09T15:11:37Z</time>
      </trkpt>
      <trkpt lat="45.58864" lon="4.70625">
        <ele>315.93041992188</ele>
        <time>2010-05-09T15:11:42Z</time>
      </trkpt>
      <trkpt lat="45.5886" lon="4.7069">
        <ele>314.96911621094</ele>
        <time>2010-05-09T15:11:48Z</time>
      </trkpt>
      <trkpt lat="45.58862" lon="4.70757">
        <ele>314.48840332031</ele>
        <time>2010-05-09T15:11:55Z</time>
      </trkpt>
      <trkpt lat="45.58866" lon="4.70821">
        <ele>314.0078125</ele>
        <time>2010-05-09T15:12:03Z</time>
      </trkpt>
      <trkpt lat="45.5886" lon="4.70866">
        <ele>314.96911621094</ele>
        <time>2010-05-09T15:12:09Z</time>
      </trkpt>
      <trkpt lat="45.58858" lon="4.70918">
        <ele>315.93041992188</ele>
        <time>2010-05-09T15:12:16Z</time>
      </trkpt>
      <trkpt lat="45.5886" lon="4.70988">
        <ele>316.41101074219</ele>
        <time>2010-05-09T15:12:25Z</time>
      </trkpt>
      <trkpt lat="45.58865" lon="4.71039">
        <ele>316.89172363281</ele>
        <time>2010-05-09T15:12:32Z</time>
      </trkpt>
      <trkpt lat="45.58868" lon="4.71061">
        <ele>316.41101074219</ele>
        <time>2010-05-09T15:12:35Z</time>
      </trkpt>
      <trkpt lat="45.58876" lon="4.7112">
        <ele>316.89172363281</ele>
        <time>2010-05-09T15:12:43Z</time>
      </trkpt>
      <trkpt lat="45.58883" lon="4.7118">
        <ele>316.89172363281</ele>
        <time>2010-05-09T15:12:51Z</time>
      </trkpt>
      <trkpt lat="45.58886" lon="4.71223">
        <ele>317.37243652344</ele>
        <time>2010-05-09T15:12:57Z</time>
      </trkpt>
      <trkpt lat="45.58891" lon="4.71272">
        <ele>317.85302734375</ele>
        <time>2010-05-09T15:13:04Z</time>
      </trkpt>
      <trkpt lat="45.58896" lon="4.71334">
        <ele>318.33361816406</ele>
        <time>2010-05-09T15:13:13Z</time>
      </trkpt>
      <trkpt lat="45.58901" lon="4.71389">
        <ele>318.81433105469</ele>
        <time>2010-05-09T15:13:22Z</time>
      </trkpt>
      <trkpt lat="45.58905" lon="4.71443">
        <ele>319.29504394531</ele>
        <time>2010-05-09T15:13:31Z</time>
      </trkpt>
      <trkpt lat="45.5891" lon="4.71513">
        <ele>320.25634765625</ele>
        <time>2010-05-09T15:13:42Z</time>
      </trkpt>
      <trkpt lat="45.58912" lon="4.71564">
        <ele>319.29504394531</ele>
        <time>2010-05-09T15:13:49Z</time>
      </trkpt>
      <trkpt lat="45.58911" lon="4.71571">
        <ele>319.77563476562</ele>
        <time>2010-05-09T15:13:50Z</time>
      </trkpt>
      <trkpt lat="45.5891" lon="4.71596">
        <ele>319.29504394531</ele>
        <time>2010-05-09T15:13:54Z</time>
      </trkpt>
      <trkpt lat="45.58905" lon="4.71644">
        <ele>319.29504394531</ele>
        <time>2010-05-09T15:14:01Z</time>
      </trkpt>
      <trkpt lat="45.58902" lon="4.71695">
        <ele>319.29504394531</ele>
        <time>2010-05-09T15:14:08Z</time>
      </trkpt>
      <trkpt lat="45.58902" lon="4.71731">
        <ele>319.29504394531</ele>
        <time>2010-05-09T15:14:13Z</time>
      </trkpt>
      <trkpt lat="45.58905" lon="4.71752">
        <ele>319.29504394531</ele>
        <time>2010-05-09T15:14:16Z</time>
      </trkpt>
      <trkpt lat="45.58905" lon="4.71767">
        <ele>319.29504394531</ele>
        <time>2010-05-09T15:14:18Z</time>
      </trkpt>
      <trkpt lat="45.58908" lon="4.71796">
        <ele>319.29504394531</ele>
        <time>2010-05-09T15:14:22Z</time>
      </trkpt>
      <trkpt lat="45.58911" lon="4.71823">
        <ele>319.29504394531</ele>
        <time>2010-05-09T15:14:27Z</time>
      </trkpt>
      <trkpt lat="45.58914" lon="4.71831">
        <ele>319.29504394531</ele>
        <time>2010-05-09T15:14:30Z</time>
      </trkpt>
      <trkpt lat="45.58919" lon="4.71879">
        <ele>319.77563476562</ele>
        <time>2010-05-09T15:14:39Z</time>
      </trkpt>
      <trkpt lat="45.58924" lon="4.71924">
        <ele>320.25634765625</ele>
        <time>2010-05-09T15:14:47Z</time>
      </trkpt>
      <trkpt lat="45.58929" lon="4.71956">
        <ele>320.25634765625</ele>
        <time>2010-05-09T15:14:53Z</time>
      </trkpt>
      <trkpt lat="45.5893" lon="4.71983">
        <ele>321.2177734375</ele>
        <time>2010-05-09T15:14:59Z</time>
      </trkpt>
      <trkpt lat="45.58928" lon="4.72021">
        <ele>322.65966796875</ele>
        <time>2010-05-09T15:15:08Z</time>
      </trkpt>
      <trkpt lat="45.58922" lon="4.72061">
        <ele>324.1015625</ele>
        <time>2010-05-09T15:15:18Z</time>
      </trkpt>
      <trkpt lat="45.58916" lon="4.72099">
        <ele>325.54357910156</ele>
        <time>2010-05-09T15:15:28Z</time>
      </trkpt>
      <trkpt lat="45.58912" lon="4.72132">
        <ele>326.98559570312</ele>
        <time>2010-05-09T15:15:36Z</time>
      </trkpt>
      <trkpt lat="45.5891" lon="4.72144">
        <ele>327.94677734375</ele>
        <time>2010-05-09T15:15:41Z</time>
      </trkpt>
      <trkpt lat="45.5891" lon="4.72164">
        <ele>327.94677734375</ele>
        <time>2010-05-09T15:15:47Z</time>
      </trkpt>
      <trkpt lat="45.58909" lon="4.72193">
        <ele>328.90832519531</ele>
        <time>2010-05-09T15:15:53Z</time>
      </trkpt>
      <trkpt lat="45.58921" lon="4.72209">
        <ele>328.42761230469</ele>
        <time>2010-05-09T15:15:57Z</time>
      </trkpt>
      <trkpt lat="45.58955" lon="4.72225">
        <ele>328.90832519531</ele>
        <time>2010-05-09T15:16:05Z</time>
      </trkpt>
      <trkpt lat="45.5899" lon="4.72242">
        <ele>329.86950683594</ele>
        <time>2010-05-09T15:16:13Z</time>
      </trkpt>
      <trkpt lat="45.59028" lon="4.72261">
        <ele>329.86950683594</ele>
        <time>2010-05-09T15:16:21Z</time>
      </trkpt>
      <trkpt lat="45.59037" lon="4.72267">
        <ele>330.35021972656</ele>
        <time>2010-05-09T15:16:23Z</time>
      </trkpt>
      <trkpt lat="45.59052" lon="4.72286">
        <ele>330.35021972656</ele>
        <time>2010-05-09T15:16:27Z</time>
      </trkpt>
      <trkpt lat="45.59081" lon="4.72345">
        <ele>330.35021972656</ele>
        <time>2010-05-09T15:16:36Z</time>
      </trkpt>
      <trkpt lat="45.59103" lon="4.72376">
        <ele>329.38891601562</ele>
        <time>2010-05-09T15:16:41Z</time>
      </trkpt>
      <trkpt lat="45.59127" lon="4.72412">
        <ele>327.46618652344</ele>
        <time>2010-05-09T15:16:46Z</time>
      </trkpt>
      <trkpt lat="45.59151" lon="4.72454">
        <ele>325.54357910156</ele>
        <time>2010-05-09T15:16:51Z</time>
      </trkpt>
      <trkpt lat="45.59166" lon="4.7249">
        <ele>323.14038085938</ele>
        <time>2010-05-09T15:16:55Z</time>
      </trkpt>
      <trkpt lat="45.59171" lon="4.7251">
        <ele>318.81433105469</ele>
        <time>2010-05-09T15:16:59Z</time>
      </trkpt>
      <trkpt lat="45.59166" lon="4.72526">
        <ele>316.89172363281</ele>
        <time>2010-05-09T15:17:03Z</time>
      </trkpt>
      <trkpt lat="45.59163" lon="4.7253">
        <ele>316.41101074219</ele>
        <time>2010-05-09T15:17:04Z</time>
      </trkpt>
      <trkpt lat="45.59135" lon="4.72572">
        <ele>314.0078125</ele>
        <time>2010-05-09T15:17:12Z</time>
      </trkpt>
      <trkpt lat="45.59124" lon="4.72591">
        <ele>313.04650878906</ele>
        <time>2010-05-09T15:17:15Z</time>
      </trkpt>
      <trkpt lat="45.59095" lon="4.72663">
        <ele>310.64306640625</ele>
        <time>2010-05-09T15:17:24Z</time>
      </trkpt>
      <trkpt lat="45.59084" lon="4.72701">
        <ele>309.201171875</ele>
        <time>2010-05-09T15:17:28Z</time>
      </trkpt>
      <trkpt lat="45.59073" lon="4.72774">
        <ele>307.27856445312</ele>
        <time>2010-05-09T15:17:35Z</time>
      </trkpt>
      <trkpt lat="45.59065" lon="4.72842">
        <ele>304.87524414062</ele>
        <time>2010-05-09T15:17:42Z</time>
      </trkpt>
      <trkpt lat="45.59058" lon="4.729">
        <ele>303.91394042969</ele>
        <time>2010-05-09T15:17:49Z</time>
      </trkpt>
      <trkpt lat="45.59049" lon="4.72956">
        <ele>302.47192382812</ele>
        <time>2010-05-09T15:17:56Z</time>
      </trkpt>
      <trkpt lat="45.59038" lon="4.73028">
        <ele>302.95251464844</ele>
        <time>2010-05-09T15:18:05Z</time>
      </trkpt>
      <trkpt lat="45.59035" lon="4.73081">
        <ele>302.95251464844</ele>
        <time>2010-05-09T15:18:12Z</time>
      </trkpt>
      <trkpt lat="45.59037" lon="4.73122">
        <ele>302.47192382812</ele>
        <time>2010-05-09T15:18:17Z</time>
      </trkpt>
      <trkpt lat="45.59029" lon="4.73183">
        <ele>301.02990722656</ele>
        <time>2010-05-09T15:18:23Z</time>
      </trkpt>
      <trkpt lat="45.59007" lon="4.73244">
        <ele>299.10729980469</ele>
        <time>2010-05-09T15:18:29Z</time>
      </trkpt>
      <trkpt lat="45.58996" lon="4.73284">
        <ele>298.14611816406</ele>
        <time>2010-05-09T15:18:33Z</time>
      </trkpt>
      <trkpt lat="45.58994" lon="4.73327">
        <ele>297.66540527344</ele>
        <time>2010-05-09T15:18:37Z</time>
      </trkpt>
      <trkpt lat="45.58992" lon="4.73398">
        <ele>296.22351074219</ele>
        <time>2010-05-09T15:18:44Z</time>
      </trkpt>
      <trkpt lat="45.58991" lon="4.73429">
        <ele>295.74267578125</ele>
        <time>2010-05-09T15:18:48Z</time>
      </trkpt>
      <trkpt lat="45.58994" lon="4.73473">
        <ele>295.26196289062</ele>
        <time>2010-05-09T15:18:54Z</time>
      </trkpt>
      <trkpt lat="45.58992" lon="4.73516">
        <ele>295.26196289062</ele>
        <time>2010-05-09T15:19:00Z</time>
      </trkpt>
      <trkpt lat="45.58998" lon="4.73549">
        <ele>295.26196289062</ele>
        <time>2010-05-09T15:19:06Z</time>
      </trkpt>
      <trkpt lat="45.59006" lon="4.73572">
        <ele>295.74267578125</ele>
        <time>2010-05-09T15:19:11Z</time>
      </trkpt>
      <trkpt lat="45.59018" lon="4.73595">
        <ele>296.7041015625</ele>
        <time>2010-05-09T15:19:17Z</time>
      </trkpt>
      <trkpt lat="45.59027" lon="4.73619">
        <ele>297.66540527344</ele>
        <time>2010-05-09T15:19:24Z</time>
      </trkpt>
      <trkpt lat="45.59032" lon="4.73633">
        <ele>298.62670898438</ele>
        <time>2010-05-09T15:19:28Z</time>
      </trkpt>
      <trkpt lat="45.59036" lon="4.73648">
        <ele>299.58801269531</ele>
        <time>2010-05-09T15:19:33Z</time>
      </trkpt>
      <trkpt lat="45.59043" lon="4.73664">
        <ele>301.02990722656</ele>
        <time>2010-05-09T15:19:39Z</time>
      </trkpt>
      <trkpt lat="45.59057" lon="4.73681">
        <ele>302.47192382812</ele>
        <time>2010-05-09T15:19:47Z</time>
      </trkpt>
      <trkpt lat="45.59066" lon="4.73696">
        <ele>303.91394042969</ele>
        <time>2010-05-09T15:19:53Z</time>
      </trkpt>
      <trkpt lat="45.59072" lon="4.73712">
        <ele>304.87524414062</ele>
        <time>2010-05-09T15:19:58Z</time>
      </trkpt>
      <trkpt lat="45.5908" lon="4.73731">
        <ele>305.35595703125</ele>
        <time>2010-05-09T15:20:03Z</time>
      </trkpt>
      <trkpt lat="45.5909" lon="4.73753">
        <ele>305.83666992188</ele>
        <time>2010-05-09T15:20:09Z</time>
      </trkpt>
      <trkpt lat="45.59097" lon="4.73774">
        <ele>306.31726074219</ele>
        <time>2010-05-09T15:20:14Z</time>
      </trkpt>
      <trkpt lat="45.59105" lon="4.73794">
        <ele>307.75927734375</ele>
        <time>2010-05-09T15:20:20Z</time>
      </trkpt>
      <trkpt lat="45.59111" lon="4.7381">
        <ele>308.23986816406</ele>
        <time>2010-05-09T15:20:25Z</time>
      </trkpt>
      <trkpt lat="45.59119" lon="4.73828">
        <ele>308.72045898438</ele>
        <time>2010-05-09T15:20:31Z</time>
      </trkpt>
      <trkpt lat="45.5913" lon="4.73854">
        <ele>309.68188476562</ele>
        <time>2010-05-09T15:20:39Z</time>
      </trkpt>
      <trkpt lat="45.59138" lon="4.7387">
        <ele>310.64306640625</ele>
        <time>2010-05-09T15:20:45Z</time>
      </trkpt>
      <trkpt lat="45.59146" lon="4.73884">
        <ele>311.12377929688</ele>
        <time>2010-05-09T15:20:50Z</time>
      </trkpt>
      <trkpt lat="45.59153" lon="4.73904">
        <ele>312.08520507812</ele>
        <time>2010-05-09T15:20:56Z</time>
      </trkpt>
      <trkpt lat="45.59158" lon="4.7392">
        <ele>313.04650878906</ele>
        <time>2010-05-09T15:21:01Z</time>
      </trkpt>
      <trkpt lat="45.59162" lon="4.73937">
        <ele>314.0078125</ele>
        <time>2010-05-09T15:21:06Z</time>
      </trkpt>
      <trkpt lat="45.59165" lon="4.73951">
        <ele>314.48840332031</ele>
        <time>2010-05-09T15:21:11Z</time>
      </trkpt>
      <trkpt lat="45.59167" lon="4.73971">
        <ele>315.93041992188</ele>
        <time>2010-05-09T15:21:17Z</time>
      </trkpt>
      <trkpt lat="45.5917" lon="4.73986">
        <ele>316.41101074219</ele>
        <time>2010-05-09T15:21:21Z</time>
      </trkpt>
      <trkpt lat="45.59164" lon="4.7401">
        <ele>317.85302734375</ele>
        <time>2010-05-09T15:21:26Z</time>
      </trkpt>
      <trkpt lat="45.59159" lon="4.74028">
        <ele>318.33361816406</ele>
        <time>2010-05-09T15:21:30Z</time>
      </trkpt>
      <trkpt lat="45.59153" lon="4.74055">
        <ele>318.81433105469</ele>
        <time>2010-05-09T15:21:36Z</time>
      </trkpt>
      <trkpt lat="45.59148" lon="4.74079">
        <ele>318.81433105469</ele>
        <time>2010-05-09T15:21:41Z</time>
      </trkpt>
      <trkpt lat="45.59145" lon="4.74097">
        <ele>319.29504394531</ele>
        <time>2010-05-09T15:21:45Z</time>
      </trkpt>
      <trkpt lat="45.59144" lon="4.74101">
        <ele>319.77563476562</ele>
        <time>2010-05-09T15:21:46Z</time>
      </trkpt>
      <trkpt lat="45.59137" lon="4.74115">
        <ele>320.25634765625</ele>
        <time>2010-05-09T15:21:52Z</time>
      </trkpt>
      <trkpt lat="45.59136" lon="4.74126">
        <ele>320.73706054688</ele>
        <time>2010-05-09T15:22:12Z</time>
      </trkpt>
      <trkpt lat="45.59137" lon="4.7413">
        <ele>320.73706054688</ele>
        <time>2010-05-09T15:22:25Z</time>
      </trkpt>
      <trkpt lat="45.59134" lon="4.74138">
        <ele>320.73706054688</ele>
        <time>2010-05-09T15:22:29Z</time>
      </trkpt>
      <trkpt lat="45.59131" lon="4.74156">
        <ele>321.69836425781</ele>
        <time>2010-05-09T15:22:35Z</time>
      </trkpt>
      <trkpt lat="45.59128" lon="4.74179">
        <ele>321.2177734375</ele>
        <time>2010-05-09T15:22:41Z</time>
      </trkpt>
      <trkpt lat="45.59128" lon="4.74185">
        <ele>321.69836425781</ele>
        <time>2010-05-09T15:22:42Z</time>
      </trkpt>
      <trkpt lat="45.59122" lon="4.74216">
        <ele>321.2177734375</ele>
        <time>2010-05-09T15:22:47Z</time>
      </trkpt>
      <trkpt lat="45.59118" lon="4.74244">
        <ele>321.69836425781</ele>
        <time>2010-05-09T15:22:52Z</time>
      </trkpt>
      <trkpt lat="45.59118" lon="4.7425">
        <ele>321.69836425781</ele>
        <time>2010-05-09T15:22:53Z</time>
      </trkpt>
      <trkpt lat="45.59096" lon="4.74313">
        <ele>321.69836425781</ele>
        <time>2010-05-09T15:23:01Z</time>
      </trkpt>
      <trkpt lat="45.59077" lon="4.7437">
        <ele>321.2177734375</ele>
        <time>2010-05-09T15:23:08Z</time>
      </trkpt>
      <trkpt lat="45.5906" lon="4.74417">
        <ele>320.73706054688</ele>
        <time>2010-05-09T15:23:14Z</time>
      </trkpt>
      <trkpt lat="45.59041" lon="4.7446">
        <ele>319.77563476562</ele>
        <time>2010-05-09T15:23:19Z</time>
      </trkpt>
      <trkpt lat="45.59032" lon="4.74481">
        <ele>319.29504394531</ele>
        <time>2010-05-09T15:23:21Z</time>
      </trkpt>
      <trkpt lat="45.59007" lon="4.74534">
        <ele>315.93041992188</ele>
        <time>2010-05-09T15:23:26Z</time>
      </trkpt>
      <trkpt lat="45.58998" lon="4.74556">
        <ele>314.48840332031</ele>
        <time>2010-05-09T15:23:28Z</time>
      </trkpt>
      <trkpt lat="45.58968" lon="4.74627">
        <ele>314.48840332031</ele>
        <time>2010-05-09T15:23:35Z</time>
      </trkpt>
      <trkpt lat="45.58942" lon="4.74691">
        <ele>312.08520507812</ele>
        <time>2010-05-09T15:23:41Z</time>
      </trkpt>
      <trkpt lat="45.5892" lon="4.74746">
        <ele>309.68188476562</ele>
        <time>2010-05-09T15:23:46Z</time>
      </trkpt>
      <trkpt lat="45.58911" lon="4.74767">
        <ele>308.23986816406</ele>
        <time>2010-05-09T15:23:48Z</time>
      </trkpt>
      <trkpt lat="45.58892" lon="4.74811">
        <ele>305.83666992188</ele>
        <time>2010-05-09T15:23:52Z</time>
      </trkpt>
      <trkpt lat="45.58878" lon="4.74875">
        <ele>303.43322753906</ele>
        <time>2010-05-09T15:23:57Z</time>
      </trkpt>
      <trkpt lat="45.58876" lon="4.74889">
        <ele>302.95251464844</ele>
        <time>2010-05-09T15:23:58Z</time>
      </trkpt>
      <trkpt lat="45.5887" lon="4.74933">
        <ele>300.06872558594</ele>
        <time>2010-05-09T15:24:01Z</time>
      </trkpt>
      <trkpt lat="45.58863" lon="4.74972">
        <ele>296.7041015625</ele>
        <time>2010-05-09T15:24:05Z</time>
      </trkpt>
      <trkpt lat="45.58861" lon="4.74977">
        <ele>296.22351074219</ele>
        <time>2010-05-09T15:24:06Z</time>
      </trkpt>
      <trkpt lat="45.58851" lon="4.7502">
        <ele>291.41674804688</ele>
        <time>2010-05-09T15:24:11Z</time>
      </trkpt>
      <trkpt lat="45.58847" lon="4.75058">
        <ele>289.494140625</ele>
        <time>2010-05-09T15:24:14Z</time>
      </trkpt>
      <trkpt lat="45.58852" lon="4.75123">
        <ele>285.64880371094</ele>
        <time>2010-05-09T15:24:18Z</time>
      </trkpt>
      <trkpt lat="45.58854" lon="4.75141">
        <ele>284.68762207031</ele>
        <time>2010-05-09T15:24:19Z</time>
      </trkpt>
      <trkpt lat="45.58877" lon="4.75209">
        <ele>279.880859375</ele>
        <time>2010-05-09T15:24:23Z</time>
      </trkpt>
      <trkpt lat="45.58885" lon="4.75224">
        <ele>278.91967773438</ele>
        <time>2010-05-09T15:24:24Z</time>
      </trkpt>
      <trkpt lat="45.58901" lon="4.75251">
        <ele>275.07446289062</ele>
        <time>2010-05-09T15:24:26Z</time>
      </trkpt>
      <trkpt lat="45.58931" lon="4.75285">
        <ele>270.26770019531</ele>
        <time>2010-05-09T15:24:29Z</time>
      </trkpt>
      <trkpt lat="45.58943" lon="4.75292">
        <ele>268.82580566406</ele>
        <time>2010-05-09T15:24:30Z</time>
      </trkpt>
      <trkpt lat="45.58973" lon="4.75325">
        <ele>264.49987792969</ele>
        <time>2010-05-09T15:24:33Z</time>
      </trkpt>
      <trkpt lat="45.58981" lon="4.7534">
        <ele>260.17395019531</ele>
        <time>2010-05-09T15:24:34Z</time>
      </trkpt>
      <trkpt lat="45.59003" lon="4.75389">
        <ele>254.40600585938</ele>
        <time>2010-05-09T15:24:37Z</time>
      </trkpt>
      <trkpt lat="45.59016" lon="4.75427">
        <ele>251.04138183594</ele>
        <time>2010-05-09T15:24:39Z</time>
      </trkpt>
      <trkpt lat="45.59029" lon="4.75468">
        <ele>246.71545410156</ele>
        <time>2010-05-09T15:24:41Z</time>
      </trkpt>
      <trkpt lat="45.59039" lon="4.75508">
        <ele>242.3896484375</ele>
        <time>2010-05-09T15:24:43Z</time>
      </trkpt>
      <trkpt lat="45.59046" lon="4.75543">
        <ele>238.54431152344</ele>
        <time>2010-05-09T15:24:45Z</time>
      </trkpt>
      <trkpt lat="45.5905" lon="4.75608">
        <ele>231.33435058594</ele>
        <time>2010-05-09T15:24:49Z</time>
      </trkpt>
      <trkpt lat="45.59057" lon="4.75633">
        <ele>227.9697265625</ele>
        <time>2010-05-09T15:24:51Z</time>
      </trkpt>
      <trkpt lat="45.5906" lon="4.75659">
        <ele>224.12451171875</ele>
        <time>2010-05-09T15:24:53Z</time>
      </trkpt>
      <trkpt lat="45.59047" lon="4.75679">
        <ele>221.24060058594</ele>
        <time>2010-05-09T15:24:55Z</time>
      </trkpt>
      <trkpt lat="45.59037" lon="4.75687">
        <ele>219.79858398438</ele>
        <time>2010-05-09T15:24:56Z</time>
      </trkpt>
      <trkpt lat="45.59015" lon="4.757">
        <ele>214.51123046875</ele>
        <time>2010-05-09T15:24:58Z</time>
      </trkpt>
      <trkpt lat="45.58992" lon="4.75718">
        <ele>211.14672851562</ele>
        <time>2010-05-09T15:25:00Z</time>
      </trkpt>
      <trkpt lat="45.5897" lon="4.75737">
        <ele>208.26281738281</ele>
        <time>2010-05-09T15:25:02Z</time>
      </trkpt>
      <trkpt lat="45.58952" lon="4.75752">
        <ele>205.37878417969</ele>
        <time>2010-05-09T15:25:04Z</time>
      </trkpt>
      <trkpt lat="45.58941" lon="4.75761">
        <ele>202.97546386719</ele>
        <time>2010-05-09T15:25:06Z</time>
      </trkpt>
      <trkpt lat="45.5893" lon="4.75785">
        <ele>199.13012695312</ele>
        <time>2010-05-09T15:25:09Z</time>
      </trkpt>
      <trkpt lat="45.58921" lon="4.75793">
        <ele>198.1689453125</ele>
        <time>2010-05-09T15:25:10Z</time>
      </trkpt>
      <trkpt lat="45.58888" lon="4.75839">
        <ele>192.40112304688</ele>
        <time>2010-05-09T15:25:14Z</time>
      </trkpt>
      <trkpt lat="45.58877" lon="4.75869">
        <ele>189.03637695312</ele>
        <time>2010-05-09T15:25:16Z</time>
      </trkpt>
      <trkpt lat="45.58869" lon="4.75889">
        <ele>185.67175292969</ele>
        <time>2010-05-09T15:25:18Z</time>
      </trkpt>
      <trkpt lat="45.58863" lon="4.75911">
        <ele>180.865234375</ele>
        <time>2010-05-09T15:25:21Z</time>
      </trkpt>
      <trkpt lat="45.58863" lon="4.75919">
        <ele>177.50061035156</ele>
        <time>2010-05-09T15:25:23Z</time>
      </trkpt>
      <trkpt lat="45.58873" lon="4.75933">
        <ele>174.61657714844</ele>
        <time>2010-05-09T15:25:27Z</time>
      </trkpt>
      <trkpt lat="45.58887" lon="4.75957">
        <ele>172.69396972656</ele>
        <time>2010-05-09T15:25:31Z</time>
      </trkpt>
      <trkpt lat="45.58907" lon="4.75992">
        <ele>171.25207519531</ele>
        <time>2010-05-09T15:25:36Z</time>
      </trkpt>
      <trkpt lat="45.58916" lon="4.76006">
        <ele>170.77136230469</ele>
        <time>2010-05-09T15:25:38Z</time>
      </trkpt>
      <trkpt lat="45.58934" lon="4.7604">
        <ele>169.81005859375</ele>
        <time>2010-05-09T15:25:43Z</time>
      </trkpt>
      <trkpt lat="45.58945" lon="4.76062">
        <ele>169.32946777344</ele>
        <time>2010-05-09T15:25:46Z</time>
      </trkpt>
      <trkpt lat="45.58961" lon="4.76083">
        <ele>168.36804199219</ele>
        <time>2010-05-09T15:25:49Z</time>
      </trkpt>
      <trkpt lat="45.5897" lon="4.76097">
        <ele>168.36804199219</ele>
        <time>2010-05-09T15:25:51Z</time>
      </trkpt>
      <trkpt lat="45.58987" lon="4.76138">
        <ele>167.88732910156</ele>
        <time>2010-05-09T15:25:56Z</time>
      </trkpt>
      <trkpt lat="45.58988" lon="4.76164">
        <ele>167.40673828125</ele>
        <time>2010-05-09T15:26:00Z</time>
      </trkpt>
      <trkpt lat="45.58995" lon="4.76169">
        <ele>166.92602539062</ele>
        <time>2010-05-09T15:26:05Z</time>
      </trkpt>
      <trkpt lat="45.58995" lon="4.76171">
        <ele>166.92602539062</ele>
        <time>2010-05-09T15:26:08Z</time>
      </trkpt>
      <trkpt lat="45.58992" lon="4.76176">
        <ele>166.92602539062</ele>
        <time>2010-05-09T15:26:12Z</time>
      </trkpt>
      <trkpt lat="45.58995" lon="4.76197">
        <ele>166.4453125</ele>
        <time>2010-05-09T15:26:16Z</time>
      </trkpt>
      <trkpt lat="45.59004" lon="4.76205">
        <ele>166.4453125</ele>
        <time>2010-05-09T15:26:18Z</time>
      </trkpt>
      <trkpt lat="45.59014" lon="4.76213">
        <ele>166.4453125</ele>
        <time>2010-05-09T15:26:20Z</time>
      </trkpt>
      <trkpt lat="45.59018" lon="4.76227">
        <ele>165.48413085938</ele>
        <time>2010-05-09T15:26:23Z</time>
      </trkpt>
      <trkpt lat="45.59008" lon="4.7623">
        <ele>165.96472167969</ele>
        <time>2010-05-09T15:26:26Z</time>
      </trkpt>
      <trkpt lat="45.59006" lon="4.76231">
        <ele>165.96472167969</ele>
        <time>2010-05-09T15:26:28Z</time>
      </trkpt>
      <trkpt lat="45.59007" lon="4.76232">
        <ele>165.48413085938</ele>
        <time>2010-05-09T15:26:30Z</time>
      </trkpt>
      <trkpt lat="45.59019" lon="4.76275">
        <ele>165.96472167969</ele>
        <time>2010-05-09T15:26:34Z</time>
      </trkpt>
      <trkpt lat="45.59028" lon="4.76342">
        <ele>165.48413085938</ele>
        <time>2010-05-09T15:26:41Z</time>
      </trkpt>
      <trkpt lat="45.59043" lon="4.76434">
        <ele>165.48413085938</ele>
        <time>2010-05-09T15:26:50Z</time>
      </trkpt>
      <trkpt lat="45.59052" lon="4.76494">
        <ele>165.00341796875</ele>
        <time>2010-05-09T15:26:56Z</time>
      </trkpt>
      <trkpt lat="45.59063" lon="4.76565">
        <ele>165.00341796875</ele>
        <time>2010-05-09T15:27:03Z</time>
      </trkpt>
      <trkpt lat="45.59075" lon="4.76639">
        <ele>165.00341796875</ele>
        <time>2010-05-09T15:27:10Z</time>
      </trkpt>
      <trkpt lat="45.59096" lon="4.76739">
        <ele>164.04211425781</ele>
        <time>2010-05-09T15:27:19Z</time>
      </trkpt>
      <trkpt lat="45.59108" lon="4.76792">
        <ele>164.04211425781</ele>
        <time>2010-05-09T15:27:24Z</time>
      </trkpt>
      <trkpt lat="45.59118" lon="4.76857">
        <ele>164.52270507812</ele>
        <time>2010-05-09T15:27:30Z</time>
      </trkpt>
      <trkpt lat="45.59127" lon="4.76911">
        <ele>164.52270507812</ele>
        <time>2010-05-09T15:27:35Z</time>
      </trkpt>
      <trkpt lat="45.59131" lon="4.76931">
        <ele>163.5615234375</ele>
        <time>2010-05-09T15:27:37Z</time>
      </trkpt>
      <trkpt lat="45.59137" lon="4.76985">
        <ele>164.04211425781</ele>
        <time>2010-05-09T15:27:43Z</time>
      </trkpt>
      <trkpt lat="45.59137" lon="4.77012">
        <ele>163.5615234375</ele>
        <time>2010-05-09T15:27:47Z</time>
      </trkpt>
      <trkpt lat="45.59142" lon="4.77031">
        <ele>163.5615234375</ele>
        <time>2010-05-09T15:27:52Z</time>
      </trkpt>
      <trkpt lat="45.59143" lon="4.7704">
        <ele>164.04211425781</ele>
        <time>2010-05-09T15:27:57Z</time>
      </trkpt>
      <trkpt lat="45.59145" lon="4.77045">
        <ele>163.5615234375</ele>
        <time>2010-05-09T15:27:58Z</time>
      </trkpt>
      <trkpt lat="45.59163" lon="4.77048">
        <ele>164.04211425781</ele>
        <time>2010-05-09T15:28:02Z</time>
      </trkpt>
      <trkpt lat="45.59181" lon="4.77042">
        <ele>163.5615234375</ele>
        <time>2010-05-09T15:28:05Z</time>
      </trkpt>
      <trkpt lat="45.59236" lon="4.77032">
        <ele>164.04211425781</ele>
        <time>2010-05-09T15:28:13Z</time>
      </trkpt>
      <trkpt lat="45.59291" lon="4.77022">
        <ele>164.52270507812</ele>
        <time>2010-05-09T15:28:21Z</time>
      </trkpt>
      <trkpt lat="45.59337" lon="4.77014">
        <ele>164.04211425781</ele>
        <time>2010-05-09T15:28:28Z</time>
      </trkpt>
      <trkpt lat="45.59386" lon="4.77006">
        <ele>163.5615234375</ele>
        <time>2010-05-09T15:28:36Z</time>
      </trkpt>
      <trkpt lat="45.59414" lon="4.77001">
        <ele>163.5615234375</ele>
        <time>2010-05-09T15:28:42Z</time>
      </trkpt>
      <trkpt lat="45.59422" lon="4.77001">
        <ele>163.5615234375</ele>
        <time>2010-05-09T15:28:45Z</time>
      </trkpt>
      <trkpt lat="45.59437" lon="4.77018">
        <ele>164.04211425781</ele>
        <time>2010-05-09T15:28:49Z</time>
      </trkpt>
      <trkpt lat="45.59467" lon="4.7707">
        <ele>164.04211425781</ele>
        <time>2010-05-09T15:28:56Z</time>
      </trkpt>
      <trkpt lat="45.59506" lon="4.77144">
        <ele>164.52270507812</ele>
        <time>2010-05-09T15:29:05Z</time>
      </trkpt>
      <trkpt lat="45.59534" lon="4.77188">
        <ele>165.48413085938</ele>
        <time>2010-05-09T15:29:12Z</time>
      </trkpt>
      <trkpt lat="45.5954" lon="4.77197">
        <ele>165.48413085938</ele>
        <time>2010-05-09T15:29:14Z</time>
      </trkpt>
      <trkpt lat="45.59557" lon="4.77206">
        <ele>165.96472167969</ele>
        <time>2010-05-09T15:29:19Z</time>
      </trkpt>
      <trkpt lat="45.59565" lon="4.77217">
        <ele>166.92602539062</ele>
        <time>2010-05-09T15:29:23Z</time>
      </trkpt>
      <trkpt lat="45.59573" lon="4.77223">
        <ele>166.92602539062</ele>
        <time>2010-05-09T15:29:28Z</time>
      </trkpt>
      <trkpt lat="45.59573" lon="4.77223">
        <ele>166.92602539062</ele>
        <time>2010-05-09T15:29:34Z</time>
      </trkpt>
      <trkpt lat="45.59559" lon="4.77209">
        <ele>166.92602539062</ele>
        <time>2010-05-09T15:29:42Z</time>
      </trkpt>
      <trkpt lat="45.5955" lon="4.77198">
        <ele>166.92602539062</ele>
        <time>2010-05-09T15:29:46Z</time>
      </trkpt>
      <trkpt lat="45.59534" lon="4.77187">
        <ele>166.4453125</ele>
        <time>2010-05-09T15:29:51Z</time>
      </trkpt>
      <trkpt lat="45.59531" lon="4.77181">
        <ele>166.4453125</ele>
        <time>2010-05-09T15:29:52Z</time>
      </trkpt>
      <trkpt lat="45.59505" lon="4.77133">
        <ele>166.4453125</ele>
        <time>2010-05-09T15:29:59Z</time>
      </trkpt>
      <trkpt lat="45.59468" lon="4.77067">
        <ele>165.48413085938</ele>
        <time>2010-05-09T15:30:08Z</time>
      </trkpt>
      <trkpt lat="45.59443" lon="4.77023">
        <ele>164.04211425781</ele>
        <time>2010-05-09T15:30:15Z</time>
      </trkpt>
      <trkpt lat="45.5944" lon="4.77018">
        <ele>164.04211425781</ele>
        <time>2010-05-09T15:30:17Z</time>
      </trkpt>
      <trkpt lat="45.59439" lon="4.77022">
        <ele>158.75476074219</ele>
        <time>2010-05-09T15:31:18Z</time>
      </trkpt>
      <trkpt lat="45.59439" lon="4.77021">
        <ele>162.11950683594</ele>
        <time>2010-05-09T15:31:19Z</time>
      </trkpt>
      <trkpt lat="45.59439" lon="4.77021">
        <ele>160.67749023438</ele>
        <time>2010-05-09T15:31:37Z</time>
      </trkpt>
      <trkpt lat="45.59387" lon="4.77018">
        <ele>164.52270507812</ele>
        <time>2010-05-09T15:31:47Z</time>
      </trkpt>
      <trkpt lat="45.5938" lon="4.77019">
        <ele>155.39025878906</ele>
        <time>2010-05-09T15:31:48Z</time>
      </trkpt>
      <trkpt lat="45.59377" lon="4.77019">
        <ele>166.92602539062</ele>
        <time>2010-05-09T15:31:49Z</time>
      </trkpt>
      <trkpt lat="45.59373" lon="4.7702">
        <ele>165.96472167969</ele>
        <time>2010-05-09T15:31:50Z</time>
      </trkpt>
      <trkpt lat="45.59349" lon="4.77022">
        <ele>165.96472167969</ele>
        <time>2010-05-09T15:31:57Z</time>
      </trkpt>
      <trkpt lat="45.59337" lon="4.77023">
        <ele>165.96472167969</ele>
        <time>2010-05-09T15:32:00Z</time>
      </trkpt>
      <trkpt lat="45.59324" lon="4.77036">
        <ele>165.48413085938</ele>
        <time>2010-05-09T15:32:04Z</time>
      </trkpt>
      <trkpt lat="45.59323" lon="4.77068">
        <ele>165.96472167969</ele>
        <time>2010-05-09T15:32:08Z</time>
      </trkpt>
      <trkpt lat="45.59329" lon="4.77095">
        <ele>165.96472167969</ele>
        <time>2010-05-09T15:32:12Z</time>
      </trkpt>
      <trkpt lat="45.59333" lon="4.77151">
        <ele>166.4453125</ele>
        <time>2010-05-09T15:32:19Z</time>
      </trkpt>
      <trkpt lat="45.59335" lon="4.77216">
        <ele>166.92602539062</ele>
        <time>2010-05-09T15:32:27Z</time>
      </trkpt>
      <trkpt lat="45.59339" lon="4.77248">
        <ele>166.92602539062</ele>
        <time>2010-05-09T15:32:32Z</time>
      </trkpt>
      <trkpt lat="45.5934" lon="4.77253">
        <ele>166.92602539062</ele>
        <time>2010-05-09T15:32:33Z</time>
      </trkpt>
      <trkpt lat="45.59337" lon="4.77285">
        <ele>166.92602539062</ele>
        <time>2010-05-09T15:32:38Z</time>
      </trkpt>
      <trkpt lat="45.59335" lon="4.77306">
        <ele>166.4453125</ele>
        <time>2010-05-09T15:32:42Z</time>
      </trkpt>
      <trkpt lat="45.5935" lon="4.77323">
        <ele>166.4453125</ele>
        <time>2010-05-09T15:32:46Z</time>
      </trkpt>
      <trkpt lat="45.59372" lon="4.7734">
        <ele>166.4453125</ele>
        <time>2010-05-09T15:32:50Z</time>
      </trkpt>
      <trkpt lat="45.59399" lon="4.77375">
        <ele>166.92602539062</ele>
        <time>2010-05-09T15:32:56Z</time>
      </trkpt>
      <trkpt lat="45.59425" lon="4.77426">
        <ele>167.40673828125</ele>
        <time>2010-05-09T15:33:03Z</time>
      </trkpt>
      <trkpt lat="45.59467" lon="4.77513">
        <ele>167.88732910156</ele>
        <time>2010-05-09T15:33:14Z</time>
      </trkpt>
      <trkpt lat="45.59501" lon="4.77581">
        <ele>167.40673828125</ele>
        <time>2010-05-09T15:33:22Z</time>
      </trkpt>
      <trkpt lat="45.59527" lon="4.77645">
        <ele>166.92602539062</ele>
        <time>2010-05-09T15:33:29Z</time>
      </trkpt>
      <trkpt lat="45.59547" lon="4.77709">
        <ele>167.40673828125</ele>
        <time>2010-05-09T15:33:36Z</time>
      </trkpt>
      <trkpt lat="45.59568" lon="4.77786">
        <ele>166.92602539062</ele>
        <time>2010-05-09T15:33:44Z</time>
      </trkpt>
      <trkpt lat="45.59594" lon="4.77876">
        <ele>166.92602539062</ele>
        <time>2010-05-09T15:33:53Z</time>
      </trkpt>
      <trkpt lat="45.59617" lon="4.7793">
        <ele>166.4453125</ele>
        <time>2010-05-09T15:33:59Z</time>
      </trkpt>
      <trkpt lat="45.59654" lon="4.78005">
        <ele>166.92602539062</ele>
        <time>2010-05-09T15:34:08Z</time>
      </trkpt>
      <trkpt lat="45.59702" lon="4.78083">
        <ele>166.92602539062</ele>
        <time>2010-05-09T15:34:18Z</time>
      </trkpt>
      <trkpt lat="45.59709" lon="4.78093">
        <ele>166.92602539062</ele>
        <time>2010-05-09T15:34:20Z</time>
      </trkpt>
      <trkpt lat="45.59724" lon="4.78133">
        <ele>166.92602539062</ele>
        <time>2010-05-09T15:34:24Z</time>
      </trkpt>
      <trkpt lat="45.59756" lon="4.782">
        <ele>167.88732910156</ele>
        <time>2010-05-09T15:34:33Z</time>
      </trkpt>
      <trkpt lat="45.59788" lon="4.78253">
        <ele>167.88732910156</ele>
        <time>2010-05-09T15:34:41Z</time>
      </trkpt>
      <trkpt lat="45.5982" lon="4.78313">
        <ele>168.36804199219</ele>
        <time>2010-05-09T15:34:49Z</time>
      </trkpt>
      <trkpt lat="45.59857" lon="4.78394">
        <ele>168.36804199219</ele>
        <time>2010-05-09T15:34:59Z</time>
      </trkpt>
      <trkpt lat="45.59881" lon="4.78448">
        <ele>166.92602539062</ele>
        <time>2010-05-09T15:35:06Z</time>
      </trkpt>
      <trkpt lat="45.59904" lon="4.78495">
        <ele>167.40673828125</ele>
        <time>2010-05-09T15:35:13Z</time>
      </trkpt>
      <trkpt lat="45.59932" lon="4.78538">
        <ele>167.40673828125</ele>
        <time>2010-05-09T15:35:20Z</time>
      </trkpt>
      <trkpt lat="45.59964" lon="4.78572">
        <ele>166.92602539062</ele>
        <time>2010-05-09T15:35:26Z</time>
      </trkpt>
      <trkpt lat="45.60008" lon="4.78611">
        <ele>167.40673828125</ele>
        <time>2010-05-09T15:35:34Z</time>
      </trkpt>
      <trkpt lat="45.60054" lon="4.78646">
        <ele>166.92602539062</ele>
        <time>2010-05-09T15:35:42Z</time>
      </trkpt>
      <trkpt lat="45.60088" lon="4.7867">
        <ele>166.92602539062</ele>
        <time>2010-05-09T15:35:48Z</time>
      </trkpt>
      <trkpt lat="45.60135" lon="4.78711">
        <ele>166.4453125</ele>
        <time>2010-05-09T15:35:56Z</time>
      </trkpt>
      <trkpt lat="45.6018" lon="4.78749">
        <ele>166.4453125</ele>
        <time>2010-05-09T15:36:04Z</time>
      </trkpt>
      <trkpt lat="45.60209" lon="4.78784">
        <ele>166.92602539062</ele>
        <time>2010-05-09T15:36:10Z</time>
      </trkpt>
      <trkpt lat="45.60213" lon="4.78791">
        <ele>166.92602539062</ele>
        <time>2010-05-09T15:36:11Z</time>
      </trkpt>
      <trkpt lat="45.60239" lon="4.78856">
        <ele>166.4453125</ele>
        <time>2010-05-09T15:36:19Z</time>
      </trkpt>
      <trkpt lat="45.60267" lon="4.7892">
        <ele>166.4453125</ele>
        <time>2010-05-09T15:36:27Z</time>
      </trkpt>
      <trkpt lat="45.60302" lon="4.78995">
        <ele>166.92602539062</ele>
        <time>2010-05-09T15:36:37Z</time>
      </trkpt>
      <trkpt lat="45.6032" lon="4.79039">
        <ele>167.88732910156</ele>
        <time>2010-05-09T15:36:44Z</time>
      </trkpt>
      <trkpt lat="45.60341" lon="4.79084">
        <ele>169.32946777344</ele>
        <time>2010-05-09T15:36:52Z</time>
      </trkpt>
      <trkpt lat="45.60365" lon="4.79132">
        <ele>171.73266601562</ele>
        <time>2010-05-09T15:37:01Z</time>
      </trkpt>
      <trkpt lat="45.60384" lon="4.79149">
        <ele>172.21325683594</ele>
        <time>2010-05-09T15:37:06Z</time>
      </trkpt>
      <trkpt lat="45.60394" lon="4.79148">
        <ele>172.69396972656</ele>
        <time>2010-05-09T15:37:08Z</time>
      </trkpt>
      <trkpt lat="45.60449" lon="4.79133">
        <ele>174.13586425781</ele>
        <time>2010-05-09T15:37:19Z</time>
      </trkpt>
      <trkpt lat="45.60482" lon="4.79125">
        <ele>174.13586425781</ele>
        <time>2010-05-09T15:37:26Z</time>
      </trkpt>
      <trkpt lat="45.60492" lon="4.79122">
        <ele>174.13586425781</ele>
        <time>2010-05-09T15:37:28Z</time>
      </trkpt>
      <trkpt lat="45.60504" lon="4.7913">
        <ele>174.13586425781</ele>
        <time>2010-05-09T15:37:31Z</time>
      </trkpt>
      <trkpt lat="45.60507" lon="4.79147">
        <ele>174.13586425781</ele>
        <time>2010-05-09T15:37:33Z</time>
      </trkpt>
      <trkpt lat="45.60511" lon="4.79199">
        <ele>172.69396972656</ele>
        <time>2010-05-09T15:37:38Z</time>
      </trkpt>
      <trkpt lat="45.60533" lon="4.7926">
        <ele>171.73266601562</ele>
        <time>2010-05-09T15:37:44Z</time>
      </trkpt>
      <trkpt lat="45.60566" lon="4.79316">
        <ele>168.84875488281</ele>
        <time>2010-05-09T15:37:50Z</time>
      </trkpt>
      <trkpt lat="45.60594" lon="4.79357">
        <ele>168.36804199219</ele>
        <time>2010-05-09T15:37:55Z</time>
      </trkpt>
      <trkpt lat="45.60633" lon="4.794">
        <ele>165.96472167969</ele>
        <time>2010-05-09T15:38:02Z</time>
      </trkpt>
      <trkpt lat="45.60643" lon="4.79412">
        <ele>165.96472167969</ele>
        <time>2010-05-09T15:38:04Z</time>
      </trkpt>
      <trkpt lat="45.60662" lon="4.79436">
        <ele>165.00341796875</ele>
        <time>2010-05-09T15:38:08Z</time>
      </trkpt>
      <trkpt lat="45.60666" lon="4.79443">
        <ele>165.48413085938</ele>
        <time>2010-05-09T15:38:09Z</time>
      </trkpt>
      <trkpt lat="45.60696" lon="4.7947">
        <ele>165.00341796875</ele>
        <time>2010-05-09T15:38:15Z</time>
      </trkpt>
      <trkpt lat="45.60728" lon="4.79498">
        <ele>164.52270507812</ele>
        <time>2010-05-09T15:38:21Z</time>
      </trkpt>
      <trkpt lat="45.60762" lon="4.79527">
        <ele>165.00341796875</ele>
        <time>2010-05-09T15:38:28Z</time>
      </trkpt>
      <trkpt lat="45.60801" lon="4.79545">
        <ele>164.52270507812</ele>
        <time>2010-05-09T15:38:35Z</time>
      </trkpt>
      <trkpt lat="45.60842" lon="4.79562">
        <ele>165.00341796875</ele>
        <time>2010-05-09T15:38:42Z</time>
      </trkpt>
      <trkpt lat="45.60882" lon="4.79585">
        <ele>165.00341796875</ele>
        <time>2010-05-09T15:38:49Z</time>
      </trkpt>
      <trkpt lat="45.60912" lon="4.79613">
        <ele>165.00341796875</ele>
        <time>2010-05-09T15:38:55Z</time>
      </trkpt>
      <trkpt lat="45.60954" lon="4.79661">
        <ele>164.52270507812</ele>
        <time>2010-05-09T15:39:04Z</time>
      </trkpt>
      <trkpt lat="45.60981" lon="4.79697">
        <ele>164.52270507812</ele>
        <time>2010-05-09T15:39:10Z</time>
      </trkpt>
      <trkpt lat="45.61007" lon="4.79732">
        <ele>164.52270507812</ele>
        <time>2010-05-09T15:39:16Z</time>
      </trkpt>
      <trkpt lat="45.61045" lon="4.79778">
        <ele>164.52270507812</ele>
        <time>2010-05-09T15:39:24Z</time>
      </trkpt>
      <trkpt lat="45.61074" lon="4.79812">
        <ele>165.00341796875</ele>
        <time>2010-05-09T15:39:30Z</time>
      </trkpt>
      <trkpt lat="45.61109" lon="4.79845">
        <ele>165.48413085938</ele>
        <time>2010-05-09T15:39:37Z</time>
      </trkpt>
      <trkpt lat="45.61123" lon="4.79857">
        <ele>165.48413085938</ele>
        <time>2010-05-09T15:39:40Z</time>
      </trkpt>
      <trkpt lat="45.61164" lon="4.79882">
        <ele>166.4453125</ele>
        <time>2010-05-09T15:39:48Z</time>
      </trkpt>
      <trkpt lat="45.61212" lon="4.79912">
        <ele>166.92602539062</ele>
        <time>2010-05-09T15:39:57Z</time>
      </trkpt>
      <trkpt lat="45.61259" lon="4.79943">
        <ele>166.4453125</ele>
        <time>2010-05-09T15:40:06Z</time>
      </trkpt>
      <trkpt lat="45.61288" lon="4.79962">
        <ele>167.40673828125</ele>
        <time>2010-05-09T15:40:12Z</time>
      </trkpt>
      <trkpt lat="45.61316" lon="4.79978">
        <ele>167.40673828125</ele>
        <time>2010-05-09T15:40:18Z</time>
      </trkpt>
      <trkpt lat="45.61322" lon="4.80003">
        <ele>166.92602539062</ele>
        <time>2010-05-09T15:40:22Z</time>
      </trkpt>
      <trkpt lat="45.61329" lon="4.80025">
        <ele>166.92602539062</ele>
        <time>2010-05-09T15:40:25Z</time>
      </trkpt>
      <trkpt lat="45.61339" lon="4.80034">
        <ele>165.96472167969</ele>
        <time>2010-05-09T15:40:27Z</time>
      </trkpt>
      <trkpt lat="45.6136" lon="4.80049">
        <ele>165.96472167969</ele>
        <time>2010-05-09T15:40:33Z</time>
      </trkpt>
      <trkpt lat="45.61366" lon="4.80052">
        <ele>165.48413085938</ele>
        <time>2010-05-09T15:40:37Z</time>
      </trkpt>
      <trkpt lat="45.61367" lon="4.80053">
        <ele>164.52270507812</ele>
        <time>2010-05-09T15:40:42Z</time>
      </trkpt>
      <trkpt lat="45.61372" lon="4.80065">
        <ele>164.52270507812</ele>
        <time>2010-05-09T15:40:46Z</time>
      </trkpt>
      <trkpt lat="45.61391" lon="4.80089">
        <ele>163.08081054688</ele>
        <time>2010-05-09T15:40:51Z</time>
      </trkpt>
      <trkpt lat="45.61406" lon="4.80096">
        <ele>163.08081054688</ele>
        <time>2010-05-09T15:40:54Z</time>
      </trkpt>
      <trkpt lat="45.61433" lon="4.80107">
        <ele>163.08081054688</ele>
        <time>2010-05-09T15:41:00Z</time>
      </trkpt>
      <trkpt lat="45.61456" lon="4.80104">
        <ele>162.60009765625</ele>
        <time>2010-05-09T15:41:05Z</time>
      </trkpt>
      <trkpt lat="45.61473" lon="4.80101">
        <ele>163.5615234375</ele>
        <time>2010-05-09T15:41:10Z</time>
      </trkpt>
      <trkpt lat="45.61495" lon="4.80108">
        <ele>165.48413085938</ele>
        <time>2010-05-09T15:41:16Z</time>
      </trkpt>
      <trkpt lat="45.6151" lon="4.80107">
        <ele>165.96472167969</ele>
        <time>2010-05-09T15:41:20Z</time>
      </trkpt>
      <trkpt lat="45.61522" lon="4.80108">
        <ele>166.92602539062</ele>
        <time>2010-05-09T15:41:23Z</time>
      </trkpt>
      <trkpt lat="45.61556" lon="4.8012">
        <ele>166.92602539062</ele>
        <time>2010-05-09T15:41:30Z</time>
      </trkpt>
      <trkpt lat="45.61566" lon="4.80123">
        <ele>166.92602539062</ele>
        <time>2010-05-09T15:41:32Z</time>
      </trkpt>
      <trkpt lat="45.61604" lon="4.80136">
        <ele>166.92602539062</ele>
        <time>2010-05-09T15:41:39Z</time>
      </trkpt>
      <trkpt lat="45.61636" lon="4.80155">
        <ele>167.40673828125</ele>
        <time>2010-05-09T15:41:45Z</time>
      </trkpt>
      <trkpt lat="45.61663" lon="4.80168">
        <ele>166.92602539062</ele>
        <time>2010-05-09T15:41:50Z</time>
      </trkpt>
      <trkpt lat="45.61703" lon="4.8018">
        <ele>167.40673828125</ele>
        <time>2010-05-09T15:41:57Z</time>
      </trkpt>
      <trkpt lat="45.61751" lon="4.80191">
        <ele>166.4453125</ele>
        <time>2010-05-09T15:42:05Z</time>
      </trkpt>
      <trkpt lat="45.61757" lon="4.80192">
        <ele>167.40673828125</ele>
        <time>2010-05-09T15:42:06Z</time>
      </trkpt>
      <trkpt lat="45.61774" lon="4.80209">
        <ele>166.4453125</ele>
        <time>2010-05-09T15:42:10Z</time>
      </trkpt>
      <trkpt lat="45.61781" lon="4.80223">
        <ele>165.96472167969</ele>
        <time>2010-05-09T15:42:12Z</time>
      </trkpt>
      <trkpt lat="45.61786" lon="4.8025">
        <ele>165.48413085938</ele>
        <time>2010-05-09T15:42:15Z</time>
      </trkpt>
      <trkpt lat="45.61795" lon="4.80274">
        <ele>165.00341796875</ele>
        <time>2010-05-09T15:42:18Z</time>
      </trkpt>
      <trkpt lat="45.61821" lon="4.80291">
        <ele>164.52270507812</ele>
        <time>2010-05-09T15:42:22Z</time>
      </trkpt>
      <trkpt lat="45.61827" lon="4.80293">
        <ele>165.00341796875</ele>
        <time>2010-05-09T15:42:23Z</time>
      </trkpt>
      <trkpt lat="45.61871" lon="4.803">
        <ele>164.52270507812</ele>
        <time>2010-05-09T15:42:30Z</time>
      </trkpt>
      <trkpt lat="45.6191" lon="4.80306">
        <ele>164.04211425781</ele>
        <time>2010-05-09T15:42:37Z</time>
      </trkpt>
      <trkpt lat="45.61921" lon="4.80307">
        <ele>164.52270507812</ele>
        <time>2010-05-09T15:42:39Z</time>
      </trkpt>
      <trkpt lat="45.6195" lon="4.80316">
        <ele>164.04211425781</ele>
        <time>2010-05-09T15:42:44Z</time>
      </trkpt>
      <trkpt lat="45.61961" lon="4.80317">
        <ele>164.04211425781</ele>
        <time>2010-05-09T15:42:46Z</time>
      </trkpt>
      <trkpt lat="45.62003" lon="4.80329">
        <ele>164.04211425781</ele>
        <time>2010-05-09T15:42:53Z</time>
      </trkpt>
      <trkpt lat="45.62049" lon="4.80341">
        <ele>164.04211425781</ele>
        <time>2010-05-09T15:43:01Z</time>
      </trkpt>
      <trkpt lat="45.62078" lon="4.80346">
        <ele>164.52270507812</ele>
        <time>2010-05-09T15:43:06Z</time>
      </trkpt>
      <trkpt lat="45.62101" lon="4.80356">
        <ele>164.04211425781</ele>
        <time>2010-05-09T15:43:10Z</time>
      </trkpt>
      <trkpt lat="45.62119" lon="4.8038">
        <ele>163.08081054688</ele>
        <time>2010-05-09T15:43:14Z</time>
      </trkpt>
      <trkpt lat="45.62126" lon="4.80394">
        <ele>164.04211425781</ele>
        <time>2010-05-09T15:43:16Z</time>
      </trkpt>
      <trkpt lat="45.62133" lon="4.80406">
        <ele>163.5615234375</ele>
        <time>2010-05-09T15:43:18Z</time>
      </trkpt>
      <trkpt lat="45.62155" lon="4.8042">
        <ele>164.52270507812</ele>
        <time>2010-05-09T15:43:23Z</time>
      </trkpt>
      <trkpt lat="45.6216" lon="4.80422">
        <ele>164.52270507812</ele>
        <time>2010-05-09T15:43:24Z</time>
      </trkpt>
      <trkpt lat="45.62192" lon="4.80434">
        <ele>164.52270507812</ele>
        <time>2010-05-09T15:43:30Z</time>
      </trkpt>
      <trkpt lat="45.62231" lon="4.80441">
        <ele>164.52270507812</ele>
        <time>2010-05-09T15:43:37Z</time>
      </trkpt>
      <trkpt lat="45.62239" lon="4.80443">
        <ele>164.04211425781</ele>
        <time>2010-05-09T15:43:39Z</time>
      </trkpt>
      <trkpt lat="45.62257" lon="4.80448">
        <ele>164.52270507812</ele>
        <time>2010-05-09T15:43:44Z</time>
      </trkpt>
      <trkpt lat="45.62269" lon="4.80452">
        <ele>164.52270507812</ele>
        <time>2010-05-09T15:43:48Z</time>
      </trkpt>
      <trkpt lat="45.62288" lon="4.80461">
        <ele>164.04211425781</ele>
        <time>2010-05-09T15:43:52Z</time>
      </trkpt>
      <trkpt lat="45.62307" lon="4.80466">
        <ele>164.04211425781</ele>
        <time>2010-05-09T15:43:56Z</time>
      </trkpt>
      <trkpt lat="45.62327" lon="4.80475">
        <ele>164.04211425781</ele>
        <time>2010-05-09T15:44:00Z</time>
      </trkpt>
      <trkpt lat="45.62348" lon="4.80482">
        <ele>164.04211425781</ele>
        <time>2010-05-09T15:44:04Z</time>
      </trkpt>
      <trkpt lat="45.62378" lon="4.80493">
        <ele>164.04211425781</ele>
        <time>2010-05-09T15:44:10Z</time>
      </trkpt>
      <trkpt lat="45.62423" lon="4.8051">
        <ele>164.04211425781</ele>
        <time>2010-05-09T15:44:17Z</time>
      </trkpt>
      <trkpt lat="45.62473" lon="4.8053">
        <ele>164.04211425781</ele>
        <time>2010-05-09T15:44:24Z</time>
      </trkpt>
      <trkpt lat="45.62503" lon="4.80538">
        <ele>164.04211425781</ele>
        <time>2010-05-09T15:44:30Z</time>
      </trkpt>
      <trkpt lat="45.62512" lon="4.80541">
        <ele>164.52270507812</ele>
        <time>2010-05-09T15:44:32Z</time>
      </trkpt>
      <trkpt lat="45.62543" lon="4.80547">
        <ele>164.52270507812</ele>
        <time>2010-05-09T15:44:38Z</time>
      </trkpt>
      <trkpt lat="45.62551" lon="4.80549">
        <ele>164.52270507812</ele>
        <time>2010-05-09T15:44:40Z</time>
      </trkpt>
      <trkpt lat="45.62582" lon="4.80555">
        <ele>164.52270507812</ele>
        <time>2010-05-09T15:44:46Z</time>
      </trkpt>
      <trkpt lat="45.62621" lon="4.80557">
        <ele>165.00341796875</ele>
        <time>2010-05-09T15:44:53Z</time>
      </trkpt>
      <trkpt lat="45.62664" lon="4.80557">
        <ele>164.04211425781</ele>
        <time>2010-05-09T15:45:01Z</time>
      </trkpt>
      <trkpt lat="45.62683" lon="4.80556">
        <ele>165.00341796875</ele>
        <time>2010-05-09T15:45:05Z</time>
      </trkpt>
      <trkpt lat="45.62726" lon="4.80554">
        <ele>165.00341796875</ele>
        <time>2010-05-09T15:45:12Z</time>
      </trkpt>
      <trkpt lat="45.62767" lon="4.80551">
        <ele>163.5615234375</ele>
        <time>2010-05-09T15:45:18Z</time>
      </trkpt>
      <trkpt lat="45.62796" lon="4.8056">
        <ele>163.5615234375</ele>
        <time>2010-05-09T15:45:23Z</time>
      </trkpt>
      <trkpt lat="45.62825" lon="4.80565">
        <ele>164.04211425781</ele>
        <time>2010-05-09T15:45:28Z</time>
      </trkpt>
      <trkpt lat="45.62831" lon="4.80566">
        <ele>164.04211425781</ele>
        <time>2010-05-09T15:45:29Z</time>
      </trkpt>
      <trkpt lat="45.62871" lon="4.80568">
        <ele>164.04211425781</ele>
        <time>2010-05-09T15:45:36Z</time>
      </trkpt>
      <trkpt lat="45.62893" lon="4.80569">
        <ele>164.52270507812</ele>
        <time>2010-05-09T15:45:40Z</time>
      </trkpt>
      <trkpt lat="45.62931" lon="4.80565">
        <ele>164.04211425781</ele>
        <time>2010-05-09T15:45:47Z</time>
      </trkpt>
      <trkpt lat="45.62941" lon="4.80565">
        <ele>164.52270507812</ele>
        <time>2010-05-09T15:45:49Z</time>
      </trkpt>
      <trkpt lat="45.62958" lon="4.80552">
        <ele>164.04211425781</ele>
        <time>2010-05-09T15:45:53Z</time>
      </trkpt>
      <trkpt lat="45.62975" lon="4.80533">
        <ele>164.04211425781</ele>
        <time>2010-05-09T15:45:57Z</time>
      </trkpt>
      <trkpt lat="45.62992" lon="4.80505">
        <ele>163.5615234375</ele>
        <time>2010-05-09T15:46:02Z</time>
      </trkpt>
      <trkpt lat="45.63005" lon="4.80471">
        <ele>164.52270507812</ele>
        <time>2010-05-09T15:46:09Z</time>
      </trkpt>
      <trkpt lat="45.63008" lon="4.80456">
        <ele>165.48413085938</ele>
        <time>2010-05-09T15:46:14Z</time>
      </trkpt>
      <trkpt lat="45.63011" lon="4.80436">
        <ele>165.96472167969</ele>
        <time>2010-05-09T15:46:19Z</time>
      </trkpt>
      <trkpt lat="45.63025" lon="4.80427">
        <ele>165.48413085938</ele>
        <time>2010-05-09T15:46:24Z</time>
      </trkpt>
      <trkpt lat="45.63057" lon="4.80427">
        <ele>166.4453125</ele>
        <time>2010-05-09T15:46:33Z</time>
      </trkpt>
      <trkpt lat="45.63065" lon="4.80426">
        <ele>165.96472167969</ele>
        <time>2010-05-09T15:46:37Z</time>
      </trkpt>
      <trkpt lat="45.63069" lon="4.80425">
        <ele>165.96472167969</ele>
        <time>2010-05-09T15:46:42Z</time>
      </trkpt>
      <trkpt lat="45.63069" lon="4.80426">
        <ele>165.48413085938</ele>
        <time>2010-05-09T15:46:44Z</time>
      </trkpt>
      <trkpt lat="45.63066" lon="4.80426">
        <ele>166.4453125</ele>
        <time>2010-05-09T15:46:47Z</time>
      </trkpt>
      <trkpt lat="45.63068" lon="4.80432">
        <ele>165.48413085938</ele>
        <time>2010-05-09T15:46:51Z</time>
      </trkpt>
      <trkpt lat="45.63073" lon="4.80467">
        <ele>164.52270507812</ele>
        <time>2010-05-09T15:46:56Z</time>
      </trkpt>
      <trkpt lat="45.63065" lon="4.80513">
        <ele>163.5615234375</ele>
        <time>2010-05-09T15:47:01Z</time>
      </trkpt>
      <trkpt lat="45.63063" lon="4.80533">
        <ele>162.60009765625</ele>
        <time>2010-05-09T15:47:04Z</time>
      </trkpt>
      <trkpt lat="45.63068" lon="4.80559">
        <ele>163.08081054688</ele>
        <time>2010-05-09T15:47:08Z</time>
      </trkpt>
      <trkpt lat="45.63072" lon="4.80585">
        <ele>164.04211425781</ele>
        <time>2010-05-09T15:47:12Z</time>
      </trkpt>
      <trkpt lat="45.6309" lon="4.80618">
        <ele>163.08081054688</ele>
        <time>2010-05-09T15:47:18Z</time>
      </trkpt>
      <trkpt lat="45.63113" lon="4.80619">
        <ele>163.08081054688</ele>
        <time>2010-05-09T15:47:22Z</time>
      </trkpt>
      <trkpt lat="45.63119" lon="4.80619">
        <ele>163.08081054688</ele>
        <time>2010-05-09T15:47:23Z</time>
      </trkpt>
      <trkpt lat="45.63147" lon="4.80612">
        <ele>163.08081054688</ele>
        <time>2010-05-09T15:47:28Z</time>
      </trkpt>
      <trkpt lat="45.6318" lon="4.80615">
        <ele>163.08081054688</ele>
        <time>2010-05-09T15:47:34Z</time>
      </trkpt>
      <trkpt lat="45.63203" lon="4.80616">
        <ele>163.08081054688</ele>
        <time>2010-05-09T15:47:38Z</time>
      </trkpt>
      <trkpt lat="45.63227" lon="4.80622">
        <ele>163.5615234375</ele>
        <time>2010-05-09T15:47:42Z</time>
      </trkpt>
      <trkpt lat="45.63254" lon="4.80616">
        <ele>163.08081054688</ele>
        <time>2010-05-09T15:47:47Z</time>
      </trkpt>
      <trkpt lat="45.6327" lon="4.80612">
        <ele>163.08081054688</ele>
        <time>2010-05-09T15:47:50Z</time>
      </trkpt>
      <trkpt lat="45.63282" lon="4.80615">
        <ele>163.08081054688</ele>
        <time>2010-05-09T15:47:52Z</time>
      </trkpt>
      <trkpt lat="45.633" lon="4.80641">
        <ele>162.60009765625</ele>
        <time>2010-05-09T15:47:58Z</time>
      </trkpt>
      <trkpt lat="45.63307" lon="4.8065">
        <ele>162.11950683594</ele>
        <time>2010-05-09T15:48:00Z</time>
      </trkpt>
      <trkpt lat="45.63326" lon="4.80663">
        <ele>162.11950683594</ele>
        <time>2010-05-09T15:48:04Z</time>
      </trkpt>
      <trkpt lat="45.63344" lon="4.80657">
        <ele>161.63891601562</ele>
        <time>2010-05-09T15:48:08Z</time>
      </trkpt>
      <trkpt lat="45.63351" lon="4.80658">
        <ele>161.158203125</ele>
        <time>2010-05-09T15:48:10Z</time>
      </trkpt>
      <trkpt lat="45.63355" lon="4.80662">
        <ele>161.158203125</ele>
        <time>2010-05-09T15:48:11Z</time>
      </trkpt>
      <trkpt lat="45.63377" lon="4.80682">
        <ele>160.19689941406</ele>
        <time>2010-05-09T15:48:16Z</time>
      </trkpt>
      <trkpt lat="45.63398" lon="4.80681">
        <ele>161.158203125</ele>
        <time>2010-05-09T15:48:21Z</time>
      </trkpt>
      <trkpt lat="45.63423" lon="4.8069">
        <ele>161.158203125</ele>
        <time>2010-05-09T15:48:26Z</time>
      </trkpt>
      <trkpt lat="45.63443" lon="4.80695">
        <ele>161.158203125</ele>
        <time>2010-05-09T15:48:30Z</time>
      </trkpt>
      <trkpt lat="45.63461" lon="4.80701">
        <ele>161.63891601562</ele>
        <time>2010-05-09T15:48:34Z</time>
      </trkpt>
      <trkpt lat="45.63488" lon="4.80717">
        <ele>162.11950683594</ele>
        <time>2010-05-09T15:48:40Z</time>
      </trkpt>
      <trkpt lat="45.63496" lon="4.80722">
        <ele>162.60009765625</ele>
        <time>2010-05-09T15:48:42Z</time>
      </trkpt>
      <trkpt lat="45.63517" lon="4.80727">
        <ele>163.08081054688</ele>
        <time>2010-05-09T15:48:47Z</time>
      </trkpt>
      <trkpt lat="45.63522" lon="4.80726">
        <ele>163.08081054688</ele>
        <time>2010-05-09T15:48:48Z</time>
      </trkpt>
      <trkpt lat="45.63545" lon="4.80734">
        <ele>163.5615234375</ele>
        <time>2010-05-09T15:48:54Z</time>
      </trkpt>
      <trkpt lat="45.63555" lon="4.80739">
        <ele>163.08081054688</ele>
        <time>2010-05-09T15:48:56Z</time>
      </trkpt>
      <trkpt lat="45.63565" lon="4.80743">
        <ele>163.08081054688</ele>
        <time>2010-05-09T15:48:58Z</time>
      </trkpt>
      <trkpt lat="45.63579" lon="4.80743">
        <ele>163.08081054688</ele>
        <time>2010-05-09T15:49:01Z</time>
      </trkpt>
      <trkpt lat="45.63604" lon="4.80755">
        <ele>163.08081054688</ele>
        <time>2010-05-09T15:49:06Z</time>
      </trkpt>
      <trkpt lat="45.63608" lon="4.8076">
        <ele>163.08081054688</ele>
        <time>2010-05-09T15:49:07Z</time>
      </trkpt>
      <trkpt lat="45.63639" lon="4.80778">
        <ele>163.08081054688</ele>
        <time>2010-05-09T15:49:13Z</time>
      </trkpt>
      <trkpt lat="45.63659" lon="4.80781">
        <ele>163.08081054688</ele>
        <time>2010-05-09T15:49:17Z</time>
      </trkpt>
      <trkpt lat="45.6367" lon="4.80786">
        <ele>163.08081054688</ele>
        <time>2010-05-09T15:49:20Z</time>
      </trkpt>
      <trkpt lat="45.63693" lon="4.808">
        <ele>163.08081054688</ele>
        <time>2010-05-09T15:49:25Z</time>
      </trkpt>
      <trkpt lat="45.63712" lon="4.80813">
        <ele>162.60009765625</ele>
        <time>2010-05-09T15:49:29Z</time>
      </trkpt>
      <trkpt lat="45.63733" lon="4.8082">
        <ele>162.60009765625</ele>
        <time>2010-05-09T15:49:33Z</time>
      </trkpt>
      <trkpt lat="45.63759" lon="4.8083">
        <ele>163.08081054688</ele>
        <time>2010-05-09T15:49:38Z</time>
      </trkpt>
      <trkpt lat="45.63771" lon="4.80832">
        <ele>162.60009765625</ele>
        <time>2010-05-09T15:49:40Z</time>
      </trkpt>
      <trkpt lat="45.63792" lon="4.80836">
        <ele>163.08081054688</ele>
        <time>2010-05-09T15:49:44Z</time>
      </trkpt>
      <trkpt lat="45.63802" lon="4.8084">
        <ele>163.5615234375</ele>
        <time>2010-05-09T15:49:46Z</time>
      </trkpt>
      <trkpt lat="45.6382" lon="4.80845">
        <ele>162.60009765625</ele>
        <time>2010-05-09T15:49:50Z</time>
      </trkpt>
      <trkpt lat="45.63829" lon="4.80851">
        <ele>163.08081054688</ele>
        <time>2010-05-09T15:49:52Z</time>
      </trkpt>
      <trkpt lat="45.63838" lon="4.80854">
        <ele>162.60009765625</ele>
        <time>2010-05-09T15:49:54Z</time>
      </trkpt>
      <trkpt lat="45.63855" lon="4.8086">
        <ele>162.60009765625</ele>
        <time>2010-05-09T15:49:58Z</time>
      </trkpt>
      <trkpt lat="45.63859" lon="4.80861">
        <ele>162.60009765625</ele>
        <time>2010-05-09T15:49:59Z</time>
      </trkpt>
      <trkpt lat="45.63879" lon="4.80864">
        <ele>162.60009765625</ele>
        <time>2010-05-09T15:50:03Z</time>
      </trkpt>
      <trkpt lat="45.63906" lon="4.80885">
        <ele>163.08081054688</ele>
        <time>2010-05-09T15:50:09Z</time>
      </trkpt>
      <trkpt lat="45.63916" lon="4.80888">
        <ele>163.08081054688</ele>
        <time>2010-05-09T15:50:11Z</time>
      </trkpt>
      <trkpt lat="45.63933" lon="4.80898">
        <ele>163.08081054688</ele>
        <time>2010-05-09T15:50:16Z</time>
      </trkpt>
      <trkpt lat="45.63946" lon="4.80904">
        <ele>163.08081054688</ele>
        <time>2010-05-09T15:50:19Z</time>
      </trkpt>
      <trkpt lat="45.63962" lon="4.80918">
        <ele>163.5615234375</ele>
        <time>2010-05-09T15:50:23Z</time>
      </trkpt>
      <trkpt lat="45.63973" lon="4.80924">
        <ele>163.08081054688</ele>
        <time>2010-05-09T15:50:25Z</time>
      </trkpt>
      <trkpt lat="45.6398" lon="4.8093">
        <ele>162.60009765625</ele>
        <time>2010-05-09T15:50:27Z</time>
      </trkpt>
      <trkpt lat="45.64006" lon="4.80943">
        <ele>163.08081054688</ele>
        <time>2010-05-09T15:50:33Z</time>
      </trkpt>
      <trkpt lat="45.64025" lon="4.80953">
        <ele>163.08081054688</ele>
        <time>2010-05-09T15:50:37Z</time>
      </trkpt>
      <trkpt lat="45.64038" lon="4.8096">
        <ele>163.5615234375</ele>
        <time>2010-05-09T15:50:40Z</time>
      </trkpt>
      <trkpt lat="45.64056" lon="4.80974">
        <ele>163.08081054688</ele>
        <time>2010-05-09T15:50:44Z</time>
      </trkpt>
      <trkpt lat="45.64077" lon="4.80983">
        <ele>163.5615234375</ele>
        <time>2010-05-09T15:50:48Z</time>
      </trkpt>
      <trkpt lat="45.64093" lon="4.80998">
        <ele>164.04211425781</ele>
        <time>2010-05-09T15:50:52Z</time>
      </trkpt>
      <trkpt lat="45.64101" lon="4.81004">
        <ele>163.5615234375</ele>
        <time>2010-05-09T15:50:54Z</time>
      </trkpt>
      <trkpt lat="45.64128" lon="4.81028">
        <ele>163.5615234375</ele>
        <time>2010-05-09T15:51:00Z</time>
      </trkpt>
      <trkpt lat="45.64151" lon="4.81043">
        <ele>164.52270507812</ele>
        <time>2010-05-09T15:51:05Z</time>
      </trkpt>
      <trkpt lat="45.64168" lon="4.81059">
        <ele>164.04211425781</ele>
        <time>2010-05-09T15:51:09Z</time>
      </trkpt>
      <trkpt lat="45.64195" lon="4.81078">
        <ele>164.52270507812</ele>
        <time>2010-05-09T15:51:15Z</time>
      </trkpt>
      <trkpt lat="45.64214" lon="4.811">
        <ele>164.04211425781</ele>
        <time>2010-05-09T15:51:20Z</time>
      </trkpt>
      <trkpt lat="45.64229" lon="4.811">
        <ele>164.52270507812</ele>
        <time>2010-05-09T15:51:23Z</time>
      </trkpt>
      <trkpt lat="45.64236" lon="4.81107">
        <ele>164.52270507812</ele>
        <time>2010-05-09T15:51:25Z</time>
      </trkpt>
      <trkpt lat="45.64262" lon="4.81135">
        <ele>164.04211425781</ele>
        <time>2010-05-09T15:51:31Z</time>
      </trkpt>
      <trkpt lat="45.64272" lon="4.81143">
        <ele>164.04211425781</ele>
        <time>2010-05-09T15:51:34Z</time>
      </trkpt>
      <trkpt lat="45.6428" lon="4.8115">
        <ele>163.5615234375</ele>
        <time>2010-05-09T15:51:36Z</time>
      </trkpt>
      <trkpt lat="45.64303" lon="4.81165">
        <ele>163.08081054688</ele>
        <time>2010-05-09T15:51:41Z</time>
      </trkpt>
      <trkpt lat="45.64323" lon="4.81178">
        <ele>162.60009765625</ele>
        <time>2010-05-09T15:51:46Z</time>
      </trkpt>
      <trkpt lat="45.6434" lon="4.8119">
        <ele>162.60009765625</ele>
        <time>2010-05-09T15:51:50Z</time>
      </trkpt>
      <trkpt lat="45.6435" lon="4.81198">
        <ele>162.11950683594</ele>
        <time>2010-05-09T15:51:54Z</time>
      </trkpt>
      <trkpt lat="45.64359" lon="4.81206">
        <ele>161.63891601562</ele>
        <time>2010-05-09T15:51:58Z</time>
      </trkpt>
      <trkpt lat="45.6437" lon="4.81211">
        <ele>161.63891601562</ele>
        <time>2010-05-09T15:52:02Z</time>
      </trkpt>
      <trkpt lat="45.64386" lon="4.81222">
        <ele>162.11950683594</ele>
        <time>2010-05-09T15:52:06Z</time>
      </trkpt>
      <trkpt lat="45.64408" lon="4.81241">
        <ele>162.11950683594</ele>
        <time>2010-05-09T15:52:13Z</time>
      </trkpt>
      <trkpt lat="45.64426" lon="4.81252">
        <ele>162.60009765625</ele>
        <time>2010-05-09T15:52:20Z</time>
      </trkpt>
      <trkpt lat="45.64433" lon="4.81263">
        <ele>163.08081054688</ele>
        <time>2010-05-09T15:52:24Z</time>
      </trkpt>
      <trkpt lat="45.64442" lon="4.81273">
        <ele>163.08081054688</ele>
        <time>2010-05-09T15:52:27Z</time>
      </trkpt>
      <trkpt lat="45.64447" lon="4.81282">
        <ele>162.60009765625</ele>
        <time>2010-05-09T15:52:29Z</time>
      </trkpt>
      <trkpt lat="45.64469" lon="4.81305">
        <ele>162.11950683594</ele>
        <time>2010-05-09T15:52:34Z</time>
      </trkpt>
      <trkpt lat="45.64496" lon="4.81332">
        <ele>161.63891601562</ele>
        <time>2010-05-09T15:52:41Z</time>
      </trkpt>
      <trkpt lat="45.64507" lon="4.81339">
        <ele>161.63891601562</ele>
        <time>2010-05-09T15:52:46Z</time>
      </trkpt>
      <trkpt lat="45.64508" lon="4.81347">
        <ele>161.63891601562</ele>
        <time>2010-05-09T15:52:51Z</time>
      </trkpt>
      <trkpt lat="45.64516" lon="4.81346">
        <ele>161.63891601562</ele>
        <time>2010-05-09T15:52:56Z</time>
      </trkpt>
      <trkpt lat="45.64528" lon="4.81351">
        <ele>162.60009765625</ele>
        <time>2010-05-09T15:53:01Z</time>
      </trkpt>
      <trkpt lat="45.6454" lon="4.81355">
        <ele>163.5615234375</ele>
        <time>2010-05-09T15:53:06Z</time>
      </trkpt>
      <trkpt lat="45.64548" lon="4.81358">
        <ele>164.04211425781</ele>
        <time>2010-05-09T15:53:09Z</time>
      </trkpt>
      <trkpt lat="45.64558" lon="4.81362">
        <ele>164.04211425781</ele>
        <time>2010-05-09T15:53:13Z</time>
      </trkpt>
      <trkpt lat="45.64573" lon="4.81375">
        <ele>165.00341796875</ele>
        <time>2010-05-09T15:53:17Z</time>
      </trkpt>
      <trkpt lat="45.64613" lon="4.814">
        <ele>165.00341796875</ele>
        <time>2010-05-09T15:53:26Z</time>
      </trkpt>
      <trkpt lat="45.6465" lon="4.81418">
        <ele>165.48413085938</ele>
        <time>2010-05-09T15:53:34Z</time>
      </trkpt>
      <trkpt lat="45.64668" lon="4.81425">
        <ele>166.4453125</ele>
        <time>2010-05-09T15:53:39Z</time>
      </trkpt>
      <trkpt lat="45.64688" lon="4.81434">
        <ele>167.40673828125</ele>
        <time>2010-05-09T15:53:45Z</time>
      </trkpt>
      <trkpt lat="45.64691" lon="4.81436">
        <ele>167.40673828125</ele>
        <time>2010-05-09T15:53:46Z</time>
      </trkpt>
      <trkpt lat="45.64693" lon="4.81449">
        <ele>167.40673828125</ele>
        <time>2010-05-09T15:53:50Z</time>
      </trkpt>
      <trkpt lat="45.64685" lon="4.81464">
        <ele>167.88732910156</ele>
        <time>2010-05-09T15:53:54Z</time>
      </trkpt>
      <trkpt lat="45.64661" lon="4.815">
        <ele>168.84875488281</ele>
        <time>2010-05-09T15:54:02Z</time>
      </trkpt>
      <trkpt lat="45.64643" lon="4.81528">
        <ele>169.81005859375</ele>
        <time>2010-05-09T15:54:08Z</time>
      </trkpt>
      <trkpt lat="45.64609" lon="4.81577">
        <ele>170.77136230469</ele>
        <time>2010-05-09T15:54:18Z</time>
      </trkpt>
      <trkpt lat="45.64579" lon="4.81621">
        <ele>172.69396972656</ele>
        <time>2010-05-09T15:54:27Z</time>
      </trkpt>
      <trkpt lat="45.64544" lon="4.81673">
        <ele>173.6552734375</ele>
        <time>2010-05-09T15:54:37Z</time>
      </trkpt>
      <trkpt lat="45.64508" lon="4.81727">
        <ele>173.6552734375</ele>
        <time>2010-05-09T15:54:46Z</time>
      </trkpt>
      <trkpt lat="45.64484" lon="4.81762">
        <ele>172.69396972656</ele>
        <time>2010-05-09T15:54:51Z</time>
      </trkpt>
      <trkpt lat="45.64444" lon="4.81821">
        <ele>169.81005859375</ele>
        <time>2010-05-09T15:54:59Z</time>
      </trkpt>
      <trkpt lat="45.6444" lon="4.81829">
        <ele>169.81005859375</ele>
        <time>2010-05-09T15:55:00Z</time>
      </trkpt>
      <trkpt lat="45.6441" lon="4.81855">
        <ele>168.84875488281</ele>
        <time>2010-05-09T15:55:05Z</time>
      </trkpt>
      <trkpt lat="45.64381" lon="4.81879">
        <ele>167.88732910156</ele>
        <time>2010-05-09T15:55:10Z</time>
      </trkpt>
      <trkpt lat="45.64356" lon="4.81896">
        <ele>166.92602539062</ele>
        <time>2010-05-09T15:55:14Z</time>
      </trkpt>
      <trkpt lat="45.64336" lon="4.81888">
        <ele>166.4453125</ele>
        <time>2010-05-09T15:55:17Z</time>
      </trkpt>
      <trkpt lat="45.64317" lon="4.81862">
        <ele>166.4453125</ele>
        <time>2010-05-09T15:55:21Z</time>
      </trkpt>
      <trkpt lat="45.64313" lon="4.81828">
        <ele>165.96472167969</ele>
        <time>2010-05-09T15:55:25Z</time>
      </trkpt>
      <trkpt lat="45.64323" lon="4.81805">
        <ele>165.96472167969</ele>
        <time>2010-05-09T15:55:28Z</time>
      </trkpt>
      <trkpt lat="45.64338" lon="4.81786">
        <ele>165.96472167969</ele>
        <time>2010-05-09T15:55:31Z</time>
      </trkpt>
      <trkpt lat="45.64366" lon="4.81749">
        <ele>165.96472167969</ele>
        <time>2010-05-09T15:55:37Z</time>
      </trkpt>
      <trkpt lat="45.64371" lon="4.81743">
        <ele>165.96472167969</ele>
        <time>2010-05-09T15:55:38Z</time>
      </trkpt>
      <trkpt lat="45.64397" lon="4.81704">
        <ele>165.96472167969</ele>
        <time>2010-05-09T15:55:44Z</time>
      </trkpt>
      <trkpt lat="45.64401" lon="4.81697">
        <ele>166.92602539062</ele>
        <time>2010-05-09T15:55:45Z</time>
      </trkpt>
      <trkpt lat="45.64416" lon="4.81665">
        <ele>165.96472167969</ele>
        <time>2010-05-09T15:55:50Z</time>
      </trkpt>
      <trkpt lat="45.64425" lon="4.81653">
        <ele>165.96472167969</ele>
        <time>2010-05-09T15:55:54Z</time>
      </trkpt>
      <trkpt lat="45.64434" lon="4.81662">
        <ele>165.96472167969</ele>
        <time>2010-05-09T15:55:57Z</time>
      </trkpt>
      <trkpt lat="45.64437" lon="4.81666">
        <ele>165.96472167969</ele>
        <time>2010-05-09T15:55:58Z</time>
      </trkpt>
      <trkpt lat="45.64454" lon="4.81696">
        <ele>165.48413085938</ele>
        <time>2010-05-09T15:56:04Z</time>
      </trkpt>
      <trkpt lat="45.64458" lon="4.81707">
        <ele>165.48413085938</ele>
        <time>2010-05-09T15:56:06Z</time>
      </trkpt>
      <trkpt lat="45.64487" lon="4.81754">
        <ele>165.48413085938</ele>
        <time>2010-05-09T15:56:14Z</time>
      </trkpt>
      <trkpt lat="45.64495" lon="4.81771">
        <ele>164.52270507812</ele>
        <time>2010-05-09T15:56:19Z</time>
      </trkpt>
      <trkpt lat="45.64496" lon="4.81769">
        <ele>165.00341796875</ele>
        <time>2010-05-09T15:56:26Z</time>
      </trkpt>
      <trkpt lat="45.64504" lon="4.81785">
        <ele>165.48413085938</ele>
        <time>2010-05-09T15:56:31Z</time>
      </trkpt>
      <trkpt lat="45.64509" lon="4.81797">
        <ele>165.00341796875</ele>
        <time>2010-05-09T15:56:34Z</time>
      </trkpt>
      <trkpt lat="45.64521" lon="4.81813">
        <ele>165.48413085938</ele>
        <time>2010-05-09T15:56:39Z</time>
      </trkpt>
      <trkpt lat="45.64537" lon="4.81837">
        <ele>165.96472167969</ele>
        <time>2010-05-09T15:56:45Z</time>
      </trkpt>
      <trkpt lat="45.64553" lon="4.81865">
        <ele>165.48413085938</ele>
        <time>2010-05-09T15:56:50Z</time>
      </trkpt>
      <trkpt lat="45.64569" lon="4.81891">
        <ele>165.48413085938</ele>
        <time>2010-05-09T15:56:55Z</time>
      </trkpt>
      <trkpt lat="45.64571" lon="4.81895">
        <ele>165.48413085938</ele>
        <time>2010-05-09T15:56:56Z</time>
      </trkpt>
      <trkpt lat="45.64583" lon="4.81912">
        <ele>165.96472167969</ele>
        <time>2010-05-09T15:57:00Z</time>
      </trkpt>
      <trkpt lat="45.64596" lon="4.8193">
        <ele>165.96472167969</ele>
        <time>2010-05-09T15:57:05Z</time>
      </trkpt>
      <trkpt lat="45.64598" lon="4.81934">
        <ele>165.96472167969</ele>
        <time>2010-05-09T15:57:06Z</time>
      </trkpt>
      <trkpt lat="45.64605" lon="4.81944">
        <ele>165.48413085938</ele>
        <time>2010-05-09T15:57:09Z</time>
      </trkpt>
      <trkpt lat="45.64613" lon="4.81963">
        <ele>165.48413085938</ele>
        <time>2010-05-09T15:57:13Z</time>
      </trkpt>
      <trkpt lat="45.64628" lon="4.81992">
        <ele>165.96472167969</ele>
        <time>2010-05-09T15:57:18Z</time>
      </trkpt>
      <trkpt lat="45.64643" lon="4.82024">
        <ele>165.96472167969</ele>
        <time>2010-05-09T15:57:23Z</time>
      </trkpt>
      <trkpt lat="45.64652" lon="4.82048">
        <ele>165.96472167969</ele>
        <time>2010-05-09T15:57:26Z</time>
      </trkpt>
      <trkpt lat="45.64659" lon="4.82062">
        <ele>165.48413085938</ele>
        <time>2010-05-09T15:57:28Z</time>
      </trkpt>
      <trkpt lat="45.64666" lon="4.82085">
        <ele>165.96472167969</ele>
        <time>2010-05-09T15:57:31Z</time>
      </trkpt>
      <trkpt lat="45.64679" lon="4.8212">
        <ele>165.96472167969</ele>
        <time>2010-05-09T15:57:36Z</time>
      </trkpt>
      <trkpt lat="45.64688" lon="4.82137">
        <ele>166.4453125</ele>
        <time>2010-05-09T15:57:40Z</time>
      </trkpt>
      <trkpt lat="45.64693" lon="4.82154">
        <ele>166.4453125</ele>
        <time>2010-05-09T15:57:43Z</time>
      </trkpt>
      <trkpt lat="45.64695" lon="4.82158">
        <ele>166.92602539062</ele>
        <time>2010-05-09T15:57:44Z</time>
      </trkpt>
      <trkpt lat="45.64709" lon="4.82185">
        <ele>166.4453125</ele>
        <time>2010-05-09T15:57:48Z</time>
      </trkpt>
      <trkpt lat="45.64722" lon="4.82215">
        <ele>166.4453125</ele>
        <time>2010-05-09T15:57:53Z</time>
      </trkpt>
      <trkpt lat="45.64724" lon="4.82222">
        <ele>166.4453125</ele>
        <time>2010-05-09T15:57:54Z</time>
      </trkpt>
      <trkpt lat="45.64737" lon="4.82255">
        <ele>166.92602539062</ele>
        <time>2010-05-09T15:57:59Z</time>
      </trkpt>
      <trkpt lat="45.6475" lon="4.8229">
        <ele>166.92602539062</ele>
        <time>2010-05-09T15:58:04Z</time>
      </trkpt>
      <trkpt lat="45.64763" lon="4.82312">
        <ele>166.4453125</ele>
        <time>2010-05-09T15:58:09Z</time>
      </trkpt>
      <trkpt lat="45.64769" lon="4.82317">
        <ele>166.92602539062</ele>
        <time>2010-05-09T15:58:12Z</time>
      </trkpt>
      <trkpt lat="45.64774" lon="4.82323">
        <ele>165.96472167969</ele>
        <time>2010-05-09T15:58:17Z</time>
      </trkpt>
      <trkpt lat="45.64779" lon="4.82343">
        <ele>166.4453125</ele>
        <time>2010-05-09T15:58:22Z</time>
      </trkpt>
      <trkpt lat="45.64785" lon="4.82359">
        <ele>166.4453125</ele>
        <time>2010-05-09T15:58:26Z</time>
      </trkpt>
      <trkpt lat="45.64797" lon="4.82369">
        <ele>165.96472167969</ele>
        <time>2010-05-09T15:58:30Z</time>
      </trkpt>
      <trkpt lat="45.64803" lon="4.82382">
        <ele>166.4453125</ele>
        <time>2010-05-09T15:58:33Z</time>
      </trkpt>
      <trkpt lat="45.64808" lon="4.82403">
        <ele>166.4453125</ele>
        <time>2010-05-09T15:58:38Z</time>
      </trkpt>
      <trkpt lat="45.64813" lon="4.8241">
        <ele>166.4453125</ele>
        <time>2010-05-09T15:58:40Z</time>
      </trkpt>
      <trkpt lat="45.64827" lon="4.8243">
        <ele>166.4453125</ele>
        <time>2010-05-09T15:58:46Z</time>
      </trkpt>
      <trkpt lat="45.64841" lon="4.82445">
        <ele>165.96472167969</ele>
        <time>2010-05-09T15:58:51Z</time>
      </trkpt>
      <trkpt lat="45.64852" lon="4.82468">
        <ele>165.96472167969</ele>
        <time>2010-05-09T15:58:56Z</time>
      </trkpt>
      <trkpt lat="45.64859" lon="4.8249">
        <ele>166.4453125</ele>
        <time>2010-05-09T15:59:00Z</time>
      </trkpt>
      <trkpt lat="45.64862" lon="4.82499">
        <ele>166.4453125</ele>
        <time>2010-05-09T15:59:03Z</time>
      </trkpt>
      <trkpt lat="45.6487" lon="4.82504">
        <ele>166.4453125</ele>
        <time>2010-05-09T15:59:07Z</time>
      </trkpt>
      <trkpt lat="45.6488" lon="4.82517">
        <ele>165.96472167969</ele>
        <time>2010-05-09T15:59:11Z</time>
      </trkpt>
      <trkpt lat="45.64886" lon="4.8253">
        <ele>165.96472167969</ele>
        <time>2010-05-09T15:59:14Z</time>
      </trkpt>
      <trkpt lat="45.64887" lon="4.82534">
        <ele>165.96472167969</ele>
        <time>2010-05-09T15:59:15Z</time>
      </trkpt>
      <trkpt lat="45.64891" lon="4.82546">
        <ele>165.96472167969</ele>
        <time>2010-05-09T15:59:20Z</time>
      </trkpt>
      <trkpt lat="45.64893" lon="4.82549">
        <ele>166.4453125</ele>
        <time>2010-05-09T15:59:22Z</time>
      </trkpt>
      <trkpt lat="45.64892" lon="4.82564">
        <ele>165.96472167969</ele>
        <time>2010-05-09T15:59:27Z</time>
      </trkpt>
      <trkpt lat="45.64898" lon="4.82569">
        <ele>166.4453125</ele>
        <time>2010-05-09T15:59:30Z</time>
      </trkpt>
      <trkpt lat="45.64903" lon="4.82575">
        <ele>166.4453125</ele>
        <time>2010-05-09T15:59:32Z</time>
      </trkpt>
      <trkpt lat="45.64914" lon="4.82596">
        <ele>166.4453125</ele>
        <time>2010-05-09T15:59:37Z</time>
      </trkpt>
      <trkpt lat="45.64921" lon="4.82604">
        <ele>166.4453125</ele>
        <time>2010-05-09T15:59:40Z</time>
      </trkpt>
      <trkpt lat="45.64926" lon="4.82616">
        <ele>166.92602539062</ele>
        <time>2010-05-09T15:59:44Z</time>
      </trkpt>
      <trkpt lat="45.64936" lon="4.82634">
        <ele>166.4453125</ele>
        <time>2010-05-09T15:59:49Z</time>
      </trkpt>
      <trkpt lat="45.64948" lon="4.82649">
        <ele>166.4453125</ele>
        <time>2010-05-09T15:59:53Z</time>
      </trkpt>
      <trkpt lat="45.64956" lon="4.82664">
        <ele>165.96472167969</ele>
        <time>2010-05-09T15:59:57Z</time>
      </trkpt>
      <trkpt lat="45.64958" lon="4.82667">
        <ele>165.96472167969</ele>
        <time>2010-05-09T15:59:59Z</time>
      </trkpt>
      <trkpt lat="45.64958" lon="4.82671">
        <ele>167.88732910156</ele>
        <time>2010-05-09T16:00:02Z</time>
      </trkpt>
      <trkpt lat="45.64961" lon="4.82678">
        <ele>168.36804199219</ele>
        <time>2010-05-09T16:00:06Z</time>
      </trkpt>
      <trkpt lat="45.64969" lon="4.8269">
        <ele>168.84875488281</ele>
        <time>2010-05-09T16:00:11Z</time>
      </trkpt>
      <trkpt lat="45.64973" lon="4.82693">
        <ele>168.84875488281</ele>
        <time>2010-05-09T16:00:12Z</time>
      </trkpt>
      <trkpt lat="45.65001" lon="4.82714">
        <ele>168.84875488281</ele>
        <time>2010-05-09T16:00:19Z</time>
      </trkpt>
      <trkpt lat="45.65012" lon="4.82728">
        <ele>169.32946777344</ele>
        <time>2010-05-09T16:00:23Z</time>
      </trkpt>
      <trkpt lat="45.65026" lon="4.82736">
        <ele>168.36804199219</ele>
        <time>2010-05-09T16:00:27Z</time>
      </trkpt>
      <trkpt lat="45.65041" lon="4.82751">
        <ele>168.84875488281</ele>
        <time>2010-05-09T16:00:32Z</time>
      </trkpt>
      <trkpt lat="45.65049" lon="4.82758">
        <ele>167.88732910156</ele>
        <time>2010-05-09T16:00:35Z</time>
      </trkpt>
      <trkpt lat="45.65062" lon="4.82766">
        <ele>167.88732910156</ele>
        <time>2010-05-09T16:00:40Z</time>
      </trkpt>
      <trkpt lat="45.65076" lon="4.82771">
        <ele>167.88732910156</ele>
        <time>2010-05-09T16:00:45Z</time>
      </trkpt>
      <trkpt lat="45.65089" lon="4.8278">
        <ele>168.36804199219</ele>
        <time>2010-05-09T16:00:50Z</time>
      </trkpt>
      <trkpt lat="45.65107" lon="4.82796">
        <ele>167.88732910156</ele>
        <time>2010-05-09T16:00:56Z</time>
      </trkpt>
      <trkpt lat="45.65109" lon="4.828">
        <ele>167.88732910156</ele>
        <time>2010-05-09T16:00:57Z</time>
      </trkpt>
      <trkpt lat="45.65122" lon="4.82809">
        <ele>167.88732910156</ele>
        <time>2010-05-09T16:01:01Z</time>
      </trkpt>
      <trkpt lat="45.65128" lon="4.82815">
        <ele>167.88732910156</ele>
        <time>2010-05-09T16:01:03Z</time>
      </trkpt>
      <trkpt lat="45.65146" lon="4.82829">
        <ele>167.40673828125</ele>
        <time>2010-05-09T16:01:08Z</time>
      </trkpt>
      <trkpt lat="45.65158" lon="4.82839">
        <ele>167.88732910156</ele>
        <time>2010-05-09T16:01:12Z</time>
      </trkpt>
      <trkpt lat="45.65172" lon="4.82845">
        <ele>167.88732910156</ele>
        <time>2010-05-09T16:01:16Z</time>
      </trkpt>
      <trkpt lat="45.65184" lon="4.82857">
        <ele>168.36804199219</ele>
        <time>2010-05-09T16:01:22Z</time>
      </trkpt>
      <trkpt lat="45.65194" lon="4.82866">
        <ele>168.36804199219</ele>
        <time>2010-05-09T16:01:25Z</time>
      </trkpt>
      <trkpt lat="45.65211" lon="4.8288">
        <ele>168.84875488281</ele>
        <time>2010-05-09T16:01:30Z</time>
      </trkpt>
      <trkpt lat="45.65229" lon="4.8289">
        <ele>168.36804199219</ele>
        <time>2010-05-09T16:01:34Z</time>
      </trkpt>
      <trkpt lat="45.65233" lon="4.82888">
        <ele>167.88732910156</ele>
        <time>2010-05-09T16:01:38Z</time>
      </trkpt>
      <trkpt lat="45.65237" lon="4.82886">
        <ele>166.4453125</ele>
        <time>2010-05-09T16:01:41Z</time>
      </trkpt>
      <trkpt lat="45.6524" lon="4.82886">
        <ele>165.48413085938</ele>
        <time>2010-05-09T16:01:45Z</time>
      </trkpt>
      <trkpt lat="45.65245" lon="4.82886">
        <ele>165.96472167969</ele>
        <time>2010-05-09T16:01:51Z</time>
      </trkpt>
      <trkpt lat="45.65254" lon="4.82889">
        <ele>165.48413085938</ele>
        <time>2010-05-09T16:01:58Z</time>
      </trkpt>
      <trkpt lat="45.65261" lon="4.82891">
        <ele>165.96472167969</ele>
        <time>2010-05-09T16:02:01Z</time>
      </trkpt>
      <trkpt lat="45.65269" lon="4.82898">
        <ele>165.96472167969</ele>
        <time>2010-05-09T16:02:07Z</time>
      </trkpt>
      <trkpt lat="45.65274" lon="4.82901">
        <ele>165.96472167969</ele>
        <time>2010-05-09T16:02:09Z</time>
      </trkpt>
      <trkpt lat="45.65287" lon="4.82914">
        <ele>165.96472167969</ele>
        <time>2010-05-09T16:02:15Z</time>
      </trkpt>
      <trkpt lat="45.653" lon="4.82925">
        <ele>165.96472167969</ele>
        <time>2010-05-09T16:02:19Z</time>
      </trkpt>
      <trkpt lat="45.6532" lon="4.82936">
        <ele>166.4453125</ele>
        <time>2010-05-09T16:02:24Z</time>
      </trkpt>
      <trkpt lat="45.65334" lon="4.82936">
        <ele>165.96472167969</ele>
        <time>2010-05-09T16:02:28Z</time>
      </trkpt>
      <trkpt lat="45.65349" lon="4.82936">
        <ele>165.48413085938</ele>
        <time>2010-05-09T16:02:32Z</time>
      </trkpt>
      <trkpt lat="45.6535" lon="4.82937">
        <ele>165.48413085938</ele>
        <time>2010-05-09T16:02:37Z</time>
      </trkpt>
      <trkpt lat="45.65351" lon="4.82938">
        <ele>165.48413085938</ele>
        <time>2010-05-09T16:02:38Z</time>
      </trkpt>
      <trkpt lat="45.65362" lon="4.82942">
        <ele>165.48413085938</ele>
        <time>2010-05-09T16:02:42Z</time>
      </trkpt>
      <trkpt lat="45.65383" lon="4.82949">
        <ele>165.96472167969</ele>
        <time>2010-05-09T16:02:47Z</time>
      </trkpt>
      <trkpt lat="45.65414" lon="4.82962">
        <ele>165.48413085938</ele>
        <time>2010-05-09T16:02:54Z</time>
      </trkpt>
      <trkpt lat="45.65432" lon="4.82974">
        <ele>165.96472167969</ele>
        <time>2010-05-09T16:02:59Z</time>
      </trkpt>
      <trkpt lat="45.6544" lon="4.82979">
        <ele>165.96472167969</ele>
        <time>2010-05-09T16:03:01Z</time>
      </trkpt>
      <trkpt lat="45.65448" lon="4.82983">
        <ele>165.96472167969</ele>
        <time>2010-05-09T16:03:04Z</time>
      </trkpt>
      <trkpt lat="45.65465" lon="4.82991">
        <ele>165.96472167969</ele>
        <time>2010-05-09T16:03:09Z</time>
      </trkpt>
      <trkpt lat="45.65474" lon="4.82992">
        <ele>165.96472167969</ele>
        <time>2010-05-09T16:03:12Z</time>
      </trkpt>
      <trkpt lat="45.65489" lon="4.83004">
        <ele>166.4453125</ele>
        <time>2010-05-09T16:03:17Z</time>
      </trkpt>
      <trkpt lat="45.65505" lon="4.83012">
        <ele>166.4453125</ele>
        <time>2010-05-09T16:03:22Z</time>
      </trkpt>
      <trkpt lat="45.65512" lon="4.8302">
        <ele>166.4453125</ele>
        <time>2010-05-09T16:03:25Z</time>
      </trkpt>
      <trkpt lat="45.65528" lon="4.83034">
        <ele>166.4453125</ele>
        <time>2010-05-09T16:03:31Z</time>
      </trkpt>
      <trkpt lat="45.65536" lon="4.83037">
        <ele>166.4453125</ele>
        <time>2010-05-09T16:03:33Z</time>
      </trkpt>
      <trkpt lat="45.65541" lon="4.83052">
        <ele>165.96472167969</ele>
        <time>2010-05-09T16:03:38Z</time>
      </trkpt>
      <trkpt lat="45.65543" lon="4.83065">
        <ele>166.4453125</ele>
        <time>2010-05-09T16:03:42Z</time>
      </trkpt>
      <trkpt lat="45.65554" lon="4.83075">
        <ele>165.00341796875</ele>
        <time>2010-05-09T16:03:46Z</time>
      </trkpt>
      <trkpt lat="45.65577" lon="4.8308">
        <ele>165.48413085938</ele>
        <time>2010-05-09T16:03:51Z</time>
      </trkpt>
      <trkpt lat="45.65592" lon="4.83087">
        <ele>165.48413085938</ele>
        <time>2010-05-09T16:03:55Z</time>
      </trkpt>
      <trkpt lat="45.65602" lon="4.83095">
        <ele>165.96472167969</ele>
        <time>2010-05-09T16:03:59Z</time>
      </trkpt>
      <trkpt lat="45.65614" lon="4.83096">
        <ele>165.48413085938</ele>
        <time>2010-05-09T16:04:03Z</time>
      </trkpt>
      <trkpt lat="45.65622" lon="4.83103">
        <ele>165.48413085938</ele>
        <time>2010-05-09T16:04:06Z</time>
      </trkpt>
      <trkpt lat="45.65637" lon="4.83108">
        <ele>165.96472167969</ele>
        <time>2010-05-09T16:04:11Z</time>
      </trkpt>
      <trkpt lat="45.65647" lon="4.83105">
        <ele>165.96472167969</ele>
        <time>2010-05-09T16:04:14Z</time>
      </trkpt>
      <trkpt lat="45.65656" lon="4.83106">
        <ele>165.96472167969</ele>
        <time>2010-05-09T16:04:17Z</time>
      </trkpt>
      <trkpt lat="45.65661" lon="4.83114">
        <ele>167.88732910156</ele>
        <time>2010-05-09T16:04:20Z</time>
      </trkpt>
      <trkpt lat="45.65665" lon="4.83116">
        <ele>168.36804199219</ele>
        <time>2010-05-09T16:04:22Z</time>
      </trkpt>
      <trkpt lat="45.65679" lon="4.83109">
        <ele>168.36804199219</ele>
        <time>2010-05-09T16:04:27Z</time>
      </trkpt>
      <trkpt lat="45.65691" lon="4.83113">
        <ele>168.36804199219</ele>
        <time>2010-05-09T16:04:30Z</time>
      </trkpt>
      <trkpt lat="45.65699" lon="4.83116">
        <ele>168.84875488281</ele>
        <time>2010-05-09T16:04:32Z</time>
      </trkpt>
      <trkpt lat="45.65718" lon="4.83126">
        <ele>168.84875488281</ele>
        <time>2010-05-09T16:04:37Z</time>
      </trkpt>
      <trkpt lat="45.65743" lon="4.83144">
        <ele>169.32946777344</ele>
        <time>2010-05-09T16:04:43Z</time>
      </trkpt>
      <trkpt lat="45.65754" lon="4.8315">
        <ele>168.84875488281</ele>
        <time>2010-05-09T16:04:45Z</time>
      </trkpt>
      <trkpt lat="45.65795" lon="4.8317">
        <ele>168.84875488281</ele>
        <time>2010-05-09T16:04:53Z</time>
      </trkpt>
      <trkpt lat="45.65819" lon="4.83182">
        <ele>168.36804199219</ele>
        <time>2010-05-09T16:04:57Z</time>
      </trkpt>
      <trkpt lat="45.65855" lon="4.83197">
        <ele>168.84875488281</ele>
        <time>2010-05-09T16:05:03Z</time>
      </trkpt>
      <trkpt lat="45.65878" lon="4.83208">
        <ele>168.84875488281</ele>
        <time>2010-05-09T16:05:07Z</time>
      </trkpt>
      <trkpt lat="45.65899" lon="4.83207">
        <ele>169.32946777344</ele>
        <time>2010-05-09T16:05:11Z</time>
      </trkpt>
      <trkpt lat="45.6591" lon="4.83198">
        <ele>168.84875488281</ele>
        <time>2010-05-09T16:05:13Z</time>
      </trkpt>
      <trkpt lat="45.65926" lon="4.83185">
        <ele>168.84875488281</ele>
        <time>2010-05-09T16:05:16Z</time>
      </trkpt>
      <trkpt lat="45.65941" lon="4.83172">
        <ele>168.36804199219</ele>
        <time>2010-05-09T16:05:19Z</time>
      </trkpt>
      <trkpt lat="45.65965" lon="4.83161">
        <ele>168.36804199219</ele>
        <time>2010-05-09T16:05:23Z</time>
      </trkpt>
      <trkpt lat="45.66002" lon="4.8316">
        <ele>168.36804199219</ele>
        <time>2010-05-09T16:05:29Z</time>
      </trkpt>
      <trkpt lat="45.66037" lon="4.83165">
        <ele>168.84875488281</ele>
        <time>2010-05-09T16:05:35Z</time>
      </trkpt>
      <trkpt lat="45.6608" lon="4.83164">
        <ele>169.32946777344</ele>
        <time>2010-05-09T16:05:42Z</time>
      </trkpt>
      <trkpt lat="45.66135" lon="4.83162">
        <ele>169.32946777344</ele>
        <time>2010-05-09T16:05:51Z</time>
      </trkpt>
      <trkpt lat="45.66179" lon="4.83164">
        <ele>169.81005859375</ele>
        <time>2010-05-09T16:05:59Z</time>
      </trkpt>
      <trkpt lat="45.66224" lon="4.83167">
        <ele>169.32946777344</ele>
        <time>2010-05-09T16:06:08Z</time>
      </trkpt>
      <trkpt lat="45.66259" lon="4.8317">
        <ele>169.32946777344</ele>
        <time>2010-05-09T16:06:15Z</time>
      </trkpt>
      <trkpt lat="45.66298" lon="4.83177">
        <ele>169.81005859375</ele>
        <time>2010-05-09T16:06:23Z</time>
      </trkpt>
      <trkpt lat="45.66324" lon="4.83172">
        <ele>168.36804199219</ele>
        <time>2010-05-09T16:06:28Z</time>
      </trkpt>
      <trkpt lat="45.66341" lon="4.83174">
        <ele>167.88732910156</ele>
        <time>2010-05-09T16:06:31Z</time>
      </trkpt>
      <trkpt lat="45.66386" lon="4.83175">
        <ele>168.84875488281</ele>
        <time>2010-05-09T16:06:39Z</time>
      </trkpt>
      <trkpt lat="45.66419" lon="4.83182">
        <ele>168.36804199219</ele>
        <time>2010-05-09T16:06:45Z</time>
      </trkpt>
      <trkpt lat="45.66449" lon="4.83187">
        <ele>168.36804199219</ele>
        <time>2010-05-09T16:06:50Z</time>
      </trkpt>
      <trkpt lat="45.66472" lon="4.8319">
        <ele>168.36804199219</ele>
        <time>2010-05-09T16:06:54Z</time>
      </trkpt>
      <trkpt lat="45.66478" lon="4.8319">
        <ele>168.36804199219</ele>
        <time>2010-05-09T16:06:55Z</time>
      </trkpt>
      <trkpt lat="45.66493" lon="4.83194">
        <ele>170.29064941406</ele>
        <time>2010-05-09T16:06:58Z</time>
      </trkpt>
      <trkpt lat="45.66515" lon="4.83196">
        <ele>170.29064941406</ele>
        <time>2010-05-09T16:07:02Z</time>
      </trkpt>
      <trkpt lat="45.66542" lon="4.83201">
        <ele>170.29064941406</ele>
        <time>2010-05-09T16:07:07Z</time>
      </trkpt>
      <trkpt lat="45.66577" lon="4.83217">
        <ele>170.29064941406</ele>
        <time>2010-05-09T16:07:14Z</time>
      </trkpt>
      <trkpt lat="45.6661" lon="4.83231">
        <ele>170.29064941406</ele>
        <time>2010-05-09T16:07:20Z</time>
      </trkpt>
      <trkpt lat="45.66626" lon="4.83238">
        <ele>170.29064941406</ele>
        <time>2010-05-09T16:07:23Z</time>
      </trkpt>
      <trkpt lat="45.66649" lon="4.83247">
        <ele>169.81005859375</ele>
        <time>2010-05-09T16:07:28Z</time>
      </trkpt>
      <trkpt lat="45.66678" lon="4.83264">
        <ele>169.81005859375</ele>
        <time>2010-05-09T16:07:35Z</time>
      </trkpt>
      <trkpt lat="45.66681" lon="4.83268">
        <ele>169.81005859375</ele>
        <time>2010-05-09T16:07:36Z</time>
      </trkpt>
      <trkpt lat="45.66685" lon="4.83298">
        <ele>168.36804199219</ele>
        <time>2010-05-09T16:07:40Z</time>
      </trkpt>
      <trkpt lat="45.66685" lon="4.83345">
        <ele>168.36804199219</ele>
        <time>2010-05-09T16:07:46Z</time>
      </trkpt>
      <trkpt lat="45.66682" lon="4.83392">
        <ele>168.36804199219</ele>
        <time>2010-05-09T16:07:52Z</time>
      </trkpt>
      <trkpt lat="45.66679" lon="4.83439">
        <ele>168.36804199219</ele>
        <time>2010-05-09T16:07:58Z</time>
      </trkpt>
      <trkpt lat="45.66678" lon="4.83462">
        <ele>168.36804199219</ele>
        <time>2010-05-09T16:08:01Z</time>
      </trkpt>
      <trkpt lat="45.66676" lon="4.83523">
        <ele>168.84875488281</ele>
        <time>2010-05-09T16:08:09Z</time>
      </trkpt>
      <trkpt lat="45.66676" lon="4.8353">
        <ele>169.32946777344</ele>
        <time>2010-05-09T16:08:10Z</time>
      </trkpt>
      <trkpt lat="45.66673" lon="4.8358">
        <ele>170.29064941406</ele>
        <time>2010-05-09T16:08:18Z</time>
      </trkpt>
      <trkpt lat="45.66669" lon="4.83636">
        <ele>172.69396972656</ele>
        <time>2010-05-09T16:08:28Z</time>
      </trkpt>
      <trkpt lat="45.66668" lon="4.83649">
        <ele>173.6552734375</ele>
        <time>2010-05-09T16:08:31Z</time>
      </trkpt>
      <trkpt lat="45.66664" lon="4.83655">
        <ele>173.6552734375</ele>
        <time>2010-05-09T16:08:36Z</time>
      </trkpt>
      <trkpt lat="45.66664" lon="4.83653">
        <ele>173.6552734375</ele>
        <time>2010-05-09T16:08:51Z</time>
      </trkpt>
      <trkpt lat="45.66665" lon="4.83645">
        <ele>173.6552734375</ele>
        <time>2010-05-09T16:09:53Z</time>
      </trkpt>
      <trkpt lat="45.66669" lon="4.83657">
        <ele>174.13586425781</ele>
        <time>2010-05-09T16:09:58Z</time>
      </trkpt>
      <trkpt lat="45.66669" lon="4.83667">
        <ele>174.13586425781</ele>
        <time>2010-05-09T16:10:00Z</time>
      </trkpt>
      <trkpt lat="45.66665" lon="4.83713">
        <ele>175.09729003906</ele>
        <time>2010-05-09T16:10:07Z</time>
      </trkpt>
      <trkpt lat="45.66661" lon="4.83778">
        <ele>175.57788085938</ele>
        <time>2010-05-09T16:10:16Z</time>
      </trkpt>
      <trkpt lat="45.66657" lon="4.83839">
        <ele>174.61657714844</ele>
        <time>2010-05-09T16:10:24Z</time>
      </trkpt>
      <trkpt lat="45.66653" lon="4.83905">
        <ele>174.13586425781</ele>
        <time>2010-05-09T16:10:32Z</time>
      </trkpt>
      <trkpt lat="45.66647" lon="4.83971">
        <ele>173.6552734375</ele>
        <time>2010-05-09T16:10:39Z</time>
      </trkpt>
      <trkpt lat="45.66646" lon="4.84001">
        <ele>173.6552734375</ele>
        <time>2010-05-09T16:10:42Z</time>
      </trkpt>
      <trkpt lat="45.6664" lon="4.84088">
        <ele>174.13586425781</ele>
        <time>2010-05-09T16:10:52Z</time>
      </trkpt>
      <trkpt lat="45.66636" lon="4.84153">
        <ele>174.61657714844</ele>
        <time>2010-05-09T16:11:00Z</time>
      </trkpt>
      <trkpt lat="45.66632" lon="4.84213">
        <ele>174.61657714844</ele>
        <time>2010-05-09T16:11:07Z</time>
      </trkpt>
      <trkpt lat="45.66626" lon="4.84299">
        <ele>174.13586425781</ele>
        <time>2010-05-09T16:11:16Z</time>
      </trkpt>
      <trkpt lat="45.66621" lon="4.84367">
        <ele>173.6552734375</ele>
        <time>2010-05-09T16:11:23Z</time>
      </trkpt>
      <trkpt lat="45.66617" lon="4.84442">
        <ele>174.13586425781</ele>
        <time>2010-05-09T16:11:31Z</time>
      </trkpt>
      <trkpt lat="45.66613" lon="4.84524">
        <ele>172.21325683594</ele>
        <time>2010-05-09T16:11:40Z</time>
      </trkpt>
      <trkpt lat="45.66612" lon="4.84555">
        <ele>170.77136230469</ele>
        <time>2010-05-09T16:11:43Z</time>
      </trkpt>
      <trkpt lat="45.66608" lon="4.84616">
        <ele>169.32946777344</ele>
        <time>2010-05-09T16:11:49Z</time>
      </trkpt>
      <trkpt lat="45.66592" lon="4.84633">
        <ele>168.36804199219</ele>
        <time>2010-05-09T16:11:53Z</time>
      </trkpt>
      <trkpt lat="45.66576" lon="4.84633">
        <ele>168.84875488281</ele>
        <time>2010-05-09T16:11:56Z</time>
      </trkpt>
      <trkpt lat="45.66523" lon="4.84636">
        <ele>168.36804199219</ele>
        <time>2010-05-09T16:12:05Z</time>
      </trkpt>
      <trkpt lat="45.66479" lon="4.8464">
        <ele>168.36804199219</ele>
        <time>2010-05-09T16:12:12Z</time>
      </trkpt>
      <trkpt lat="45.66448" lon="4.84643">
        <ele>168.84875488281</ele>
        <time>2010-05-09T16:12:17Z</time>
      </trkpt>
      <trkpt lat="45.6644" lon="4.84661">
        <ele>167.88732910156</ele>
        <time>2010-05-09T16:12:20Z</time>
      </trkpt>
      <trkpt lat="45.66444" lon="4.84677">
        <ele>167.88732910156</ele>
        <time>2010-05-09T16:12:22Z</time>
      </trkpt>
      <trkpt lat="45.66469" lon="4.84733">
        <ele>167.88732910156</ele>
        <time>2010-05-09T16:12:30Z</time>
      </trkpt>
      <trkpt lat="45.66507" lon="4.84782">
        <ele>168.36804199219</ele>
        <time>2010-05-09T16:12:39Z</time>
      </trkpt>
      <trkpt lat="45.66528" lon="4.84819">
        <ele>168.36804199219</ele>
        <time>2010-05-09T16:12:45Z</time>
      </trkpt>
      <trkpt lat="45.66542" lon="4.84856">
        <ele>168.84875488281</ele>
        <time>2010-05-09T16:12:51Z</time>
      </trkpt>
      <trkpt lat="45.66545" lon="4.84882">
        <ele>168.84875488281</ele>
        <time>2010-05-09T16:12:55Z</time>
      </trkpt>
      <trkpt lat="45.66545" lon="4.84952">
        <ele>170.29064941406</ele>
        <time>2010-05-09T16:13:05Z</time>
      </trkpt>
      <trkpt lat="45.66544" lon="4.84988">
        <ele>170.77136230469</ele>
        <time>2010-05-09T16:13:11Z</time>
      </trkpt>
      <trkpt lat="45.66544" lon="4.84993">
        <ele>170.29064941406</ele>
        <time>2010-05-09T16:13:12Z</time>
      </trkpt>
      <trkpt lat="45.66552" lon="4.85003">
        <ele>170.77136230469</ele>
        <time>2010-05-09T16:13:16Z</time>
      </trkpt>
      <trkpt lat="45.66555" lon="4.85004">
        <ele>170.77136230469</ele>
        <time>2010-05-09T16:13:17Z</time>
      </trkpt>
      <trkpt lat="45.6658" lon="4.85002">
        <ele>171.73266601562</ele>
        <time>2010-05-09T16:13:24Z</time>
      </trkpt>
      <trkpt lat="45.66589" lon="4.85002">
        <ele>171.73266601562</ele>
        <time>2010-05-09T16:13:27Z</time>
      </trkpt>
      <trkpt lat="45.66594" lon="4.85003">
        <ele>171.73266601562</ele>
        <time>2010-05-09T16:13:33Z</time>
      </trkpt>
      <trkpt lat="45.66588" lon="4.85005">
        <ele>170.77136230469</ele>
        <time>2010-05-09T16:14:56Z</time>
      </trkpt>
      <trkpt lat="45.66581" lon="4.85015">
        <ele>170.77136230469</ele>
        <time>2010-05-09T16:15:02Z</time>
      </trkpt>
      <trkpt lat="45.6658" lon="4.85029">
        <ele>171.25207519531</ele>
        <time>2010-05-09T16:15:05Z</time>
      </trkpt>
      <trkpt lat="45.66579" lon="4.85038">
        <ele>170.77136230469</ele>
        <time>2010-05-09T16:15:07Z</time>
      </trkpt>
      <trkpt lat="45.6659" lon="4.8504">
        <ele>170.77136230469</ele>
        <time>2010-05-09T16:15:11Z</time>
      </trkpt>
      <trkpt lat="45.66598" lon="4.8504">
        <ele>171.25207519531</ele>
        <time>2010-05-09T16:15:13Z</time>
      </trkpt>
      <trkpt lat="45.66626" lon="4.85045">
        <ele>170.77136230469</ele>
        <time>2010-05-09T16:15:19Z</time>
      </trkpt>
      <trkpt lat="45.66661" lon="4.85052">
        <ele>170.29064941406</ele>
        <time>2010-05-09T16:15:26Z</time>
      </trkpt>
      <trkpt lat="45.66681" lon="4.85055">
        <ele>169.81005859375</ele>
        <time>2010-05-09T16:15:29Z</time>
      </trkpt>
      <trkpt lat="45.66715" lon="4.8506">
        <ele>169.32946777344</ele>
        <time>2010-05-09T16:15:34Z</time>
      </trkpt>
      <trkpt lat="45.66728" lon="4.85064">
        <ele>169.32946777344</ele>
        <time>2010-05-09T16:15:36Z</time>
      </trkpt>
      <trkpt lat="45.66748" lon="4.85085">
        <ele>168.84875488281</ele>
        <time>2010-05-09T16:15:40Z</time>
      </trkpt>
      <trkpt lat="45.66758" lon="4.85087">
        <ele>169.32946777344</ele>
        <time>2010-05-09T16:15:42Z</time>
      </trkpt>
      <trkpt lat="45.66763" lon="4.85083">
        <ele>168.84875488281</ele>
        <time>2010-05-09T16:15:43Z</time>
      </trkpt>
      <trkpt lat="45.66793" lon="4.85069">
        <ele>168.36804199219</ele>
        <time>2010-05-09T16:15:48Z</time>
      </trkpt>
      <trkpt lat="45.66857" lon="4.85065">
        <ele>166.92602539062</ele>
        <time>2010-05-09T16:15:57Z</time>
      </trkpt>
      <trkpt lat="45.66919" lon="4.85049">
        <ele>166.4453125</ele>
        <time>2010-05-09T16:16:06Z</time>
      </trkpt>
      <trkpt lat="45.66964" lon="4.85036">
        <ele>166.92602539062</ele>
        <time>2010-05-09T16:16:13Z</time>
      </trkpt>
      <trkpt lat="45.67012" lon="4.85025">
        <ele>166.92602539062</ele>
        <time>2010-05-09T16:16:21Z</time>
      </trkpt>
      <trkpt lat="45.67058" lon="4.85017">
        <ele>166.92602539062</ele>
        <time>2010-05-09T16:16:28Z</time>
      </trkpt>
      <trkpt lat="45.67112" lon="4.85005">
        <ele>167.40673828125</ele>
        <time>2010-05-09T16:16:36Z</time>
      </trkpt>
      <trkpt lat="45.67139" lon="4.84999">
        <ele>166.92602539062</ele>
        <time>2010-05-09T16:16:40Z</time>
      </trkpt>
      <trkpt lat="45.67152" lon="4.85018">
        <ele>167.40673828125</ele>
        <time>2010-05-09T16:16:43Z</time>
      </trkpt>
      <trkpt lat="45.67148" lon="4.85036">
        <ele>165.96472167969</ele>
        <time>2010-05-09T16:16:45Z</time>
      </trkpt>
      <trkpt lat="45.6712" lon="4.85086">
        <ele>165.96472167969</ele>
        <time>2010-05-09T16:16:52Z</time>
      </trkpt>
      <trkpt lat="45.67088" lon="4.85149">
        <ele>166.4453125</ele>
        <time>2010-05-09T16:17:01Z</time>
      </trkpt>
      <trkpt lat="45.67056" lon="4.8521">
        <ele>166.4453125</ele>
        <time>2010-05-09T16:17:10Z</time>
      </trkpt>
      <trkpt lat="45.67028" lon="4.85268">
        <ele>165.96472167969</ele>
        <time>2010-05-09T16:17:18Z</time>
      </trkpt>
      <trkpt lat="45.66993" lon="4.85332">
        <ele>166.92602539062</ele>
        <time>2010-05-09T16:17:28Z</time>
      </trkpt>
      <trkpt lat="45.66975" lon="4.85368">
        <ele>167.88732910156</ele>
        <time>2010-05-09T16:17:35Z</time>
      </trkpt>
      <trkpt lat="45.66971" lon="4.85375">
        <ele>168.84875488281</ele>
        <time>2010-05-09T16:17:37Z</time>
      </trkpt>
      <trkpt lat="45.66962" lon="4.85374">
        <ele>168.84875488281</ele>
        <time>2010-05-09T16:17:41Z</time>
      </trkpt>
      <trkpt lat="45.66928" lon="4.85358">
        <ele>168.84875488281</ele>
        <time>2010-05-09T16:17:49Z</time>
      </trkpt>
      <trkpt lat="45.66879" lon="4.85335">
        <ele>168.36804199219</ele>
        <time>2010-05-09T16:17:58Z</time>
      </trkpt>
      <trkpt lat="45.66832" lon="4.85313">
        <ele>168.36804199219</ele>
        <time>2010-05-09T16:18:07Z</time>
      </trkpt>
      <trkpt lat="45.66806" lon="4.85301">
        <ele>168.36804199219</ele>
        <time>2010-05-09T16:18:13Z</time>
      </trkpt>
      <trkpt lat="45.66799" lon="4.85312">
        <ele>168.36804199219</ele>
        <time>2010-05-09T16:18:17Z</time>
      </trkpt>
      <trkpt lat="45.66797" lon="4.8534">
        <ele>168.84875488281</ele>
        <time>2010-05-09T16:18:23Z</time>
      </trkpt>
      <trkpt lat="45.66795" lon="4.85359">
        <ele>168.84875488281</ele>
        <time>2010-05-09T16:18:28Z</time>
      </trkpt>
      <trkpt lat="45.66792" lon="4.85379">
        <ele>169.81005859375</ele>
        <time>2010-05-09T16:18:33Z</time>
      </trkpt>
      <trkpt lat="45.66793" lon="4.85392">
        <ele>169.81005859375</ele>
        <time>2010-05-09T16:18:36Z</time>
      </trkpt>
      <trkpt lat="45.66797" lon="4.85397">
        <ele>170.29064941406</ele>
        <time>2010-05-09T16:18:38Z</time>
      </trkpt>
      <trkpt lat="45.66816" lon="4.85407">
        <ele>171.25207519531</ele>
        <time>2010-05-09T16:18:44Z</time>
      </trkpt>
      <trkpt lat="45.66845" lon="4.8541">
        <ele>172.21325683594</ele>
        <time>2010-05-09T16:18:51Z</time>
      </trkpt>
      <trkpt lat="45.66875" lon="4.85416">
        <ele>172.69396972656</ele>
        <time>2010-05-09T16:18:58Z</time>
      </trkpt>
      <trkpt lat="45.66913" lon="4.85431">
        <ele>173.17468261719</ele>
        <time>2010-05-09T16:19:06Z</time>
      </trkpt>
      <trkpt lat="45.66941" lon="4.85449">
        <ele>173.17468261719</ele>
        <time>2010-05-09T16:19:13Z</time>
      </trkpt>
      <trkpt lat="45.66953" lon="4.85463">
        <ele>174.61657714844</ele>
        <time>2010-05-09T16:19:18Z</time>
      </trkpt>
      <trkpt lat="45.66956" lon="4.85471">
        <ele>176.53930664062</ele>
        <time>2010-05-09T16:19:22Z</time>
      </trkpt>
      <trkpt lat="45.66953" lon="4.85483">
        <ele>177.98120117188</ele>
        <time>2010-05-09T16:19:27Z</time>
      </trkpt>
      <trkpt lat="45.66947" lon="4.85493">
        <ele>179.90380859375</ele>
        <time>2010-05-09T16:19:33Z</time>
      </trkpt>
      <trkpt lat="45.66938" lon="4.85501">
        <ele>182.30712890625</ele>
        <time>2010-05-09T16:19:39Z</time>
      </trkpt>
      <trkpt lat="45.66932" lon="4.85508">
        <ele>183.7490234375</ele>
        <time>2010-05-09T16:19:44Z</time>
      </trkpt>
      <trkpt lat="45.66923" lon="4.85512">
        <ele>185.67175292969</ele>
        <time>2010-05-09T16:19:50Z</time>
      </trkpt>
      <trkpt lat="45.66916" lon="4.85516">
        <ele>187.11376953125</ele>
        <time>2010-05-09T16:19:56Z</time>
      </trkpt>
      <trkpt lat="45.66906" lon="4.85519">
        <ele>189.03637695312</ele>
        <time>2010-05-09T16:20:03Z</time>
      </trkpt>
      <trkpt lat="45.66903" lon="4.85519">
        <ele>189.99768066406</ele>
        <time>2010-05-09T16:20:05Z</time>
      </trkpt>
      <trkpt lat="45.66902" lon="4.8552">
        <ele>189.99768066406</ele>
        <time>2010-05-09T16:20:06Z</time>
      </trkpt>
      <trkpt lat="45.66893" lon="4.85526">
        <ele>191.43957519531</ele>
        <time>2010-05-09T16:20:14Z</time>
      </trkpt>
      <trkpt lat="45.6689" lon="4.8553">
        <ele>191.92028808594</ele>
        <time>2010-05-09T16:20:17Z</time>
      </trkpt>
      <trkpt lat="45.66881" lon="4.85538">
        <ele>194.80432128906</ele>
        <time>2010-05-09T16:20:24Z</time>
      </trkpt>
      <trkpt lat="45.6687" lon="4.85553">
        <ele>196.72692871094</ele>
        <time>2010-05-09T16:20:33Z</time>
      </trkpt>
      <trkpt lat="45.66862" lon="4.85564">
        <ele>199.61083984375</ele>
        <time>2010-05-09T16:20:40Z</time>
      </trkpt>
      <trkpt lat="45.66859" lon="4.85578">
        <ele>200.572265625</ele>
        <time>2010-05-09T16:20:46Z</time>
      </trkpt>
      <trkpt lat="45.66861" lon="4.85598">
        <ele>202.01428222656</ele>
        <time>2010-05-09T16:20:52Z</time>
      </trkpt>
      <trkpt lat="45.66859" lon="4.85618">
        <ele>202.97546386719</ele>
        <time>2010-05-09T16:20:59Z</time>
      </trkpt>
      <trkpt lat="45.66859" lon="4.8562">
        <ele>202.97546386719</ele>
        <time>2010-05-09T16:21:00Z</time>
      </trkpt>
      <trkpt lat="45.66867" lon="4.85634">
        <ele>203.93688964844</ele>
        <time>2010-05-09T16:21:06Z</time>
      </trkpt>
      <trkpt lat="45.6687" lon="4.85634">
        <ele>203.93688964844</ele>
        <time>2010-05-09T16:21:07Z</time>
      </trkpt>
      <trkpt lat="45.66889" lon="4.85641">
        <ele>205.85949707031</ele>
        <time>2010-05-09T16:21:16Z</time>
      </trkpt>
      <trkpt lat="45.66912" lon="4.85644">
        <ele>207.30139160156</ele>
        <time>2010-05-09T16:21:26Z</time>
      </trkpt>
      <trkpt lat="45.66934" lon="4.85647">
        <ele>207.30139160156</ele>
        <time>2010-05-09T16:21:34Z</time>
      </trkpt>
      <trkpt lat="45.66957" lon="4.85654">
        <ele>209.22412109375</ele>
        <time>2010-05-09T16:21:42Z</time>
      </trkpt>
      <trkpt lat="45.66976" lon="4.85661">
        <ele>209.70483398438</ele>
        <time>2010-05-09T16:21:48Z</time>
      </trkpt>
      <trkpt lat="45.66994" lon="4.85671">
        <ele>210.666015625</ele>
        <time>2010-05-09T16:21:54Z</time>
      </trkpt>
      <trkpt lat="45.66992" lon="4.85683">
        <ele>210.666015625</ele>
        <time>2010-05-09T16:21:58Z</time>
      </trkpt>
      <trkpt lat="45.6699" lon="4.85692">
        <ele>210.666015625</ele>
        <time>2010-05-09T16:22:00Z</time>
      </trkpt>
      <trkpt lat="45.66985" lon="4.85737">
        <ele>211.62744140625</ele>
        <time>2010-05-09T16:22:08Z</time>
      </trkpt>
      <trkpt lat="45.66984" lon="4.85743">
        <ele>211.62744140625</ele>
        <time>2010-05-09T16:22:09Z</time>
      </trkpt>
      <trkpt lat="45.66983" lon="4.85789">
        <ele>211.14672851562</ele>
        <time>2010-05-09T16:22:16Z</time>
      </trkpt>
      <trkpt lat="45.66982" lon="4.85802">
        <ele>211.14672851562</ele>
        <time>2010-05-09T16:22:18Z</time>
      </trkpt>
      <trkpt lat="45.6698" lon="4.85844">
        <ele>211.14672851562</ele>
        <time>2010-05-09T16:22:24Z</time>
      </trkpt>
      <trkpt lat="45.66979" lon="4.85872">
        <ele>211.14672851562</ele>
        <time>2010-05-09T16:22:28Z</time>
      </trkpt>
      <trkpt lat="45.66977" lon="4.85918">
        <ele>211.14672851562</ele>
        <time>2010-05-09T16:22:35Z</time>
      </trkpt>
      <trkpt lat="45.66975" lon="4.85964">
        <ele>211.62744140625</ele>
        <time>2010-05-09T16:22:42Z</time>
      </trkpt>
      <trkpt lat="45.66982" lon="4.85984">
        <ele>212.10803222656</ele>
        <time>2010-05-09T16:22:46Z</time>
      </trkpt>
      <trkpt lat="45.66991" lon="4.85995">
        <ele>213.55004882812</ele>
        <time>2010-05-09T16:22:50Z</time>
      </trkpt>
      <trkpt lat="45.67024" lon="4.86003">
        <ele>215.95324707031</ele>
        <time>2010-05-09T16:23:01Z</time>
      </trkpt>
      <trkpt lat="45.67042" lon="4.8601">
        <ele>217.8759765625</ele>
        <time>2010-05-09T16:23:08Z</time>
      </trkpt>
      <trkpt lat="45.67043" lon="4.86026">
        <ele>217.8759765625</ele>
        <time>2010-05-09T16:23:12Z</time>
      </trkpt>
      <trkpt lat="45.6704" lon="4.8607">
        <ele>218.83728027344</ele>
        <time>2010-05-09T16:23:21Z</time>
      </trkpt>
      <trkpt lat="45.67036" lon="4.86117">
        <ele>219.79858398438</ele>
        <time>2010-05-09T16:23:30Z</time>
      </trkpt>
      <trkpt lat="45.6704" lon="4.86138">
        <ele>220.75988769531</ele>
        <time>2010-05-09T16:23:34Z</time>
      </trkpt>
      <trkpt lat="45.67049" lon="4.86166">
        <ele>221.24060058594</ele>
        <time>2010-05-09T16:23:40Z</time>
      </trkpt>
      <trkpt lat="45.67059" lon="4.86179">
        <ele>223.16320800781</ele>
        <time>2010-05-09T16:23:45Z</time>
      </trkpt>
      <trkpt lat="45.67078" lon="4.86187">
        <ele>224.60522460938</ele>
        <time>2010-05-09T16:23:52Z</time>
      </trkpt>
      <trkpt lat="45.67097" lon="4.86186">
        <ele>225.56652832031</ele>
        <time>2010-05-09T16:23:59Z</time>
      </trkpt>
      <trkpt lat="45.67102" lon="4.86173">
        <ele>225.56652832031</ele>
        <time>2010-05-09T16:24:03Z</time>
      </trkpt>
      <trkpt lat="45.67101" lon="4.86133">
        <ele>227.00854492188</ele>
        <time>2010-05-09T16:24:11Z</time>
      </trkpt>
      <trkpt lat="45.67104" lon="4.86113">
        <ele>227.00854492188</ele>
        <time>2010-05-09T16:24:15Z</time>
      </trkpt>
      <trkpt lat="45.67116" lon="4.86107">
        <ele>227.48913574219</ele>
        <time>2010-05-09T16:24:19Z</time>
      </trkpt>
      <trkpt lat="45.67138" lon="4.86111">
        <ele>228.45043945312</ele>
        <time>2010-05-09T16:24:26Z</time>
      </trkpt>
      <trkpt lat="45.67144" lon="4.86112">
        <ele>229.89233398438</ele>
        <time>2010-05-09T16:24:28Z</time>
      </trkpt>
      <trkpt lat="45.67165" lon="4.86114">
        <ele>231.81494140625</ele>
        <time>2010-05-09T16:24:35Z</time>
      </trkpt>
      <trkpt lat="45.67196" lon="4.86114">
        <ele>233.73767089844</ele>
        <time>2010-05-09T16:24:44Z</time>
      </trkpt>
      <trkpt lat="45.67223" lon="4.86107">
        <ele>234.21838378906</ele>
        <time>2010-05-09T16:24:52Z</time>
      </trkpt>
      <trkpt lat="45.67249" lon="4.86101">
        <ele>234.21838378906</ele>
        <time>2010-05-09T16:24:59Z</time>
      </trkpt>
      <trkpt lat="45.67256" lon="4.86099">
        <ele>234.21838378906</ele>
        <time>2010-05-09T16:25:01Z</time>
      </trkpt>
      <trkpt lat="45.6727" lon="4.86107">
        <ele>233.73767089844</ele>
        <time>2010-05-09T16:25:05Z</time>
      </trkpt>
      <trkpt lat="45.67275" lon="4.86121">
        <ele>233.73767089844</ele>
        <time>2010-05-09T16:25:10Z</time>
      </trkpt>
      <trkpt lat="45.67279" lon="4.86127">
        <ele>233.25708007812</ele>
        <time>2010-05-09T16:25:14Z</time>
      </trkpt>
      <trkpt lat="45.67286" lon="4.86125">
        <ele>233.25708007812</ele>
        <time>2010-05-09T16:25:18Z</time>
      </trkpt>
      <trkpt lat="45.67301" lon="4.86113">
        <ele>233.73767089844</ele>
        <time>2010-05-09T16:25:23Z</time>
      </trkpt>
      <trkpt lat="45.67305" lon="4.86111">
        <ele>233.25708007812</ele>
        <time>2010-05-09T16:25:24Z</time>
      </trkpt>
      <trkpt lat="45.67312" lon="4.86105">
        <ele>232.77648925781</ele>
        <time>2010-05-09T16:25:26Z</time>
      </trkpt>
      <trkpt lat="45.67327" lon="4.86107">
        <ele>232.29577636719</ele>
        <time>2010-05-09T16:25:30Z</time>
      </trkpt>
      <trkpt lat="45.67334" lon="4.86125">
        <ele>231.81494140625</ele>
        <time>2010-05-09T16:25:33Z</time>
      </trkpt>
      <trkpt lat="45.67346" lon="4.86181">
        <ele>231.33435058594</ele>
        <time>2010-05-09T16:25:40Z</time>
      </trkpt>
      <trkpt lat="45.67363" lon="4.86251">
        <ele>230.85375976562</ele>
        <time>2010-05-09T16:25:48Z</time>
      </trkpt>
      <trkpt lat="45.67381" lon="4.86329">
        <ele>230.85375976562</ele>
        <time>2010-05-09T16:25:57Z</time>
      </trkpt>
      <trkpt lat="45.674" lon="4.86403">
        <ele>230.373046875</ele>
        <time>2010-05-09T16:26:05Z</time>
      </trkpt>
      <trkpt lat="45.67403" lon="4.8642">
        <ele>230.85375976562</ele>
        <time>2010-05-09T16:26:07Z</time>
      </trkpt>
      <trkpt lat="45.67421" lon="4.86438">
        <ele>229.89233398438</ele>
        <time>2010-05-09T16:26:11Z</time>
      </trkpt>
      <trkpt lat="45.67434" lon="4.86437">
        <ele>228.93115234375</ele>
        <time>2010-05-09T16:26:13Z</time>
      </trkpt>
      <trkpt lat="45.6744" lon="4.86436">
        <ele>227.48913574219</ele>
        <time>2010-05-09T16:26:14Z</time>
      </trkpt>
      <trkpt lat="45.67463" lon="4.86435">
        <ele>226.04711914062</ele>
        <time>2010-05-09T16:26:17Z</time>
      </trkpt>
      <trkpt lat="45.67492" lon="4.86433">
        <ele>225.0859375</ele>
        <time>2010-05-09T16:26:21Z</time>
      </trkpt>
      <trkpt lat="45.6753" lon="4.86427">
        <ele>222.68249511719</ele>
        <time>2010-05-09T16:26:26Z</time>
      </trkpt>
      <trkpt lat="45.67538" lon="4.86425">
        <ele>222.68249511719</ele>
        <time>2010-05-09T16:26:27Z</time>
      </trkpt>
      <trkpt lat="45.67558" lon="4.86442">
        <ele>221.24060058594</ele>
        <time>2010-05-09T16:26:30Z</time>
      </trkpt>
      <trkpt lat="45.67559" lon="4.86453">
        <ele>221.24060058594</ele>
        <time>2010-05-09T16:26:31Z</time>
      </trkpt>
      <trkpt lat="45.67575" lon="4.86464">
        <ele>221.24060058594</ele>
        <time>2010-05-09T16:26:34Z</time>
      </trkpt>
      <trkpt lat="45.67611" lon="4.8646">
        <ele>218.83728027344</ele>
        <time>2010-05-09T16:26:39Z</time>
      </trkpt>
      <trkpt lat="45.67628" lon="4.86457">
        <ele>217.8759765625</ele>
        <time>2010-05-09T16:26:42Z</time>
      </trkpt>
      <trkpt lat="45.67635" lon="4.86449">
        <ele>216.91467285156</ele>
        <time>2010-05-09T16:26:44Z</time>
      </trkpt>
      <trkpt lat="45.67636" lon="4.86426">
        <ele>216.91467285156</ele>
        <time>2010-05-09T16:26:47Z</time>
      </trkpt>
      <trkpt lat="45.67646" lon="4.86419">
        <ele>215.95324707031</ele>
        <time>2010-05-09T16:26:49Z</time>
      </trkpt>
      <trkpt lat="45.67693" lon="4.8642">
        <ele>214.51123046875</ele>
        <time>2010-05-09T16:26:56Z</time>
      </trkpt>
      <trkpt lat="45.67714" lon="4.86422">
        <ele>213.55004882812</ele>
        <time>2010-05-09T16:26:59Z</time>
      </trkpt>
      <trkpt lat="45.67733" lon="4.86414">
        <ele>213.55004882812</ele>
        <time>2010-05-09T16:27:02Z</time>
      </trkpt>
      <trkpt lat="45.67736" lon="4.86396">
        <ele>213.55004882812</ele>
        <time>2010-05-09T16:27:04Z</time>
      </trkpt>
      <trkpt lat="45.6774" lon="4.86385">
        <ele>213.0693359375</ele>
        <time>2010-05-09T16:27:06Z</time>
      </trkpt>
      <trkpt lat="45.67744" lon="4.86384">
        <ele>212.58862304688</ele>
        <time>2010-05-09T16:27:07Z</time>
      </trkpt>
      <trkpt lat="45.67787" lon="4.86383">
        <ele>212.58862304688</ele>
        <time>2010-05-09T16:27:14Z</time>
      </trkpt>
      <trkpt lat="45.67806" lon="4.86385">
        <ele>212.10803222656</ele>
        <time>2010-05-09T16:27:17Z</time>
      </trkpt>
      <trkpt lat="45.67824" lon="4.86364">
        <ele>212.10803222656</ele>
        <time>2010-05-09T16:27:21Z</time>
      </trkpt>
      <trkpt lat="45.67833" lon="4.86343">
        <ele>212.10803222656</ele>
        <time>2010-05-09T16:27:24Z</time>
      </trkpt>
      <trkpt lat="45.67845" lon="4.86347">
        <ele>211.62744140625</ele>
        <time>2010-05-09T16:27:26Z</time>
      </trkpt>
      <trkpt lat="45.6785" lon="4.86351">
        <ele>211.14672851562</ele>
        <time>2010-05-09T16:27:27Z</time>
      </trkpt>
      <trkpt lat="45.67898" lon="4.86394">
        <ele>210.666015625</ele>
        <time>2010-05-09T16:27:35Z</time>
      </trkpt>
      <trkpt lat="45.6795" lon="4.86454">
        <ele>209.70483398438</ele>
        <time>2010-05-09T16:27:44Z</time>
      </trkpt>
      <trkpt lat="45.68005" lon="4.8652">
        <ele>209.70483398438</ele>
        <time>2010-05-09T16:27:54Z</time>
      </trkpt>
      <trkpt lat="45.68047" lon="4.86581">
        <ele>210.18542480469</ele>
        <time>2010-05-09T16:28:03Z</time>
      </trkpt>
      <trkpt lat="45.68073" lon="4.8662">
        <ele>210.666015625</ele>
        <time>2010-05-09T16:28:09Z</time>
      </trkpt>
      <trkpt lat="45.68103" lon="4.86666">
        <ele>210.666015625</ele>
        <time>2010-05-09T16:28:16Z</time>
      </trkpt>
      <trkpt lat="45.68123" lon="4.867">
        <ele>211.62744140625</ele>
        <time>2010-05-09T16:28:21Z</time>
      </trkpt>
      <trkpt lat="45.68132" lon="4.86712">
        <ele>211.62744140625</ele>
        <time>2010-05-09T16:28:23Z</time>
      </trkpt>
      <trkpt lat="45.68173" lon="4.86774">
        <ele>210.18542480469</ele>
        <time>2010-05-09T16:28:32Z</time>
      </trkpt>
      <trkpt lat="45.68216" lon="4.86839">
        <ele>208.26281738281</ele>
        <time>2010-05-09T16:28:40Z</time>
      </trkpt>
      <trkpt lat="45.68245" lon="4.86899">
        <ele>206.82067871094</ele>
        <time>2010-05-09T16:28:46Z</time>
      </trkpt>
      <trkpt lat="45.68282" lon="4.86987">
        <ele>203.93688964844</ele>
        <time>2010-05-09T16:28:54Z</time>
      </trkpt>
      <trkpt lat="45.68288" lon="4.86997">
        <ele>203.45617675781</ele>
        <time>2010-05-09T16:28:55Z</time>
      </trkpt>
      <trkpt lat="45.68338" lon="4.87062">
        <ele>202.49487304688</ele>
        <time>2010-05-09T16:29:03Z</time>
      </trkpt>
      <trkpt lat="45.68387" lon="4.87127">
        <ele>203.45617675781</ele>
        <time>2010-05-09T16:29:11Z</time>
      </trkpt>
      <trkpt lat="45.68431" lon="4.8719">
        <ele>202.01428222656</ele>
        <time>2010-05-09T16:29:19Z</time>
      </trkpt>
      <trkpt lat="45.68488" lon="4.87273">
        <ele>201.05285644531</ele>
        <time>2010-05-09T16:29:30Z</time>
      </trkpt>
      <trkpt lat="45.68525" lon="4.87328">
        <ele>201.05285644531</ele>
        <time>2010-05-09T16:29:38Z</time>
      </trkpt>
      <trkpt lat="45.6855" lon="4.87364">
        <ele>202.01428222656</ele>
        <time>2010-05-09T16:29:44Z</time>
      </trkpt>
      <trkpt lat="45.68564" lon="4.87383">
        <ele>202.49487304688</ele>
        <time>2010-05-09T16:29:48Z</time>
      </trkpt>
      <trkpt lat="45.68599" lon="4.87419">
        <ele>204.41748046875</ele>
        <time>2010-05-09T16:29:57Z</time>
      </trkpt>
      <trkpt lat="45.68631" lon="4.87439">
        <ele>204.89807128906</ele>
        <time>2010-05-09T16:30:04Z</time>
      </trkpt>
      <trkpt lat="45.68683" lon="4.87464">
        <ele>203.93688964844</ele>
        <time>2010-05-09T16:30:14Z</time>
      </trkpt>
      <trkpt lat="45.68716" lon="4.87472">
        <ele>203.45617675781</ele>
        <time>2010-05-09T16:30:19Z</time>
      </trkpt>
      <trkpt lat="45.68768" lon="4.87472">
        <ele>201.53356933594</ele>
        <time>2010-05-09T16:30:26Z</time>
      </trkpt>
      <trkpt lat="45.68806" lon="4.87474">
        <ele>202.49487304688</ele>
        <time>2010-05-09T16:30:32Z</time>
      </trkpt>
      <trkpt lat="45.68818" lon="4.87476">
        <ele>203.45617675781</ele>
        <time>2010-05-09T16:30:34Z</time>
      </trkpt>
      <trkpt lat="45.6884" lon="4.87495">
        <ele>203.93688964844</ele>
        <time>2010-05-09T16:30:39Z</time>
      </trkpt>
      <trkpt lat="45.68846" lon="4.87523">
        <ele>203.45617675781</ele>
        <time>2010-05-09T16:30:42Z</time>
      </trkpt>
      <trkpt lat="45.6885" lon="4.87605">
        <ele>202.97546386719</ele>
        <time>2010-05-09T16:30:51Z</time>
      </trkpt>
      <trkpt lat="45.68856" lon="4.87693">
        <ele>202.01428222656</ele>
        <time>2010-05-09T16:31:00Z</time>
      </trkpt>
      <trkpt lat="45.68861" lon="4.87757">
        <ele>200.572265625</ele>
        <time>2010-05-09T16:31:07Z</time>
      </trkpt>
      <trkpt lat="45.68874" lon="4.87797">
        <ele>200.09167480469</ele>
        <time>2010-05-09T16:31:12Z</time>
      </trkpt>
      <trkpt lat="45.68877" lon="4.87804">
        <ele>199.61083984375</ele>
        <time>2010-05-09T16:31:13Z</time>
      </trkpt>
      <trkpt lat="45.68883" lon="4.87858">
        <ele>197.68823242188</ele>
        <time>2010-05-09T16:31:19Z</time>
      </trkpt>
      <trkpt lat="45.68893" lon="4.87898">
        <ele>198.1689453125</ele>
        <time>2010-05-09T16:31:24Z</time>
      </trkpt>
      <trkpt lat="45.68915" lon="4.87939">
        <ele>197.20751953125</ele>
        <time>2010-05-09T16:31:30Z</time>
      </trkpt>
      <trkpt lat="45.68952" lon="4.87999">
        <ele>197.68823242188</ele>
        <time>2010-05-09T16:31:39Z</time>
      </trkpt>
      <trkpt lat="45.68982" lon="4.88042">
        <ele>197.68823242188</ele>
        <time>2010-05-09T16:31:46Z</time>
      </trkpt>
      <trkpt lat="45.69027" lon="4.88091">
        <ele>197.68823242188</ele>
        <time>2010-05-09T16:31:55Z</time>
      </trkpt>
      <trkpt lat="45.6907" lon="4.88134">
        <ele>196.72692871094</ele>
        <time>2010-05-09T16:32:03Z</time>
      </trkpt>
      <trkpt lat="45.69098" lon="4.88154">
        <ele>196.72692871094</ele>
        <time>2010-05-09T16:32:08Z</time>
      </trkpt>
      <trkpt lat="45.69116" lon="4.8817">
        <ele>196.72692871094</ele>
        <time>2010-05-09T16:32:13Z</time>
      </trkpt>
      <trkpt lat="45.69118" lon="4.8817">
        <ele>196.24633789062</ele>
        <time>2010-05-09T16:32:17Z</time>
      </trkpt>
      <trkpt lat="45.69127" lon="4.88173">
        <ele>196.72692871094</ele>
        <time>2010-05-09T16:32:24Z</time>
      </trkpt>
      <trkpt lat="45.6914" lon="4.88173">
        <ele>196.72692871094</ele>
        <time>2010-05-09T16:32:28Z</time>
      </trkpt>
      <trkpt lat="45.69168" lon="4.8819">
        <ele>197.20751953125</ele>
        <time>2010-05-09T16:32:34Z</time>
      </trkpt>
      <trkpt lat="45.69208" lon="4.88216">
        <ele>197.20751953125</ele>
        <time>2010-05-09T16:32:41Z</time>
      </trkpt>
      <trkpt lat="45.69274" lon="4.88261">
        <ele>196.24633789062</ele>
        <time>2010-05-09T16:32:52Z</time>
      </trkpt>
      <trkpt lat="45.69312" lon="4.88289">
        <ele>195.765625</ele>
        <time>2010-05-09T16:32:58Z</time>
      </trkpt>
      <trkpt lat="45.69354" lon="4.88318">
        <ele>195.28491210938</ele>
        <time>2010-05-09T16:33:05Z</time>
      </trkpt>
      <trkpt lat="45.69392" lon="4.88341">
        <ele>194.32373046875</ele>
        <time>2010-05-09T16:33:11Z</time>
      </trkpt>
      <trkpt lat="45.69433" lon="4.88357">
        <ele>192.88171386719</ele>
        <time>2010-05-09T16:33:17Z</time>
      </trkpt>
      <trkpt lat="45.69477" lon="4.88366">
        <ele>192.40112304688</ele>
        <time>2010-05-09T16:33:23Z</time>
      </trkpt>
      <trkpt lat="45.69513" lon="4.88374">
        <ele>191.92028808594</ele>
        <time>2010-05-09T16:33:28Z</time>
      </trkpt>
      <trkpt lat="45.69554" lon="4.88383">
        <ele>191.92028808594</ele>
        <time>2010-05-09T16:33:34Z</time>
      </trkpt>
      <trkpt lat="45.69593" lon="4.88388">
        <ele>191.92028808594</ele>
        <time>2010-05-09T16:33:40Z</time>
      </trkpt>
      <trkpt lat="45.69625" lon="4.88386">
        <ele>191.92028808594</ele>
        <time>2010-05-09T16:33:46Z</time>
      </trkpt>
      <trkpt lat="45.69631" lon="4.88391">
        <ele>190.958984375</ele>
        <time>2010-05-09T16:33:50Z</time>
      </trkpt>
      <trkpt lat="45.69633" lon="4.88392">
        <ele>190.958984375</ele>
        <time>2010-05-09T16:34:40Z</time>
      </trkpt>
      <trkpt lat="45.69643" lon="4.88393">
        <ele>191.43957519531</ele>
        <time>2010-05-09T16:34:44Z</time>
      </trkpt>
      <trkpt lat="45.69651" lon="4.88388">
        <ele>191.43957519531</ele>
        <time>2010-05-09T16:34:47Z</time>
      </trkpt>
      <trkpt lat="45.69672" lon="4.88371">
        <ele>190.958984375</ele>
        <time>2010-05-09T16:34:54Z</time>
      </trkpt>
      <trkpt lat="45.69696" lon="4.88364">
        <ele>191.43957519531</ele>
        <time>2010-05-09T16:34:59Z</time>
      </trkpt>
      <trkpt lat="45.69739" lon="4.88354">
        <ele>190.958984375</ele>
        <time>2010-05-09T16:35:07Z</time>
      </trkpt>
      <trkpt lat="45.69772" lon="4.88344">
        <ele>190.47839355469</ele>
        <time>2010-05-09T16:35:13Z</time>
      </trkpt>
      <trkpt lat="45.69807" lon="4.88325">
        <ele>190.958984375</ele>
        <time>2010-05-09T16:35:19Z</time>
      </trkpt>
      <trkpt lat="45.69829" lon="4.88336">
        <ele>190.47839355469</ele>
        <time>2010-05-09T16:35:23Z</time>
      </trkpt>
      <trkpt lat="45.69834" lon="4.88341">
        <ele>190.958984375</ele>
        <time>2010-05-09T16:35:24Z</time>
      </trkpt>
      <trkpt lat="45.69844" lon="4.88371">
        <ele>190.958984375</ele>
        <time>2010-05-09T16:35:28Z</time>
      </trkpt>
      <trkpt lat="45.69847" lon="4.88418">
        <ele>191.43957519531</ele>
        <time>2010-05-09T16:35:34Z</time>
      </trkpt>
      <trkpt lat="45.69857" lon="4.88438">
        <ele>191.43957519531</ele>
        <time>2010-05-09T16:35:38Z</time>
      </trkpt>
      <trkpt lat="45.6986" lon="4.88442">
        <ele>191.43957519531</ele>
        <time>2010-05-09T16:35:39Z</time>
      </trkpt>
      <trkpt lat="45.69878" lon="4.88464">
        <ele>192.40112304688</ele>
        <time>2010-05-09T16:35:44Z</time>
      </trkpt>
      <trkpt lat="45.69886" lon="4.88474">
        <ele>191.92028808594</ele>
        <time>2010-05-09T16:35:46Z</time>
      </trkpt>
      <trkpt lat="45.69915" lon="4.88469">
        <ele>191.92028808594</ele>
        <time>2010-05-09T16:35:52Z</time>
      </trkpt>
      <trkpt lat="45.69925" lon="4.88464">
        <ele>191.43957519531</ele>
        <time>2010-05-09T16:35:54Z</time>
      </trkpt>
      <trkpt lat="45.69943" lon="4.88465">
        <ele>192.88171386719</ele>
        <time>2010-05-09T16:35:58Z</time>
      </trkpt>
      <trkpt lat="45.69971" lon="4.88467">
        <ele>193.3623046875</ele>
        <time>2010-05-09T16:36:04Z</time>
      </trkpt>
      <trkpt lat="45.69975" lon="4.88466">
        <ele>193.84301757812</ele>
        <time>2010-05-09T16:36:05Z</time>
      </trkpt>
      <trkpt lat="45.6999" lon="4.88449">
        <ele>193.3623046875</ele>
        <time>2010-05-09T16:36:09Z</time>
      </trkpt>
      <trkpt lat="45.70002" lon="4.88437">
        <ele>192.40112304688</ele>
        <time>2010-05-09T16:36:12Z</time>
      </trkpt>
      <trkpt lat="45.70016" lon="4.88445">
        <ele>191.92028808594</ele>
        <time>2010-05-09T16:36:15Z</time>
      </trkpt>
      <trkpt lat="45.70021" lon="4.88464">
        <ele>192.88171386719</ele>
        <time>2010-05-09T16:36:18Z</time>
      </trkpt>
      <trkpt lat="45.70023" lon="4.88486">
        <ele>192.40112304688</ele>
        <time>2010-05-09T16:36:23Z</time>
      </trkpt>
      <trkpt lat="45.70025" lon="4.88508">
        <ele>193.3623046875</ele>
        <time>2010-05-09T16:36:28Z</time>
      </trkpt>
      <trkpt lat="45.70031" lon="4.88551">
        <ele>194.32373046875</ele>
        <time>2010-05-09T16:36:35Z</time>
      </trkpt>
      <trkpt lat="45.70032" lon="4.88556">
        <ele>194.32373046875</ele>
        <time>2010-05-09T16:36:36Z</time>
      </trkpt>
      <trkpt lat="45.70046" lon="4.88563">
        <ele>194.32373046875</ele>
        <time>2010-05-09T16:36:40Z</time>
      </trkpt>
      <trkpt lat="45.7005" lon="4.8856">
        <ele>194.80432128906</ele>
        <time>2010-05-09T16:36:41Z</time>
      </trkpt>
      <trkpt lat="45.70064" lon="4.88552">
        <ele>194.80432128906</ele>
        <time>2010-05-09T16:36:44Z</time>
      </trkpt>
      <trkpt lat="45.70087" lon="4.88542">
        <ele>194.80432128906</ele>
        <time>2010-05-09T16:36:49Z</time>
      </trkpt>
      <trkpt lat="45.701" lon="4.88536">
        <ele>195.28491210938</ele>
        <time>2010-05-09T16:36:52Z</time>
      </trkpt>
      <trkpt lat="45.7012" lon="4.88522">
        <ele>195.28491210938</ele>
        <time>2010-05-09T16:36:57Z</time>
      </trkpt>
      <trkpt lat="45.70142" lon="4.88513">
        <ele>196.24633789062</ele>
        <time>2010-05-09T16:37:01Z</time>
      </trkpt>
      <trkpt lat="45.70181" lon="4.88507">
        <ele>197.20751953125</ele>
        <time>2010-05-09T16:37:09Z</time>
      </trkpt>
      <trkpt lat="45.70201" lon="4.88503">
        <ele>196.72692871094</ele>
        <time>2010-05-09T16:37:13Z</time>
      </trkpt>
      <trkpt lat="45.70223" lon="4.885">
        <ele>197.20751953125</ele>
        <time>2010-05-09T16:37:18Z</time>
      </trkpt>
      <trkpt lat="45.70235" lon="4.8851">
        <ele>197.20751953125</ele>
        <time>2010-05-09T16:37:22Z</time>
      </trkpt>
      <trkpt lat="45.7025" lon="4.88517">
        <ele>198.1689453125</ele>
        <time>2010-05-09T16:37:26Z</time>
      </trkpt>
      <trkpt lat="45.70295" lon="4.88513">
        <ele>198.1689453125</ele>
        <time>2010-05-09T16:37:35Z</time>
      </trkpt>
      <trkpt lat="45.703" lon="4.88514">
        <ele>198.64953613281</ele>
        <time>2010-05-09T16:37:36Z</time>
      </trkpt>
      <trkpt lat="45.70344" lon="4.88526">
        <ele>198.1689453125</ele>
        <time>2010-05-09T16:37:44Z</time>
      </trkpt>
      <trkpt lat="45.70383" lon="4.8853">
        <ele>195.765625</ele>
        <time>2010-05-09T16:37:50Z</time>
      </trkpt>
      <trkpt lat="45.70419" lon="4.88525">
        <ele>195.765625</ele>
        <time>2010-05-09T16:37:55Z</time>
      </trkpt>
      <trkpt lat="45.70426" lon="4.88523">
        <ele>194.80432128906</ele>
        <time>2010-05-09T16:37:56Z</time>
      </trkpt>
      <trkpt lat="45.70454" lon="4.88528">
        <ele>194.32373046875</ele>
        <time>2010-05-09T16:38:00Z</time>
      </trkpt>
      <trkpt lat="45.70461" lon="4.88524">
        <ele>194.80432128906</ele>
        <time>2010-05-09T16:38:01Z</time>
      </trkpt>
      <trkpt lat="45.70501" lon="4.8851">
        <ele>192.88171386719</ele>
        <time>2010-05-09T16:38:07Z</time>
      </trkpt>
      <trkpt lat="45.70544" lon="4.88523">
        <ele>192.40112304688</ele>
        <time>2010-05-09T16:38:13Z</time>
      </trkpt>
      <trkpt lat="45.70576" lon="4.88542">
        <ele>191.92028808594</ele>
        <time>2010-05-09T16:38:18Z</time>
      </trkpt>
      <trkpt lat="45.70594" lon="4.88547">
        <ele>192.40112304688</ele>
        <time>2010-05-09T16:38:22Z</time>
      </trkpt>
      <trkpt lat="45.70596" lon="4.8855">
        <ele>191.92028808594</ele>
        <time>2010-05-09T16:38:23Z</time>
      </trkpt>
      <trkpt lat="45.70604" lon="4.88554">
        <ele>192.40112304688</ele>
        <time>2010-05-09T16:38:28Z</time>
      </trkpt>
      <trkpt lat="45.70604" lon="4.88554">
        <ele>191.92028808594</ele>
        <time>2010-05-09T16:38:29Z</time>
      </trkpt>
      <trkpt lat="45.70608" lon="4.88544">
        <ele>195.765625</ele>
        <time>2010-05-09T16:38:36Z</time>
      </trkpt>
      <trkpt lat="45.7061" lon="4.8854">
        <ele>197.68823242188</ele>
        <time>2010-05-09T16:38:40Z</time>
      </trkpt>
      <trkpt lat="45.7062" lon="4.88547">
        <ele>198.1689453125</ele>
        <time>2010-05-09T16:38:48Z</time>
      </trkpt>
      <trkpt lat="45.70622" lon="4.88552">
        <ele>197.20751953125</ele>
        <time>2010-05-09T16:38:53Z</time>
      </trkpt>
      <trkpt lat="45.70619" lon="4.88561">
        <ele>194.32373046875</ele>
        <time>2010-05-09T16:39:02Z</time>
      </trkpt>
      <trkpt lat="45.70618" lon="4.88564">
        <ele>192.88171386719</ele>
        <time>2010-05-09T16:39:05Z</time>
      </trkpt>
      <trkpt lat="45.70618" lon="4.88567">
        <ele>191.92028808594</ele>
        <time>2010-05-09T16:39:08Z</time>
      </trkpt>
      <trkpt lat="45.70623" lon="4.88577">
        <ele>192.40112304688</ele>
        <time>2010-05-09T16:39:13Z</time>
      </trkpt>
      <trkpt lat="45.70636" lon="4.88596">
        <ele>191.92028808594</ele>
        <time>2010-05-09T16:39:18Z</time>
      </trkpt>
      <trkpt lat="45.7067" lon="4.8863">
        <ele>191.92028808594</ele>
        <time>2010-05-09T16:39:25Z</time>
      </trkpt>
      <trkpt lat="45.70721" lon="4.88667">
        <ele>191.92028808594</ele>
        <time>2010-05-09T16:39:34Z</time>
      </trkpt>
      <trkpt lat="45.70754" lon="4.88677">
        <ele>191.92028808594</ele>
        <time>2010-05-09T16:39:40Z</time>
      </trkpt>
      <trkpt lat="45.70765" lon="4.88678">
        <ele>191.92028808594</ele>
        <time>2010-05-09T16:39:42Z</time>
      </trkpt>
      <trkpt lat="45.70789" lon="4.88684">
        <ele>191.92028808594</ele>
        <time>2010-05-09T16:39:47Z</time>
      </trkpt>
      <trkpt lat="45.70811" lon="4.88679">
        <ele>192.40112304688</ele>
        <time>2010-05-09T16:39:52Z</time>
      </trkpt>
      <trkpt lat="45.70823" lon="4.88663">
        <ele>191.92028808594</ele>
        <time>2010-05-09T16:39:55Z</time>
      </trkpt>
      <trkpt lat="45.70847" lon="4.88619">
        <ele>191.92028808594</ele>
        <time>2010-05-09T16:40:02Z</time>
      </trkpt>
      <trkpt lat="45.7086" lon="4.88595">
        <ele>191.92028808594</ele>
        <time>2010-05-09T16:40:06Z</time>
      </trkpt>
      <trkpt lat="45.7088" lon="4.88561">
        <ele>191.92028808594</ele>
        <time>2010-05-09T16:40:11Z</time>
      </trkpt>
      <trkpt lat="45.70911" lon="4.88515">
        <ele>191.92028808594</ele>
        <time>2010-05-09T16:40:18Z</time>
      </trkpt>
      <trkpt lat="45.70929" lon="4.88487">
        <ele>191.43957519531</ele>
        <time>2010-05-09T16:40:22Z</time>
      </trkpt>
      <trkpt lat="45.70974" lon="4.88414">
        <ele>190.958984375</ele>
        <time>2010-05-09T16:40:32Z</time>
      </trkpt>
      <trkpt lat="45.70996" lon="4.8838">
        <ele>190.958984375</ele>
        <time>2010-05-09T16:40:37Z</time>
      </trkpt>
      <trkpt lat="45.71025" lon="4.88331">
        <ele>189.51696777344</ele>
        <time>2010-05-09T16:40:44Z</time>
      </trkpt>
      <trkpt lat="45.71038" lon="4.88311">
        <ele>190.47839355469</ele>
        <time>2010-05-09T16:40:47Z</time>
      </trkpt>
      <trkpt lat="45.71046" lon="4.88298">
        <ele>189.99768066406</ele>
        <time>2010-05-09T16:40:49Z</time>
      </trkpt>
      <trkpt lat="45.7106" lon="4.88272">
        <ele>189.99768066406</ele>
        <time>2010-05-09T16:40:53Z</time>
      </trkpt>
      <trkpt lat="45.71069" lon="4.8826">
        <ele>189.99768066406</ele>
        <time>2010-05-09T16:40:55Z</time>
      </trkpt>
      <trkpt lat="45.71094" lon="4.88221">
        <ele>189.99768066406</ele>
        <time>2010-05-09T16:41:01Z</time>
      </trkpt>
      <trkpt lat="45.71116" lon="4.88183">
        <ele>189.51696777344</ele>
        <time>2010-05-09T16:41:07Z</time>
      </trkpt>
      <trkpt lat="45.71127" lon="4.88176">
        <ele>189.03637695312</ele>
        <time>2010-05-09T16:41:11Z</time>
      </trkpt>
      <trkpt lat="45.7113" lon="4.88178">
        <ele>189.03637695312</ele>
        <time>2010-05-09T16:41:12Z</time>
      </trkpt>
      <trkpt lat="45.71136" lon="4.8818">
        <ele>189.51696777344</ele>
        <time>2010-05-09T16:41:14Z</time>
      </trkpt>
      <trkpt lat="45.71155" lon="4.88177">
        <ele>189.51696777344</ele>
        <time>2010-05-09T16:41:18Z</time>
      </trkpt>
      <trkpt lat="45.71189" lon="4.88142">
        <ele>189.51696777344</ele>
        <time>2010-05-09T16:41:25Z</time>
      </trkpt>
      <trkpt lat="45.71236" lon="4.88105">
        <ele>189.03637695312</ele>
        <time>2010-05-09T16:41:33Z</time>
      </trkpt>
      <trkpt lat="45.71293" lon="4.88059">
        <ele>189.03637695312</ele>
        <time>2010-05-09T16:41:43Z</time>
      </trkpt>
      <trkpt lat="45.71339" lon="4.88024">
        <ele>189.03637695312</ele>
        <time>2010-05-09T16:41:51Z</time>
      </trkpt>
      <trkpt lat="45.71385" lon="4.87992">
        <ele>189.03637695312</ele>
        <time>2010-05-09T16:41:59Z</time>
      </trkpt>
      <trkpt lat="45.71418" lon="4.87966">
        <ele>188.07507324219</ele>
        <time>2010-05-09T16:42:05Z</time>
      </trkpt>
      <trkpt lat="45.71442" lon="4.8796">
        <ele>188.07507324219</ele>
        <time>2010-05-09T16:42:11Z</time>
      </trkpt>
      <trkpt lat="45.71458" lon="4.87946">
        <ele>188.55578613281</ele>
        <time>2010-05-09T16:42:15Z</time>
      </trkpt>
      <trkpt lat="45.71492" lon="4.8791">
        <ele>188.55578613281</ele>
        <time>2010-05-09T16:42:22Z</time>
      </trkpt>
      <trkpt lat="45.71552" lon="4.87864">
        <ele>188.07507324219</ele>
        <time>2010-05-09T16:42:32Z</time>
      </trkpt>
      <trkpt lat="45.71587" lon="4.87836">
        <ele>188.07507324219</ele>
        <time>2010-05-09T16:42:38Z</time>
      </trkpt>
      <trkpt lat="45.71648" lon="4.87788">
        <ele>187.59436035156</ele>
        <time>2010-05-09T16:42:48Z</time>
      </trkpt>
      <trkpt lat="45.71676" lon="4.8777">
        <ele>186.15246582031</ele>
        <time>2010-05-09T16:42:53Z</time>
      </trkpt>
      <trkpt lat="45.71688" lon="4.87766">
        <ele>186.15246582031</ele>
        <time>2010-05-09T16:42:55Z</time>
      </trkpt>
      <trkpt lat="45.717" lon="4.87748">
        <ele>186.15246582031</ele>
        <time>2010-05-09T16:42:59Z</time>
      </trkpt>
      <trkpt lat="45.71708" lon="4.87737">
        <ele>185.67175292969</ele>
        <time>2010-05-09T16:43:01Z</time>
      </trkpt>
      <trkpt lat="45.71745" lon="4.87708">
        <ele>185.67175292969</ele>
        <time>2010-05-09T16:43:07Z</time>
      </trkpt>
      <trkpt lat="45.71791" lon="4.87672">
        <ele>184.22985839844</ele>
        <time>2010-05-09T16:43:14Z</time>
      </trkpt>
      <trkpt lat="45.71819" lon="4.87653">
        <ele>182.30712890625</ele>
        <time>2010-05-09T16:43:18Z</time>
      </trkpt>
      <trkpt lat="45.71862" lon="4.87617">
        <ele>179.90380859375</ele>
        <time>2010-05-09T16:43:24Z</time>
      </trkpt>
      <trkpt lat="45.71914" lon="4.87575">
        <ele>178.94262695312</ele>
        <time>2010-05-09T16:43:31Z</time>
      </trkpt>
      <trkpt lat="45.71943" lon="4.87557">
        <ele>179.42321777344</ele>
        <time>2010-05-09T16:43:35Z</time>
      </trkpt>
      <trkpt lat="45.71962" lon="4.8754">
        <ele>180.865234375</ele>
        <time>2010-05-09T16:43:38Z</time>
      </trkpt>
      <trkpt lat="45.7201" lon="4.87502">
        <ele>182.30712890625</ele>
        <time>2010-05-09T16:43:47Z</time>
      </trkpt>
      <trkpt lat="45.72034" lon="4.87483">
        <ele>183.7490234375</ele>
        <time>2010-05-09T16:43:52Z</time>
      </trkpt>
      <trkpt lat="45.72055" lon="4.87472">
        <ele>183.26843261719</ele>
        <time>2010-05-09T16:43:56Z</time>
      </trkpt>
      <trkpt lat="45.7209" lon="4.87444">
        <ele>183.7490234375</ele>
        <time>2010-05-09T16:44:03Z</time>
      </trkpt>
      <trkpt lat="45.72107" lon="4.87436">
        <ele>183.7490234375</ele>
        <time>2010-05-09T16:44:06Z</time>
      </trkpt>
      <trkpt lat="45.72128" lon="4.87418">
        <ele>183.7490234375</ele>
        <time>2010-05-09T16:44:10Z</time>
      </trkpt>
      <trkpt lat="45.72133" lon="4.87414">
        <ele>183.7490234375</ele>
        <time>2010-05-09T16:44:11Z</time>
      </trkpt>
      <trkpt lat="45.72178" lon="4.87378">
        <ele>183.7490234375</ele>
        <time>2010-05-09T16:44:19Z</time>
      </trkpt>
      <trkpt lat="45.72218" lon="4.87347">
        <ele>183.26843261719</ele>
        <time>2010-05-09T16:44:26Z</time>
      </trkpt>
      <trkpt lat="45.72259" lon="4.87314">
        <ele>182.30712890625</ele>
        <time>2010-05-09T16:44:33Z</time>
      </trkpt>
      <trkpt lat="45.723" lon="4.87283">
        <ele>182.30712890625</ele>
        <time>2010-05-09T16:44:40Z</time>
      </trkpt>
      <trkpt lat="45.72347" lon="4.87246">
        <ele>182.78784179688</ele>
        <time>2010-05-09T16:44:48Z</time>
      </trkpt>
      <trkpt lat="45.72395" lon="4.87207">
        <ele>181.82641601562</ele>
        <time>2010-05-09T16:44:56Z</time>
      </trkpt>
      <trkpt lat="45.72437" lon="4.87175">
        <ele>181.82641601562</ele>
        <time>2010-05-09T16:45:03Z</time>
      </trkpt>
      <trkpt lat="45.72482" lon="4.87143">
        <ele>181.82641601562</ele>
        <time>2010-05-09T16:45:10Z</time>
      </trkpt>
      <trkpt lat="45.72518" lon="4.8711">
        <ele>181.34582519531</ele>
        <time>2010-05-09T16:45:16Z</time>
      </trkpt>
      <trkpt lat="45.72529" lon="4.87102">
        <ele>181.34582519531</ele>
        <time>2010-05-09T16:45:18Z</time>
      </trkpt>
      <trkpt lat="45.7254" lon="4.8709">
        <ele>181.34582519531</ele>
        <time>2010-05-09T16:45:20Z</time>
      </trkpt>
      <trkpt lat="45.7259" lon="4.87049">
        <ele>180.865234375</ele>
        <time>2010-05-09T16:45:28Z</time>
      </trkpt>
      <trkpt lat="45.72663" lon="4.86989">
        <ele>179.90380859375</ele>
        <time>2010-05-09T16:45:39Z</time>
      </trkpt>
      <trkpt lat="45.72736" lon="4.86934">
        <ele>180.38452148438</ele>
        <time>2010-05-09T16:45:50Z</time>
      </trkpt>
      <trkpt lat="45.72805" lon="4.86881">
        <ele>179.90380859375</ele>
        <time>2010-05-09T16:46:00Z</time>
      </trkpt>
      <trkpt lat="45.72873" lon="4.86829">
        <ele>178.94262695312</ele>
        <time>2010-05-09T16:46:10Z</time>
      </trkpt>
      <trkpt lat="45.7294" lon="4.86779">
        <ele>179.42321777344</ele>
        <time>2010-05-09T16:46:20Z</time>
      </trkpt>
      <trkpt lat="45.72992" lon="4.86738">
        <ele>179.42321777344</ele>
        <time>2010-05-09T16:46:28Z</time>
      </trkpt>
      <trkpt lat="45.73038" lon="4.86701">
        <ele>179.90380859375</ele>
        <time>2010-05-09T16:46:35Z</time>
      </trkpt>
      <trkpt lat="45.73083" lon="4.86664">
        <ele>179.42321777344</ele>
        <time>2010-05-09T16:46:42Z</time>
      </trkpt>
      <trkpt lat="45.73149" lon="4.86613">
        <ele>178.94262695312</ele>
        <time>2010-05-09T16:46:52Z</time>
      </trkpt>
      <trkpt lat="45.73194" lon="4.86578">
        <ele>178.4619140625</ele>
        <time>2010-05-09T16:46:59Z</time>
      </trkpt>
      <trkpt lat="45.73221" lon="4.86555">
        <ele>178.94262695312</ele>
        <time>2010-05-09T16:47:04Z</time>
      </trkpt>
      <trkpt lat="45.73246" lon="4.86533">
        <ele>178.94262695312</ele>
        <time>2010-05-09T16:47:09Z</time>
      </trkpt>
      <trkpt lat="45.73262" lon="4.86525">
        <ele>178.4619140625</ele>
        <time>2010-05-09T16:47:14Z</time>
      </trkpt>
      <trkpt lat="45.73272" lon="4.86519">
        <ele>178.94262695312</ele>
        <time>2010-05-09T16:47:18Z</time>
      </trkpt>
      <trkpt lat="45.73292" lon="4.86503">
        <ele>178.4619140625</ele>
        <time>2010-05-09T16:47:23Z</time>
      </trkpt>
      <trkpt lat="45.73318" lon="4.86484">
        <ele>178.4619140625</ele>
        <time>2010-05-09T16:47:28Z</time>
      </trkpt>
      <trkpt lat="45.73356" lon="4.86455">
        <ele>179.42321777344</ele>
        <time>2010-05-09T16:47:35Z</time>
      </trkpt>
      <trkpt lat="45.73401" lon="4.86416">
        <ele>179.90380859375</ele>
        <time>2010-05-09T16:47:43Z</time>
      </trkpt>
      <trkpt lat="45.73442" lon="4.86384">
        <ele>179.42321777344</ele>
        <time>2010-05-09T16:47:50Z</time>
      </trkpt>
      <trkpt lat="45.73457" lon="4.86372">
        <ele>179.42321777344</ele>
        <time>2010-05-09T16:47:53Z</time>
      </trkpt>
      <trkpt lat="45.73471" lon="4.86364">
        <ele>178.94262695312</ele>
        <time>2010-05-09T16:47:56Z</time>
      </trkpt>
      <trkpt lat="45.73501" lon="4.86342">
        <ele>179.42321777344</ele>
        <time>2010-05-09T16:48:03Z</time>
      </trkpt>
      <trkpt lat="45.73532" lon="4.86317">
        <ele>178.4619140625</ele>
        <time>2010-05-09T16:48:09Z</time>
      </trkpt>
      <trkpt lat="45.73583" lon="4.86277">
        <ele>177.98120117188</ele>
        <time>2010-05-09T16:48:17Z</time>
      </trkpt>
      <trkpt lat="45.73637" lon="4.86233">
        <ele>177.50061035156</ele>
        <time>2010-05-09T16:48:25Z</time>
      </trkpt>
      <trkpt lat="45.7368" lon="4.862">
        <ele>177.02001953125</ele>
        <time>2010-05-09T16:48:32Z</time>
      </trkpt>
      <trkpt lat="45.73712" lon="4.86175">
        <ele>177.02001953125</ele>
        <time>2010-05-09T16:48:38Z</time>
      </trkpt>
      <trkpt lat="45.73737" lon="4.86155">
        <ele>176.05859375</ele>
        <time>2010-05-09T16:48:44Z</time>
      </trkpt>
      <trkpt lat="45.73778" lon="4.86124">
        <ele>177.02001953125</ele>
        <time>2010-05-09T16:48:51Z</time>
      </trkpt>
      <trkpt lat="45.73823" lon="4.8609">
        <ele>177.02001953125</ele>
        <time>2010-05-09T16:48:58Z</time>
      </trkpt>
      <trkpt lat="45.73881" lon="4.86042">
        <ele>177.50061035156</ele>
        <time>2010-05-09T16:49:08Z</time>
      </trkpt>
      <trkpt lat="45.73922" lon="4.86011">
        <ele>177.50061035156</ele>
        <time>2010-05-09T16:49:16Z</time>
      </trkpt>
      <trkpt lat="45.73931" lon="4.86005">
        <ele>177.50061035156</ele>
        <time>2010-05-09T16:49:18Z</time>
      </trkpt>
      <trkpt lat="45.7395" lon="4.85992">
        <ele>177.50061035156</ele>
        <time>2010-05-09T16:49:23Z</time>
      </trkpt>
      <trkpt lat="45.73956" lon="4.85985">
        <ele>177.98120117188</ele>
        <time>2010-05-09T16:49:25Z</time>
      </trkpt>
      <trkpt lat="45.73961" lon="4.85976">
        <ele>177.98120117188</ele>
        <time>2010-05-09T16:49:27Z</time>
      </trkpt>
      <trkpt lat="45.73972" lon="4.85968">
        <ele>177.50061035156</ele>
        <time>2010-05-09T16:49:31Z</time>
      </trkpt>
      <trkpt lat="45.73974" lon="4.85968">
        <ele>177.98120117188</ele>
        <time>2010-05-09T16:49:36Z</time>
      </trkpt>
      <trkpt lat="45.73974" lon="4.85967">
        <ele>177.98120117188</ele>
        <time>2010-05-09T16:49:37Z</time>
      </trkpt>
      <trkpt lat="45.7398" lon="4.85967">
        <ele>177.50061035156</ele>
        <time>2010-05-09T16:49:41Z</time>
      </trkpt>
      <trkpt lat="45.73999" lon="4.85976">
        <ele>178.4619140625</ele>
        <time>2010-05-09T16:49:46Z</time>
      </trkpt>
      <trkpt lat="45.7402" lon="4.85986">
        <ele>178.4619140625</ele>
        <time>2010-05-09T16:49:50Z</time>
      </trkpt>
      <trkpt lat="45.7403" lon="4.85992">
        <ele>177.98120117188</ele>
        <time>2010-05-09T16:49:52Z</time>
      </trkpt>
      <trkpt lat="45.74071" lon="4.86012">
        <ele>178.4619140625</ele>
        <time>2010-05-09T16:49:59Z</time>
      </trkpt>
      <trkpt lat="45.74122" lon="4.86035">
        <ele>177.98120117188</ele>
        <time>2010-05-09T16:50:08Z</time>
      </trkpt>
      <trkpt lat="45.74151" lon="4.86042">
        <ele>177.50061035156</ele>
        <time>2010-05-09T16:50:14Z</time>
      </trkpt>
      <trkpt lat="45.74157" lon="4.86048">
        <ele>177.02001953125</ele>
        <time>2010-05-09T16:50:17Z</time>
      </trkpt>
      <trkpt lat="45.74158" lon="4.86074">
        <ele>177.02001953125</ele>
        <time>2010-05-09T16:50:22Z</time>
      </trkpt>
      <trkpt lat="45.74152" lon="4.86099">
        <ele>177.50061035156</ele>
        <time>2010-05-09T16:50:25Z</time>
      </trkpt>
      <trkpt lat="45.74152" lon="4.86129">
        <ele>177.02001953125</ele>
        <time>2010-05-09T16:50:29Z</time>
      </trkpt>
      <trkpt lat="45.74149" lon="4.8614">
        <ele>177.02001953125</ele>
        <time>2010-05-09T16:50:31Z</time>
      </trkpt>
      <trkpt lat="45.74139" lon="4.86165">
        <ele>177.02001953125</ele>
        <time>2010-05-09T16:50:35Z</time>
      </trkpt>
      <trkpt lat="45.74139" lon="4.8619">
        <ele>176.53930664062</ele>
        <time>2010-05-09T16:50:39Z</time>
      </trkpt>
      <trkpt lat="45.7415" lon="4.86203">
        <ele>176.53930664062</ele>
        <time>2010-05-09T16:50:41Z</time>
      </trkpt>
      <trkpt lat="45.74187" lon="4.86221">
        <ele>176.53930664062</ele>
        <time>2010-05-09T16:50:48Z</time>
      </trkpt>
      <trkpt lat="45.74229" lon="4.86239">
        <ele>176.53930664062</ele>
        <time>2010-05-09T16:50:55Z</time>
      </trkpt>
      <trkpt lat="45.7426" lon="4.86256">
        <ele>177.02001953125</ele>
        <time>2010-05-09T16:51:00Z</time>
      </trkpt>
      <trkpt lat="45.74312" lon="4.8628">
        <ele>176.53930664062</ele>
        <time>2010-05-09T16:51:08Z</time>
      </trkpt>
      <trkpt lat="45.74367" lon="4.86314">
        <ele>176.53930664062</ele>
        <time>2010-05-09T16:51:16Z</time>
      </trkpt>
      <trkpt lat="45.74406" lon="4.86335">
        <ele>176.53930664062</ele>
        <time>2010-05-09T16:51:22Z</time>
      </trkpt>
      <trkpt lat="45.74449" lon="4.86356">
        <ele>176.53930664062</ele>
        <time>2010-05-09T16:51:29Z</time>
      </trkpt>
      <trkpt lat="45.74494" lon="4.8638">
        <ele>176.53930664062</ele>
        <time>2010-05-09T16:51:35Z</time>
      </trkpt>
      <trkpt lat="45.74535" lon="4.86399">
        <ele>176.53930664062</ele>
        <time>2010-05-09T16:51:40Z</time>
      </trkpt>
      <trkpt lat="45.74577" lon="4.86418">
        <ele>176.05859375</ele>
        <time>2010-05-09T16:51:46Z</time>
      </trkpt>
      <trkpt lat="45.7459" lon="4.86432">
        <ele>176.53930664062</ele>
        <time>2010-05-09T16:51:48Z</time>
      </trkpt>
      <trkpt lat="45.74616" lon="4.86439">
        <ele>175.57788085938</ele>
        <time>2010-05-09T16:51:53Z</time>
      </trkpt>
      <trkpt lat="45.74659" lon="4.86451">
        <ele>176.05859375</ele>
        <time>2010-05-09T16:51:59Z</time>
      </trkpt>
      <trkpt lat="45.74702" lon="4.86485">
        <ele>176.53930664062</ele>
        <time>2010-05-09T16:52:06Z</time>
      </trkpt>
      <trkpt lat="45.74728" lon="4.86501">
        <ele>177.02001953125</ele>
        <time>2010-05-09T16:52:11Z</time>
      </trkpt>
      <trkpt lat="45.74743" lon="4.86515">
        <ele>177.02001953125</ele>
        <time>2010-05-09T16:52:15Z</time>
      </trkpt>
      <trkpt lat="45.74756" lon="4.86519">
        <ele>176.53930664062</ele>
        <time>2010-05-09T16:52:20Z</time>
      </trkpt>
      <trkpt lat="45.74762" lon="4.86522">
        <ele>176.53930664062</ele>
        <time>2010-05-09T16:52:24Z</time>
      </trkpt>
      <trkpt lat="45.74775" lon="4.86527">
        <ele>177.02001953125</ele>
        <time>2010-05-09T16:52:27Z</time>
      </trkpt>
      <trkpt lat="45.74804" lon="4.86538">
        <ele>176.53930664062</ele>
        <time>2010-05-09T16:52:32Z</time>
      </trkpt>
      <trkpt lat="45.74826" lon="4.86549">
        <ele>176.53930664062</ele>
        <time>2010-05-09T16:52:36Z</time>
      </trkpt>
      <trkpt lat="45.74837" lon="4.86568">
        <ele>176.53930664062</ele>
        <time>2010-05-09T16:52:40Z</time>
      </trkpt>
      <trkpt lat="45.74836" lon="4.86574">
        <ele>175.57788085938</ele>
        <time>2010-05-09T16:52:41Z</time>
      </trkpt>
      <trkpt lat="45.74832" lon="4.86591">
        <ele>176.05859375</ele>
        <time>2010-05-09T16:52:44Z</time>
      </trkpt>
    </trkseg>
  </trk>
</gpx>